# Wetter Temperatur Luftdruck Luftfeuchtigkeit Sichtweite Windgeschwindigkeit Windrichtung Zeit
1 Clouds 11 1016 79 0 2.33 28 07:18 14.07.2020
2 Clouds 10 1015 76 0 2.33 28 06:44 14.07.2020
3 Clouds 11 1015 76 0 2.7 26 06:24 14.07.2020
4 Clouds 12 1015 75 0 2.85 25 05:33 14.07.2020
5 Clouds 12 1016 76 0 2.85 25 04:37 14.07.2020
6 Clouds 12 1016 72 0 2.96 17 03:36 14.07.2020
7 Clouds 12 1016 74 0 2.87 18 02:49 14.07.2020
8 Clouds 14 1024 44 0 2.98 16 02:24 14.07.2020
9 Clouds 14 1024 42 0 2.83 16 01:36 14.07.2020
10 Clouds 16 1024 39 0 2.9 19 00:52 14.07.2020
11 Clouds 17 1020 93 0 2.9 19 00:33 14.07.2020
12 Clouds 13 1021 73 0 1.79 6 23:59 13.07.2020
13 Clouds 13 1021 77 0 0.45 20 23:37 13.07.2020
14 Clouds 14 1021 79 0 0.89 31 23:18 13.07.2020
15 Clouds 14 1021 77 0 0.89 7 22:41 13.07.2020
16 Clouds 14 1017 70 0 2.91 11 22:21 13.07.2020
17 Clouds 15 1021 82 0 0.45 28 21:57 13.07.2020
18 Clouds 15 1021 82 0 0.45 28 21:57 13.07.2020
19 Clouds 16 1016 69 0 2.91 11 21:38 13.07.2020
20 Clouds 16 1016 68 0 2.39 3 21:20 13.07.2020
21 Clouds 16 1021 88 0 0.45 340 20:57 13.07.2020
22 Clouds 17 1021 60 10000 3.6 80 20:38 13.07.2020
23 Clouds 17 1021 60 10000 3.6 80 20:20 13.07.2020
24 Clouds 18 1021 60 10000 3.6 80 19:45 13.07.2020
25 Clouds 18 1021 60 10000 3.6 80 19:26 13.07.2020
26 Clouds 19 1020 53 10000 3.1 0 18:59 13.07.2020
27 Clouds 19 1019 57 10000 9.3 200 18:40 13.07.2020
28 Clouds 21 1019 53 10000 7.7 200 18:21 13.07.2020
29 Clouds 19 1019 54 10000 7.7 190 17:56 13.07.2020
30 Clouds 18 1019 53 10000 7.7 200 17:56 13.07.2020
31 Clouds 20 1019 54 10000 7.7 190 17:38 13.07.2020
32 Clouds 21 1019 51 10000 8.2 200 17:19 13.07.2020
33 Clouds 22 1019 51 10000 8.2 200 16:55 13.07.2020
34 Clouds 22 1020 51 10000 6.2 200 16:36 13.07.2020
35 Clouds 22 1020 51 10000 5.1 190 16:18 13.07.2020
36 Clouds 22 1020 65 10000 2.6 220 15:41 13.07.2020
37 Rain 21 1021 64 10000 2.6 0 15:21 13.07.2020
38 Rain 21 1021 64 10000 2.6 0 14:59 13.07.2020
39 Thunderstorm 24 1021 60 10000 2.1 0 14:39 13.07.2020
40 Thunderstorm 26 1021 54 10000 5.7 200 14:21 13.07.2020
41 Thunderstorm 22 1021 54 10000 5.7 200 13:56 13.07.2020
42 Clouds 22 1021 47 10000 3.6 210 13:38 13.07.2020
43 Clouds 21 1021 50 10000 4.1 230 13:20 13.07.2020
44 Clouds 21 1022 53 10000 3.1 220 12:43 13.07.2020
45 Clouds 21 1022 50 10000 1.5 210 12:23 13.07.2020
46 Clouds 20 1022 50 10000 1.5 210 11:58 13.07.2020
47 Clouds 19 1022 64 10000 1.5 130 11:39 13.07.2020
48 Clouds 19 1022 64 10000 1.5 130 11:39 13.07.2020
49 Rain 19 1022 80 0 0.67 339 11:20 13.07.2020
50 Rain 15 1018 81 0 0.67 339 10:40 13.07.2020
51 Rain 15 1018 85 0 0.71 309 10:20 13.07.2020
52 Rain 14 1022 74 0 0.71 309 09:43 13.07.2020
53 Rain 14 1018 89 0 0.39 73 09:25 13.07.2020
54 Rain 14 1018 90 0 0.39 73 08:53 13.07.2020
55 Rain 14 1018 90 0 0.39 73 08:34 13.07.2020
56 Clouds 13 1022 71 0 1.62 41 07:44 13.07.2020
57 Clouds 12 1018 90 0 2.16 29 07:20 13.07.2020
58 Clouds 13 1017 91 0 2.16 29 06:44 13.07.2020
59 Clouds 13 1018 90 0 2.08 30 06:22 13.07.2020
60 Clouds 14 1017 88 0 1.9 30 04:43 13.07.2020
61 Rain 15 1017 89 0 0.89 36 01:57 13.07.2020
62 Rain 15 1018 88 0 1.5 36 01:29 13.07.2020
63 Rain 16 1018 87 0 1.5 36 00:59 13.07.2020
64 Rain 16 1018 86 0 1.07 3 00:27 13.07.2020
65 Rain 16 1018 86 0 1.07 3 23:58 12.07.2020
66 Rain 16 1018 85 0 1.07 3 23:40 12.07.2020
67 Clouds 16 1017 85 0 0.54 283 23:21 12.07.2020
68 Clouds 17 1017 84 0 0.54 283 22:54 12.07.2020
69 Clouds 17 1017 85 0 0.54 283 22:36 12.07.2020
70 Rain 17 1017 85 0 1.48 214 22:18 12.07.2020
71 Rain 18 1017 83 0 1.48 214 21:42 12.07.2020
72 Rain 18 1017 80 0 0.65 277 21:20 12.07.2020
73 Rain 19 1017 74 0 0.32 152 20:58 12.07.2020
74 Clouds 20 1022 50 10000 1.5 0 20:40 12.07.2020
75 Clouds 20 1022 50 10000 1.5 0 20:20 12.07.2020
76 Clouds 20 1022 50 10000 1.5 0 19:55 12.07.2020
77 Clouds 21 1022 50 10000 1.5 0 19:37 12.07.2020
78 Clouds 20 1022 53 10000 2.1 90 19:18 12.07.2020
79 Clouds 20 1021 57 10000 3.1 60 18:42 12.07.2020
80 Clouds 20 1021 53 10000 4.1 40 18:19 12.07.2020
81 Clouds 19 1021 53 10000 4.1 40 17:57 12.07.2020
82 Clouds 19 1022 53 10000 1.5 30 17:36 12.07.2020
83 Clouds 19 1022 53 10000 2.1 360 17:18 12.07.2020
84 Clouds 19 1022 44 10000 5.7 320 16:42 12.07.2020
85 Clouds 19 1022 50 10000 4.6 210 16:20 12.07.2020
86 Clouds 19 1022 50 10000 5.7 190 15:43 12.07.2020
87 Clouds 19 1022 50 10000 5.7 190 15:24 12.07.2020
88 Clouds 21 1021 48 10000 4.6 200 14:45 12.07.2020
89 Clouds 21 1021 48 10000 4.6 200 14:27 12.07.2020
90 Clouds 25 1022 57 10000 2.1 0 13:56 12.07.2020
91 Clouds 25 1022 51 10000 4.1 220 13:56 12.07.2020
92 Clouds 23 1022 57 10000 2.1 0 13:38 12.07.2020
93 Clouds 23 1022 57 10000 1.5 0 13:19 12.07.2020
94 Clouds 23 1022 60 10000 1.5 0 12:42 12.07.2020
95 Clouds 20 1022 60 10000 1.5 0 12:20 12.07.2020
96 Clouds 20 1022 60 10000 1.5 0 11:59 12.07.2020
97 Clouds 19 1022 68 10000 1.5 100 11:41 12.07.2020
98 Rain 19 1015 74 0 2.61 214 11:19 12.07.2020
99 Rain 18 1016 82 0 2.61 214 10:42 12.07.2020
100 Clear 17 1016 81 0 1.88 212 10:21 12.07.2020
101 Clear 16 1016 88 0 1.88 212 09:43 12.07.2020
102 Clear 16 1016 91 0 1.27 206 09:24 12.07.2020
103 Clear 15 1021 72 0 1.27 206 08:59 12.07.2020
104 Clear 15 1016 93 0 1.27 206 08:40 12.07.2020
105 Clear 14 1016 93 0 0.37 190 08:22 12.07.2020
106 Clear 14 1016 93 0 0.37 190 07:51 12.07.2020
107 Clear 14 1016 92 0 0.37 190 07:31 12.07.2020
108 Clear 14 1020 72 0 1.79 181 06:57 12.07.2020
109 Clear 14 1016 91 0 0.03 288 06:38 12.07.2020
110 Clear 14 1016 91 0 0.17 201 06:19 12.07.2020
111 Clear 15 1015 88 0 0.11 73 04:59 12.07.2020
112 Clear 16 1015 90 0 0.26 204 04:29 12.07.2020
113 Clear 18 1015 93 0 0.26 204 03:46 12.07.2020
114 Clear 17 1022 40 0 0.31 199 03:28 12.07.2020
115 Clouds 17 1016 92 0 0.09 151 02:26 12.07.2020
116 Clouds 19 1016 92 0 0.2 155 01:31 12.07.2020
117 Clouds 18 1024 35 0 0.24 142 00:39 12.07.2020
118 Clouds 18 1024 35 0 0.32 112 00:21 12.07.2020
119 Clouds 19 1024 33 0 0.32 112 23:41 11.07.2020
120 Clouds 19 1015 87 0 0.79 32 23:23 11.07.2020
121 Clouds 19 1024 30 0 0.79 32 23:00 11.07.2020
122 Clouds 19 1015 83 0 0.79 32 22:41 11.07.2020
123 Clouds 19 1024 29 0 1.01 15 22:23 11.07.2020
124 Clouds 19 1023 27 0 0.89 20 21:56 11.07.2020
125 Clouds 20 1023 26 0 1.01 15 21:37 11.07.2020
126 Rain 19 1021 70 0 0.59 348 21:19 11.07.2020
127 Rain 19 1021 69 0 0.45 4 20:54 11.07.2020
128 Clouds 22 1019 51 10000 4.1 210 20:36 11.07.2020
129 Clouds 22 1019 51 10000 4.1 210 20:18 11.07.2020
130 Clouds 22 1019 51 10000 4.1 210 20:18 11.07.2020
131 Clouds 22 1019 51 10000 4.1 210 19:44 11.07.2020
132 Clouds 23 1019 47 10000 5.1 210 19:26 11.07.2020
133 Clouds 23 1019 51 10000 5.1 210 18:57 11.07.2020
134 Clouds 22 1019 51 10000 5.1 210 18:39 11.07.2020
135 Clouds 23 1019 45 10000 5.7 190 18:20 11.07.2020
136 Clouds 23 1019 45 10000 5.7 190 17:56 11.07.2020
137 Clouds 23 1019 45 10000 6.2 200 17:38 11.07.2020
138 Clouds 23 1019 42 10000 6.2 190 17:19 11.07.2020
139 Clouds 22 1019 45 10000 6.7 200 16:43 11.07.2020
140 Clouds 23 1019 45 10000 6.7 200 16:24 11.07.2020
141 Clouds 23 1019 39 10000 6.2 200 15:58 11.07.2020
142 Clouds 23 1019 42 10000 6.2 190 15:40 11.07.2020
143 Clouds 23 1020 45 10000 5.1 200 15:20 11.07.2020
144 Clouds 22 1020 45 10000 5.1 200 14:57 11.07.2020
145 Clouds 22 1020 45 10000 4.6 200 14:37 11.07.2020
146 Clouds 24 1020 45 10000 4.1 200 14:19 11.07.2020
147 Clouds 24 1020 50 10000 1.5 0 13:42 11.07.2020
148 Clouds 24 1020 53 10000 1.5 0 13:22 11.07.2020
149 Clouds 23 1020 53 10000 1.5 0 12:57 11.07.2020
150 Clouds 23 1021 53 10000 1 0 12:39 11.07.2020
151 Clouds 19 1021 56 10000 1 0 12:20 11.07.2020
152 Clouds 18 1021 60 10000 1 0 11:42 11.07.2020
153 Clear 17 1020 77 0 1.81 231 11:21 11.07.2020
154 Clear 16 1020 76 0 1.81 231 10:57 11.07.2020
155 Clear 16 1016 84 0 1.81 231 10:39 11.07.2020
156 Clear 15 1016 85 0 1.34 239 10:21 11.07.2020
157 Clear 14 1020 74 0 1.34 239 09:43 11.07.2020
158 Clear 14 1016 89 0 0.77 283 09:20 11.07.2020
159 Clear 14 1019 73 0 0.77 283 08:49 11.07.2020
160 Clear 14 1016 91 0 0.92 2 08:31 11.07.2020
161 Clear 13 1016 92 0 0.92 2 07:59 11.07.2020
162 Clear 13 1016 92 0 0.92 2 07:40 11.07.2020
163 Clear 13 1016 92 0 1.11 1 07:19 11.07.2020
164 Clear 13 1019 72 0 1.11 1 06:46 11.07.2020
165 Clear 13 1016 91 0 0.83 4 06:18 11.07.2020
166 Clear 14 1015 89 0 1.08 17 05:20 11.07.2020
167 Clear 14 1015 88 0 1.08 17 04:53 11.07.2020
168 Clear 14 1015 88 0 1.08 17 04:31 11.07.2020
169 Clear 15 1016 89 0 1.78 16 02:57 11.07.2020
170 Clear 15 1016 87 0 1.78 16 02:35 11.07.2020
171 Clouds 15 1016 87 0 1.71 15 01:27 11.07.2020
172 Clouds 14 1020 73 0 1.71 15 00:58 11.07.2020
173 Clouds 16 1016 87 0 1.71 15 00:38 11.07.2020
174 Clouds 16 1016 85 0 1.54 14 00:19 11.07.2020
175 Clouds 16 1015 86 0 1.54 14 23:46 10.07.2020
176 Clouds 16 1021 94 0 1.04 12 23:27 10.07.2020
177 Clouds 16 1015 87 0 1.04 12 22:59 10.07.2020
178 Clouds 16 1015 88 0 1.04 12 22:41 10.07.2020
179 Clouds 16 1015 88 0 0.28 311 22:19 10.07.2020
180 Clouds 16 1014 87 0 0.28 311 21:40 10.07.2020
181 Rain 16 1014 84 0 0.41 316 21:21 10.07.2020
182 Rain 16 1020 66 0 1.79 205 20:58 10.07.2020
183 Rain 17 1020 66 0 0.41 316 20:40 10.07.2020
184 Clouds 18 1019 46 10000 3.6 310 20:20 10.07.2020
185 Clouds 18 1019 46 10000 3.6 310 19:57 10.07.2020
186 Clouds 18 1019 46 10000 3.6 310 19:38 10.07.2020
187 Clouds 18 1020 47 10000 1 0 19:19 10.07.2020
188 Clouds 19 1019 53 10000 2.6 210 18:41 10.07.2020
189 Rain 19 1019 56 10000 5.1 210 18:19 10.07.2020
190 Rain 20 1019 56 10000 5.1 210 17:56 10.07.2020
191 Clouds 21 1018 41 10000 6.2 170 17:38 10.07.2020
192 Clouds 23 1017 30 10000 7.2 200 17:19 10.07.2020
193 Clouds 23 1017 33 10000 5.7 210 16:42 10.07.2020
194 Clouds 23 1017 33 10000 6.2 200 16:20 10.07.2020
195 Clouds 22 1017 33 10000 5.7 200 15:45 10.07.2020
196 Clouds 24 1017 33 10000 5.7 200 15:23 10.07.2020
197 Clouds 23 1018 37 10000 4.6 200 14:55 10.07.2020
198 Clouds 26 1018 39 10000 2.6 210 14:37 10.07.2020
199 Clouds 24 1018 37 10000 1.5 0 14:19 10.07.2020
200 Clouds 25 1018 37 10000 1.5 0 13:56 10.07.2020
201 Clouds 24 1019 42 10000 1 0 13:37 10.07.2020
202 Clouds 24 1019 42 10000 1 0 13:37 10.07.2020
203 Clouds 24 1019 42 10000 1 0 13:37 10.07.2020
204 Clouds 24 1019 53 10000 1.5 0 13:19 10.07.2020
205 Clouds 23 1019 57 10000 1.5 0 12:43 10.07.2020
206 Clouds 21 1019 57 10000 1.5 0 12:24 10.07.2020
207 Clouds 20 1019 60 10000 1.5 60 11:59 10.07.2020
208 Clouds 19 1020 68 10000 1 0 11:38 10.07.2020
209 Rain 19 1012 63 0 0.45 250 11:19 10.07.2020
210 Rain 19 1013 71 0 0.45 105 10:54 10.07.2020
211 Rain 16 1013 76 0 1.85 188 10:36 10.07.2020
212 Rain 17 1013 78 0 1.33 159 10:18 10.07.2020
213 Rain 16 1013 83 0 1.33 159 09:37 10.07.2020
214 Clouds 16 1020 67 0 2.24 177 09:19 10.07.2020
215 Clouds 16 1013 84 0 0.78 94 08:56 10.07.2020
216 Clouds 15 1013 87 0 0.78 94 08:37 10.07.2020
217 Clouds 15 1013 83 0 0.89 117 08:19 10.07.2020
218 Clouds 15 1013 79 0 0.89 117 07:41 10.07.2020
219 Rain 15 1013 80 0 0.62 112 07:22 10.07.2020
220 Rain 15 1013 82 0 0.62 112 06:49 10.07.2020
221 Clear 15 1013 80 0 0.69 96 05:55 10.07.2020
222 Clear 15 1012 80 0 0.81 145 04:33 10.07.2020
223 Clear 15 1021 69 0 1.34 170 03:31 10.07.2020
224 Clouds 17 1021 68 0 1.55 40 02:51 10.07.2020
225 Clouds 16 1021 67 0 1.33 46 01:48 10.07.2020
226 Rain 16 1022 67 0 0.45 172 00:47 10.07.2020
227 Rain 17 1022 67 0 0.45 204 00:19 10.07.2020
228 Rain 18 1022 68 0 1.04 38 23:46 09.07.2020
229 Rain 18 1022 68 0 0.37 67 23:21 09.07.2020
230 Rain 18 1022 68 0 1.34 197 22:58 09.07.2020
231 Rain 18 1022 68 0 0.37 67 22:40 09.07.2020
232 Rain 18 1022 48 0 1.49 38 22:21 09.07.2020
233 Rain 18 1022 78 0 0.89 359 21:56 09.07.2020
234 Rain 19 1011 55 0 0.45 188 21:38 09.07.2020
235 Rain 19 1011 54 0 0.93 85 21:19 09.07.2020
236 Rain 20 1021 61 0 0.93 85 20:44 09.07.2020
237 Clouds 22 1018 39 10000 9.3 60 20:25 09.07.2020
238 Clouds 23 1018 39 10000 9.3 60 19:58 09.07.2020
239 Clouds 23 1018 39 10000 9.3 60 19:40 09.07.2020
240 Clouds 23 1018 37 10000 7.7 50 19:20 09.07.2020
241 Clouds 25 1018 33 10000 4.1 200 18:42 09.07.2020
242 Clouds 25 1019 31 10000 3.6 210 18:21 09.07.2020
243 Clouds 23 1019 31 10000 4.1 200 17:55 09.07.2020
244 Clouds 23 1019 31 10000 4.1 200 17:37 09.07.2020
245 Clouds 24 1019 33 10000 4.1 190 17:18 09.07.2020
246 Clouds 24 1019 33 10000 4.1 190 16:55 09.07.2020
247 Clouds 25 1019 35 10000 4.6 210 16:36 09.07.2020
248 Clouds 25 1019 38 10000 4.6 190 16:18 09.07.2020
249 Clouds 25 1020 38 10000 5.7 190 15:45 09.07.2020
250 Clouds 28 1020 38 10000 5.7 190 15:27 09.07.2020
251 Clouds 29 1020 38 10000 5.7 200 14:59 09.07.2020
252 Clouds 29 1020 40 10000 3.1 220 14:41 09.07.2020
253 Clouds 30 1020 40 10000 3.1 220 14:22 09.07.2020
254 Clouds 29 1020 45 10000 1.5 110 13:58 09.07.2020
255 Clouds 28 1021 48 10000 1.5 120 13:40 09.07.2020
256 Clouds 28 1021 47 10000 1.5 0 13:20 09.07.2020
257 Clouds 27 1021 47 10000 1.5 0 12:57 09.07.2020
258 Clouds 27 1021 50 10000 2.1 0 12:38 09.07.2020
259 Clouds 22 1021 57 10000 1.5 0 12:19 09.07.2020
260 Clouds 21 1021 60 10000 1.5 60 11:43 09.07.2020
261 Clouds 21 1021 60 10000 1.5 60 11:24 09.07.2020
262 Clouds 20 1022 50 0 2.23 216 10:58 09.07.2020
263 Clouds 20 1015 72 0 2.23 216 10:40 09.07.2020
264 Clouds 20 1015 72 0 2.23 216 10:40 09.07.2020
265 Clouds 20 1015 77 0 1.98 206 10:22 09.07.2020
266 Clouds 19 1021 51 0 1.98 206 09:55 09.07.2020
267 Clouds 19 1021 51 0 2.03 212 09:37 09.07.2020
268 Clouds 19 1022 50 0 1.44 197 09:18 09.07.2020
269 Clouds 16 1021 50 0 1.44 197 08:43 09.07.2020
270 Clouds 16 1021 50 0 0.85 83 08:24 09.07.2020
271 Clouds 16 1021 48 0 0.85 83 07:45 09.07.2020
272 Clouds 15 1021 50 0 0.83 96 07:22 09.07.2020
273 Clouds 15 1021 56 0 0.83 96 06:40 09.07.2020
274 Clouds 16 1021 39 0 1.08 70 06:19 09.07.2020
275 Clouds 16 1019 93 0 2.45 38 04:29 09.07.2020
276 Clouds 17 1021 34 0 2.87 38 03:24 09.07.2020
277 Clouds 17 1021 32 0 1.8 43 02:18 09.07.2020
278 Clouds 18 1015 79 0 1.2 24 01:23 09.07.2020
279 Clouds 18 1021 27 0 1.2 24 00:43 09.07.2020
280 Clouds 18 1021 26 0 0.12 334 00:23 09.07.2020
281 Clouds 19 1021 22 0 0.12 334 23:44 08.07.2020
282 Rain 19 1021 23 0 1.12 200 23:26 08.07.2020
283 Rain 19 1021 23 0 1.12 200 22:57 08.07.2020
284 Rain 20 1021 19 0 1.12 200 22:38 08.07.2020
285 Rain 19 1021 19 0 1.12 200 22:38 08.07.2020
286 Rain 21 1015 65 0 1.74 221 22:20 08.07.2020
287 Rain 20 1019 88 0 1.74 221 21:56 08.07.2020
288 Rain 20 1019 88 0 1.74 221 21:37 08.07.2020
289 Rain 22 1021 41 0 2.13 217 21:19 08.07.2020
290 Rain 22 1021 41 0 2.13 217 20:41 08.07.2020
291 Rain 23 1021 42 0 1.1 229 20:23 08.07.2020
292 Rain 23 1020 41 0 1.34 25 19:56 08.07.2020
293 Rain 24 1020 42 0 0.89 10 19:37 08.07.2020
294 Clear 24 1020 43 0 0.45 21 19:19 08.07.2020
295 Clear 26 1021 42 0 0.45 38 18:42 08.07.2020
296 Clear 25 1021 44 0 1.34 13 18:21 08.07.2020
297 Clear 25 1021 44 0 0.45 349 17:57 08.07.2020
298 Clear 25 1021 42 0 0.89 31 17:39 08.07.2020
299 Clear 25 1021 41 0 0.89 20 17:20 08.07.2020
300 Clear 27 1021 41 0 1.34 7 16:57 08.07.2020
301 Clear 26 1021 40 0 0.89 353 16:38 08.07.2020
302 Clear 29 1020 5 0 2.68 280 16:18 08.07.2020
303 Clear 29 1020 6 0 2.68 297 15:57 08.07.2020
304 Clear 29 1020 7 0 2.24 284 15:38 08.07.2020
305 Clear 28 1013 46 0 2.81 226 15:19 08.07.2020
306 Clear 28 1020 6 0 3.13 263 14:42 08.07.2020
307 Clear 28 1014 47 0 2.86 222 14:21 08.07.2020
308 Clear 28 1014 54 0 2.86 222 13:46 08.07.2020
309 Clear 27 1021 7 0 2.68 258 13:28 08.07.2020
310 Clear 26 1020 7 0 2.24 261 12:58 08.07.2020
311 Clear 26 1021 8 0 2.24 331 12:40 08.07.2020
312 Clear 25 1014 53 0 2.77 220 12:19 08.07.2020
313 Clear 24 1021 10 0 0.89 6 11:39 08.07.2020
314 Clear 20 1020 40 0 0.45 359 11:21 08.07.2020
315 Clear 23 1019 55 0 0.89 202 10:56 08.07.2020
316 Clear 22 1021 10 0 0.89 283 10:38 08.07.2020
317 Clear 19 1020 40 0 1.6 216 10:19 08.07.2020
318 Clear 15 1019 39 0 1.6 216 09:43 08.07.2020
319 Clear 15 1019 39 0 1.6 216 09:43 08.07.2020
320 Clear 14 1019 42 0 0.53 240 09:23 08.07.2020
321 Clear 13 1019 42 0 0.53 240 08:43 08.07.2020
322 Clear 12 1019 42 0 0.83 18 08:24 08.07.2020
323 Clear 12 1019 43 0 0.83 18 07:48 08.07.2020
324 Clear 12 1018 43 0 1.13 21 07:24 08.07.2020
325 Clear 13 1018 44 0 1.13 21 06:56 08.07.2020
326 Clear 12 1018 45 0 1.13 21 06:37 08.07.2020
327 Clear 12 1021 40 0 0.63 12 05:55 08.07.2020
328 Clear 13 1021 40 0 0.23 322 05:33 08.07.2020
329 Clear 13 1021 38 0 0.23 322 04:36 08.07.2020
330 Clear 14 1022 35 0 0.4 207 02:48 08.07.2020
331 Clear 15 1021 92 0 0.09 13 01:52 08.07.2020
332 Clear 15 1013 76 0 0.09 13 01:32 08.07.2020
333 Clouds 16 1023 30 0 0.33 21 00:28 08.07.2020
334 Clouds 16 1022 28 0 0.33 21 23:59 07.07.2020
335 Clouds 17 1023 26 0 0.33 21 23:40 07.07.2020
336 Clouds 17 1013 69 0 0.17 275 23:19 07.07.2020
337 Clouds 18 1022 22 0 0.17 275 22:43 07.07.2020
338 Clouds 18 1020 87 0 0.56 247 22:23 07.07.2020
339 Clouds 19 1020 87 0 0.56 247 21:59 07.07.2020
340 Clouds 22 1011 59 0 0.56 247 21:40 07.07.2020
341 Clear 19 1019 57 0 0.68 259 21:21 07.07.2020
342 Clear 20 1019 57 0 0.68 259 20:57 07.07.2020
343 Clear 20 1019 56 0 0.68 259 20:39 07.07.2020
344 Clear 21 1019 56 0 1.21 250 20:20 07.07.2020
345 Clear 22 1019 57 0 1.34 37 19:41 07.07.2020
346 Clear 22 1019 59 0 0.89 6 19:21 07.07.2020
347 Clear 23 1019 60 0 0.89 44 18:57 07.07.2020
348 Clear 22 1019 61 0 1.34 45 18:38 07.07.2020
349 Clear 26 1010 47 0 0.45 108 18:20 07.07.2020
350 Clear 25 1011 46 0 2.04 243 17:58 07.07.2020
351 Clear 25 1021 10 0 3.13 321 17:38 07.07.2020
352 Clear 25 1011 45 0 1.94 245 17:20 07.07.2020
353 Clear 25 1021 10 0 3.58 292 16:43 07.07.2020
354 Clear 25 1020 60 0 1.88 246 16:24 07.07.2020
355 Clear 26 1021 9 0 3.58 319 15:58 07.07.2020
356 Clear 26 1021 9 0 3.58 319 15:58 07.07.2020
357 Clear 26 1021 8 0 2.68 307 15:38 07.07.2020
358 Clear 26 1011 49 0 1.65 254 15:20 07.07.2020
359 Clear 26 1011 49 0 1.65 254 15:20 07.07.2020
360 Clear 26 1021 8 0 3.58 250 14:46 07.07.2020
361 Clear 26 1021 8 0 3.13 250 14:25 07.07.2020
362 Clear 26 1011 46 0 0.45 176 13:46 07.07.2020
363 Clear 25 1011 46 0 0.45 80 13:22 07.07.2020
364 Clear 25 1011 46 0 0.45 80 13:22 07.07.2020
365 Clear 25 1021 8 0 3.58 236 12:58 07.07.2020
366 Clear 25 1022 11 0 3.58 252 12:40 07.07.2020
367 Clear 23 1020 60 0 1.79 292 12:21 07.07.2020
368 Clear 23 1011 47 0 0.8 275 11:48 07.07.2020
369 Clear 22 1022 12 0 0.89 27 11:24 07.07.2020
370 Clear 21 1022 11 0 0.95 340 10:59 07.07.2020
371 Clear 21 1022 11 0 0.95 340 10:41 07.07.2020
372 Clear 17 1018 37 0 1.94 9 10:21 07.07.2020
373 Clear 15 1018 38 0 1.94 9 09:55 07.07.2020
374 Clear 16 1018 38 0 1.94 9 09:37 07.07.2020
375 Clear 14 1018 36 0 0.45 205 09:18 07.07.2020
376 Clear 13 1018 34 0 3.04 16 08:40 07.07.2020
377 Clear 13 1018 24 0 3.6 18 08:20 07.07.2020
378 Clear 13 1017 19 0 3.6 18 07:39 07.07.2020
379 Clear 12 1017 23 0 3.75 20 07:20 07.07.2020
380 Clear 13 1017 47 0 3.75 20 06:48 07.07.2020
381 Clear 14 1023 35 0 3.53 20 06:27 07.07.2020
382 Clear 16 1011 54 0 3.53 20 05:47 07.07.2020
383 Clear 12 1017 76 0 3.15 20 04:59 07.07.2020
384 Clear 11 1018 80 0 0.45 1 04:25 07.07.2020
385 Clear 16 1023 27 0 0.89 12 03:34 07.07.2020
386 Clouds 21 1016 84 0 0.89 180 01:58 07.07.2020
387 Clouds 12 1020 77 0 3.4 8 01:20 07.07.2020
388 Clouds 11 1020 84 0 3.4 8 00:41 07.07.2020
389 Clouds 15 1020 86 0 0.45 23 00:22 07.07.2020
390 Clouds 20 1024 28 0 0.89 259 23:44 06.07.2020
391 Clouds 20 1024 30 0 3.86 8 23:25 06.07.2020
392 Clouds 20 1024 27 0 0.89 329 22:59 06.07.2020
393 Clouds 19 1024 24 0 1.34 326 22:39 06.07.2020
394 Clouds 15 1021 83 0 1.34 14 22:19 06.07.2020
395 Clouds 15 1020 84 0 4 9 21:56 06.07.2020
396 Clouds 15 1020 80 0 0.89 23 21:37 06.07.2020
397 Clouds 18 1020 77 0 4.06 6 21:18 06.07.2020
398 Clouds 19 1021 75 0 4.06 6 20:41 06.07.2020
399 Clouds 21 1017 28 10000 4.6 260 20:21 06.07.2020
400 Clouds 22 1017 28 10000 4.6 260 19:59 06.07.2020
401 Clouds 22 1017 28 10000 4.6 260 19:40 06.07.2020
402 Clouds 21 1017 28 10000 4.6 260 19:40 06.07.2020
403 Clouds 22 1017 45 10000 5.1 210 19:22 06.07.2020
404 Clouds 22 1017 45 10000 5.1 210 18:58 06.07.2020
405 Clouds 22 1017 45 10000 5.1 220 18:39 06.07.2020
406 Clouds 26 1017 45 10000 6.2 210 18:21 06.07.2020
407 Clouds 28 1017 45 10000 6.2 210 17:54 06.07.2020
408 Clouds 28 1017 40 10000 5.7 210 17:36 06.07.2020
409 Clouds 28 1017 35 10000 6.2 200 17:18 06.07.2020
410 Clouds 28 1017 38 10000 5.7 210 16:42 06.07.2020
411 Clouds 29 1017 35 10000 5.7 210 16:22 06.07.2020
412 Clouds 28 1017 33 10000 5.1 200 15:45 06.07.2020
413 Clouds 31 1017 33 10000 5.1 200 15:27 06.07.2020
414 Clouds 30 1018 37 10000 4.6 210 14:58 06.07.2020
415 Clouds 30 1018 37 10000 1.5 0 14:38 06.07.2020
416 Clear 29 1018 39 10000 2.1 0 14:20 06.07.2020
417 Clear 28 1018 39 10000 2.1 0 13:58 06.07.2020
418 Clear 28 1019 39 10000 1.5 0 13:39 06.07.2020
419 Clear 28 1019 39 10000 1 0 13:20 06.07.2020
420 Clear 27 1020 47 10000 1 0 12:43 06.07.2020
421 Clear 25 1020 46 10000 1 0 12:19 06.07.2020
422 Clear 25 1020 46 10000 1 0 11:58 06.07.2020
423 Clear 24 1020 53 10000 1 0 11:39 06.07.2020
424 Clear 23 1024 28 0 2.24 7 11:20 06.07.2020
425 Clear 16 1021 74 0 0.89 52 10:56 06.07.2020
426 Clear 16 1021 71 0 0.89 359 10:38 06.07.2020
427 Clouds 16 1024 35 0 1.34 13 10:18 06.07.2020
428 Clouds 15 1021 63 0 2.59 356 09:42 06.07.2020
429 Clouds 15 1021 66 0 0.45 8 09:22 06.07.2020
430 Clouds 16 1021 54 0 2.79 6 08:56 06.07.2020
431 Clouds 15 1021 59 0 2.79 6 08:38 06.07.2020
432 Clouds 15 1021 48 0 3.1 14 08:19 06.07.2020
433 Clouds 15 1021 47 0 3.1 14 07:43 06.07.2020
434 Clouds 15 1021 50 0 3.49 16 07:23 06.07.2020
435 Clouds 15 1023 44 0 3.49 16 06:40 06.07.2020
436 Clouds 16 1023 40 0 3.45 18 06:21 06.07.2020
437 Clouds 14 1022 94 0 3.45 18 05:38 06.07.2020
438 Clouds 17 1024 36 0 3.45 19 04:54 06.07.2020
439 Clouds 17 1024 34 0 3.33 18 03:40 06.07.2020
440 Clear 18 1025 31 0 3.33 20 02:22 06.07.2020
441 Clear 18 1023 93 0 3.36 20 01:28 06.07.2020
442 Clear 19 1024 25 0 3.36 20 00:36 06.07.2020
443 Clear 18 1018 80 0 0.45 135 00:18 06.07.2020
444 Clear 18 1015 66 0 3.23 22 23:41 05.07.2020
445 Clear 19 1015 68 0 3.17 21 23:23 05.07.2020
446 Clear 19 1022 91 0 3.17 21 22:59 05.07.2020
447 Clear 21 1015 66 0 3.17 21 22:39 05.07.2020
448 Clear 19 1023 74 0 0.89 20 22:19 05.07.2020
449 Clear 23 1014 61 0 3.2 20 21:57 05.07.2020
450 Clear 21 1023 76 0 0.45 6 21:37 05.07.2020
451 Clear 22 1023 74 0 0.89 30 21:18 05.07.2020
452 Clear 22 1023 71 0 1.34 90 20:55 05.07.2020
453 Clouds 23 1020 39 10000 2.6 210 20:37 05.07.2020
454 Clouds 23 1020 39 10000 2.6 210 20:19 05.07.2020
455 Clouds 23 1020 39 10000 2.6 210 19:41 05.07.2020
456 Clouds 23 1020 42 10000 3.1 200 19:21 05.07.2020
457 Clouds 24 1020 42 10000 3.1 200 18:55 05.07.2020
458 Clouds 25 1020 39 10000 3.6 230 18:37 05.07.2020
459 Clouds 26 1020 37 10000 3.6 230 18:18 05.07.2020
460 Clouds 26 1021 37 10000 4.1 210 17:42 05.07.2020
461 Clouds 26 1021 37 10000 4.6 220 17:19 05.07.2020
462 Clouds 24 1021 39 10000 4.6 220 16:45 05.07.2020
463 Clouds 25 1021 39 10000 4.6 220 16:26 05.07.2020
464 Clouds 29 1021 40 10000 4.6 210 15:59 05.07.2020
465 Clouds 28 1021 39 10000 4.6 220 15:39 05.07.2020
466 Clouds 28 1022 39 10000 4.6 230 15:19 05.07.2020
467 Clouds 28 1022 39 10000 3.1 220 14:43 05.07.2020
468 Clouds 28 1022 39 10000 2.6 220 14:23 05.07.2020
469 Clouds 28 1022 39 10000 2.6 220 13:58 05.07.2020
470 Clouds 27 1023 39 10000 2.1 230 13:40 05.07.2020
471 Clouds 27 1023 41 10000 1.5 0 13:20 05.07.2020
472 Clouds 26 1023 38 10000 1 0 12:42 05.07.2020
473 Clear 23 1024 46 10000 1 0 12:20 05.07.2020
474 Clear 23 1024 46 10000 1 0 11:55 05.07.2020
475 Clear 22 1024 52 10000 1 0 11:37 05.07.2020
476 Clear 22 1018 49 0 0.68 301 11:18 05.07.2020
477 Clear 21 1024 59 0 1.34 202 10:42 05.07.2020
478 Clear 16 1024 58 0 0.6 1 10:20 05.07.2020
479 Clear 16 1024 58 0 0.6 1 10:20 05.07.2020
480 Clear 16 1024 57 0 0.6 1 09:59 05.07.2020
481 Clear 14 1024 56 0 0.6 1 09:41 05.07.2020
482 Clear 14 1024 57 0 1.4 22 09:20 05.07.2020
483 Clear 15 1023 55 0 1.4 22 08:53 05.07.2020
484 Clear 14 1023 54 0 1.4 22 08:34 05.07.2020
485 Clouds 12 1023 55 0 2.41 22 07:51 05.07.2020
486 Clouds 12 1023 51 0 2.75 25 07:30 05.07.2020
487 Clouds 12 1026 45 0 2.75 25 06:53 05.07.2020
488 Clouds 12 1026 46 0 2.89 24 05:58 05.07.2020
489 Clouds 13 1026 46 0 2.96 25 03:37 05.07.2020
490 Clear 14 1019 77 0 2.94 22 02:46 05.07.2020
491 Clouds 13 1026 94 0 3.03 21 02:28 05.07.2020
492 Clouds 14 1027 46 0 3.03 21 01:41 05.07.2020
493 Clouds 14 1026 93 0 3.01 19 01:20 05.07.2020
494 Clouds 16 1027 39 0 3.01 19 00:41 05.07.2020
495 Clouds 16 1027 37 0 2.88 18 00:23 05.07.2020
496 Clouds 16 1027 37 0 2.88 18 00:23 05.07.2020
497 Clouds 16 1027 37 0 2.88 18 23:48 04.07.2020
498 Clouds 17 1027 35 0 2.88 18 23:30 04.07.2020
499 Clouds 16 1019 72 0 3.01 18 22:57 04.07.2020
500 Clouds 16 1018 72 0 3.01 18 22:38 04.07.2020
501 Clear 17 1018 69 0 2.93 18 22:20 04.07.2020
502 Clear 19 1018 60 0 2.93 18 21:43 04.07.2020
503 Clear 19 1024 60 0 0.45 17 21:23 04.07.2020
504 Clear 19 1024 59 0 0.45 18 21:23 04.07.2020
505 Clear 20 1024 57 0 0.45 14 20:58 04.07.2020
506 Clear 19 1024 59 0 0.45 34 20:40 04.07.2020
507 Clouds 20 1021 47 10000 4.6 240 20:20 04.07.2020
508 Clouds 20 1021 47 10000 4.6 240 19:45 04.07.2020
509 Clouds 21 1021 47 10000 4.1 230 19:22 04.07.2020
510 Clouds 22 1021 47 10000 4.1 230 18:57 04.07.2020
511 Clouds 22 1021 47 10000 4.1 230 18:39 04.07.2020
512 Clouds 23 1022 44 10000 4.6 220 18:21 04.07.2020
513 Clouds 26 1022 42 10000 4.6 230 17:42 04.07.2020
514 Clouds 25 1022 42 10000 4.6 230 17:24 04.07.2020
515 Clouds 24 1022 47 10000 4.6 230 16:58 04.07.2020
516 Clouds 24 1022 47 10000 4.6 230 16:38 04.07.2020
517 Clouds 24 1022 47 10000 4.1 230 16:20 04.07.2020
518 Clouds 24 1022 50 10000 5.1 230 15:46 04.07.2020
519 Clouds 24 1022 50 10000 5.1 230 15:28 04.07.2020
520 Clouds 24 1022 47 10000 4.6 230 14:59 04.07.2020
521 Clouds 23 1023 47 10000 5.1 230 14:38 04.07.2020
522 Clouds 23 1023 46 10000 4.1 230 14:19 04.07.2020
523 Clouds 23 1023 46 10000 4.1 230 13:58 04.07.2020
524 Clouds 23 1023 49 10000 3.1 240 13:39 04.07.2020
525 Clear 22 1023 37 10000 2.1 0 13:18 04.07.2020
526 Clear 22 1024 49 10000 2.1 190 12:42 04.07.2020
527 Clear 20 1024 52 10000 1 0 12:21 04.07.2020
528 Clear 20 1024 52 10000 1 0 11:54 04.07.2020
529 Clear 20 1024 48 10000 2.1 160 11:36 04.07.2020
530 Clear 20 1026 12 0 2.24 261 11:18 04.07.2020
531 Clear 16 1026 16 0 0.99 257 10:41 04.07.2020
532 Clear 13 1022 43 0 0.63 276 10:21 04.07.2020
533 Clear 13 1022 42 0 0.63 276 09:58 04.07.2020
534 Clear 13 1022 42 0 0.63 276 09:58 04.07.2020
535 Clear 12 1021 40 0 0.6 278 09:37 04.07.2020
536 Clear 11 1021 39 0 0.86 359 09:18 04.07.2020
537 Clear 11 1021 38 0 0.76 355 08:46 04.07.2020
538 Clear 12 1021 40 0 1.65 21 08:27 04.07.2020
539 Clear 12 1020 41 0 1.65 21 07:46 04.07.2020
540 Clear 10 1020 42 0 1.93 23 07:26 04.07.2020
541 Clear 10 1020 44 0 1.93 23 06:53 04.07.2020
542 Clear 10 1025 49 0 2.09 21 06:22 04.07.2020
543 Clear 10 1026 46 0 2.09 21 05:34 04.07.2020
544 Clouds 11 1026 45 0 2.14 19 04:42 04.07.2020
545 Clear 13 1026 40 0 2.47 15 02:49 04.07.2020
546 Clouds 13 1026 38 0 2.42 16 02:19 04.07.2020
547 Clouds 14 1027 37 0 2.66 14 01:26 04.07.2020
548 Clouds 14 1027 37 0 2.66 14 01:26 04.07.2020
549 Clouds 15 1025 93 0 2.66 14 00:40 04.07.2020
550 Clouds 11 1021 77 0 0.89 23 00:22 04.07.2020
551 Clouds 14 1026 34 0 2.89 11 23:40 03.07.2020
552 Clouds 12 1021 79 0 3.06 9 23:19 03.07.2020
553 Clouds 12 1021 79 0 3.06 9 23:19 03.07.2020
554 Clouds 15 1026 28 0 3.06 9 22:55 03.07.2020
555 Clouds 15 1016 77 0 3.06 9 22:36 03.07.2020
556 Clouds 15 1024 92 0 3.23 9 22:18 03.07.2020
557 Clouds 15 1020 77 0 0.89 1 21:40 03.07.2020
558 Clouds 16 1020 74 0 3.01 7 21:20 03.07.2020
559 Clouds 15 1020 75 0 0.45 359 20:55 03.07.2020
560 Clouds 18 1018 50 10000 6.7 210 20:36 03.07.2020
561 Clouds 18 1018 50 10000 6.7 210 20:18 03.07.2020
562 Clouds 18 1018 50 10000 6.7 210 19:40 03.07.2020
563 Clouds 18 1018 50 10000 6.2 210 19:19 03.07.2020
564 Clouds 18 1018 50 10000 6.2 210 18:54 03.07.2020
565 Clouds 18 1018 50 10000 7.2 200 18:36 03.07.2020
566 Clouds 18 1018 47 10000 7.2 200 18:18 03.07.2020
567 Clouds 19 1018 50 10000 6.7 200 17:41 03.07.2020
568 Clouds 22 1019 50 10000 7.2 200 17:21 03.07.2020
569 Clouds 22 1019 53 10000 7.2 200 16:41 03.07.2020
570 Clouds 22 1019 53 10000 7.2 200 16:41 03.07.2020
571 Clouds 22 1019 53 10000 7.2 200 16:41 03.07.2020
572 Clouds 18 1019 53 10000 7.2 200 16:23 03.07.2020
573 Clouds 19 1019 53 10000 4.6 220 15:47 03.07.2020
574 Clouds 18 1019 53 10000 4.6 220 15:25 03.07.2020
575 Clouds 18 1019 57 10000 5.1 230 14:58 03.07.2020
576 Clouds 18 1019 57 10000 4.1 220 14:39 03.07.2020
577 Clouds 17 1020 60 10000 4.1 230 14:21 03.07.2020
578 Clouds 19 1020 60 10000 2.6 210 13:47 03.07.2020
579 Clouds 17 1020 60 10000 2.6 210 13:29 03.07.2020
580 Clouds 17 1020 60 10000 1.5 0 12:57 03.07.2020
581 Clouds 17 1020 64 10000 1 0 12:38 03.07.2020
582 Clouds 16 1020 60 10000 1 0 12:19 03.07.2020
583 Clouds 14 1020 59 10000 1.5 190 11:42 03.07.2020
584 Clouds 14 1020 59 10000 1.5 190 11:23 03.07.2020
585 Clouds 13 1018 87 0 1.84 329 10:58 03.07.2020
586 Clouds 14 1024 26 0 3.13 267 10:39 03.07.2020
587 Clouds 13 1018 79 0 2.22 341 10:20 03.07.2020
588 Clouds 12 1018 82 0 2.22 341 09:54 03.07.2020
589 Clouds 12 1018 80 0 0.45 356 09:36 03.07.2020
590 Clouds 12 1017 80 0 2.4 356 09:18 03.07.2020
591 Clouds 12 1017 83 0 0.45 347 08:39 03.07.2020
592 Clouds 12 1017 82 0 2.31 1 08:18 03.07.2020
593 Clouds 12 1017 82 0 2.31 1 07:48 03.07.2020
594 Clouds 12 1017 82 0 2.54 3 07:26 03.07.2020
595 Clouds 12 1017 85 0 2.54 3 06:49 03.07.2020
596 Clouds 11 1017 86 0 0.45 7 06:18 03.07.2020
597 Clouds 11 1017 86 0 0.45 356 04:48 03.07.2020
598 Rain 11 1015 91 0 2.46 9 03:26 03.07.2020
599 Rain 11 1015 91 0 2.46 9 02:45 03.07.2020
600 Rain 12 1015 90 0 2.24 13 02:23 03.07.2020
601 Rain 11 1018 92 0 1.34 3 01:28 03.07.2020
602 Rain 12 1018 84 0 0.89 349 00:44 03.07.2020
603 Rain 12 1015 89 0 2.49 9 00:26 03.07.2020
604 Rain 12 1014 84 0 2.49 9 23:44 02.07.2020
605 Rain 13 1017 90 0 1.34 176 23:20 02.07.2020
606 Rain 13 1018 83 0 0.89 322 22:57 02.07.2020
607 Rain 14 1018 85 0 0.89 8 22:39 02.07.2020
608 Clouds 14 1013 83 0 2.68 16 22:20 02.07.2020
609 Clouds 15 1017 83 0 0.89 359 21:54 02.07.2020
610 Clouds 15 1017 85 0 0.89 357 21:36 02.07.2020
611 Rain 16 1017 77 0 2.82 360 21:18 02.07.2020
612 Rain 15 1017 81 0 0.89 350 20:42 02.07.2020
613 Rain 17 1017 60 10000 2.1 330 20:21 02.07.2020
614 Rain 17 1017 60 10000 2.1 330 20:21 02.07.2020
615 Rain 17 1017 60 10000 2.1 330 19:57 02.07.2020
616 Rain 18 1017 60 10000 2.1 330 19:38 02.07.2020
617 Clouds 19 1017 64 10000 2.6 340 19:20 02.07.2020
618 Clouds 19 1017 64 10000 2.6 340 18:57 02.07.2020
619 Clouds 19 1017 68 10000 2.6 350 18:38 02.07.2020
620 Thunderstorm 18 1017 72 10000 2.1 60 18:20 02.07.2020
621 Thunderstorm 18 1017 72 3000 8.7 260 17:39 02.07.2020
622 Thunderstorm 20 1016 47 10000 5.1 210 17:20 02.07.2020
623 Thunderstorm 19 1016 47 10000 5.1 210 16:56 02.07.2020
624 Clouds 19 1016 57 10000 4.6 210 16:38 02.07.2020
625 Clouds 21 1016 54 10000 4.6 200 16:19 02.07.2020
626 Clouds 21 1016 54 10000 4.6 200 15:54 02.07.2020
627 Clouds 21 1016 54 10000 6.2 200 15:36 02.07.2020
628 Clouds 20 1017 54 10000 5.7 190 15:18 02.07.2020
629 Clouds 20 1017 57 10000 6.2 200 14:42 02.07.2020
630 Clouds 20 1017 53 10000 4.6 210 14:19 02.07.2020
631 Clouds 20 1018 64 10000 3.1 220 13:40 02.07.2020
632 Rain 19 1018 64 10000 1.5 240 13:21 02.07.2020
633 Rain 19 1018 64 10000 1.5 240 12:59 02.07.2020
634 Clouds 19 1018 56 10000 1.5 0 12:39 02.07.2020
635 Clouds 18 1018 64 10000 1 0 12:21 02.07.2020
636 Clouds 19 1018 68 10000 1 0 11:44 02.07.2020
637 Clouds 18 1018 68 10000 1 0 11:26 02.07.2020
638 Clouds 17 1018 72 10000 0.5 0 10:56 02.07.2020
639 Clouds 17 1018 82 10000 1 0 10:37 02.07.2020
640 Rain 16 1010 84 0 2.63 209 10:19 02.07.2020
641 Rain 16 1010 91 0 2.63 209 09:42 02.07.2020
642 Rain 16 1010 90 0 0.42 144 09:21 02.07.2020
643 Rain 16 1011 93 0 0.42 144 08:57 02.07.2020
644 Rain 16 1011 92 0 0.42 144 08:38 02.07.2020
645 Rain 16 1010 89 0 0.98 207 08:18 02.07.2020
646 Rain 16 1010 92 0 0.98 207 07:41 02.07.2020
647 Rain 16 1010 91 0 0.67 201 07:20 02.07.2020
648 Rain 16 1010 90 0 0.67 201 06:41 02.07.2020
649 Rain 17 1010 87 0 0.75 143 06:20 02.07.2020
650 Rain 18 1018 39 0 0.75 143 05:46 02.07.2020
651 Rain 19 1009 81 0 0.53 206 04:40 02.07.2020
652 Rain 20 1009 69 0 0.4 151 03:32 02.07.2020
653 Clouds 21 1019 43 0 0.45 330 01:44 02.07.2020
654 Clear 19 1019 37 0 1.78 19 00:26 02.07.2020
655 Clear 20 1008 58 0 1.78 19 23:51 01.07.2020
656 Clear 20 1019 36 0 1.78 19 23:31 01.07.2020
657 Clear 20 1019 35 0 1.18 13 22:57 01.07.2020
658 Clear 20 1019 35 0 1.18 13 22:38 01.07.2020
659 Clear 21 1019 34 0 0.45 359 22:19 01.07.2020
660 Clear 22 1019 34 0 0.89 6 21:59 01.07.2020
661 Clear 22 1018 32 0 1.08 20 21:40 01.07.2020
662 Rain 21 1009 49 0 1.09 259 21:22 01.07.2020
663 Clear 22 1016 64 0 1.01 280 20:58 01.07.2020
664 Clear 21 1008 46 0 1.01 280 20:40 01.07.2020
665 Clouds 21 1008 53 0 2.09 232 20:21 01.07.2020
666 Clouds 21 1008 49 0 2.09 232 19:54 01.07.2020
667 Clouds 20 1008 45 0 2.09 232 19:36 01.07.2020
668 Clouds 20 1016 65 0 0.45 347 19:18 01.07.2020
669 Clouds 21 1016 67 0 0.89 8 18:42 01.07.2020
670 Rain 21 1015 60 0 3.51 228 18:21 01.07.2020
671 Rain 21 1015 60 0 3.51 228 18:21 01.07.2020
672 Rain 25 1016 62 0 0.45 10 17:57 01.07.2020
673 Rain 25 1016 60 0 1.34 32 17:38 01.07.2020
674 Rain 25 1016 60 0 0.45 56 17:38 01.07.2020
675 Rain 25 1016 68 0 0.45 8 17:19 01.07.2020
676 Rain 25 1016 73 0 3.49 229 16:46 01.07.2020
677 Rain 25 1016 66 0 0.45 15 16:26 01.07.2020
678 Rain 26 1016 57 0 3.76 228 15:55 01.07.2020
679 Rain 26 1016 10 0 4.02 272 15:37 01.07.2020
680 Rain 26 1015 71 0 0.45 8 15:18 01.07.2020
681 Rain 24 1016 55 0 0.45 131 14:42 01.07.2020
682 Rain 28 1008 47 0 3.29 224 14:21 01.07.2020
683 Rain 28 1007 44 0 0.45 167 13:57 01.07.2020
684 Rain 27 1007 44 0 0.89 290 13:38 01.07.2020
685 Rain 28 1007 49 0 3.1 225 13:20 01.07.2020
686 Rain 26 1008 56 0 3.1 225 12:56 01.07.2020
687 Rain 26 1008 58 0 3.1 225 12:38 01.07.2020
688 Rain 25 1008 62 0 2.8 221 12:19 01.07.2020
689 Rain 22 1008 63 0 2.8 221 11:40 01.07.2020
690 Rain 21 1008 68 0 2.32 203 11:21 01.07.2020
691 Rain 19 1015 58 0 0.45 205 10:57 01.07.2020
692 Clear 18 1015 57 0 0.89 200 10:39 01.07.2020
693 Clear 18 1008 80 0 1.65 181 10:20 01.07.2020
694 Clear 17 1008 89 0 1.65 181 09:39 01.07.2020
695 Clear 17 1009 92 0 0.88 191 09:20 01.07.2020
696 Clear 16 1015 57 0 2.24 252 08:59 01.07.2020
697 Clear 16 1016 57 0 1.79 212 08:40 01.07.2020
698 Clouds 16 1009 95 0 0.46 72 08:20 01.07.2020
699 Clouds 16 1009 94 0 0.46 72 07:42 01.07.2020
700 Rain 16 1009 94 0 0.75 80 07:24 01.07.2020
701 Rain 16 1009 94 0 0.75 80 06:55 01.07.2020
702 Rain 16 1009 94 0 0.75 80 06:32 01.07.2020
703 Rain 18 1016 58 0 0.81 100 05:46 01.07.2020
704 Clear 18 1018 52 0 1.09 83 04:29 01.07.2020
705 Clear 19 1017 44 0 1.09 83 03:41 01.07.2020
706 Clear 17 1009 93 0 1.01 110 03:21 01.07.2020
707 Rain 18 1018 44 0 1.11 70 01:56 01.07.2020
708 Rain 19 1017 42 0 0.42 65 00:48 01.07.2020
709 Clear 19 1017 41 0 1.18 66 00:28 01.07.2020
710 Clear 19 1017 39 0 1.18 66 23:59 30.06.2020
711 Clear 19 1017 37 0 1.18 66 23:39 30.06.2020
712 Rain 20 1017 35 0 0.69 82 23:19 30.06.2020
713 Rain 20 1017 33 0 0.69 82 22:42 30.06.2020
714 Rain 19 1009 79 0 0.75 48 22:19 30.06.2020
715 Rain 22 1008 71 0 0.75 48 21:42 30.06.2020
716 Rain 21 1008 73 0 0.86 193 21:19 30.06.2020
717 Rain 23 1017 22 0 0.86 193 20:59 30.06.2020
718 Rain 23 1008 63 0 0.86 193 20:40 30.06.2020
719 Rain 22 1017 51 0 1.05 222 20:20 30.06.2020
720 Rain 24 1017 51 0 0.45 187 19:43 30.06.2020
721 Rain 24 1017 51 0 0.45 229 19:20 30.06.2020
722 Rain 24 1017 51 0 0.45 229 19:20 30.06.2020
723 Rain 24 1017 53 0 1.89 231 18:54 30.06.2020
724 Rain 25 1017 52 0 1.89 231 18:36 30.06.2020
725 Rain 24 1017 53 0 2.92 230 18:18 30.06.2020
726 Rain 24 1017 55 0 1.79 188 17:38 30.06.2020
727 Rain 24 1017 57 0 0.45 23 17:20 30.06.2020
728 Rain 24 1017 57 0 0.45 18 16:55 30.06.2020
729 Rain 24 1017 57 0 3.85 231 16:36 30.06.2020
730 Clear 25 1017 58 0 4.06 228 16:18 30.06.2020
731 Clear 27 1017 7 0 3.58 346 15:42 30.06.2020
732 Clear 28 1009 57 0 4.2 223 15:22 30.06.2020
733 Clear 27 1017 9 0 2.68 294 14:58 30.06.2020
734 Clear 27 1009 57 0 4.2 223 14:39 30.06.2020
735 Rain 25 1018 7 0 3.13 269 14:18 30.06.2020
736 Rain 25 1018 7 0 3.13 269 14:18 30.06.2020
737 Rain 24 1016 66 0 1.79 225 13:41 30.06.2020
738 Rain 24 1018 10 0 2.24 298 13:21 30.06.2020
739 Rain 24 1018 13 0 3.58 303 12:59 30.06.2020
740 Rain 24 1018 10 0 2.24 276 12:40 30.06.2020
741 Rain 21 1014 74 0 3.13 225 12:21 30.06.2020
742 Rain 23 1010 72 0 3.18 231 11:58 30.06.2020
743 Rain 23 1010 72 0 3.18 231 11:58 30.06.2020
744 Rain 23 1010 72 0 3.18 231 11:39 30.06.2020
745 Rain 19 1018 69 0 0.45 152 11:19 30.06.2020
746 Rain 19 1011 82 0 3.03 222 10:58 30.06.2020
747 Clouds 23 1019 45 10000 5.7 190 16:39 28.06.2020
748 Clouds 23 1019 45 10000 5.7 190 16:39 28.06.2020
749 Clouds 22 1020 47 10000 3.6 180 16:20 28.06.2020
750 Clouds 23 1020 47 10000 3.6 180 15:56 28.06.2020
751 Clouds 24 1020 48 10000 4.1 190 15:37 28.06.2020
752 Clouds 22 1020 45 10000 3.6 190 15:18 28.06.2020
753 Clouds 21 1020 47 10000 3.6 180 14:44 28.06.2020
754 Clouds 22 1020 47 10000 3.6 180 14:25 28.06.2020
755 Clouds 23 1020 47 10000 3.1 210 13:57 28.06.2020
756 Clouds 21 1021 50 10000 3.1 200 13:37 28.06.2020
757 Clouds 21 1021 54 10000 1.5 0 13:18 28.06.2020
758 Clouds 21 1021 54 10000 1.5 0 12:55 28.06.2020
759 Clouds 20 1021 57 10000 1.5 0 12:36 28.06.2020
760 Clouds 20 1021 57 10000 1 0 12:18 28.06.2020
761 Clouds 19 1021 60 10000 1 0 11:44 28.06.2020
762 Clouds 16 1015 73 0 2.61 213 11:21 28.06.2020
763 Clouds 16 1015 74 0 2.61 213 10:59 28.06.2020
764 Clouds 18 1015 76 0 2.61 213 10:41 28.06.2020
765 Clear 15 1015 78 0 2.18 210 10:22 28.06.2020
766 Clear 17 1020 70 0 2.18 210 09:42 28.06.2020
767 Clear 16 1015 86 0 1.47 202 09:23 28.06.2020
768 Clear 16 1015 86 0 1.55 198 09:23 28.06.2020
769 Clear 15 1020 70 0 1.34 221 08:57 28.06.2020
770 Clear 15 1015 86 0 1.47 202 08:39 28.06.2020
771 Clear 15 1015 87 0 0.47 139 08:20 28.06.2020
772 Clear 14 1015 86 0 0.47 139 07:37 28.06.2020
773 Clear 14 1015 84 0 0.46 79 06:57 28.06.2020
774 Clear 14 1015 85 0 0.46 79 06:32 28.06.2020
775 Clear 16 1020 94 0 0.48 92 05:50 28.06.2020
776 Clear 15 1015 82 0 1.24 32 04:27 28.06.2020
777 Clear 17 1022 41 0 1.19 25 02:58 28.06.2020
778 Clouds 16 1014 77 0 0.89 38 02:21 28.06.2020
779 Clouds 17 1014 76 0 1.18 38 01:30 28.06.2020
780 Clouds 18 1022 39 0 1.19 27 00:56 28.06.2020
781 Clouds 18 1022 37 0 0.9 32 00:30 28.06.2020
782 Clouds 19 1021 35 0 0.9 32 23:58 27.06.2020
783 Clouds 19 1021 34 0 0.9 32 23:38 27.06.2020
784 Clouds 19 1021 32 0 0.56 53 23:19 27.06.2020
785 Clouds 20 1013 66 0 0.56 53 22:42 27.06.2020
786 Clouds 19 1014 65 0 0.1 151 22:23 27.06.2020
787 Clouds 19 1014 65 0 0.1 151 22:23 27.06.2020
788 Clouds 19 1019 68 0 0.1 151 21:58 27.06.2020
789 Clouds 22 1012 61 0 0.1 151 21:40 27.06.2020
790 Clouds 20 1013 57 0 0.69 233 21:20 27.06.2020
791 Clouds 20 1013 57 0 0.69 233 21:20 27.06.2020
792 Clouds 20 1019 66 0 0.69 233 20:45 27.06.2020
793 Clouds 22 1017 37 10000 5.1 200 20:20 27.06.2020
794 Clouds 22 1017 37 10000 5.1 200 20:00 27.06.2020
795 Clouds 23 1017 37 10000 5.1 200 19:37 27.06.2020
796 Clouds 23 1017 37 10000 4.6 200 19:19 27.06.2020
797 Clouds 23 1017 34 10000 5.1 190 18:47 27.06.2020
798 Clouds 23 1017 34 10000 5.1 190 18:28 27.06.2020
799 Clouds 24 1017 37 10000 5.1 200 17:59 27.06.2020
800 Clouds 24 1017 37 10000 5.1 200 17:59 27.06.2020
801 Clouds 24 1017 37 10000 5.1 200 17:40 27.06.2020
802 Clouds 24 1017 34 10000 5.1 200 17:20 27.06.2020
803 Clouds 24 1017 34 10000 5.1 200 16:56 27.06.2020
804 Clouds 23 1017 39 10000 5.1 200 16:38 27.06.2020
805 Clouds 24 1017 34 10000 5.1 190 16:18 27.06.2020
806 Clouds 23 1017 37 10000 4.6 210 15:42 27.06.2020
807 Clouds 23 1017 37 10000 4.6 210 15:22 27.06.2020
808 Clouds 22 1018 39 10000 3.6 220 14:43 27.06.2020
809 Clouds 22 1018 39 10000 3.6 220 14:43 27.06.2020
810 Clouds 22 1018 39 10000 3.6 220 14:25 27.06.2020
811 Clouds 25 1018 36 10000 3.6 220 13:59 27.06.2020
812 Clouds 25 1018 39 10000 3.1 210 13:38 27.06.2020
813 Clouds 25 1018 39 10000 3.1 210 13:38 27.06.2020
814 Clouds 24 1018 44 10000 1.5 0 13:19 27.06.2020
815 Clouds 24 1018 53 10000 1 0 12:57 27.06.2020
816 Clouds 24 1018 53 10000 1 0 12:39 27.06.2020
817 Clouds 19 1018 56 10000 1 0 12:21 27.06.2020
818 Clouds 22 1018 56 10000 1 0 11:54 27.06.2020
819 Clouds 20 1019 60 10000 0.5 0 11:36 27.06.2020
820 Clear 16 1013 62 0 2.17 207 11:18 27.06.2020
821 Clear 18 1013 67 0 2.17 207 10:38 27.06.2020
822 Clear 17 1017 47 0 1.42 204 10:19 27.06.2020
823 Clear 18 1017 46 0 1.42 204 09:41 27.06.2020
824 Clear 15 1013 79 0 1.24 210 09:22 27.06.2020
825 Clear 15 1016 45 0 1.34 201 08:57 27.06.2020
826 Clear 14 1013 79 0 1.24 210 08:39 27.06.2020
827 Clouds 14 1013 78 0 0.46 154 08:20 27.06.2020
828 Clouds 14 1013 78 0 0.46 154 07:41 27.06.2020
829 Clouds 14 1013 76 0 0.32 88 07:23 27.06.2020
830 Clouds 14 1013 75 0 0.32 88 06:38 27.06.2020
831 Clouds 15 1013 75 0 0.59 96 06:19 27.06.2020
832 Clouds 13 1012 75 0 0.6 99 04:22 27.06.2020
833 Clouds 13 1013 75 0 0.6 99 03:51 27.06.2020
834 Clouds 16 1012 77 0 0.47 89 02:49 27.06.2020
835 Clouds 14 1012 72 0 0.47 89 02:29 27.06.2020
836 Clouds 17 1011 76 0 0.64 98 01:41 27.06.2020
837 Clouds 17 1012 72 0 0.77 119 00:56 27.06.2020
838 Clouds 19 1019 36 0 0.32 155 00:27 27.06.2020
839 Clouds 18 1012 66 0 0.32 155 23:41 26.06.2020
840 Clouds 17 1012 67 0 1.22 208 23:22 26.06.2020
841 Clouds 19 1012 60 0 1.22 208 22:56 26.06.2020
842 Clouds 19 1012 60 0 1.22 208 22:37 26.06.2020
843 Clouds 18 1013 66 0 1.64 198 22:18 26.06.2020
844 Clouds 20 1011 60 0 1.64 198 21:56 26.06.2020
845 Clouds 21 1014 89 0 1.64 198 21:36 26.06.2020
846 Clear 20 1016 57 0 3.13 218 21:18 26.06.2020
847 Clear 20 1016 57 0 3.13 218 21:18 26.06.2020
848 Rain 21 1012 61 0 2.19 200 20:41 26.06.2020
849 Clouds 22 1016 41 10000 3.6 200 20:19 26.06.2020
850 Clouds 22 1016 41 10000 3.6 200 19:41 26.06.2020
851 Clouds 22 1016 44 10000 4.1 210 19:23 26.06.2020
852 Clouds 23 1016 39 10000 5.7 190 18:45 26.06.2020
853 Clouds 23 1016 42 10000 5.1 170 18:26 26.06.2020
854 Clouds 23 1016 39 10000 4.6 220 17:59 26.06.2020
855 Clouds 23 1016 39 10000 4.6 220 17:59 26.06.2020
856 Clouds 23 1016 39 10000 4.6 220 17:40 26.06.2020
857 Clouds 24 1016 37 10000 5.1 210 17:22 26.06.2020
858 Clouds 23 1017 37 10000 5.7 220 16:46 26.06.2020
859 Clouds 23 1017 37 10000 5.7 220 16:23 26.06.2020
860 Clouds 27 1017 37 10000 5.1 190 15:42 26.06.2020
861 Clouds 27 1017 42 10000 5.1 190 15:22 26.06.2020
862 Clouds 27 1017 42 10000 5.1 190 14:59 26.06.2020
863 Clouds 27 1017 44 10000 3.1 210 14:40 26.06.2020
864 Clouds 26 1018 44 10000 1 0 14:22 26.06.2020
865 Clouds 26 1018 44 10000 1 0 13:57 26.06.2020
866 Clouds 26 1018 50 10000 1 0 13:38 26.06.2020
867 Clouds 25 1018 56 10000 1 0 13:18 26.06.2020
868 Clouds 24 1019 68 10000 1 0 12:41 26.06.2020
869 Clouds 23 1019 68 10000 1 0 12:23 26.06.2020
870 Clouds 23 1019 68 10000 1 0 11:57 26.06.2020
871 Clouds 22 1019 72 10000 1 0 11:39 26.06.2020
872 Clear 18 1014 86 0 2.82 204 11:20 26.06.2020
873 Clear 17 1014 90 0 2.82 204 10:57 26.06.2020
874 Clear 17 1014 91 0 2.82 204 10:38 26.06.2020
875 Clear 16 1015 92 0 2.03 195 10:18 26.06.2020
876 Clear 16 1015 95 0 2.03 195 09:43 26.06.2020
877 Clear 13 1015 95 0 1.5 185 09:24 26.06.2020
878 Clear 15 1015 96 0 1.5 185 08:55 26.06.2020
879 Clear 14 1017 65 0 3.58 212 08:28 26.06.2020
880 Clear 14 1017 65 0 3.58 212 08:28 26.06.2020
881 Clear 14 1015 96 0 0.99 174 07:53 26.06.2020
882 Clouds 13 1015 96 0 0.9 172 07:24 26.06.2020
883 Clouds 13 1018 63 0 1.79 219 06:58 26.06.2020
884 Clouds 13 1015 96 0 0.9 172 06:36 26.06.2020
885 Clouds 14 1018 64 0 2.24 217 05:59 26.06.2020
886 Clouds 14 1016 96 0 0.72 133 05:33 26.06.2020
887 Clear 14 1017 95 0 0.44 56 02:42 26.06.2020
888 Clouds 15 1017 95 0 0.81 49 02:22 26.06.2020
889 Clouds 14 1021 65 0 2.24 212 00:58 26.06.2020
890 Clouds 13 1019 94 0 0.69 17 00:39 26.06.2020
891 Clouds 17 1020 93 0 0.22 202 23:48 25.06.2020
892 Clouds 17 1019 92 0 0.38 348 23:24 25.06.2020
893 Clouds 17 1018 93 0 0.38 348 22:59 25.06.2020
894 Clouds 17 1018 93 0 0.38 348 22:40 25.06.2020
895 Rain 13 1018 93 0 0.67 44 22:21 25.06.2020
896 Rain 13 1018 93 0 0.67 44 22:21 25.06.2020
897 Rain 13 1017 94 0 0.67 44 21:58 25.06.2020
898 Rain 18 1018 93 0 0.67 44 21:40 25.06.2020
899 Rain 18 1018 93 0 0.67 44 21:40 25.06.2020
900 Rain 17 1018 94 0 2.03 100 21:21 25.06.2020
901 Rain 17 1020 62 0 0.45 243 20:59 25.06.2020
902 Rain 17 1017 90 0 0.71 56 20:41 25.06.2020
903 Rain 16 1019 82 10000 2.6 50 20:22 25.06.2020
904 Rain 16 1019 82 10000 2.6 50 19:56 25.06.2020
905 Rain 16 1019 82 10000 2.6 50 19:37 25.06.2020
906 Rain 16 1019 82 10000 2.6 50 19:18 25.06.2020
907 Clouds 17 1019 73 10000 1.5 20 18:40 25.06.2020
908 Clouds 17 1019 73 10000 6.2 50 18:21 25.06.2020
909 Thunderstorm 18 1019 72 10000 3.6 50 17:46 25.06.2020
910 Rain 23 1019 72 10000 3.6 50 17:20 25.06.2020
911 Rain 24 1019 72 10000 3.6 50 16:59 25.06.2020
912 Thunderstorm 26 1018 39 10000 4.1 10 16:40 25.06.2020
913 Thunderstorm 28 1018 37 10000 3.6 200 16:19 25.06.2020
914 Clouds 28 1018 42 10000 7.7 210 15:43 25.06.2020
915 Clouds 29 1018 42 10000 7.7 210 15:25 25.06.2020
916 Clouds 29 1018 45 10000 1.5 0 14:56 25.06.2020
917 Clouds 29 1019 57 10000 1.5 0 14:37 25.06.2020
918 Clouds 27 1019 57 10000 1.5 0 14:19 25.06.2020
919 Clouds 26 1020 60 10000 1.5 0 13:42 25.06.2020
920 Clouds 26 1020 64 10000 1.5 0 13:20 25.06.2020
921 -273 0 0 0 0 0 12:59 25.06.2020
922 Clouds 26 1020 64 10000 1.5 0 12:59 25.06.2020
923 Clouds 25 1020 68 10000 1 0 12:40 25.06.2020
924 Clouds 21 1020 72 10000 1 0 12:20 25.06.2020
925 Clouds 19 1021 82 10000 1.5 0 11:43 25.06.2020
926 Clouds 18 1021 82 10000 1.5 0 11:22 25.06.2020
927 Clouds 22 1019 8 0 1.7 213 10:44 25.06.2020
928 Clouds 18 1020 68 0 1.19 206 10:26 25.06.2020
929 Clouds 17 1020 62 0 1.19 206 09:58 25.06.2020
930 Clouds 17 1020 22 0 1.19 206 09:40 25.06.2020
931 Clouds 14 1016 94 0 0.59 196 09:19 25.06.2020
932 Clouds 15 1019 69 0 0.59 196 08:43 25.06.2020
933 Clouds 13 1016 94 0 0.68 53 08:19 25.06.2020
934 Clouds 12 1016 92 0 0.68 53 07:44 25.06.2020
935 Clouds 12 1019 73 0 1.35 39 07:26 25.06.2020
936 Clouds 12 1019 73 0 1.35 39 07:26 25.06.2020
937 Clouds 12 1016 92 0 1.35 39 06:46 25.06.2020
938 Clouds 12 1016 94 0 1.43 36 06:26 25.06.2020
939 Clouds 12 1016 94 0 1.43 36 05:40 25.06.2020
940 Clouds 13 1020 60 0 1.61 36 03:55 25.06.2020
941 Clouds 13 1016 93 0 1.68 23 03:25 25.06.2020
942 Clouds 13 1016 93 0 1.68 23 02:41 25.06.2020
943 Clouds 13 1016 94 0 0.96 41 01:43 25.06.2020
944 Clouds 14 1020 62 0 0.94 49 01:19 25.06.2020
945 Clouds 14 1016 94 0 0.94 49 00:40 25.06.2020
946 Clouds 14 1020 61 0 1.11 44 00:18 25.06.2020
947 Clouds 14 1020 62 0 1.11 44 23:41 24.06.2020
948 Rain 14 1021 64 0 1.2 13 23:23 24.06.2020
949 Rain 15 1021 63 0 3.13 218 22:56 24.06.2020
950 Rain 15 1017 94 0 1.2 13 22:37 24.06.2020
951 Rain 15 1017 94 0 1.2 13 22:37 24.06.2020
952 Rain 15 1018 93 0 1.66 283 22:18 24.06.2020
953 Rain 15 1018 93 0 1.66 283 21:55 24.06.2020
954 Rain 15 1018 93 0 1.66 283 21:36 24.06.2020
955 Rain 15 1018 94 0 2.06 254 21:18 24.06.2020
956 Rain 15 1018 94 0 2.06 254 20:55 24.06.2020
957 Rain 16 1017 94 0 2.06 254 20:37 24.06.2020
958 Rain 17 1017 93 0 1.13 209 20:18 24.06.2020
959 Rain 18 1017 90 0 1.13 209 19:39 24.06.2020
960 Rain 18 1018 89 0 1.09 162 19:21 24.06.2020
961 Rain 18 1022 63 0 1.79 207 18:59 24.06.2020
962 Rain 19 1015 77 0 1.09 162 18:40 24.06.2020
963 Rain 20 1014 57 0 0.45 106 18:22 24.06.2020
964 Rain 22 1013 56 0 0.45 324 17:56 24.06.2020
965 Rain 22 1013 55 0 1.34 115 17:38 24.06.2020
966 Rain 23 1021 60 0 0.87 83 17:19 24.06.2020
967 Rain 24 1012 49 0 1.34 229 16:56 24.06.2020
968 Rain 25 1012 45 0 0.45 60 16:37 24.06.2020
969 Rain 25 1012 45 0 0.45 60 16:37 24.06.2020
970 Rain 25 1011 43 0 0.76 188 16:19 24.06.2020
971 Rain 25 1012 51 0 0.45 102 15:55 24.06.2020
972 Rain 24 1012 48 0 0.89 129 15:37 24.06.2020
973 Rain 24 1012 48 0 0.89 129 15:37 24.06.2020
974 Rain 28 1012 43 0 1.34 203 15:19 24.06.2020
975 Rain 28 1012 43 0 1.34 82 14:42 24.06.2020
976 Rain 26 1015 47 0 3.13 45 14:23 24.06.2020
977 Rain 26 1012 50 0 0.45 49 13:43 24.06.2020
978 Clear 25 1015 49 0 3.13 45 13:22 24.06.2020
979 Clear 26 1013 42 0 2.29 221 12:55 24.06.2020
980 Clear 26 1013 42 0 2.29 221 12:55 24.06.2020
981 Clear 25 1013 46 0 2.29 221 12:36 24.06.2020
982 Clear 24 1013 54 0 1.64 216 12:18 24.06.2020
983 Clear 22 1013 66 0 1.64 216 11:42 24.06.2020
984 Clear 21 1013 70 0 0.92 209 11:24 24.06.2020
985 Clear 23 1013 75 0 0.92 209 10:59 24.06.2020
986 Clear 24 1019 7 0 0.92 209 10:40 24.06.2020
987 Clear 19 1014 81 0 0.56 235 10:18 24.06.2020
988 Clear 17 1020 55 0 0.56 235 09:42 24.06.2020
989 Clear 16 1014 88 0 0.46 270 09:21 24.06.2020
990 Clear 15 1014 89 0 0.68 253 08:42 24.06.2020
991 Clear 15 1014 90 0 0.25 318 08:21 24.06.2020
992 Clear 15 1014 89 0 0.25 318 07:50 24.06.2020
993 Clear 15 1019 71 0 0.35 23 07:31 24.06.2020
994 Clear 15 1014 88 0 0.35 23 06:50 24.06.2020
995 Clear 14 1014 88 0 0.29 37 06:25 24.06.2020
996 Clear 15 1014 87 0 0.29 37 05:54 24.06.2020
997 Clear 15 1015 85 0 0.2 50 04:42 24.06.2020
998 Clear 15 1015 84 0 0.19 32 04:18 24.06.2020
999 Clear 16 1014 81 0 0.19 32 03:34 24.06.2020
1000 Clear 17 1020 36 0 0.25 28 02:43 24.06.2020
1001 Clear 18 1021 34 0 0.24 55 01:29 24.06.2020
1002 Clear 19 1021 30 0 0.24 55 00:47 24.06.2020
1003 Clear 21 1021 28 0 0.4 49 00:27 24.06.2020
1004 Clear 20 1021 25 0 0.4 49 23:44 23.06.2020
1005 Clear 19 1021 23 0 0.37 70 23:19 23.06.2020
1006 Clear 20 1019 90 0 0.37 70 22:42 23.06.2020
1007 Clouds 19 1014 70 0 0.57 199 22:19 23.06.2020
1008 Clouds 19 1013 68 0 0.57 199 21:59 23.06.2020
1009 Clouds 21 1013 55 0 0.57 199 21:38 23.06.2020
1010 Clouds 22 1013 60 0 1.38 218 21:19 23.06.2020
1011 Clouds 22 1020 59 0 1.38 218 20:55 23.06.2020
1012 Clouds 22 1020 59 0 1.38 218 20:55 23.06.2020
1013 Clouds 21 1020 58 0 1.38 218 20:37 23.06.2020
1014 Clouds 21 1020 58 0 1.34 32 20:18 23.06.2020
1015 Clouds 23 1020 60 0 0.89 20 19:44 23.06.2020
1016 Clouds 23 1020 60 0 0.45 6 19:24 23.06.2020
1017 Clouds 24 1020 60 0 1.34 7 18:40 23.06.2020
1018 Clouds 24 1020 60 0 1.34 23 18:19 23.06.2020
1019 Clouds 24 1020 60 0 1.34 23 18:19 23.06.2020
1020 Clouds 26 1019 6 0 3.13 243 17:56 23.06.2020
1021 Clouds 26 1019 6 0 3.13 243 17:56 23.06.2020
1022 Clouds 25 1020 58 0 1.34 59 17:38 23.06.2020
1023 Clear 25 1020 56 0 1.34 15 17:18 23.06.2020
1024 Clear 25 1020 55 0 0.89 357 16:54 23.06.2020
1025 Clear 25 1013 49 0 1.34 295 16:36 23.06.2020
1026 Clear 24 1013 50 0 2.76 219 16:18 23.06.2020
1027 Clear 24 1013 50 0 1.34 275 15:42 23.06.2020
1028 Clear 23 1013 54 0 0.45 138 15:23 23.06.2020
1029 Clear 25 1013 52 0 0.45 197 14:54 23.06.2020
1030 Clear 27 1014 53 0 2.97 219 14:36 23.06.2020
1031 Clouds 23 1021 49 0 2.79 218 14:18 23.06.2020
1032 Clouds 23 1021 46 0 0.89 20 13:45 23.06.2020
1033 Clouds 23 1021 50 0 2.69 216 13:25 23.06.2020
1034 Clouds 25 1014 54 0 2.69 216 12:46 23.06.2020
1035 Clouds 21 1015 59 0 2.63 214 12:23 23.06.2020
1036 Clouds 20 1020 46 0 2.63 214 11:59 23.06.2020
1037 Clouds 19 1015 64 0 2.63 214 11:40 23.06.2020
1038 Clouds 19 1015 67 0 2.43 214 11:21 23.06.2020
1039 Clouds 17 1016 72 0 2.43 214 10:58 23.06.2020
1040 Clouds 16 1016 75 0 2.43 214 10:39 23.06.2020
1041 Clouds 16 1016 78 0 2.01 215 10:21 23.06.2020
1042 Clouds 17 1021 36 0 2.01 215 09:55 23.06.2020
1043 Clouds 14 1021 33 0 2.01 215 09:36 23.06.2020
1044 Clear 13 1021 33 0 1.33 217 09:18 23.06.2020
1045 Clear 13 1020 55 0 1.33 217 08:41 23.06.2020
1046 Clouds 12 1020 56 0 0.26 222 08:22 23.06.2020
1047 Clouds 12 1020 60 0 0.26 222 07:43 23.06.2020
1048 Clouds 12 1020 61 0 0.07 228 07:24 23.06.2020
1049 Clouds 12 1016 87 0 0.07 228 06:51 23.06.2020
1050 Clouds 12 1016 86 0 0.22 196 06:31 23.06.2020
1051 Clouds 13 1016 86 0 0.22 196 05:47 23.06.2020
1052 Clouds 13 1016 85 0 0.02 70 04:39 23.06.2020
1053 Clear 14 1017 81 0 0.29 353 03:18 23.06.2020
1054 Clear 15 1017 80 0 0.29 353 02:42 23.06.2020
1055 Clouds 15 1017 80 0 0.45 20 02:24 23.06.2020
1056 Clouds 17 1016 76 0 0.45 20 01:43 23.06.2020
1057 Clouds 18 1016 74 0 0.34 44 01:20 23.06.2020
1058 Clouds 17 1024 93 0 0.5 45 00:24 23.06.2020
1059 Clouds 19 1025 35 0 0.5 45 23:58 22.06.2020
1060 Clouds 19 1016 69 0 0.5 45 23:39 22.06.2020
1061 Clouds 19 1025 34 0 1.17 34 23:19 22.06.2020
1062 Clouds 20 1015 65 0 1.17 34 22:57 22.06.2020
1063 Clouds 20 1020 80 0 2.24 203 22:39 22.06.2020
1064 Clouds 17 1016 66 0 1.47 13 22:20 22.06.2020
1065 Clouds 21 1015 62 0 1.47 13 21:57 22.06.2020
1066 Clouds 20 1014 58 0 1.47 13 21:38 22.06.2020
1067 Clouds 19 1016 56 0 0.85 335 21:20 22.06.2020
1068 Clouds 19 1022 67 0 0.88 338 20:42 22.06.2020
1069 Clouds 19 1022 67 0 0.88 338 20:42 22.06.2020
1070 Clouds 22 1020 44 10000 5.1 220 20:24 22.06.2020
1071 Clouds 22 1020 44 10000 5.1 220 19:57 22.06.2020
1072 Clouds 22 1020 44 10000 5.1 220 19:37 22.06.2020
1073 Clouds 23 1020 45 10000 4.6 210 19:18 22.06.2020
1074 Clouds 23 1020 45 10000 4.6 210 18:40 22.06.2020
1075 Clouds 24 1020 45 10000 4.6 210 18:22 22.06.2020
1076 Clouds 27 1021 42 10000 5.1 220 17:57 22.06.2020
1077 Clouds 24 1021 42 10000 5.7 220 17:38 22.06.2020
1078 Clouds 24 1021 42 10000 5.7 220 17:20 22.06.2020
1079 Clouds 24 1021 42 10000 5.1 210 16:55 22.06.2020
1080 Clouds 24 1022 42 10000 5.7 210 16:37 22.06.2020
1081 Clouds 24 1022 42 10000 5.7 210 16:18 22.06.2020
1082 Clouds 24 1022 42 10000 5.1 220 15:44 22.06.2020
1083 Clouds 24 1022 42 10000 5.7 220 15:25 22.06.2020
1084 Clouds 24 1022 42 10000 4.6 230 14:57 22.06.2020
1085 Clouds 24 1023 34 10000 4.1 230 14:36 22.06.2020
1086 Clouds 24 1023 34 10000 4.1 230 14:18 22.06.2020
1087 Clouds 25 1023 39 10000 1 0 13:40 22.06.2020
1088 Clouds 25 1023 39 10000 1 0 13:21 22.06.2020
1089 Clouds 24 1024 36 10000 1 0 12:59 22.06.2020
1090 Clouds 24 1024 41 10000 1 0 12:40 22.06.2020
1091 Clouds 24 1024 41 10000 1 0 12:22 22.06.2020
1092 Clear 21 1024 49 10000 1 0 11:37 22.06.2020
1093 Clear 21 1024 49 10000 1 0 11:19 22.06.2020
1094 Clear 19 1025 56 10000 1 0 10:57 22.06.2020
1095 Clear 18 1025 59 10000 1 0 10:38 22.06.2020
1096 Clouds 15 1025 59 10000 1 0 10:19 22.06.2020
1097 Clouds 14 1025 63 10000 1 0 09:56 22.06.2020
1098 Clouds 13 1026 63 10000 1 0 09:38 22.06.2020
1099 Clouds 13 1026 63 10000 1 0 09:18 22.06.2020
1100 Clouds 13 1026 63 10000 1.5 20 08:54 22.06.2020
1101 Clouds 13 1020 75 0 2.64 15 08:36 22.06.2020
1102 Clouds 12 1020 78 0 3.3 14 08:18 22.06.2020
1103 Clouds 12 1024 80 0 3.3 14 07:44 22.06.2020
1104 Clouds 13 1020 78 0 3.63 16 07:23 22.06.2020
1105 Clouds 12 1020 81 0 3.63 16 06:38 22.06.2020
1106 Clouds 13 1020 80 0 3.74 16 06:19 22.06.2020
1107 Clouds 13 1020 79 0 3.74 16 05:41 22.06.2020
1108 Clouds 17 1029 36 0 3.74 16 02:59 22.06.2020
1109 Clear 15 1029 32 0 3.9 15 01:38 22.06.2020
1110 Clear 16 1029 28 0 3.96 14 00:43 22.06.2020
1111 Clear 14 1026 88 0 0.89 359 00:22 22.06.2020
1112 Clear 14 1026 87 0 1.34 359 23:55 21.06.2020
1113 Clear 12 1026 91 0 0.89 3 23:36 21.06.2020
1114 Clear 12 1026 90 0 0.89 253 23:18 21.06.2020
1115 Clear 12 1025 90 0 1.79 359 22:54 21.06.2020
1116 Clear 12 1025 85 0 1.34 246 22:36 21.06.2020
1117 Clear 12 1025 86 0 0.89 359 22:36 21.06.2020
1118 Clear 12 1025 85 0 1.34 246 22:36 21.06.2020
1119 Clear 14 1025 77 0 0.89 98 22:18 21.06.2020
1120 Clear 14 1025 81 0 1.34 239 21:42 21.06.2020
1121 Clear 16 1025 80 0 1.34 359 21:22 21.06.2020
1122 Clouds 19 1024 83 0 0.89 17 20:59 21.06.2020
1123 Clouds 21 1021 26 10000 5.1 310 20:38 21.06.2020
1124 Clouds 22 1021 26 10000 5.1 310 20:19 21.06.2020
1125 Clouds 21 1021 26 10000 5.1 310 19:57 21.06.2020
1126 Clouds 21 1021 26 10000 5.1 310 19:38 21.06.2020
1127 Clouds 21 1021 26 10000 5.1 310 19:20 21.06.2020
1128 Clouds 21 1021 26 10000 3.6 250 18:55 21.06.2020
1129 Clouds 21 1021 37 10000 2.6 220 18:37 21.06.2020
1130 Clouds 26 1021 37 10000 2.6 220 18:18 21.06.2020
1131 Clouds 25 1022 32 10000 3.1 210 17:40 21.06.2020
1132 Clouds 25 1022 32 10000 3.1 210 17:21 21.06.2020
1133 Clouds 25 1022 37 10000 4.1 200 16:56 21.06.2020
1134 Clouds 25 1022 37 10000 4.1 200 16:56 21.06.2020
1135 Clouds 26 1022 35 10000 3.6 190 16:38 21.06.2020
1136 Clouds 25 1022 35 10000 3.6 190 16:19 21.06.2020
1137 Clouds 25 1022 34 10000 4.6 200 15:39 21.06.2020
1138 Clouds 25 1022 34 10000 4.6 200 15:21 21.06.2020
1139 Clouds 25 1022 34 10000 4.1 200 14:55 21.06.2020
1140 Clouds 25 1023 34 10000 4.6 200 14:36 21.06.2020
1141 Clouds 25 1023 34 10000 4.6 200 14:18 21.06.2020
1142 Clouds 24 1023 41 10000 2.1 240 13:41 21.06.2020
1143 Clouds 24 1023 41 10000 2.1 240 13:22 21.06.2020
1144 Clouds 23 1024 43 10000 1.5 0 12:56 21.06.2020
1145 Clouds 22 1024 53 10000 1 0 12:37 21.06.2020
1146 Clouds 17 1024 53 10000 1 0 12:19 21.06.2020
1147 Clouds 21 1024 60 10000 1 0 11:42 21.06.2020
1148 Clouds 17 1024 60 10000 1 0 11:23 21.06.2020
1149 Clouds 16 1023 64 0 0.45 4 10:58 21.06.2020
1150 Clouds 16 1020 51 0 1.93 352 10:39 21.06.2020
1151 Clouds 15 1020 57 0 2.1 5 10:21 21.06.2020
1152 Clouds 13 1023 61 0 2.1 5 09:44 21.06.2020
1153 Clouds 12 1023 55 0 2.54 10 09:23 21.06.2020
1154 Clouds 12 1023 56 0 0.89 297 08:57 21.06.2020
1155 Clouds 12 1020 69 0 2.54 14 08:39 21.06.2020
1156 Clouds 11 1023 68 0 2.91 17 08:20 21.06.2020
1157 Clouds 11 1020 76 0 2.91 17 07:42 21.06.2020
1158 Clouds 11 1019 76 0 3.18 18 07:23 21.06.2020
1159 Clouds 11 1019 78 0 3.18 18 06:50 21.06.2020
1160 Clouds 11 1019 78 0 2.95 17 06:28 21.06.2020
1161 Clouds 11 1022 64 0 0.45 232 05:57 21.06.2020
1162 Clear 11 1019 84 0 2.64 14 04:34 21.06.2020
1163 Clear 12 1019 83 0 2.06 12 03:19 21.06.2020
1164 Clear 12 1023 84 0 2.06 12 02:33 21.06.2020
1165 Clouds 13 1023 85 0 2.24 13 01:37 21.06.2020
1166 Clouds 13 1023 86 0 2.33 10 01:19 21.06.2020
1167 Clouds 13 1026 44 0 2.33 10 00:42 21.06.2020
1168 Clouds 13 1026 44 0 1.96 14 00:23 21.06.2020
1169 Clouds 13 1023 85 0 1.96 14 23:45 20.06.2020
1170 Clouds 14 1023 85 0 2.08 12 23:22 20.06.2020
1171 Clouds 15 1023 84 0 2.08 12 22:57 20.06.2020
1172 Clouds 15 1023 84 0 2.08 12 22:39 20.06.2020
1173 Clouds 15 1022 83 0 1.89 5 22:20 20.06.2020
1174 Clouds 15 1022 83 0 1.89 5 21:58 20.06.2020
1175 Clouds 15 1018 72 0 1.89 5 21:39 20.06.2020
1176 Rain 16 1018 71 0 1.41 354 21:20 20.06.2020
1177 Rain 16 1022 91 0 1.41 354 20:58 20.06.2020
1178 Clouds 18 1020 44 10000 5.1 210 20:39 20.06.2020
1179 Clouds 19 1020 44 10000 5.1 210 20:20 20.06.2020
1180 Clouds 19 1020 44 10000 5.1 210 19:44 20.06.2020
1181 Clouds 18 1020 44 10000 5.1 210 19:25 20.06.2020
1182 Clouds 19 1020 44 10000 5.7 210 18:59 20.06.2020
1183 Clouds 19 1021 47 10000 6.7 210 18:40 20.06.2020
1184 Clouds 19 1021 47 10000 6.7 210 18:19 20.06.2020
1185 Clouds 19 1021 50 10000 5.1 210 17:56 20.06.2020
1186 Clouds 20 1021 47 10000 4.6 220 17:38 20.06.2020
1187 Clouds 20 1021 47 10000 4.6 220 17:19 20.06.2020
1188 Clouds 21 1021 47 10000 4.6 190 16:41 20.06.2020
1189 Clouds 21 1021 47 10000 4.6 190 16:19 20.06.2020
1190 Clouds 21 1022 44 10000 2.6 230 15:57 20.06.2020
1191 Clouds 21 1022 44 10000 4.1 200 15:38 20.06.2020
1192 Clouds 20 1022 44 10000 4.1 200 15:18 20.06.2020
1193 Clouds 20 1022 47 10000 4.1 190 14:42 20.06.2020
1194 Clouds 21 1022 47 10000 4.1 190 14:20 20.06.2020
1195 Clouds 20 1022 50 10000 4.1 190 13:42 20.06.2020
1196 Clouds 20 1022 50 10000 4.1 190 13:20 20.06.2020
1197 Clouds 19 1023 56 10000 1.5 0 12:56 20.06.2020
1198 Clouds 19 1023 56 10000 1 0 12:38 20.06.2020
1199 Clouds 22 1023 56 10000 1 0 12:19 20.06.2020
1200 Clouds 20 1023 60 10000 1 0 11:40 20.06.2020
1201 Clouds 20 1023 60 10000 1 0 11:21 20.06.2020
1202 Clouds 18 1019 79 0 1.9 227 10:58 20.06.2020
1203 Clouds 17 1019 84 0 1.9 227 10:40 20.06.2020
1204 Clear 14 1019 88 0 1.25 241 10:20 20.06.2020
1205 Clear 12 1021 80 0 1.25 241 09:43 20.06.2020
1206 Clear 11 1019 94 0 0.64 275 09:25 20.06.2020
1207 Clear 11 1021 80 0 0.64 275 08:58 20.06.2020
1208 Clear 11 1019 93 0 0.64 275 08:39 20.06.2020
1209 Clouds 10 1019 93 0 0.57 358 08:21 20.06.2020
1210 Clouds 10 1019 92 0 0.57 358 07:50 20.06.2020
1211 Clouds 10 1019 93 0 0.76 3 07:25 20.06.2020
1212 Clouds 9 1020 82 0 0.76 3 06:44 20.06.2020
1213 Clouds 10 1019 93 0 0.66 338 06:20 20.06.2020
1214 Clouds 10 1020 83 0 0.66 338 05:47 20.06.2020
1215 Clouds 11 1019 91 0 0.58 302 03:53 20.06.2020
1216 Clouds 12 1019 90 0 0.23 272 01:54 20.06.2020
1217 Clouds 12 1019 90 0 0.23 272 01:36 20.06.2020
1218 Clouds 12 1019 87 0 0.13 350 00:45 20.06.2020
1219 Clouds 13 1020 82 0 0.46 354 00:20 20.06.2020
1220 Clouds 13 1020 82 0 0.46 354 23:41 19.06.2020
1221 Clouds 13 1020 82 0 0.69 354 23:19 19.06.2020
1222 Clouds 14 1020 82 0 0.69 354 22:55 19.06.2020
1223 Clouds 14 1020 82 0 0.69 354 22:37 19.06.2020
1224 Rain 13 1017 82 0 0.72 336 22:19 19.06.2020
1225 Rain 14 1019 82 0 0.72 336 21:54 19.06.2020
1226 Rain 14 1019 83 0 0.72 336 21:36 19.06.2020
1227 Rain 16 1019 82 0 0.6 322 21:18 19.06.2020
1228 Rain 15 1018 82 0 0.6 322 20:55 19.06.2020
1229 Clouds 17 1019 56 10000 5.7 200 20:37 19.06.2020
1230 Clouds 17 1019 56 10000 5.7 200 20:18 19.06.2020
1231 Clouds 17 1019 56 10000 5.7 200 19:42 19.06.2020
1232 Clouds 17 1019 56 10000 5.7 200 19:42 19.06.2020
1233 Clouds 17 1019 56 10000 5.7 200 19:23 19.06.2020
1234 Clouds 16 1019 56 10000 5.1 210 18:59 19.06.2020
1235 Clouds 17 1019 56 10000 5.7 220 18:39 19.06.2020
1236 Clouds 18 1019 53 10000 5.7 210 18:20 19.06.2020
1237 Clouds 19 1019 49 10000 5.7 210 17:42 19.06.2020
1238 Clouds 19 1019 49 10000 5.7 210 17:42 19.06.2020
1239 Clouds 17 1019 49 10000 5.7 210 17:23 19.06.2020
1240 Clouds 19 1019 49 10000 5.1 210 16:57 19.06.2020
1241 Clouds 18 1019 53 10000 4.6 210 16:39 19.06.2020
1242 Clouds 19 1019 53 10000 4.6 210 16:21 19.06.2020
1243 Clouds 18 1019 53 10000 5.1 210 15:45 19.06.2020
1244 Clouds 17 1020 64 10000 3.1 220 15:25 19.06.2020
1245 Clouds 18 1020 60 10000 1.5 0 14:58 19.06.2020
1246 Clouds 17 1020 68 10000 1.5 170 14:39 19.06.2020
1247 Clouds 18 1020 68 10000 1.5 170 14:21 19.06.2020
1248 Clouds 16 1021 72 10000 2.6 220 13:58 19.06.2020
1249 Clouds 19 1021 68 10000 1 0 13:39 19.06.2020
1250 Clouds 15 1021 68 10000 1 0 13:21 19.06.2020
1251 Clouds 14 1021 87 10000 1 0 12:44 19.06.2020
1252 Clouds 14 1021 87 10000 1 0 12:20 19.06.2020
1253 Clouds 12 1021 93 9000 2.1 240 11:41 19.06.2020
1254 Rain 13 1016 81 0 2.17 218 11:19 19.06.2020
1255 Rain 13 1016 81 0 2.17 218 10:59 19.06.2020
1256 Rain 13 1016 82 0 2.17 218 10:41 19.06.2020
1257 Rain 13 1018 86 0 2.17 218 10:41 19.06.2020
1258 Rain 13 1018 85 0 2.15 214 10:20 19.06.2020
1259 Rain 10 1016 82 0 0.45 246 09:44 19.06.2020
1260 Clouds 11 1018 89 0 1.93 219 09:25 19.06.2020
1261 Clouds 10 1018 90 0 1.93 219 08:58 19.06.2020
1262 Clouds 10 1018 90 0 1.93 219 08:38 19.06.2020
1263 Clouds 9 1018 92 0 1.64 210 08:20 19.06.2020
1264 Clouds 9 1017 92 0 1.64 210 07:41 19.06.2020
1265 Clouds 9 1017 92 0 0.78 196 07:21 19.06.2020
1266 Clouds 9 1017 91 0 0.78 196 06:45 19.06.2020
1267 Clouds 9 1017 90 0 1.15 234 06:21 19.06.2020
1268 Clouds 11 1021 57 0 0.72 174 04:59 19.06.2020
1269 Clear 13 1021 55 0 0.26 99 03:31 19.06.2020
1270 Clear 13 1021 50 0 0.55 19 01:45 19.06.2020
1271 Clear 13 1020 94 0 0.9 21 00:43 19.06.2020
1272 Clear 14 1017 89 0 0.89 293 00:22 19.06.2020
1273 Clear 14 1021 46 0 1.03 9 23:56 18.06.2020
1274 Clear 14 1021 46 0 1.03 9 23:56 18.06.2020
1275 Clear 14 1021 45 0 1.03 9 23:37 18.06.2020
1276 Clear 15 1021 45 0 0.82 35 23:19 18.06.2020
1277 Clear 15 1020 42 0 0.82 35 22:39 18.06.2020
1278 Clear 13 1015 84 0 0.45 13 22:20 18.06.2020
1279 Clear 13 1014 86 0 0.29 112 21:56 18.06.2020
1280 Clouds 14 1015 56 10000 3.6 220 21:36 18.06.2020
1281 Clouds 14 1015 56 10000 3.6 220 21:18 18.06.2020
1282 Clouds 14 1015 56 10000 3.6 220 20:40 18.06.2020
1283 Clouds 15 1015 56 10000 3.6 220 20:20 18.06.2020
1284 Clouds 15 1015 46 10000 5.1 200 19:56 18.06.2020
1285 Clouds 15 1015 43 10000 4.6 210 19:38 18.06.2020
1286 Clouds 15 1015 43 10000 4.6 210 19:19 18.06.2020
1287 Rain 16 1015 46 10000 5.7 210 18:38 18.06.2020
1288 Rain 16 1015 46 10000 5.7 210 18:19 18.06.2020
1289 Clouds 15 1015 46 10000 4.6 200 17:45 18.06.2020
1290 Clouds 15 1015 43 10000 5.1 190 17:26 18.06.2020
1291 Clouds 16 1015 43 10000 5.1 200 16:57 18.06.2020
1292 Clouds 16 1015 46 10000 6.2 200 16:39 18.06.2020
1293 Clouds 16 1015 46 10000 6.2 200 16:20 18.06.2020
1294 Clouds 15 1015 49 10000 5.7 190 15:57 18.06.2020
1295 Clouds 15 1015 46 10000 5.7 200 15:38 18.06.2020
1296 Clouds 16 1015 46 10000 5.7 200 15:19 18.06.2020
1297 Clouds 16 1015 46 10000 5.7 200 14:55 18.06.2020
1298 Clouds 16 1015 46 10000 5.1 200 14:37 18.06.2020
1299 Clouds 16 1015 46 10000 5.1 200 14:18 18.06.2020
1300 Clouds 15 1016 52 10000 3.1 230 13:41 18.06.2020
1301 Clouds 15 1016 52 10000 3.1 230 13:23 18.06.2020
1302 Clouds 15 1016 52 10000 2.6 240 12:56 18.06.2020
1303 Clouds 15 1016 52 10000 2.6 240 12:56 18.06.2020
1304 Clouds 15 1016 55 10000 1.5 200 12:37 18.06.2020
1305 Clouds 14 1016 55 10000 1.5 200 12:19 18.06.2020
1306 Clouds 13 1016 63 10000 1.5 0 11:47 18.06.2020
1307 Clouds 13 1016 72 10000 1.5 0 11:21 18.06.2020
1308 Clouds 13 1011 82 0 1.42 190 10:41 18.06.2020
1309 Rain 12 1011 81 0 1.98 190 10:21 18.06.2020
1310 Rain 9 1011 82 0 1.79 170 09:59 18.06.2020
1311 Rain 9 1011 82 0 0.89 122 09:41 18.06.2020
1312 Rain 10 1011 82 0 2.24 204 09:22 18.06.2020
1313 Rain 10 1011 82 0 1.34 212 08:41 18.06.2020
1314 Rain 10 1011 83 0 2.07 233 08:22 18.06.2020
1315 Rain 10 1017 51 0 2.07 233 07:57 18.06.2020
1316 Rain 10 1011 82 0 2.07 233 07:37 18.06.2020
1317 Rain 10 1011 82 0 0.89 110 07:37 18.06.2020
1318 Rain 10 1011 82 0 1.34 186 07:19 18.06.2020
1319 Clouds 9 1011 83 0 1.34 197 06:22 18.06.2020
1320 Clouds 10 1011 82 0 0.89 152 04:26 18.06.2020
1321 Clouds 13 1019 50 0 0.43 161 02:51 18.06.2020
1322 Clouds 12 1020 48 0 0.59 153 01:30 18.06.2020
1323 Clouds 12 1020 48 0 0.51 163 00:58 18.06.2020
1324 Clouds 12 1020 48 0 0.51 163 00:39 18.06.2020
1325 Clouds 12 1020 47 0 0.19 71 00:20 18.06.2020
1326 Clouds 13 1020 46 0 0.19 71 23:44 17.06.2020
1327 Clouds 13 1020 46 0 0.47 32 23:21 17.06.2020
1328 Clouds 13 1019 94 0 0.47 32 22:57 17.06.2020
1329 Clouds 13 1019 94 0 0.47 32 22:57 17.06.2020
1330 Clouds 13 1020 43 0 0.47 32 22:38 17.06.2020
1331 Clouds 11 1013 88 0 0.45 350 22:20 17.06.2020
1332 Clouds 10 1012 87 0 0.45 350 21:55 17.06.2020
1333 Clouds 11 1012 87 0 0.45 350 21:37 17.06.2020
1334 Clouds 11 1012 88 0 0.67 255 21:18 17.06.2020
1335 Clouds 12 1012 84 0 0.45 37 20:38 17.06.2020
1336 Clouds 13 1012 87 0 0.89 3 20:20 17.06.2020
1337 Clouds 13 1012 83 0 0.45 10 19:56 17.06.2020
1338 Clouds 14 1012 83 0 0.45 24 19:37 17.06.2020
1339 Rain 14 1012 89 0 2.1 245 19:18 17.06.2020
1340 Rain 15 1012 86 0 2.1 245 18:44 17.06.2020
1341 Rain 15 1012 83 0 0.89 11 18:26 17.06.2020
1342 Rain 14 1012 82 0 0.89 15 17:44 17.06.2020
1343 Rain 13 1012 87 0 0.45 35 17:22 17.06.2020
1344 Rain 17 1018 13 0 3.36 230 16:57 17.06.2020
1345 Rain 17 1018 13 0 3.36 230 16:57 17.06.2020
1346 Rain 14 1018 11 0 2.68 248 16:39 17.06.2020
1347 Rain 14 1012 82 0 0.45 6 16:39 17.06.2020
1348 Rain 14 1012 80 0 3.64 226 16:20 17.06.2020
1349 Rain 14 1012 79 0 3.64 226 15:56 17.06.2020
1350 Rain 16 1012 79 0 3.64 226 15:38 17.06.2020
1351 Rain 15 1012 82 0 3.84 224 15:18 17.06.2020
1352 Rain 16 1012 81 0 3.84 224 14:57 17.06.2020
1353 Rain 16 1012 82 0 3.84 224 14:38 17.06.2020
1354 Rain 16 1012 83 0 1.34 8 14:19 17.06.2020
1355 Rain 15 1012 82 0 3.82 228 13:42 17.06.2020
1356 Rain 12 1012 86 0 3.52 227 13:22 17.06.2020
1357 Rain 14 1012 84 0 0.89 6 12:58 17.06.2020
1358 Rain 14 1012 83 0 3.52 227 12:40 17.06.2020
1359 Rain 12 1012 86 0 3.25 220 12:20 17.06.2020
1360 Rain 12 1012 85 0 3.25 220 11:44 17.06.2020
1361 Rain 11 1011 86 0 2.79 215 11:24 17.06.2020
1362 Rain 11 1012 86 0 2.79 215 10:55 17.06.2020
1363 Rain 10 1011 86 0 2.79 215 10:36 17.06.2020
1364 Rain 10 1012 87 0 1.83 220 10:18 17.06.2020
1365 Rain 10 1012 87 0 1.83 220 09:54 17.06.2020
1366 Rain 10 1012 87 0 1.19 246 09:36 17.06.2020
1367 Rain 10 1012 87 0 1.19 246 09:36 17.06.2020
1368 Clouds 10 1011 87 0 0.86 246 09:18 17.06.2020
1369 Clouds 9 1011 87 0 0.69 320 08:41 17.06.2020
1370 Clouds 9 1011 87 0 0.88 352 08:19 17.06.2020
1371 Clouds 9 1011 87 0 0.88 352 08:19 17.06.2020
1372 Clouds 8 1011 87 0 0.88 352 07:43 17.06.2020
1373 Clouds 8 1011 85 0 1.48 23 07:22 17.06.2020
1374 Clouds 9 1011 87 0 1.48 23 06:56 17.06.2020
1375 Clouds 9 1011 88 0 1.48 23 06:38 17.06.2020
1376 Clouds 8 1011 84 0 1.51 24 06:20 17.06.2020
1377 Clouds 9 1011 86 0 1.51 24 05:31 17.06.2020
1378 Clouds 9 1012 86 0 1.71 20 03:30 17.06.2020
1379 Clouds 11 1015 92 0 1.7 24 01:54 17.06.2020
1380 Clouds 11 1015 91 0 1.85 22 00:47 17.06.2020
1381 Clouds 11 1015 91 0 1.95 15 00:23 17.06.2020
1382 Clouds 12 1021 71 0 1.95 15 23:56 16.06.2020
1383 Clouds 11 1021 70 0 1.95 15 23:37 16.06.2020
1384 Clouds 11 1021 70 0 2.33 24 23:19 16.06.2020
1385 Clouds 10 1014 89 0 0.45 13 22:55 16.06.2020
1386 Clouds 12 1021 67 0 2.33 24 22:37 16.06.2020
1387 Clouds 11 1013 85 0 2.88 18 22:18 16.06.2020
1388 Clouds 11 1014 87 0 2.88 18 21:47 16.06.2020
1389 Clouds 11 1014 83 0 2.82 25 21:24 16.06.2020
1390 Clouds 11 1014 89 0 2.82 25 20:57 16.06.2020
1391 Clouds 11 1020 53 0 2.82 25 20:39 16.06.2020
1392 Rain 11 1013 82 0 0.89 7 20:19 16.06.2020
1393 Rain 11 1014 84 0 3.24 20 19:57 16.06.2020
1394 Rain 11 1013 90 0 0.45 4 19:38 16.06.2020
1395 Rain 11 1013 82 0 0.89 7 19:20 16.06.2020
1396 Rain 12 1013 86 0 0.45 11 18:45 16.06.2020
1397 Rain 13 1013 85 0 0.93 323 18:22 16.06.2020
1398 Rain 13 1013 87 0 0.93 323 18:00 16.06.2020
1399 Rain 13 1013 86 0 0.89 330 17:39 16.06.2020
1400 Rain 11 1013 89 0 0.67 245 17:21 16.06.2020
1401 Rain 13 1013 84 0 0.67 245 17:00 16.06.2020
1402 Rain 11 1013 83 0 0.45 343 16:41 16.06.2020
1403 Rain 12 1013 83 0 0.98 209 16:20 16.06.2020
1404 Rain 13 1013 83 0 0.89 17 15:57 16.06.2020
1405 Rain 13 1013 83 0 0.89 17 15:57 16.06.2020
1406 Rain 13 1013 83 0 0.98 209 15:39 16.06.2020
1407 Rain 12 1013 83 0 1.58 208 15:21 16.06.2020
1408 Rain 12 1013 83 0 1.58 208 14:56 16.06.2020
1409 Rain 12 1013 92 0 1.58 208 14:38 16.06.2020
1410 Rain 12 1014 83 0 2.02 222 14:20 16.06.2020
1411 Rain 12 1014 90 0 2.02 222 13:46 16.06.2020
1412 Rain 12 1014 89 0 1.74 223 13:25 16.06.2020
1413 Rain 13 1014 89 0 1.74 223 12:55 16.06.2020
1414 Rain 13 1014 84 0 1.74 223 12:37 16.06.2020
1415 Rain 13 1014 83 0 1.93 219 12:18 16.06.2020
1416 Rain 13 1014 85 0 1.93 219 11:41 16.06.2020
1417 Rain 12 1014 84 0 1.35 194 11:23 16.06.2020
1418 Rain 12 1014 85 0 1.35 194 10:59 16.06.2020
1419 Rain 13 1015 86 0 1.35 194 10:40 16.06.2020
1420 Rain 11 1015 94 0 1.55 169 10:20 16.06.2020
1421 Rain 11 1015 94 0 1.55 169 09:45 16.06.2020
1422 Rain 10 1015 94 0 1.61 190 09:23 16.06.2020
1423 Rain 10 1015 94 0 1.31 194 08:53 16.06.2020
1424 Rain 10 1015 94 0 1.31 194 08:33 16.06.2020
1425 Rain 10 1015 93 0 0.98 198 07:52 16.06.2020
1426 Rain 10 1015 87 0 0.51 164 07:30 16.06.2020
1427 Rain 10 1015 86 0 0.51 164 06:57 16.06.2020
1428 Rain 10 1015 86 0 0.51 164 06:34 16.06.2020
1429 Rain 10 1015 90 0 0.16 44 05:52 16.06.2020
1430 Clouds 10 1015 90 0 0.52 74 04:55 16.06.2020
1431 Rain 10 1016 89 0 0.24 56 03:56 16.06.2020
1432 Clouds 12 1017 87 0 0.65 35 02:35 16.06.2020
1433 Clouds 11 1017 81 0 1.94 22 01:34 16.06.2020
1434 Clouds 12 1018 86 0 1.91 14 00:55 16.06.2020
1435 Clouds 12 1018 87 0 1.92 11 00:22 16.06.2020
1436 Clouds 12 1018 87 0 1.92 11 23:56 15.06.2020
1437 Clouds 12 1018 87 0 1.92 11 23:37 15.06.2020
1438 Clouds 12 1018 88 0 1.61 8 23:19 15.06.2020
1439 Clouds 12 1018 88 0 1.61 8 22:42 15.06.2020
1440 Clouds 12 1017 76 0 1.54 8 22:22 15.06.2020
1441 Clouds 12 1016 74 0 0.45 152 21:58 15.06.2020
1442 Clouds 12 1016 74 0 0.45 152 21:58 15.06.2020
1443 Clouds 12 1017 73 0 0.45 193 21:38 15.06.2020
1444 Rain 13 1016 73 0 0.89 204 21:20 15.06.2020
1445 Rain 13 1018 90 0 1.17 342 20:57 15.06.2020
1446 Clouds 16 1018 33 10000 5.1 220 20:38 15.06.2020
1447 Clouds 16 1018 33 10000 5.1 220 20:19 15.06.2020
1448 Clouds 16 1018 33 10000 5.1 220 19:56 15.06.2020
1449 Clouds 16 1018 33 10000 5.1 220 19:38 15.06.2020
1450 Clouds 16 1018 33 10000 5.1 220 19:20 15.06.2020
1451 Clouds 17 1018 36 10000 5.1 220 18:56 15.06.2020
1452 Clouds 17 1018 36 10000 5.1 220 18:56 15.06.2020
1453 Clouds 17 1018 33 10000 5.7 230 18:37 15.06.2020
1454 Clouds 17 1018 33 10000 5.7 230 18:19 15.06.2020
1455 Clouds 18 1019 36 10000 6.2 220 17:42 15.06.2020
1456 Clouds 17 1019 36 10000 6.2 220 17:22 15.06.2020
1457 Clouds 17 1019 36 10000 6.2 220 16:59 15.06.2020
1458 Clouds 17 1019 36 10000 6.2 220 16:59 15.06.2020
1459 Clouds 18 1019 38 10000 7.7 210 16:41 15.06.2020
1460 Clouds 18 1019 38 10000 7.7 210 16:19 15.06.2020
1461 Clouds 18 1019 38 10000 5.7 200 15:56 15.06.2020
1462 Clouds 18 1019 38 10000 5.7 200 15:37 15.06.2020
1463 Clouds 18 1019 38 10000 5.7 200 15:18 15.06.2020
1464 Clouds 17 1020 40 10000 6.2 200 14:42 15.06.2020
1465 Clouds 16 1020 40 10000 6.2 200 14:21 15.06.2020
1466 Clouds 16 1020 43 10000 5.7 210 13:59 15.06.2020
1467 Clouds 16 1020 43 10000 5.7 210 13:59 15.06.2020
1468 Clouds 18 1021 40 10000 4.1 190 13:40 15.06.2020
1469 Clouds 18 1021 40 10000 4.1 190 13:22 15.06.2020
1470 Clouds 16 1021 40 10000 4.1 200 12:56 15.06.2020
1471 Clouds 16 1021 43 10000 4.6 200 12:38 15.06.2020
1472 Clouds 15 1021 43 10000 4.6 200 12:19 15.06.2020
1473 Clouds 14 1021 63 10000 1 0 11:43 15.06.2020
1474 Clouds 14 1021 63 10000 1 0 11:24 15.06.2020
1475 Clouds 12 1022 63 10000 1 0 10:44 15.06.2020
1476 Clouds 12 1022 63 10000 1 0 10:22 15.06.2020
1477 Clouds 11 1018 83 0 1.94 238 09:47 15.06.2020
1478 Clouds 11 1018 84 0 1.44 242 09:25 15.06.2020
1479 Clouds 10 1017 83 0 1.79 195 08:57 15.06.2020
1480 Clouds 10 1018 86 0 1.36 249 08:39 15.06.2020
1481 Clouds 10 1018 86 0 1.36 249 08:39 15.06.2020
1482 Clouds 10 1017 83 0 0.59 292 08:20 15.06.2020
1483 Clouds 9 1017 85 0 0.59 292 07:45 15.06.2020
1484 Clouds 10 1018 88 0 0.95 12 07:22 15.06.2020
1485 Clouds 10 1018 86 0 0.95 12 06:38 15.06.2020
1486 Clouds 10 1018 86 0 1.3 17 06:19 15.06.2020
1487 Clouds 10 1018 85 0 1.3 17 05:39 15.06.2020
1488 Clouds 10 1018 84 0 1.49 23 05:20 15.06.2020
1489 Clouds 10 1017 84 0 1.65 19 04:18 15.06.2020
1490 Clouds 11 1018 83 0 1.65 19 03:37 15.06.2020
1491 Clouds 11 1017 86 0 1.63 19 02:34 15.06.2020
1492 Clouds 11 1018 87 0 1.64 14 01:51 15.06.2020
1493 Clouds 11 1018 85 0 1.64 14 01:30 15.06.2020
1494 Rain 11 1018 85 0 1.51 11 00:56 15.06.2020
1495 Rain 12 1024 52 0 1.51 11 00:38 15.06.2020
1496 Rain 12 1023 52 0 1.28 7 00:18 15.06.2020
1497 Rain 12 1018 83 0 1.28 7 23:42 14.06.2020
1498 Rain 13 1017 84 0 0.88 355 23:24 14.06.2020
1499 Rain 13 1017 84 0 0.88 355 23:24 14.06.2020
1500 Rain 12 1017 83 0 0.88 355 22:58 14.06.2020
1501 Rain 12 1017 82 0 0.88 355 22:38 14.06.2020
1502 Rain 12 1018 71 0 0.51 248 22:19 14.06.2020
1503 Rain 13 1017 81 0 0.51 248 21:57 14.06.2020
1504 Rain 14 1017 81 0 0.51 248 21:38 14.06.2020
1505 Rain 13 1017 81 0 0.45 13 21:19 14.06.2020
1506 Rain 13 1017 81 0 0.45 13 21:19 14.06.2020
1507 Rain 13 1017 81 0 1.06 231 20:57 14.06.2020
1508 Clouds 14 1018 42 10000 1 0 20:38 14.06.2020
1509 Clouds 14 1018 42 10000 1 0 20:19 14.06.2020
1510 Clouds 15 1018 42 10000 1 0 19:56 14.06.2020
1511 Clouds 15 1018 42 10000 1 0 19:37 14.06.2020
1512 Clouds 15 1018 42 10000 1 0 19:19 14.06.2020
1513 Clouds 15 1018 42 10000 1 0 18:56 14.06.2020
1514 Clouds 15 1018 42 10000 1.5 0 18:37 14.06.2020
1515 Clouds 15 1018 42 10000 1.5 0 18:18 14.06.2020
1516 Clouds 15 1018 42 10000 1.5 0 18:18 14.06.2020
1517 Clouds 15 1019 40 10000 2.6 260 17:55 14.06.2020
1518 Clouds 18 1019 42 10000 3.1 250 17:36 14.06.2020
1519 Clouds 15 1019 42 10000 3.1 250 17:18 14.06.2020
1520 Clouds 15 1019 42 10000 2.1 230 16:40 14.06.2020
1521 Clouds 15 1019 42 10000 2.1 230 16:20 14.06.2020
1522 Clouds 15 1019 42 10000 2.1 230 16:20 14.06.2020
1523 Clouds 15 1019 42 10000 3.1 200 15:57 14.06.2020
1524 Clouds 17 1019 40 10000 4.6 220 15:39 14.06.2020
1525 Clouds 18 1019 40 10000 4.6 220 15:18 14.06.2020
1526 Clouds 17 1019 40 10000 3.6 220 14:55 14.06.2020
1527 Clouds 17 1020 40 10000 4.6 240 14:36 14.06.2020
1528 Clouds 16 1020 40 10000 4.6 240 14:18 14.06.2020
1529 Clouds 14 1020 42 10000 4.1 190 13:41 14.06.2020
1530 Clouds 14 1020 42 10000 4.1 190 13:22 14.06.2020
1531 Clouds 13 1020 52 10000 2.1 200 12:59 14.06.2020
1532 Clouds 17 1020 55 10000 1.5 260 12:40 14.06.2020
1533 Clouds 17 1020 55 10000 1.5 260 12:21 14.06.2020
1534 Clouds 17 1020 55 10000 1.5 0 11:58 14.06.2020
1535 Clouds 16 1020 63 10000 1 0 11:39 14.06.2020
1536 Clouds 12 1020 63 10000 1 0 11:20 14.06.2020
1537 Clouds 10 1020 76 10000 1 0 10:42 14.06.2020
1538 Clouds 10 1020 76 10000 1 0 10:20 14.06.2020
1539 Clouds 10 1015 84 0 2.14 216 09:57 14.06.2020
1540 Clouds 9 1018 87 0 2.14 216 09:39 14.06.2020
1541 Clouds 9 1018 88 0 1.25 204 09:20 14.06.2020
1542 Clouds 8 1017 89 0 1.25 204 08:42 14.06.2020
1543 Clouds 6 1017 90 0 0.26 74 08:19 14.06.2020
1544 Clouds 7 1015 84 0 0.26 74 07:52 14.06.2020
1545 Clouds 6 1017 91 0 0.26 74 07:34 14.06.2020
1546 Clear 6 1017 91 0 0.43 67 06:39 14.06.2020
1547 Clear 7 1017 90 0 0.45 62 05:47 14.06.2020
1548 Clear 7 1016 90 0 0.55 48 05:18 14.06.2020
1549 Clear 7 1017 89 0 0.55 48 04:35 14.06.2020
1550 Clear 8 1016 87 0 0.6 12 03:36 14.06.2020
1551 Clouds 8 1015 83 0 0.37 6 02:32 14.06.2020
1552 Rain 8 1017 84 0 0.12 113 01:47 14.06.2020
1553 Clouds 8 1017 84 0 0.26 91 01:26 14.06.2020
1554 Clouds 10 1022 53 0 0.26 91 00:40 14.06.2020
1555 Clouds 9 1015 82 0 1.2 34 00:19 14.06.2020
1556 Clouds 10 1015 84 0 1.2 34 23:44 13.06.2020
1557 Clouds 9 1016 78 0 1.87 24 23:24 13.06.2020
1558 Clouds 9 1016 79 0 1.87 24 22:57 13.06.2020
1559 Clouds 10 1014 91 0 1.87 24 22:37 13.06.2020
1560 Rain 8 1014 90 0 0.89 13 22:18 13.06.2020
1561 Rain 9 1015 74 0 0.45 163 21:55 13.06.2020
1562 Rain 9 1015 75 0 0.45 205 21:37 13.06.2020
1563 Rain 9 1014 73 0 2.3 9 21:18 13.06.2020
1564 Rain 9 1013 88 0 0.45 27 20:42 13.06.2020
1565 Clouds 15 1014 40 10000 5.1 210 20:19 13.06.2020
1566 Clouds 13 1014 40 10000 5.1 210 19:54 13.06.2020
1567 Clouds 13 1014 40 10000 5.1 210 19:36 13.06.2020
1568 Clouds 13 1014 40 10000 5.1 210 19:18 13.06.2020
1569 Clouds 13 1014 40 10000 5.1 210 19:18 13.06.2020
1570 Clouds 14 1013 37 10000 5.1 200 18:41 13.06.2020
1571 Clouds 14 1013 37 10000 5.1 200 18:21 13.06.2020
1572 Clouds 14 1013 43 10000 5.7 190 18:00 13.06.2020
1573 Clouds 14 1013 40 10000 6.2 200 17:41 13.06.2020
1574 Clouds 14 1013 40 10000 6.2 200 17:23 13.06.2020
1575 Clouds 15 1013 40 10000 5.1 200 16:56 13.06.2020
1576 Clouds 14 1013 42 10000 5.1 190 16:38 13.06.2020
1577 Clouds 15 1013 43 10000 4.1 190 16:19 13.06.2020
1578 Clouds 16 1013 43 10000 4.1 210 15:44 13.06.2020
1579 Clouds 16 1013 43 10000 4.1 210 15:26 13.06.2020
1580 Clouds 16 1012 43 10000 4.6 190 14:58 13.06.2020
1581 Clouds 15 1013 42 10000 4.6 180 14:38 13.06.2020
1582 Clouds 19 1013 42 10000 4.6 180 14:20 13.06.2020
1583 Clouds 18 1012 45 10000 3.6 180 13:42 13.06.2020
1584 Clouds 18 1012 45 10000 3.6 180 13:24 13.06.2020
1585 Clouds 17 1012 55 10000 2.1 200 12:44 13.06.2020
1586 Clouds 17 1012 55 10000 2.1 200 12:26 13.06.2020
1587 Clouds 16 1012 63 10000 1.5 0 11:59 13.06.2020
1588 Clouds 16 1012 67 10000 1.5 0 11:40 13.06.2020
1589 Clouds 12 1012 67 10000 1.5 0 11:19 13.06.2020
1590 Clouds 12 1012 67 10000 1.5 0 11:19 13.06.2020
1591 Clouds 11 1013 71 10000 2.1 70 10:57 13.06.2020
1592 Clouds 10 1013 82 10000 1 0 10:38 13.06.2020
1593 Clouds 10 1013 82 10000 1 0 10:19 13.06.2020
1594 Clear 10 1009 77 0 2.2 233 09:45 13.06.2020
1595 Clear 9 1009 84 0 1.95 214 09:27 13.06.2020
1596 Clear 8 1006 76 0 1.95 214 08:51 13.06.2020
1597 Clear 8 1006 76 0 1.95 214 08:33 13.06.2020
1598 Clouds 8 1008 87 0 1.19 178 07:56 13.06.2020
1599 Clouds 8 1005 77 0 0.45 264 07:30 13.06.2020
1600 Clouds 8 1005 77 0 0.45 264 07:30 13.06.2020
1601 Clouds 8 1006 77 0 0.45 194 06:56 13.06.2020
1602 Clouds 11 1007 76 0 0.25 137 06:36 13.06.2020
1603 Clouds 9 1007 76 0 0.34 120 05:53 13.06.2020
1604 Clouds 9 1007 81 0 0.69 224 05:25 13.06.2020
1605 Clouds 9 1007 90 0 0.65 203 03:55 13.06.2020
1606 Clear 9 1008 82 0 0.75 168 02:55 13.06.2020
1607 Clouds 9 1007 80 0 1.13 189 02:35 13.06.2020
1608 Clouds 9 1007 81 0 1.09 167 01:46 13.06.2020
1609 Clouds 9 1007 83 0 1.12 182 01:21 13.06.2020
1610 Clouds 9 1007 79 0 1.12 182 00:42 13.06.2020
1611 Clouds 9 1007 79 0 1.12 182 00:42 13.06.2020
1612 Clouds 9 1009 93 0 1.59 179 00:23 13.06.2020
1613 Clouds 11 1007 76 0 1.59 179 23:42 12.06.2020
1614 Clouds 12 1006 72 0 1.84 175 23:19 12.06.2020
1615 Clouds 13 1006 73 0 1.84 175 22:59 12.06.2020
1616 Clouds 13 1009 31 0 1.84 175 22:40 12.06.2020
1617 Clear 12 1006 67 0 2.15 183 22:19 12.06.2020
1618 Clear 13 1005 74 0 2.15 183 21:47 12.06.2020
1619 Clouds 14 1005 55 0 0.89 126 21:24 12.06.2020
1620 Clouds 17 1007 45 10000 3.6 200 20:58 12.06.2020
1621 Clouds 16 1007 45 10000 3.6 200 20:40 12.06.2020
1622 Clouds 16 1007 45 10000 3.6 200 20:40 12.06.2020
1623 Clouds 16 1007 45 10000 3.6 200 20:22 12.06.2020
1624 Clouds 17 1007 45 10000 3.6 200 19:56 12.06.2020
1625 Clouds 19 1007 42 10000 3.6 190 19:38 12.06.2020
1626 Clouds 16 1007 42 10000 3.6 190 19:18 12.06.2020
1627 Clouds 16 1006 42 10000 5.1 210 18:39 12.06.2020
1628 Clouds 17 1006 42 10000 4.6 190 18:18 12.06.2020
1629 Clouds 17 1006 42 10000 4.6 190 17:47 12.06.2020
1630 Clouds 16 1006 39 10000 4.1 190 17:27 12.06.2020
1631 Clouds 16 1006 39 10000 4.1 180 16:59 12.06.2020
1632 Clouds 14 1006 45 10000 4.1 190 16:40 12.06.2020
1633 Clouds 15 1006 45 10000 4.1 190 16:19 12.06.2020
1634 Clouds 15 1005 42 10000 5.1 180 15:45 12.06.2020
1635 Clouds 15 1006 42 10000 5.7 180 15:25 12.06.2020
1636 Clouds 15 1005 39 10000 5.7 180 14:55 12.06.2020
1637 Clouds 13 1005 42 10000 5.1 180 14:36 12.06.2020
1638 Clouds 13 1005 42 10000 5.1 180 14:18 12.06.2020
1639 Clouds 12 1005 45 10000 4.6 180 13:41 12.06.2020
1640 Clouds 12 1005 45 10000 4.6 180 13:20 12.06.2020
1641 Clouds 11 1005 51 10000 3.6 180 12:40 12.06.2020
1642 Clouds 12 1005 51 10000 3.6 180 12:20 12.06.2020
1643 Clouds 11 1005 63 10000 3.6 210 11:56 12.06.2020
1644 Clouds 11 1005 82 10000 2.1 200 11:37 12.06.2020
1645 Clouds 11 1005 82 10000 2.1 200 11:19 12.06.2020
1646 Clouds 10 1005 100 10000 0.5 0 10:43 12.06.2020
1647 Clouds 10 1005 100 10000 0.5 0 10:23 12.06.2020
1648 Clouds 10 997 83 0 2.68 235 09:45 12.06.2020
1649 Rain 9 1002 74 0 0.89 203 09:21 12.06.2020
1650 Rain 9 1002 90 0 2.24 102 08:44 12.06.2020
1651 Rain 8 1002 93 0 0.89 146 08:25 12.06.2020
1652 Rain 8 1001 95 0 0.45 96 07:44 12.06.2020
1653 Clouds 8 1002 95 0 2.56 195 07:25 12.06.2020
1654 Clouds 8 997 86 0 2.24 239 06:55 12.06.2020
1655 Rain 8 1001 95 0 3.38 203 06:26 12.06.2020
1656 Rain 8 997 87 0 4.02 215 05:50 12.06.2020
1657 Rain 8 1001 94 0 0.89 356 05:28 12.06.2020
1658 Rain 8 1001 95 0 2.24 95 04:41 12.06.2020
1659 Rain 9 1001 94 0 0.45 36 02:55 12.06.2020
1660 Rain 9 1002 93 0 3.12 157 01:52 12.06.2020
1661 Rain 9 1002 90 0 3.17 178 01:25 12.06.2020
1662 Rain 9 1003 86 0 0.45 101 00:42 12.06.2020
1663 Rain 9 1003 92 0 1.34 174 00:24 12.06.2020
1664 Rain 10 1003 91 0 0.45 64 23:59 11.06.2020
1665 Rain 10 1003 91 0 0.89 53 23:40 11.06.2020
1666 Rain 10 1003 91 0 0.89 53 23:40 11.06.2020
1667 Rain 11 1003 92 0 0.45 116 23:20 11.06.2020
1668 Rain 9 1003 92 0 2.32 209 22:57 11.06.2020
1669 Rain 9 1002 91 0 2.32 209 22:38 11.06.2020
1670 Rain 9 999 83 0 2.24 198 22:19 11.06.2020
1671 Rain 9 999 84 0 4.02 184 21:44 11.06.2020
1672 Rain 12 1003 88 0 0.45 115 21:21 11.06.2020
1673 Fog 11 1006 100 6000 1 0 20:59 11.06.2020
1674 Rain 11 1006 100 6000 1 0 20:41 11.06.2020
1675 Rain 11 1006 100 6000 1 0 20:21 11.06.2020
1676 Rain 11 1006 100 6000 1 0 19:44 11.06.2020
1677 Rain 11 1006 100 10000 1 0 19:23 11.06.2020
1678 Rain 11 1006 100 10000 1 0 19:23 11.06.2020
1679 Rain 11 1006 100 10000 1 0 18:57 11.06.2020
1680 Clouds 11 1007 100 10000 1.5 10 18:57 11.06.2020
1681 Clouds 11 1007 100 10000 1.5 10 18:39 11.06.2020
1682 Clouds 11 1007 87 10000 0.5 0 18:20 11.06.2020
1683 Rain 11 1007 100 10000 1.5 220 17:56 11.06.2020
1684 Rain 11 1007 100 10000 1.5 220 17:37 11.06.2020
1685 Rain 11 1008 93 10000 1 200 17:18 11.06.2020
1686 Clouds 11 1008 71 10000 1 0 16:44 11.06.2020
1687 Clouds 11 1008 71 10000 1 0 16:25 11.06.2020
1688 Clouds 11 1008 67 10000 1 0 15:58 11.06.2020
1689 Clouds 11 1008 67 10000 1 0 15:39 11.06.2020
1690 Clouds 14 1009 76 10000 1 0 15:21 11.06.2020
1691 Clouds 14 1009 67 10000 1.5 340 14:46 11.06.2020
1692 Clouds 14 1009 67 10000 1.5 340 14:46 11.06.2020
1693 Clouds 14 1009 67 10000 2.1 340 14:21 11.06.2020
1694 Clouds 14 1009 67 10000 2.1 340 13:57 11.06.2020
1695 Clouds 10 1009 71 10000 1.5 330 13:39 11.06.2020
1696 Clouds 9 1010 76 10000 3.1 320 13:21 11.06.2020
1697 Clouds 9 1010 76 10000 3.1 320 12:58 11.06.2020
1698 Clouds 9 1010 100 10000 0.5 0 12:39 11.06.2020
1699 Clouds 8 1010 93 10000 0.5 0 12:19 11.06.2020
1700 Clouds 8 1010 93 10000 0.5 0 11:57 11.06.2020
1701 Clouds 8 1010 100 10000 1.5 260 11:39 11.06.2020
1702 Fog 8 1010 100 10000 1 0 11:20 11.06.2020
1703 Fog 8 1011 100 4000 1 0 10:57 11.06.2020
1704 Fog 8 1011 100 4000 1 0 10:38 11.06.2020
1705 Clouds 9 1007 95 0 2.54 193 10:18 11.06.2020
1706 Clouds 7 1008 96 0 2.54 193 09:41 11.06.2020
1707 Clouds 9 1008 95 0 2.82 200 09:23 11.06.2020
1708 Clouds 8 1008 96 0 2.82 200 08:44 11.06.2020
1709 Clouds 8 1008 96 0 2.36 192 08:20 11.06.2020
1710 Clouds 8 1005 84 0 0.89 359 07:42 11.06.2020
1711 Clouds 8 1009 96 0 1.37 179 07:24 11.06.2020
1712 Clouds 8 1009 96 0 1.37 179 06:52 11.06.2020
1713 Clouds 8 1009 96 0 0.81 184 06:28 11.06.2020
1714 Clouds 8 1009 96 0 0.81 184 05:36 11.06.2020
1715 Clouds 8 1006 83 0 0.12 172 03:30 11.06.2020
1716 Clouds 8 1010 95 0 0.31 178 02:52 11.06.2020
1717 Rain 8 1007 84 0 0.38 181 02:32 11.06.2020
1718 Rain 10 1016 55 0 0.24 212 01:46 11.06.2020
1719 Rain 9 1011 96 0 1.32 257 01:23 11.06.2020
1720 Rain 9 1009 81 0 1.32 257 00:45 11.06.2020
1721 Rain 9 1012 95 0 1.05 242 00:26 11.06.2020
1722 Rain 9 1009 79 0 1.05 242 23:44 10.06.2020
1723 Rain 9 1013 95 0 0.85 225 23:25 10.06.2020
1724 Rain 9 1013 94 0 0.85 225 22:56 10.06.2020
1725 Rain 10 1013 94 0 0.85 225 22:37 10.06.2020
1726 Rain 10 1013 94 0 0.85 225 22:37 10.06.2020
1727 Rain 11 1013 94 0 0.65 249 22:19 10.06.2020
1728 Rain 10 1012 93 0 0.65 249 21:55 10.06.2020
1729 Rain 10 1012 93 0 0.65 249 21:37 10.06.2020
1730 Rain 10 1013 91 0 0.76 299 21:18 10.06.2020
1731 Rain 10 1012 90 0 0.76 299 20:56 10.06.2020
1732 Rain 11 1012 88 0 0.76 299 20:37 10.06.2020
1733 Rain 12 1010 88 0 0.45 25 20:19 10.06.2020
1734 Rain 13 1010 84 0 0.45 7 19:40 10.06.2020
1735 Rain 12 1011 66 0 0.45 165 19:19 10.06.2020
1736 Rain 12 1011 64 0 1.14 251 18:57 10.06.2020
1737 Rain 13 1011 60 0 0.89 270 18:39 10.06.2020
1738 Rain 14 1011 59 0 1.21 231 18:19 10.06.2020
1739 Rain 14 1010 75 0 0.89 20 17:55 10.06.2020
1740 Rain 14 1010 80 0 0.45 11 17:36 10.06.2020
1741 Rain 14 1010 80 0 0.89 32 17:18 10.06.2020
1742 Rain 14 1012 46 0 1.71 240 16:55 10.06.2020
1743 Rain 14 1010 80 0 1.34 354 16:37 10.06.2020
1744 Clouds 15 1012 41 0 1.48 247 16:18 10.06.2020
1745 Clouds 15 1012 47 0 0.45 291 15:39 10.06.2020
1746 Clouds 15 1012 47 0 0.16 326 15:21 10.06.2020
1747 Clouds 14 1011 82 0 1.34 359 14:55 10.06.2020
1748 Clouds 14 1013 45 0 0.45 266 14:37 10.06.2020
1749 Rain 13 1013 44 0 0.89 211 14:19 10.06.2020
1750 Rain 12 1014 46 0 0.45 325 13:39 10.06.2020
1751 Clouds 12 1014 48 0 1.3 318 13:21 10.06.2020
1752 Clouds 12 1014 52 0 1.3 318 12:43 10.06.2020
1753 Clouds 15 1014 52 0 0.45 276 12:20 10.06.2020
1754 Clouds 14 1014 53 0 0.45 248 11:56 10.06.2020
1755 Clouds 14 1014 55 0 0.45 312 11:38 10.06.2020
1756 Clouds 13 1014 57 0 0.45 273 11:19 10.06.2020
1757 Clouds 12 1015 65 0 0.89 312 10:55 10.06.2020
1758 Clouds 11 1015 69 0 0.89 312 10:36 10.06.2020
1759 Clouds 11 1015 69 0 0.89 312 10:36 10.06.2020
1760 Clouds 9 1015 69 0 1.18 351 10:18 10.06.2020
1761 Clouds 7 1015 77 0 1.18 351 09:39 10.06.2020
1762 Clouds 7 1015 79 0 1.66 4 09:21 10.06.2020
1763 Clouds 7 1015 79 0 1.66 4 09:21 10.06.2020
1764 Clouds 6 1012 87 0 0.89 359 08:43 10.06.2020
1765 Clouds 6 1015 84 0 2.26 10 08:23 10.06.2020
1766 Clouds 6 1011 92 0 2.26 10 07:43 10.06.2020
1767 Clouds 6 1015 86 0 2.43 14 07:24 10.06.2020
1768 Clouds 6 1015 88 0 2.43 14 06:59 10.06.2020
1769 Clouds 6 1015 87 0 2.43 14 06:39 10.06.2020
1770 Clouds 6 1015 85 0 2.5 11 06:18 10.06.2020
1771 Clouds 6 1015 83 0 2.5 11 05:51 10.06.2020
1772 Clouds 6 1015 84 0 2.52 10 05:19 10.06.2020
1773 Clouds 7 1011 93 0 0.89 24 04:29 10.06.2020
1774 Clouds 7 1012 94 0 0.45 13 02:46 10.06.2020
1775 Rain 7 1012 93 0 2.58 6 01:48 10.06.2020
1776 Clouds 8 1013 91 0 2.52 7 01:21 10.06.2020
1777 Clouds 6 1017 81 0 2.52 7 00:38 10.06.2020
1778 Clouds 6 1017 80 0 2.6 5 00:20 10.06.2020
1779 Clouds 8 1013 94 0 2.6 5 23:42 09.06.2020
1780 Clouds 7 1013 93 0 2.76 8 23:23 09.06.2020
1781 Clouds 8 1013 90 0 1.34 13 22:57 09.06.2020
1782 Clouds 8 1013 90 0 1.34 13 22:57 09.06.2020
1783 Clouds 8 1013 93 0 2.76 8 22:39 09.06.2020
1784 Clouds 7 1012 93 0 0.45 11 22:20 09.06.2020
1785 Clouds 7 1015 73 0 2.84 11 21:57 09.06.2020
1786 Clouds 8 1015 71 0 2.84 11 21:39 09.06.2020
1787 Rain 8 1015 71 0 2.49 359 21:21 09.06.2020
1788 Rain 9 1012 83 0 0.89 39 20:58 09.06.2020
1789 Rain 10 1012 93 0 2.49 359 20:39 09.06.2020
1790 Rain 10 1012 86 0 1.34 240 20:21 09.06.2020
1791 Rain 9 1011 84 0 0.45 55 19:59 09.06.2020
1792 Rain 10 1012 86 0 1.34 7 19:39 09.06.2020
1793 Rain 11 1014 59 0 2.28 354 19:20 09.06.2020
1794 Rain 10 1012 85 0 1.79 35 18:58 09.06.2020
1795 Rain 10 1012 90 0 2.24 4 18:39 09.06.2020
1796 Rain 11 1014 57 0 2.03 358 18:21 09.06.2020
1797 Rain 10 1011 86 0 1.34 53 17:56 09.06.2020
1798 Rain 11 1011 88 0 1.34 3 17:37 09.06.2020
1799 Rain 12 1011 88 0 0.89 330 17:19 09.06.2020
1800 Rain 13 1011 81 0 1.34 4 16:43 09.06.2020
1801 Rain 12 1014 54 0 0.89 98 16:23 09.06.2020
1802 Rain 12 1011 88 0 1.34 38 15:57 09.06.2020
1803 Rain 15 1014 49 0 0.89 242 15:38 09.06.2020
1804 Rain 12 1014 48 0 0.89 103 15:20 09.06.2020
1805 Rain 13 1014 50 0 0.45 248 14:55 09.06.2020
1806 Rain 12 1014 53 0 0.45 60 14:36 09.06.2020
1807 Rain 12 1012 88 0 0.89 10 14:18 09.06.2020
1808 Rain 10 1015 55 0 0.45 298 13:42 09.06.2020
1809 Rain 10 1015 59 0 2.52 356 13:21 09.06.2020
1810 Rain 13 1015 57 0 0.45 240 12:58 09.06.2020
1811 Rain 10 1015 57 0 0.45 339 12:40 09.06.2020
1812 Rain 9 1012 89 0 2.54 354 12:18 09.06.2020
1813 Rain 9 1015 63 0 2.54 354 11:55 09.06.2020
1814 Rain 9 1015 61 0 0.45 134 11:37 09.06.2020
1815 Clouds 8 1011 89 0 0.45 25 11:18 09.06.2020
1816 Clouds 10 1015 72 0 2.25 358 10:43 09.06.2020
1817 Clouds 7 1015 72 0 2.18 3 10:25 09.06.2020
1818 Clouds 6 1011 95 0 2.18 3 09:44 09.06.2020
1819 Clouds 6 1015 77 0 2.23 4 09:25 09.06.2020
1820 Clouds 6 1015 79 0 2.23 4 08:57 09.06.2020
1821 Clouds 6 1015 80 0 2.23 4 08:38 09.06.2020
1822 Clouds 6 1015 81 0 2.41 2 08:20 09.06.2020
1823 Clouds 6 1014 84 0 2.41 2 07:38 09.06.2020
1824 Clouds 5 1014 85 0 2.53 7 07:20 09.06.2020
1825 Clouds 5 1014 86 0 2.53 7 06:54 09.06.2020
1826 Clouds 5 1014 86 0 2.53 7 06:35 09.06.2020
1827 Rain 5 1014 86 0 2.37 4 05:35 09.06.2020
1828 Rain 6 1014 84 0 2.53 8 03:34 09.06.2020
1829 Rain 6 1015 84 0 2.68 5 01:43 09.06.2020
1830 Rain 6 1020 59 0 2.86 4 01:19 09.06.2020
1831 Rain 6 1015 81 0 2.86 4 00:50 09.06.2020
1832 Rain 6 1011 94 0 1.34 15 00:26 09.06.2020
1833 Rain 6 1015 82 0 2.98 5 23:59 08.06.2020
1834 Rain 6 1015 83 0 2.98 5 23:39 08.06.2020
1835 Clouds 6 1015 85 0 3.11 10 23:19 08.06.2020
1836 Clouds 7 1011 95 0 0.45 20 22:42 08.06.2020
1837 Clouds 6 1014 80 0 2.98 11 22:23 08.06.2020
1838 Clouds 7 1014 79 0 2.98 11 21:59 08.06.2020
1839 Clouds 7 1014 77 0 2.98 11 21:41 08.06.2020
1840 Rain 7 1014 74 0 2.58 2 21:22 08.06.2020
1841 Rain 9 1013 65 0 0.45 233 20:58 08.06.2020
1842 Clouds 13 1013 59 10000 4.6 250 20:39 08.06.2020
1843 Clouds 13 1013 59 10000 4.6 250 20:20 08.06.2020
1844 Clouds 13 1013 59 10000 4.6 250 19:59 08.06.2020
1845 Clouds 11 1013 59 10000 4.6 250 19:41 08.06.2020
1846 Clouds 12 1012 59 10000 4.6 220 19:20 08.06.2020
1847 Clouds 12 1012 59 10000 4.6 230 18:41 08.06.2020
1848 Clouds 17 1012 59 10000 5.1 230 18:19 08.06.2020
1849 Clouds 17 1012 59 10000 5.1 230 17:57 08.06.2020
1850 Clouds 16 1012 59 10000 5.1 240 17:39 08.06.2020
1851 Clouds 16 1013 59 10000 5.1 230 17:19 08.06.2020
1852 Clouds 17 1013 59 10000 5.7 210 16:46 08.06.2020
1853 Clouds 17 1013 59 10000 5.7 210 16:25 08.06.2020
1854 Clouds 17 1013 63 10000 6.7 210 15:59 08.06.2020
1855 Clouds 16 1012 59 10000 7.2 220 15:41 08.06.2020
1856 Clouds 13 1012 59 10000 7.2 220 15:20 08.06.2020
1857 Clouds 14 1012 59 10000 7.2 220 14:56 08.06.2020
1858 Clouds 16 1012 59 10000 6.2 230 14:36 08.06.2020
1859 Rain 13 1012 48 10000 4.1 210 14:18 08.06.2020
1860 Rain 13 1012 48 10000 4.1 210 14:18 08.06.2020
1861 Rain 12 1013 45 10000 1.5 0 13:41 08.06.2020
1862 Clouds 12 1013 48 10000 1.5 0 13:20 08.06.2020
1863 Clouds 11 1013 48 10000 2.1 120 12:40 08.06.2020
1864 Clouds 11 1013 48 10000 1.5 0 12:19 08.06.2020
1865 Clouds 10 1013 54 10000 2.6 90 11:54 08.06.2020
1866 Clouds 9 1013 54 10000 2.6 90 11:36 08.06.2020
1867 Clouds 9 1008 91 0 1.34 24 11:18 08.06.2020
1868 Clouds 8 1013 79 0 2.55 356 10:55 08.06.2020
1869 Clouds 8 1013 82 0 2.55 356 10:37 08.06.2020
1870 Clouds 8 1013 82 0 2.55 356 10:37 08.06.2020
1871 Clouds 6 1012 85 0 2.38 353 10:18 08.06.2020
1872 Clouds 6 1012 90 0 2.38 353 09:43 08.06.2020
1873 Clouds 6 1007 93 0 2.36 353 09:23 08.06.2020
1874 Clouds 6 1007 94 0 2.47 4 08:49 08.06.2020
1875 Clouds 6 1012 95 0 2.43 7 08:23 08.06.2020
1876 Clouds 5 1012 96 0 2.43 7 07:48 08.06.2020
1877 Clouds 5 1006 91 0 2.36 13 07:28 08.06.2020
1878 Clouds 6 1011 96 0 2.36 13 06:55 08.06.2020
1879 Clouds 6 1011 96 0 2.36 13 06:36 08.06.2020
1880 Clouds 5 1011 95 0 2.38 12 05:54 08.06.2020
1881 Clouds 5 1011 95 0 2.38 4 04:35 08.06.2020
1882 Clouds 6 1011 96 0 2.45 8 02:54 08.06.2020
1883 Rain 6 1011 96 0 2.54 14 02:25 08.06.2020
1884 Rain 6 1012 96 0 2.54 14 01:38 08.06.2020
1885 Rain 6 1012 95 0 2.7 16 00:41 08.06.2020
1886 Clouds 6 1012 95 0 2.69 15 00:18 08.06.2020
1887 Clouds 6 1012 95 0 2.69 15 23:37 07.06.2020
1888 Rain 7 1008 91 0 2.41 13 23:18 07.06.2020
1889 Rain 6 1012 95 0 2.41 13 22:55 07.06.2020
1890 Rain 7 1012 95 0 2.41 13 22:36 07.06.2020
1891 Rain 6 1012 94 0 2.69 356 22:18 07.06.2020
1892 Rain 7 1007 89 0 2.69 356 21:56 07.06.2020
1893 Rain 7 1011 94 0 2.69 356 21:36 07.06.2020
1894 Rain 7 1011 94 0 2.36 8 21:18 07.06.2020
1895 Rain 7 1011 87 9000 3.1 40 20:39 07.06.2020
1896 Rain 7 1011 87 9000 3.1 40 20:20 07.06.2020
1897 Rain 7 1011 87 9000 3.1 40 19:56 07.06.2020
1898 Rain 8 1011 87 9000 3.1 40 19:38 07.06.2020
1899 Rain 8 1011 87 10000 2.6 60 19:19 07.06.2020
1900 Clouds 8 1010 82 10000 4.6 50 18:55 07.06.2020
1901 Clouds 9 1010 82 10000 4.6 50 18:37 07.06.2020
1902 Clouds 9 1010 82 10000 4.6 40 18:18 07.06.2020
1903 Rain 10 1011 93 9000 2.6 50 17:55 07.06.2020
1904 Rain 10 1011 93 9000 2.6 50 17:36 07.06.2020
1905 Rain 10 1010 93 6000 3.1 20 17:18 07.06.2020
1906 Rain 10 1010 87 6000 2.1 10 16:41 07.06.2020
1907 Thunderstorm 9 1009 76 9000 4.1 350 16:21 07.06.2020
1908 Thunderstorm 9 1009 76 9000 4.1 350 16:21 07.06.2020
1909 Thunderstorm 8 1009 76 6000 3.6 300 15:37 07.06.2020
1910 Thunderstorm 9 1008 93 5000 4.6 280 15:18 07.06.2020
1911 Rain 11 1008 88 10000 3.6 240 14:39 07.06.2020
1912 Rain 11 1008 88 10000 3.6 240 14:39 07.06.2020
1913 Rain 10 1008 77 10000 3.1 240 14:21 07.06.2020
1914 Rain 11 1009 93 10000 1.5 190 13:47 07.06.2020
1915 Rain 11 1009 87 10000 1.5 210 13:21 07.06.2020
1916 Rain 11 1009 87 10000 1.5 210 12:55 07.06.2020
1917 Rain 11 1009 87 10000 1 0 12:36 07.06.2020
1918 Rain 11 1009 77 10000 0.5 0 12:18 07.06.2020
1919 Rain 10 1009 77 10000 0.5 0 11:54 07.06.2020
1920 Clouds 10 1009 87 10000 1 0 11:36 07.06.2020
1921 Rain 11 1006 95 0 1.04 294 11:18 07.06.2020
1922 Rain 11 1005 95 0 1.04 294 10:42 07.06.2020
1923 Rain 9 1005 95 0 1 273 10:20 07.06.2020
1924 Rain 9 1005 96 0 1 273 09:57 07.06.2020
1925 Rain 9 1005 96 0 1 273 09:38 07.06.2020
1926 Rain 10 1005 96 0 0.26 309 09:19 07.06.2020
1927 Rain 10 1004 92 0 0.2 314 08:47 07.06.2020
1928 Rain 9 1005 96 0 0.15 327 08:23 07.06.2020
1929 Rain 9 1004 88 0 0.15 327 07:49 07.06.2020
1930 Rain 9 1003 90 0 0.15 327 07:28 07.06.2020
1931 Clouds 9 1004 96 0 1.12 38 06:43 07.06.2020
1932 Clouds 9 1004 96 0 1.83 23 05:40 07.06.2020
1933 Clouds 11 1004 96 0 1.86 37 04:20 07.06.2020
1934 Rain 11 1005 95 0 1.35 51 02:32 07.06.2020
1935 Rain 11 1005 95 0 0.42 46 01:50 07.06.2020
1936 Rain 11 1005 95 0 2.54 242 01:25 07.06.2020
1937 Rain 11 1006 87 0 2.54 242 00:42 07.06.2020
1938 Rain 10 1006 94 0 1.38 254 00:18 07.06.2020
1939 Rain 10 1006 94 0 1.38 254 23:57 06.06.2020
1940 Rain 10 1005 93 0 1.38 254 23:36 06.06.2020
1941 Rain 10 1005 93 0 1.38 254 23:36 06.06.2020
1942 Rain 10 1005 93 0 0.82 65 23:18 06.06.2020
1943 Rain 11 1006 85 0 0.82 65 22:56 06.06.2020
1944 Rain 11 1005 90 0 0.89 290 22:37 06.06.2020
1945 Rain 12 1004 89 0 1.79 218 22:18 06.06.2020
1946 Rain 13 1005 81 0 1.2 180 21:43 06.06.2020
1947 Rain 13 1003 86 0 1.67 210 21:22 06.06.2020
1948 Rain 13 1003 85 0 1.41 197 20:56 06.06.2020
1949 Rain 14 1007 68 10000 2.6 100 20:37 06.06.2020
1950 Rain 15 1007 68 10000 2.6 100 20:18 06.06.2020
1951 Rain 15 1007 68 10000 2.6 100 19:56 06.06.2020
1952 Rain 15 1007 68 10000 2.6 100 19:36 06.06.2020
1953 Thunderstorm 16 1008 63 10000 7.2 340 19:18 06.06.2020
1954 Thunderstorm 16 1008 63 10000 7.2 340 18:42 06.06.2020
1955 Thunderstorm 16 1008 56 10000 5.7 320 18:24 06.06.2020
1956 Thunderstorm 16 1008 56 10000 5.7 320 18:23 06.06.2020
1957 Rain 17 1008 44 10000 5.7 210 17:44 06.06.2020
1958 Rain 17 1008 44 10000 5.7 210 17:21 06.06.2020
1959 Rain 18 1008 44 10000 5.7 210 16:58 06.06.2020
1960 Clouds 19 1009 44 10000 4.6 210 16:39 06.06.2020
1961 Clouds 18 1009 49 10000 3.1 200 16:21 06.06.2020
1962 Clouds 18 1009 49 10000 3.1 200 15:55 06.06.2020
1963 Clouds 18 1009 49 10000 3.6 190 15:36 06.06.2020
1964 Clouds 18 1010 47 10000 4.6 200 15:18 06.06.2020
1965 Clouds 21 1010 49 10000 5.1 210 14:39 06.06.2020
1966 Clouds 17 1011 47 10000 5.7 200 14:20 06.06.2020
1967 Clouds 18 1011 49 10000 5.1 200 13:54 06.06.2020
1968 Clouds 17 1011 49 10000 5.1 200 13:36 06.06.2020
1969 Clouds 22 1011 49 10000 4.1 220 13:18 06.06.2020
1970 Clouds 19 1011 56 10000 3.6 210 12:41 06.06.2020
1971 Clouds 19 1012 60 10000 1 0 12:22 06.06.2020
1972 Clouds 19 1012 60 10000 1 0 11:58 06.06.2020
1973 Clouds 19 1012 60 10000 1 0 11:58 06.06.2020
1974 Clouds 18 1012 55 10000 1 0 11:38 06.06.2020
1975 Clear 15 1007 71 0 3.01 208 11:19 06.06.2020
1976 Clear 14 1009 77 0 3.01 208 10:57 06.06.2020
1977 Clear 13 1008 78 0 3.01 208 10:39 06.06.2020
1978 Clear 13 1008 84 0 2.63 205 10:20 06.06.2020
1979 Clear 12 1014 25 0 2.63 205 09:45 06.06.2020
1980 Clouds 11 1008 91 0 1.59 203 09:27 06.06.2020
1981 Clouds 11 1008 91 0 1.59 203 08:50 06.06.2020
1982 Clouds 11 1008 91 0 0.34 52 08:25 06.06.2020
1983 Clouds 10 1008 91 0 0.34 52 07:59 06.06.2020
1984 Clouds 10 1008 80 0 1.34 190 07:40 06.06.2020
1985 Clouds 10 1008 91 0 0.6 26 07:20 06.06.2020
1986 Clouds 10 1008 91 0 0.6 26 06:46 06.06.2020
1987 Clouds 10 1008 81 0 1.34 179 06:26 06.06.2020
1988 Clouds 10 1008 89 0 0.5 352 05:44 06.06.2020
1989 Clouds 10 1008 90 0 0.41 323 05:24 06.06.2020
1990 Clouds 10 1009 88 0 0.46 304 04:24 06.06.2020
1991 Clouds 12 1015 47 0 0.5 285 02:36 06.06.2020
1992 Clouds 12 1009 84 0 0.54 305 01:24 06.06.2020
1993 Clouds 14 1015 42 0 0.54 305 00:59 06.06.2020
1994 Clouds 14 1015 41 0 0.54 305 00:41 06.06.2020
1995 Clouds 13 1009 83 0 0.59 284 00:22 06.06.2020
1996 Clouds 13 1014 1 0 0.59 284 23:40 05.06.2020
1997 Clouds 13 1014 1 0 0.69 245 23:20 05.06.2020
1998 Clouds 16 1013 90 0 0.69 245 22:58 05.06.2020
1999 Clouds 17 1007 64 0 0.69 245 22:39 05.06.2020
2000 Clouds 15 1009 76 0 0.78 252 22:21 05.06.2020
2001 Clouds 18 1007 62 0 0.78 252 21:55 05.06.2020
2002 Clouds 18 1013 90 0 0.78 252 21:37 05.06.2020
2003 Clouds 15 1008 75 0 0.85 256 21:18 05.06.2020
2004 Clouds 16 1008 77 0 0.85 256 20:44 05.06.2020
2005 Clouds 16 1009 43 10000 6.2 220 20:22 05.06.2020
2006 Clouds 17 1009 43 10000 6.2 220 19:44 05.06.2020
2007 Clouds 17 1009 43 10000 6.2 220 19:24 05.06.2020
2008 Clouds 17 1009 43 10000 6.7 210 18:59 05.06.2020
2009 Clouds 17 1009 40 10000 6.2 210 18:39 05.06.2020
2010 Clouds 17 1009 40 10000 5.7 210 18:20 05.06.2020
2011 Clouds 17 1009 40 10000 5.7 210 17:58 05.06.2020
2012 Clouds 17 1009 40 10000 5.7 210 17:58 05.06.2020
2013 Clouds 17 1009 40 10000 5.7 210 17:58 05.06.2020
2014 Clouds 19 1009 40 10000 6.2 210 17:40 05.06.2020
2015 Clouds 22 1009 43 10000 5.7 200 17:19 05.06.2020
2016 Clouds 19 1009 43 10000 5.1 220 16:40 05.06.2020
2017 Clouds 16 1009 43 10000 5.1 220 16:22 05.06.2020
2018 Clouds 18 1009 43 10000 5.1 220 15:57 05.06.2020
2019 Clouds 22 1009 43 10000 5.1 210 15:37 05.06.2020
2020 Clouds 18 1009 43 10000 4.6 220 15:19 05.06.2020
2021 Clouds 18 1009 43 10000 4.6 220 14:56 05.06.2020
2022 Clouds 22 1009 40 10000 2.1 0 14:37 05.06.2020
2023 Clouds 17 1009 40 10000 2.1 180 14:19 05.06.2020
2024 Clouds 19 1009 40 10000 2.1 0 13:42 05.06.2020
2025 Clouds 16 1010 42 10000 1.5 0 13:24 05.06.2020
2026 Clouds 17 1010 48 10000 1.5 0 12:43 05.06.2020
2027 Clouds 12 1010 48 10000 2.1 350 12:20 05.06.2020
2028 Clouds 15 1010 48 10000 2.1 350 11:57 05.06.2020
2029 Clouds 14 1010 55 10000 1 0 11:39 05.06.2020
2030 Clouds 10 1009 65 0 2.06 338 11:20 05.06.2020
2031 Clouds 9 1006 90 0 1.79 342 10:54 05.06.2020
2032 Clouds 12 1009 65 0 0.45 169 10:36 05.06.2020
2033 Clouds 9 1009 67 0 2.36 357 10:18 05.06.2020
2034 Clouds 8 1008 67 0 0.45 156 09:55 05.06.2020
2035 Clouds 8 1008 70 0 2.36 357 09:36 05.06.2020
2036 Clouds 8 1004 93 0 0.45 13 09:18 05.06.2020
2037 Clouds 6 1008 82 0 2.66 10 08:41 05.06.2020
2038 Clouds 7 1004 87 0 0.89 30 08:19 05.06.2020
2039 Clouds 8 1004 89 0 0.45 339 07:55 05.06.2020
2040 Clouds 7 1004 90 0 0.45 27 07:55 05.06.2020
2041 Clouds 7 1004 94 0 0.45 30 07:37 05.06.2020
2042 Clouds 6 1007 83 0 2.98 4 06:54 05.06.2020
2043 Clouds 6 1002 95 0 0.45 4 05:24 05.06.2020
2044 Clouds 6 1001 95 0 1.79 343 04:44 05.06.2020
2045 Clouds 6 1005 86 0 2.85 357 03:50 05.06.2020
2046 Clouds 8 1001 96 0 3.13 354 02:39 05.06.2020
2047 Clouds 7 1005 78 0 3.13 349 02:18 05.06.2020
2048 Clouds 8 1002 95 0 2.24 352 01:36 05.06.2020
2049 Clouds 8 1002 95 0 2.24 352 01:36 05.06.2020
2050 Clouds 8 1002 95 0 1.79 53 00:56 05.06.2020
2051 Clouds 8 1002 95 0 2.24 359 00:37 05.06.2020
2052 Clouds 8 1001 94 0 1.34 17 00:18 05.06.2020
2053 Clouds 7 1004 76 0 0.45 297 23:42 04.06.2020
2054 Clouds 7 1004 83 0 0.45 199 23:24 04.06.2020
2055 Clouds 7 1000 95 0 2.24 48 22:44 04.06.2020
2056 Rain 7 1004 87 0 2.79 345 22:22 04.06.2020
2057 Rain 7 1000 95 0 1.34 7 21:58 04.06.2020
2058 Rain 7 1003 88 0 2.79 345 21:39 04.06.2020
2059 Rain 8 1002 87 0 2.45 342 21:21 04.06.2020
2060 Rain 9 1008 12 0 3.58 355 20:57 04.06.2020
2061 Rain 9 1002 83 0 2.45 342 20:39 04.06.2020
2062 Clouds 9 1003 71 10000 1 0 20:20 04.06.2020
2063 Clouds 9 1003 71 10000 1 0 19:55 04.06.2020
2064 Clouds 11 1003 71 10000 1 0 19:37 04.06.2020
2065 Clouds 11 1003 72 10000 0.5 0 19:18 04.06.2020
2066 Clouds 11 1003 76 10000 1 0 18:39 04.06.2020
2067 Clouds 11 1004 87 10000 2.1 350 18:20 04.06.2020
2068 Clouds 11 1004 87 10000 2.6 330 17:56 04.06.2020
2069 Clouds 11 1004 87 10000 2.6 330 17:38 04.06.2020
2070 Rain 11 1004 87 7000 1.5 0 17:19 04.06.2020
2071 Rain 8 1003 81 5000 2.6 0 16:40 04.06.2020
2072 Rain 8 1003 81 9000 3.6 360 16:20 04.06.2020
2073 Thunderstorm 8 1002 87 4000 4.6 320 15:46 04.06.2020
2074 Thunderstorm 9 1002 87 4000 4.6 320 15:27 04.06.2020
2075 Rain 13 1002 67 10000 3.6 220 14:42 04.06.2020
2076 Rain 12 1002 67 10000 3.6 220 14:24 04.06.2020
2077 Rain 12 1002 59 10000 5.1 220 13:59 04.06.2020
2078 Rain 12 1002 59 10000 5.1 220 13:59 04.06.2020
2079 Clouds 12 1002 67 10000 3.1 220 13:40 04.06.2020
2080 Clouds 12 1002 67 10000 3.6 220 13:21 04.06.2020
2081 Clouds 11 1002 72 10000 3.6 210 12:59 04.06.2020
2082 Clouds 11 1002 72 10000 3.6 210 12:41 04.06.2020
2083 Clouds 11 1002 77 10000 2.1 210 12:22 04.06.2020
2084 Clouds 11 1002 77 10000 2.1 210 11:55 04.06.2020
2085 Clouds 11 1003 87 10000 1.5 240 11:37 04.06.2020
2086 Rain 11 997 87 0 0.45 15 11:19 04.06.2020
2087 Rain 10 998 92 0 1.38 244 10:41 04.06.2020
2088 Rain 11 998 86 0 1.63 228 10:22 04.06.2020
2089 Rain 11 999 91 0 1.63 228 09:57 04.06.2020
2090 Rain 10 999 93 0 1.63 228 09:38 04.06.2020
2091 Rain 10 999 94 0 1.36 215 09:20 04.06.2020
2092 Rain 10 997 90 0 1.14 253 08:42 04.06.2020
2093 Rain 10 999 95 0 0.93 232 08:23 04.06.2020
2094 Rain 10 997 80 0 0.93 232 07:42 04.06.2020
2095 Rain 10 999 95 0 0.83 191 07:21 04.06.2020
2096 Rain 10 999 80 0 0.83 191 06:40 04.06.2020
2097 Rain 11 1000 96 0 0.95 290 06:22 04.06.2020
2098 Rain 10 1000 96 0 0.95 290 05:34 04.06.2020
2099 Rain 10 999 86 0 0.95 290 05:34 04.06.2020
2100 Rain 11 1001 96 0 0.86 211 03:51 04.06.2020
2101 Rain 12 1002 96 0 0.66 40 02:22 04.06.2020
2102 Rain 12 1002 95 0 0.66 40 01:39 04.06.2020
2103 Rain 12 1003 95 0 1.76 172 01:19 04.06.2020
2104 Rain 12 1003 94 0 0.5 131 00:20 04.06.2020
2105 Rain 12 1003 94 0 0.5 131 23:39 03.06.2020
2106 Rain 12 1003 94 0 0.75 164 23:19 03.06.2020
2107 Rain 13 1003 92 0 0.75 164 22:56 03.06.2020
2108 Rain 13 1003 90 0 0.75 164 22:38 03.06.2020
2109 Rain 13 1003 90 0 1.38 164 22:18 03.06.2020
2110 Rain 13 1003 89 0 1.38 164 21:55 03.06.2020
2111 Rain 13 1003 89 0 1.38 164 21:37 03.06.2020
2112 Clouds 13 1003 88 0 0.69 156 21:18 03.06.2020
2113 Clouds 14 1004 69 0 0.89 91 20:42 03.06.2020
2114 Clouds 15 1006 52 10000 2.6 260 20:21 03.06.2020
2115 Clouds 15 1006 52 10000 2.6 260 20:21 03.06.2020
2116 Clouds 15 1006 52 10000 2.6 260 19:57 03.06.2020
2117 Clouds 15 1006 52 10000 2.6 260 19:39 03.06.2020
2118 Clouds 16 1007 52 10000 3.1 240 19:20 03.06.2020
2119 Clouds 16 1007 52 10000 3.1 240 18:58 03.06.2020
2120 Clouds 16 1007 53 10000 1.5 280 18:40 03.06.2020
2121 Rain 15 1007 56 10000 1 0 18:19 03.06.2020
2122 Rain 16 1008 56 10000 1 0 17:45 03.06.2020
2123 Clouds 16 1008 52 10000 2.1 70 17:23 03.06.2020
2124 Clouds 16 1008 52 10000 2.1 70 16:58 03.06.2020
2125 Clouds 16 1008 52 10000 3.1 70 16:39 03.06.2020
2126 Clouds 16 1009 60 10000 3.1 70 16:19 03.06.2020
2127 Clouds 16 1009 60 10000 3.1 70 15:54 03.06.2020
2128 Clouds 16 1009 64 10000 3.1 70 15:36 03.06.2020
2129 Clouds 16 1010 68 10000 2.1 70 15:18 03.06.2020
2130 Clouds 15 1010 82 10000 1.5 0 14:42 03.06.2020
2131 Rain 15 1006 92 0 2.38 207 14:22 03.06.2020
2132 Rain 15 1007 91 0 2.38 207 13:40 03.06.2020
2133 Rain 16 1006 91 0 2.45 210 13:20 03.06.2020
2134 Rain 16 1006 91 0 2.45 210 13:20 03.06.2020
2135 Rain 15 1009 75 0 1.79 190 12:54 03.06.2020
2136 Rain 16 1006 85 0 2.45 210 12:36 03.06.2020
2137 Rain 16 1006 85 0 2.45 210 12:36 03.06.2020
2138 Rain 15 1009 76 0 2.37 208 12:18 03.06.2020
2139 Rain 15 1006 88 0 2.37 208 11:41 03.06.2020
2140 Rain 15 1006 90 0 2.14 209 11:23 03.06.2020
2141 Rain 13 1007 89 0 2.14 209 10:43 03.06.2020
2142 Rain 13 1007 87 0 1.42 215 10:24 03.06.2020
2143 Rain 14 1007 87 0 1.42 215 09:47 03.06.2020
2144 Rain 14 1007 91 0 0.92 218 09:23 03.06.2020
2145 Rain 13 1009 76 0 1.34 200 08:59 03.06.2020
2146 Rain 13 1007 92 0 0.92 218 08:41 03.06.2020
2147 Clouds 13 1014 39 0 0.07 162 08:21 03.06.2020
2148 Clouds 12 1010 76 0 0.07 162 07:44 03.06.2020
2149 Clouds 11 1008 94 0 0.04 261 07:23 03.06.2020
2150 Clouds 11 1008 94 0 0.04 261 06:54 03.06.2020
2151 Clouds 12 1008 94 0 0.04 261 06:33 03.06.2020
2152 Clouds 13 1015 46 0 0.37 29 05:49 03.06.2020
2153 Clouds 12 1015 46 0 0.39 51 05:21 03.06.2020
2154 Clouds 14 1016 41 0 0.35 36 03:52 03.06.2020
2155 Clouds 14 1016 43 0 0.46 14 03:23 03.06.2020
2156 Clouds 14 1016 41 0 0.35 47 02:24 03.06.2020
2157 Clouds 15 1017 35 0 0.49 68 00:49 03.06.2020
2158 Clouds 15 1017 36 0 0.92 57 00:26 03.06.2020
2159 Clouds 15 1017 34 0 0.92 57 23:52 02.06.2020
2160 Rain 16 1017 34 0 0.88 33 23:28 02.06.2020
2161 Rain 17 1017 28 0 0.88 33 22:58 02.06.2020
2162 Rain 17 1017 25 0 0.88 33 22:39 02.06.2020
2163 Rain 17 1017 25 0 0.88 33 22:39 02.06.2020
2164 Clouds 16 1011 84 0 1.46 29 22:19 02.06.2020
2165 Clouds 15 1011 83 0 1.46 29 21:57 02.06.2020
2166 Clouds 16 1015 90 0 1.46 29 21:38 02.06.2020
2167 Rain 17 1011 82 0 0.56 351 21:20 02.06.2020
2168 Rain 17 1011 73 0 0.49 316 20:58 02.06.2020
2169 Rain 17 1014 81 0 1.34 8 20:40 02.06.2020
2170 Rain 17 1014 83 0 1.34 359 20:20 02.06.2020
2171 Rain 16 1014 81 0 0.89 349 19:44 02.06.2020
2172 -273 0 0 0 0 0 19:25 02.06.2020
2173 Rain 15 1014 78 0 1.79 356 18:58 02.06.2020
2174 Rain 12 1014 75 0 1.34 35 18:39 02.06.2020
2175 Rain 18 1014 76 0 0.89 359 18:20 02.06.2020
2176 Rain 18 1014 73 0 1.34 7 17:55 02.06.2020
2177 Rain 19 1014 70 0 0.89 65 17:37 02.06.2020
2178 Rain 20 1014 70 0 0.89 4 17:18 02.06.2020
2179 Rain 21 1014 68 0 1.34 359 16:41 02.06.2020
2180 Rain 20 1015 65 0 1.34 41 16:21 02.06.2020
2181 Rain 21 1015 66 0 0.89 346 15:58 02.06.2020
2182 Rain 21 1015 67 0 1.79 0 15:38 02.06.2020
2183 Rain 23 1017 7 0 3.58 262 15:20 02.06.2020
2184 Rain 24 1012 63 0 0.45 228 14:45 02.06.2020
2185 Clear 24 1017 8 0 3.13 248 14:27 02.06.2020
2186 Clear 24 1013 48 0 1.81 240 13:55 02.06.2020
2187 Clear 23 1013 49 0 1.81 240 13:36 02.06.2020
2188 Clear 23 1013 46 0 0.45 155 13:18 02.06.2020
2189 Clear 21 1014 55 0 1.73 247 12:40 02.06.2020
2190 Clear 21 1014 59 0 1.59 253 12:22 02.06.2020
2191 Clear 20 1014 78 0 1.59 253 11:59 02.06.2020
2192 Clear 19 1014 84 0 1.59 253 11:40 02.06.2020
2193 Clear 15 1014 88 0 0.9 269 11:20 02.06.2020
2194 Clear 18 1014 93 0 0.9 269 10:50 02.06.2020
2195 Clear 15 1015 75 0 0.9 269 10:28 02.06.2020
2196 Clear 12 1015 79 0 0.79 340 09:59 02.06.2020
2197 Clear 12 1015 97 0 1.07 9 09:40 02.06.2020
2198 Clear 11 1015 97 0 1.07 9 09:20 02.06.2020
2199 Clear 11 1015 97 0 1.07 9 08:51 02.06.2020
2200 Clouds 11 1015 97 0 1.7 21 08:23 02.06.2020
2201 Clouds 10 1015 96 0 1.7 21 07:53 02.06.2020
2202 Clouds 10 1014 81 0 0.45 13 07:28 02.06.2020
2203 Clouds 10 1015 96 0 1.79 26 06:48 02.06.2020
2204 Clouds 11 1015 96 0 1.46 28 06:24 02.06.2020
2205 Clouds 11 1015 96 0 0.85 17 05:21 02.06.2020
2206 Clouds 12 1015 96 0 0.91 21 03:25 02.06.2020
2207 Clouds 12 1015 95 0 1.51 14 02:30 02.06.2020
2208 Clouds 13 1016 95 0 0.97 23 01:25 02.06.2020
2209 Clouds 11 1016 95 0 1.14 28 00:26 02.06.2020
2210 Clouds 14 1016 95 0 1.14 28 23:57 01.06.2020
2211 Clouds 14 1016 95 0 1.14 28 23:37 01.06.2020
2212 Clouds 12 1016 95 0 0.86 355 23:18 01.06.2020
2213 Clouds 14 1016 95 0 0.86 355 22:41 01.06.2020
2214 Clouds 14 1016 95 0 0.19 90 22:21 01.06.2020
2215 Clouds 14 1015 94 0 0.19 90 21:58 01.06.2020
2216 Clouds 14 1015 94 0 0.19 90 21:40 01.06.2020
2217 Rain 14 1014 94 0 1.05 77 21:19 01.06.2020
2218 Rain 14 1014 95 0 1.05 77 20:56 01.06.2020
2219 Thunderstorm 15 1017 82 10000 6.7 40 20:38 01.06.2020
2220 Thunderstorm 15 1017 82 10000 6.7 40 20:19 01.06.2020
2221 Thunderstorm 15 1017 82 10000 6.7 40 19:43 01.06.2020
2222 Thunderstorm 17 1016 56 10000 5.7 20 19:21 01.06.2020
2223 Thunderstorm 17 1016 60 10000 5.7 210 18:59 01.06.2020
2224 Thunderstorm 17 1016 60 10000 5.7 210 18:39 01.06.2020
2225 Thunderstorm 16 1016 56 10000 4.6 190 18:20 01.06.2020
2226 Thunderstorm 16 1016 56 10000 4.6 190 17:56 01.06.2020
2227 Thunderstorm 16 1015 53 10000 6.2 190 17:38 01.06.2020
2228 Clouds 16 1016 56 10000 5.1 210 17:18 01.06.2020
2229 Clouds 17 1016 56 10000 3.6 220 16:40 01.06.2020
2230 Clouds 18 1016 56 10000 3.6 240 16:22 01.06.2020
2231 Clouds 18 1017 60 10000 4.1 240 15:56 01.06.2020
2232 Clouds 16 1017 60 10000 4.1 240 15:37 01.06.2020
2233 Clouds 18 1017 60 10000 4.1 240 15:18 01.06.2020
2234 Clouds 17 1017 60 10000 4.1 240 14:56 01.06.2020
2235 Clouds 17 1017 56 10000 4.1 230 14:38 01.06.2020
2236 Clouds 17 1017 60 10000 4.1 220 14:19 01.06.2020
2237 Clouds 17 1017 60 10000 3.1 220 13:43 01.06.2020
2238 Clouds 17 1017 60 10000 3.1 220 13:21 01.06.2020
2239 Clouds 16 1018 63 10000 1.5 230 12:58 01.06.2020
2240 Clouds 16 1018 63 10000 1.5 230 12:40 01.06.2020
2241 Clouds 16 1018 63 10000 1.5 230 12:40 01.06.2020
2242 Clouds 16 1018 63 10000 1.5 230 12:40 01.06.2020
2243 Clouds 16 1018 63 10000 1.5 230 12:21 01.06.2020
2244 Clouds 16 1018 72 10000 1.5 210 11:57 01.06.2020
2245 Clouds 15 1018 77 10000 2.6 200 11:37 01.06.2020
2246 Clouds 15 1018 77 10000 2.6 200 11:18 01.06.2020
2247 Rain 16 1012 80 0 2.43 207 10:54 01.06.2020
2248 Rain 16 1012 84 0 2.43 207 10:36 01.06.2020
2249 Rain 15 1012 87 0 1.91 197 10:18 01.06.2020
2250 Rain 14 1014 65 0 1.91 197 09:43 01.06.2020
2251 Clouds 11 1012 95 0 1.38 196 09:24 01.06.2020
2252 Clouds 13 1014 63 0 1.38 196 08:54 01.06.2020
2253 Clouds 12 1012 94 0 1.38 196 08:31 01.06.2020
2254 Clouds 12 1013 62 0 0.31 145 07:57 01.06.2020
2255 Clouds 11 1012 95 0 0.31 145 07:38 01.06.2020
2256 Clouds 11 1012 95 0 1.11 25 07:20 01.06.2020
2257 Clouds 11 1012 95 0 1.11 25 06:49 01.06.2020
2258 Rain 13 1011 94 0 0.62 260 05:54 01.06.2020
2259 Clouds 13 1011 95 0 0.82 229 04:50 01.06.2020
2260 Clouds 14 1012 95 0 0.45 13 03:50 01.06.2020
2261 Clouds 14 1012 95 0 0.45 13 03:32 01.06.2020
2262 Clouds 13 1012 94 0 0.75 224 02:32 01.06.2020
2263 Rain 11 1013 94 0 0.1 263 01:35 01.06.2020
2264 Rain 14 1013 93 0 0.74 218 00:58 01.06.2020
2265 Rain 14 1013 93 0 0.74 218 00:40 01.06.2020
2266 Rain 14 1013 92 0 2.32 210 00:21 01.06.2020
2267 Rain 14 1013 92 0 2.32 210 00:21 01.06.2020
2268 Rain 14 1012 92 0 2.32 210 23:57 31.05.2020
2269 Rain 14 1012 90 0 2.32 210 23:38 31.05.2020
2270 Rain 14 1013 88 0 2.06 199 23:20 31.05.2020
2271 Rain 14 1012 85 0 2.06 199 22:45 31.05.2020
2272 Rain 14 1012 89 0 1 163 22:27 31.05.2020
2273 Rain 12 1012 87 0 1 163 21:59 31.05.2020
2274 Rain 17 1012 73 0 1 163 21:41 31.05.2020
2275 Rain 19 1012 64 0 1.18 163 21:23 31.05.2020
2276 Rain 19 1011 76 0 1.18 163 20:57 31.05.2020
2277 Rain 19 1011 76 0 1.18 163 20:57 31.05.2020
2278 Thunderstorm 20 1013 60 10000 3.6 220 20:38 31.05.2020
2279 Thunderstorm 20 1013 60 10000 3.6 220 20:19 31.05.2020
2280 Thunderstorm 20 1013 60 10000 3.6 220 19:54 31.05.2020
2281 Thunderstorm 19 1013 60 10000 3.6 220 19:36 31.05.2020
2282 Thunderstorm 19 1013 60 10000 3.6 220 19:18 31.05.2020
2283 Clouds 21 1013 49 10000 6.2 210 18:43 31.05.2020
2284 Clouds 20 1013 49 10000 6.2 210 18:25 31.05.2020
2285 Clouds 24 1012 44 10000 6.7 210 17:45 31.05.2020
2286 Clouds 22 1012 44 10000 7.2 210 17:25 31.05.2020
2287 Clouds 21 1013 47 10000 7.7 210 16:58 31.05.2020
2288 Clouds 21 1013 47 10000 7.7 210 16:58 31.05.2020
2289 Clouds 22 1013 47 10000 6.7 200 16:38 31.05.2020
2290 Clouds 22 1013 47 10000 6.7 200 16:18 31.05.2020
2291 Clouds 21 1013 50 10000 6.7 210 15:39 31.05.2020
2292 Clouds 21 1013 50 10000 6.7 210 15:21 31.05.2020
2293 Clouds 20 1013 47 10000 6.2 200 14:47 31.05.2020
2294 Clouds 20 1014 47 10000 5.7 200 14:21 31.05.2020
2295 Clouds 19 1014 47 10000 5.7 200 13:56 31.05.2020
2296 Clouds 19 1014 49 10000 4.6 210 13:38 31.05.2020
2297 Clouds 18 1014 49 10000 4.6 210 13:19 31.05.2020
2298 Clouds 17 1014 56 10000 4.6 230 12:55 31.05.2020
2299 Clouds 17 1015 56 10000 3.6 230 12:37 31.05.2020
2300 Clouds 17 1015 56 10000 3.6 230 12:18 31.05.2020
2301 Clouds 17 1015 64 10000 1.5 140 11:44 31.05.2020
2302 Clouds 16 1015 64 10000 1.5 140 11:21 31.05.2020
2303 Clouds 14 1010 66 0 1.54 233 10:55 31.05.2020
2304 Clouds 16 1010 74 0 1.54 233 10:37 31.05.2020
2305 Clouds 16 1010 80 0 1 253 10:18 31.05.2020
2306 Clouds 14 1012 64 0 0.45 326 09:42 31.05.2020
2307 Clouds 14 1010 90 0 0.59 264 09:22 31.05.2020
2308 Clouds 14 1010 92 0 0.59 264 08:56 31.05.2020
2309 Clouds 14 1010 92 0 0.59 264 08:36 31.05.2020
2310 Clouds 15 1016 41 0 0.28 277 08:18 31.05.2020
2311 Clouds 15 1016 40 0 0.28 277 07:39 31.05.2020
2312 Clear 13 1010 91 0 0.28 355 07:18 31.05.2020
2313 Clear 13 1010 92 0 0.28 355 06:41 31.05.2020
2314 Clear 14 1016 39 0 0.2 151 05:56 31.05.2020
2315 Clear 14 1016 38 0 0.2 151 05:37 31.05.2020
2316 Clear 13 1010 92 0 0.69 56 04:20 31.05.2020
2317 Clear 15 1016 36 0 0.69 56 03:45 31.05.2020
2318 Clear 16 1011 84 0 0.35 32 02:50 31.05.2020
2319 Clear 15 1017 34 0 0.79 22 01:46 31.05.2020
2320 Clear 15 1013 93 0 0.45 225 00:46 31.05.2020
2321 Clear 15 1017 32 0 0.5 342 00:28 31.05.2020
2322 Clear 15 1015 89 0 0.5 342 23:42 30.05.2020
2323 Clear 15 1015 89 0 0.7 15 23:24 30.05.2020
2324 Clear 16 1013 92 0 0.89 225 22:57 30.05.2020
2325 Clear 16 1012 92 0 0.89 225 22:39 30.05.2020
2326 Clouds 16 1011 77 0 0.32 339 22:21 30.05.2020
2327 Clouds 16 1015 86 0 0.32 339 21:43 30.05.2020
2328 Clouds 18 1010 73 0 0.57 253 21:23 30.05.2020
2329 Clouds 18 1010 64 0 0.57 253 20:58 30.05.2020
2330 Clouds 20 1015 60 10000 2.1 280 20:40 30.05.2020
2331 Clouds 21 1015 60 10000 2.1 280 20:21 30.05.2020
2332 Clouds 21 1015 60 10000 2.1 280 19:58 30.05.2020
2333 Clouds 21 1015 60 10000 2.1 280 19:40 30.05.2020
2334 Clouds 19 1015 60 10000 2.1 280 19:20 30.05.2020
2335 Clouds 19 1015 72 10000 3.1 210 18:43 30.05.2020
2336 Clouds 20 1014 64 10000 3.1 200 18:20 30.05.2020
2337 Clouds 19 1014 46 10000 6.7 200 17:43 30.05.2020
2338 Clouds 20 1014 46 10000 7.2 200 17:24 30.05.2020
2339 Clouds 20 1014 46 10000 7.7 210 16:58 30.05.2020
2340 Clouds 21 1014 44 10000 8.2 200 16:39 30.05.2020
2341 Clouds 21 1014 44 10000 8.2 200 16:21 30.05.2020
2342 Clouds 20 1015 46 10000 7.2 210 15:42 30.05.2020
2343 Clouds 20 1015 46 10000 7.2 210 15:24 30.05.2020
2344 Clouds 20 1015 46 10000 7.7 210 14:44 30.05.2020
2345 Clouds 20 1015 49 10000 6.7 200 14:25 30.05.2020
2346 Clouds 18 1015 49 10000 5.7 190 13:44 30.05.2020
2347 Clouds 18 1016 49 10000 5.1 210 13:24 30.05.2020
2348 Clouds 19 1016 56 10000 2.1 240 12:42 30.05.2020
2349 Clouds 15 1016 56 10000 2.1 240 12:22 30.05.2020
2350 Clouds 15 1017 56 10000 1.5 0 11:58 30.05.2020
2351 Clouds 14 1017 63 10000 1.5 240 11:40 30.05.2020
2352 Clouds 17 1017 63 10000 1.5 240 11:22 30.05.2020
2353 Clouds 17 1017 63 10000 1.5 240 11:22 30.05.2020
2354 Clouds 15 1012 80 0 1.84 233 10:42 30.05.2020
2355 Clouds 14 1012 83 0 1.61 233 10:21 30.05.2020
2356 Clouds 14 1012 87 0 1.61 233 09:51 30.05.2020
2357 Clear 13 1012 88 0 1.59 233 09:33 30.05.2020
2358 Clear 12 1012 92 0 1.18 227 08:54 30.05.2020
2359 Clear 12 1012 91 0 1.18 227 08:36 30.05.2020
2360 Clear 11 1012 90 0 0.13 253 07:50 30.05.2020
2361 Clear 11 1014 68 0 0.23 44 07:27 30.05.2020
2362 Clear 11 1013 89 0 0.23 44 06:59 30.05.2020
2363 Clear 12 1018 36 0 0.37 49 06:25 30.05.2020
2364 Clear 12 1018 35 0 0.37 49 05:49 30.05.2020
2365 Clear 12 1018 35 0 0.78 61 04:21 30.05.2020
2366 Clear 12 1017 90 0 0.81 68 02:33 30.05.2020
2367 Clear 13 1014 96 0 0.99 51 01:52 30.05.2020
2368 Clear 13 1014 94 0 0.96 52 00:42 30.05.2020
2369 Clear 14 1014 94 0 1 52 00:21 30.05.2020
2370 Clear 15 1014 93 0 1 52 23:58 29.05.2020
2371 Clear 15 1014 93 0 1 52 23:38 29.05.2020
2372 Clear 15 1014 93 0 1.23 53 23:18 29.05.2020
2373 Clear 16 1014 93 0 1.23 53 22:41 29.05.2020
2374 Clouds 15 1013 92 0 1.51 53 22:20 29.05.2020
2375 Clouds 15 1013 85 0 1.51 53 21:59 29.05.2020
2376 Clouds 15 1014 91 0 0.45 270 21:39 29.05.2020
2377 Rain 16 1015 69 0 0.89 8 21:20 29.05.2020
2378 Rain 13 1015 69 0 0.45 21 20:46 29.05.2020
2379 Thunderstorm 17 1015 60 10000 1 0 20:21 29.05.2020
2380 Thunderstorm 18 1015 60 10000 1 0 19:59 29.05.2020
2381 Thunderstorm 18 1015 60 10000 1 0 19:59 29.05.2020
2382 Thunderstorm 18 1015 60 10000 1 0 19:41 29.05.2020
2383 Thunderstorm 18 1015 60 10000 1 0 19:23 29.05.2020
2384 Clouds 18 1015 53 10000 1.5 0 18:47 29.05.2020
2385 Clouds 18 1015 53 10000 1.5 0 18:47 29.05.2020
2386 Clouds 20 1015 49 10000 3.1 240 18:20 29.05.2020
2387 Thunderstorm 20 1015 49 10000 4.6 230 17:57 29.05.2020
2388 Clouds 21 1015 50 10000 4.1 200 17:38 29.05.2020
2389 Clouds 21 1015 50 10000 4.1 200 17:19 29.05.2020
2390 Clouds 20 1015 44 10000 5.1 200 16:44 29.05.2020
2391 Clouds 22 1015 39 10000 6.7 200 16:25 29.05.2020
2392 Clouds 21 1015 41 10000 6.2 210 15:57 29.05.2020
2393 Clouds 22 1016 32 10000 5.1 210 15:38 29.05.2020
2394 Clouds 22 1016 32 10000 5.1 210 15:19 29.05.2020
2395 Clouds 21 1016 26 10000 3.6 230 14:49 29.05.2020
2396 Clouds 21 1016 33 10000 2.6 210 14:23 29.05.2020
2397 Clouds 21 1017 38 10000 2.1 0 13:57 29.05.2020
2398 Clouds 20 1017 36 10000 2.1 270 13:38 29.05.2020
2399 Clouds 24 1017 36 10000 2.1 270 13:18 29.05.2020
2400 Clouds 23 1018 49 10000 2.1 0 12:42 29.05.2020
2401 Clouds 21 1018 49 10000 1.5 0 12:23 29.05.2020
2402 Clouds 21 1019 56 10000 1 0 11:45 29.05.2020
2403 Clouds 16 1019 63 10000 1 0 11:27 29.05.2020
2404 Clear 16 1017 62 0 0.9 350 10:58 29.05.2020
2405 Clear 15 1015 81 0 0.9 350 10:38 29.05.2020
2406 Clear 14 1015 85 0 1.12 9 10:18 29.05.2020
2407 Clear 11 1015 90 0 1.12 9 09:43 29.05.2020
2408 Clear 12 1015 90 0 1.29 21 09:20 29.05.2020
2409 Clear 11 1016 91 0 1.27 21 08:49 29.05.2020
2410 Clear 11 1016 91 0 1.72 24 08:26 29.05.2020
2411 Clear 10 1017 61 0 1.72 24 07:59 29.05.2020
2412 Clear 10 1017 57 0 1.72 24 07:39 29.05.2020
2413 Clear 10 1016 91 0 1.78 22 07:21 29.05.2020
2414 Clear 10 1016 93 0 1.78 22 06:47 29.05.2020
2415 Clear 11 1017 93 0 1.26 19 06:27 29.05.2020
2416 Clear 11 1017 93 0 1.26 19 05:46 29.05.2020
2417 Clear 12 1018 89 0 1.33 30 02:37 29.05.2020
2418 Clear 13 1018 86 0 1.38 32 01:30 29.05.2020
2419 Clouds 13 1019 84 0 1.76 30 00:54 29.05.2020
2420 Clouds 13 1019 84 0 1.76 30 00:34 29.05.2020
2421 Clouds 15 1024 18 0 1.82 24 23:59 28.05.2020
2422 Clouds 15 1024 15 0 1.82 24 23:39 28.05.2020
2423 Clouds 13 1019 81 0 1.69 21 23:18 28.05.2020
2424 Clouds 14 1019 79 0 1.69 21 22:42 28.05.2020
2425 Clouds 14 1019 80 0 1.32 8 22:24 28.05.2020
2426 Clouds 17 1017 78 0 1.32 8 21:57 28.05.2020
2427 Clouds 17 1027 86 0 1.32 8 21:38 28.05.2020
2428 Clouds 18 1019 72 0 0.65 334 21:20 28.05.2020
2429 Clouds 18 1019 72 0 0.65 334 20:57 28.05.2020
2430 Clouds 15 1019 71 0 0.65 334 20:37 28.05.2020
2431 Rain 16 1018 68 0 0.27 287 20:18 28.05.2020
2432 Clouds 19 1022 38 10000 4.1 200 19:43 28.05.2020
2433 Clouds 18 1022 38 10000 4.1 200 19:21 28.05.2020
2434 Clouds 19 1022 38 10000 4.1 200 18:58 28.05.2020
2435 Clouds 19 1022 38 10000 4.1 200 18:58 28.05.2020
2436 Clouds 19 1022 41 10000 4.6 210 18:40 28.05.2020
2437 Clouds 20 1022 41 10000 4.6 210 18:22 28.05.2020
2438 Clouds 20 1023 41 10000 4.1 220 17:43 28.05.2020
2439 Clouds 20 1023 41 10000 4.1 220 17:22 28.05.2020
2440 Clouds 20 1023 41 10000 4.1 220 16:57 28.05.2020
2441 Clouds 20 1023 38 10000 5.7 210 16:37 28.05.2020
2442 Clouds 21 1023 38 10000 5.7 210 16:19 28.05.2020
2443 Clouds 20 1024 41 10000 5.7 210 15:42 28.05.2020
2444 Clouds 20 1024 41 10000 5.7 210 15:24 28.05.2020
2445 Clouds 21 1024 41 10000 5.7 210 14:55 28.05.2020
2446 Clouds 21 1024 44 10000 4.6 210 14:36 28.05.2020
2447 Clouds 20 1024 44 10000 4.6 210 14:18 28.05.2020
2448 Clouds 21 1025 50 10000 2.1 0 13:40 28.05.2020
2449 Clouds 21 1025 50 10000 2.1 0 13:40 28.05.2020
2450 Clouds 21 1025 50 10000 2.1 0 13:20 28.05.2020
2451 Clouds 23 1026 56 10000 1.5 0 12:42 28.05.2020
2452 Clouds 19 1026 56 10000 1.5 0 12:19 28.05.2020
2453 Clouds 17 1026 60 10000 1.5 0 11:44 28.05.2020
2454 Clouds 16 1027 60 10000 0.5 0 11:25 28.05.2020
2455 Clouds 14 1027 68 10000 1.5 190 10:57 28.05.2020
2456 Clouds 14 1027 68 10000 1.5 190 10:57 28.05.2020
2457 Clouds 14 1027 68 10000 1.5 190 10:57 28.05.2020
2458 Clouds 15 1023 90 0 0.62 292 10:39 28.05.2020
2459 Clouds 14 1023 93 0 0.84 291 10:19 28.05.2020
2460 Clouds 12 1023 97 0 0.84 291 09:39 28.05.2020
2461 Clear 12 1023 97 0 0.94 291 09:20 28.05.2020
2462 Clear 12 1023 97 0 0.94 291 08:49 28.05.2020
2463 Clouds 11 1024 65 0 0.71 293 08:26 28.05.2020
2464 Clouds 11 1024 97 0 0.71 293 07:45 28.05.2020
2465 Clouds 11 1024 69 0 0.46 320 07:26 28.05.2020
2466 Clouds 11 1024 69 0 0.46 320 07:26 28.05.2020
2467 Clouds 11 1024 96 0 0.46 320 06:57 28.05.2020
2468 Clouds 11 1024 96 0 0.46 320 06:37 28.05.2020
2469 Clouds 11 1024 96 0 0.32 356 05:56 28.05.2020
2470 Clouds 12 1024 96 0 0.66 14 05:35 28.05.2020
2471 Clouds 12 1024 95 0 0.43 357 04:28 28.05.2020
2472 Clouds 14 1028 37 0 0.43 357 03:45 28.05.2020
2473 Clouds 16 1024 81 0 0.43 332 02:45 28.05.2020
2474 Clouds 16 1024 80 0 0.23 284 01:51 28.05.2020
2475 Clouds 14 1025 95 0 0.48 260 00:54 28.05.2020
2476 Clouds 14 1025 95 0 0.69 213 00:26 28.05.2020
2477 Clouds 14 1025 95 0 0.69 213 23:58 27.05.2020
2478 Clouds 14 1025 95 0 0.69 213 23:39 27.05.2020
2479 Rain 12 1025 95 0 1.06 196 23:20 27.05.2020
2480 Rain 12 1025 95 0 1.06 196 22:56 27.05.2020
2481 Rain 14 1025 95 0 1.06 196 22:38 27.05.2020
2482 Rain 14 1025 95 0 1.05 200 22:19 27.05.2020
2483 Rain 14 1024 94 0 1.05 200 21:41 27.05.2020
2484 Rain 14 1024 93 0 1.05 211 21:22 27.05.2020
2485 Rain 15 1026 71 0 1.56 206 20:59 27.05.2020
2486 Rain 15 1026 70 0 1.56 206 20:59 27.05.2020
2487 Rain 15 1026 70 0 1.56 206 20:59 27.05.2020
2488 Rain 15 1024 92 0 1.56 206 20:40 27.05.2020
2489 Rain 13 1024 91 0 1.65 205 20:21 27.05.2020
2490 Rain 13 1024 91 0 1.65 205 19:55 27.05.2020
2491 Rain 13 1023 91 0 1.65 205 19:37 27.05.2020
2492 Rain 14 1023 88 0 1.57 206 19:18 27.05.2020
2493 Rain 18 1023 68 0 1.57 206 18:39 27.05.2020
2494 Rain 18 1023 67 0 0.45 155 18:19 27.05.2020
2495 Rain 19 1026 68 0 1.62 194 17:45 27.05.2020
2496 Rain 19 1026 68 0 1.92 185 17:26 27.05.2020
2497 Rain 19 1022 53 0 1.34 120 16:57 27.05.2020
2498 Rain 19 1022 55 0 0.45 162 16:38 27.05.2020
2499 Rain 19 1022 55 0 0.45 162 16:38 27.05.2020
2500 Rain 20 1022 53 0 0.45 114 16:20 27.05.2020
2501 Rain 20 1026 65 0 1.79 4 15:59 27.05.2020
2502 Rain 20 1022 47 0 0.89 133 15:37 27.05.2020
2503 Clouds 22 1022 49 0 2.2 193 15:18 27.05.2020
2504 Clouds 22 1022 57 0 2.2 193 14:42 27.05.2020
2505 Clear 22 1022 63 0 1.88 216 14:20 27.05.2020
2506 Clear 23 1023 55 0 1.52 214 13:44 27.05.2020
2507 Clear 21 1026 68 0 1.38 209 13:25 27.05.2020
2508 Clear 21 1026 68 0 1.38 209 13:25 27.05.2020
2509 Clear 24 1023 58 0 0.45 268 12:56 27.05.2020
2510 Clear 23 1023 56 0 1.38 209 12:37 27.05.2020
2511 Clear 20 1023 58 0 1.18 197 12:18 27.05.2020
2512 Clear 20 1023 64 0 1.18 197 11:39 27.05.2020
2513 Clear 16 1023 66 0 0.71 178 11:21 27.05.2020
2514 Clear 15 1026 64 0 0.71 178 10:56 27.05.2020
2515 Clear 17 1026 63 0 0.71 178 10:38 27.05.2020
2516 Clear 14 1026 60 0 0.25 135 10:19 27.05.2020
2517 Clear 14 1026 59 0 0.25 135 09:40 27.05.2020
2518 Clear 12 1024 83 0 0.75 45 09:21 27.05.2020
2519 Clear 11 1024 85 0 0.98 37 08:43 27.05.2020
2520 Clear 9 1024 84 0 1.92 36 08:25 27.05.2020
2521 Clear 10 1024 85 0 1.92 36 07:59 27.05.2020
2522 Clear 9 1026 59 0 1.92 36 07:59 27.05.2020
2523 Clear 10 1024 85 0 1.92 36 07:40 27.05.2020
2524 Clear 10 1024 85 0 2.09 35 07:22 27.05.2020
2525 Clear 10 1025 61 0 2.09 35 06:43 27.05.2020
2526 Clear 10 1024 83 0 1.99 33 06:19 27.05.2020
2527 Clear 11 1024 81 0 1.99 33 05:47 27.05.2020
2528 Clear 12 1029 39 0 1.92 32 04:20 27.05.2020
2529 Clear 14 1030 36 0 2.15 31 02:30 27.05.2020
2530 Clouds 14 1030 35 0 2.21 29 01:53 27.05.2020
2531 Clouds 14 1030 35 0 2.21 29 01:53 27.05.2020
2532 Clouds 16 1030 34 0 2.16 29 01:24 27.05.2020
2533 Clouds 16 1029 32 0 2.16 29 00:45 27.05.2020
2534 Clouds 16 1030 30 0 2.15 25 00:20 27.05.2020
2535 Clouds 16 1030 26 0 2.15 25 23:44 26.05.2020
2536 Clouds 14 1027 89 0 0.45 24 23:26 26.05.2020
2537 Clouds 14 1027 87 0 0.89 3 22:59 26.05.2020
2538 Clouds 10 1027 87 0 1.34 31 22:39 26.05.2020
2539 Clouds 13 1024 65 0 2.47 24 22:20 26.05.2020
2540 Clouds 13 1024 65 0 2.47 24 22:20 26.05.2020
2541 Clouds 11 1026 85 0 0.45 10 21:57 26.05.2020
2542 Clouds 17 1026 84 0 0.89 21 21:39 26.05.2020
2543 Rain 16 1023 59 0 2.1 18 21:20 26.05.2020
2544 Rain 18 1026 75 0 1.34 352 20:43 26.05.2020
2545 Rain 18 1026 77 0 0.45 15 20:21 26.05.2020
2546 Rain 18 1026 71 0 1.34 0 19:56 26.05.2020
2547 Rain 19 1026 64 0 1.79 25 19:37 26.05.2020
2548 Rain 19 1026 62 0 1.79 336 19:18 26.05.2020
2549 Rain 19 1026 65 0 2.24 18 18:42 26.05.2020
2550 Clouds 20 1026 64 0 1.79 359 18:22 26.05.2020
2551 Clouds 20 1026 64 0 1.79 359 18:22 26.05.2020
2552 Clouds 21 1026 61 0 1.79 15 17:44 26.05.2020
2553 Clouds 21 1026 58 0 1.34 15 17:26 26.05.2020
2554 Clouds 21 1026 54 0 1.34 359 16:59 26.05.2020
2555 Clouds 21 1026 53 0 1.79 13 16:41 26.05.2020
2556 Clear 21 1026 49 0 1.34 6 16:19 26.05.2020
2557 Clear 21 1026 54 0 1.34 6 15:44 26.05.2020
2558 Clear 24 1023 46 0 2.68 67 15:21 26.05.2020
2559 Clear 24 1023 34 0 0.45 297 14:59 26.05.2020
2560 Clear 24 1023 32 0 1.11 351 14:41 26.05.2020
2561 Clear 24 1023 36 0 0.62 339 14:21 26.05.2020
2562 Clear 23 1024 34 0 0.62 339 13:42 26.05.2020
2563 Clear 24 1024 41 0 0.66 354 13:23 26.05.2020
2564 Clear 23 1024 42 0 0.66 354 12:57 26.05.2020
2565 Clear 23 1024 50 0 0.66 354 12:39 26.05.2020
2566 Clear 20 1024 46 0 0.79 356 12:19 26.05.2020
2567 Clear 18 1024 59 0 0.79 356 11:41 26.05.2020
2568 Clear 17 1024 66 0 0.88 349 11:21 26.05.2020
2569 Clear 18 1024 78 0 0.88 349 10:57 26.05.2020
2570 Clear 17 1024 84 0 0.88 349 10:38 26.05.2020
2571 Clear 13 1024 85 0 0.69 342 10:18 26.05.2020
2572 Clear 13 1026 55 0 0.69 342 09:38 26.05.2020
2573 Clear 12 1025 89 0 0.89 4 09:19 26.05.2020
2574 Clear 11 1026 70 0 1.16 9 08:42 26.05.2020
2575 Clear 10 1025 91 0 1.73 23 08:22 26.05.2020
2576 Clear 9 1026 71 0 1.73 23 07:44 26.05.2020
2577 Clear 10 1024 90 0 1.97 25 07:23 26.05.2020
2578 Clear 10 1024 89 0 1.97 25 06:53 26.05.2020
2579 Clear 10 1024 89 0 1.97 25 06:31 26.05.2020
2580 Clear 11 1024 87 0 1.97 30 05:43 26.05.2020
2581 Clear 10 1024 88 0 2.08 30 05:21 26.05.2020
2582 Clear 11 1024 86 0 2.08 30 04:48 26.05.2020
2583 Clear 11 1024 85 0 2.05 31 04:29 26.05.2020
2584 Clear 11 1024 86 0 2.05 31 03:49 26.05.2020
2585 Clear 12 1024 85 0 2.19 31 02:36 26.05.2020
2586 Clouds 12 1024 84 0 2 31 01:47 26.05.2020
2587 Clouds 13 1024 84 0 1.9 27 00:44 26.05.2020
2588 Clouds 14 1023 82 0 2 30 00:26 26.05.2020
2589 Clouds 13 1023 84 0 2 30 23:59 25.05.2020
2590 Clouds 13 1023 85 0 2 30 23:39 25.05.2020
2591 Clouds 13 1023 90 0 2.24 32 23:20 25.05.2020
2592 Clouds 13 1023 90 0 2.24 32 23:20 25.05.2020
2593 Clouds 14 1023 93 0 2.24 32 22:56 25.05.2020
2594 Clouds 12 1023 92 0 2.24 32 22:37 25.05.2020
2595 Clear 14 1026 77 0 0.45 38 22:19 25.05.2020
2596 Clear 14 1022 93 0 2.12 30 21:58 25.05.2020
2597 Clear 14 1022 91 0 2.12 30 21:38 25.05.2020
2598 Rain 15 1026 79 0 0.45 232 21:19 25.05.2020
2599 Rain 16 1026 77 0 0.45 302 20:58 25.05.2020
2600 Rain 17 1021 89 0 1.66 20 20:40 25.05.2020
2601 Rain 16 1021 89 0 0.9 26 20:20 25.05.2020
2602 Clouds 16 1026 60 10000 4.6 220 19:55 25.05.2020
2603 Clouds 16 1026 60 10000 4.6 220 19:37 25.05.2020
2604 Clouds 16 1026 60 10000 4.6 220 19:18 25.05.2020
2605 Clouds 18 1026 60 10000 4.6 220 18:43 25.05.2020
2606 Thunderstorm 19 1026 56 10000 5.1 220 18:21 25.05.2020
2607 Thunderstorm 19 1025 56 10000 5.1 220 17:54 25.05.2020
2608 Rain 20 1025 53 10000 5.7 220 17:36 25.05.2020
2609 Thunderstorm 20 1025 53 10000 5.7 220 17:18 25.05.2020
2610 Rain 18 1025 50 10000 6.2 200 16:40 25.05.2020
2611 Rain 18 1025 50 10000 6.2 200 16:40 25.05.2020
2612 Rain 18 1025 50 10000 6.2 200 16:22 25.05.2020
2613 Rain 18 1025 50 10000 6.2 200 16:22 25.05.2020
2614 Thunderstorm 19 1025 47 10000 5.1 210 15:55 25.05.2020
2615 Clouds 18 1026 53 10000 5.1 200 15:36 25.05.2020
2616 Clouds 18 1026 53 10000 5.1 200 15:18 25.05.2020
2617 Clouds 17 1026 56 10000 5.7 220 14:42 25.05.2020
2618 Clouds 22 1026 56 10000 5.7 220 14:23 25.05.2020
2619 Clouds 23 1027 56 10000 5.7 220 13:57 25.05.2020
2620 Clouds 23 1027 60 10000 5.7 220 13:37 25.05.2020
2621 Clouds 23 1027 60 10000 5.7 220 13:37 25.05.2020
2622 Clouds 23 1027 60 10000 5.7 220 13:37 25.05.2020
2623 Clouds 23 1027 60 10000 5.7 220 13:19 25.05.2020
2624 Clouds 22 1027 60 10000 5.1 210 12:40 25.05.2020
2625 Clouds 21 1027 60 10000 5.1 210 12:21 25.05.2020
2626 Clouds 21 1027 64 10000 5.7 220 11:57 25.05.2020
2627 Clouds 20 1027 68 10000 3.6 230 11:37 25.05.2020
2628 Clouds 17 1027 68 10000 3.6 230 11:18 25.05.2020
2629 Clouds 17 1027 68 10000 3.6 230 11:18 25.05.2020
2630 Clouds 15 1025 71 0 1.36 210 10:41 25.05.2020
2631 Clouds 15 1025 76 0 0.88 200 10:21 25.05.2020
2632 Clouds 14 1021 85 0 0.88 200 09:56 25.05.2020
2633 Clouds 14 1021 85 0 0.88 200 09:38 25.05.2020
2634 Clear 15 1025 74 0 0.52 49 09:19 25.05.2020
2635 Clear 12 1025 76 0 0.52 49 08:43 25.05.2020
2636 Clouds 12 1025 76 0 1.35 26 08:24 25.05.2020
2637 Clouds 11 1025 78 0 1.35 26 07:58 25.05.2020
2638 Clouds 11 1025 73 0 1.35 26 07:39 25.05.2020
2639 Clouds 11 1025 73 0 0.45 328 07:19 25.05.2020
2640 Clouds 12 1022 93 0 1.71 18 06:41 25.05.2020
2641 Clouds 11 1029 40 0 1.43 18 06:19 25.05.2020
2642 Clouds 11 1030 37 0 0.47 360 03:31 25.05.2020
2643 Clouds 12 1030 36 0 0.44 348 02:52 25.05.2020
2644 Clouds 12 1030 36 0 0.43 351 02:34 25.05.2020
2645 Clouds 13 1030 29 0 0.37 333 01:42 25.05.2020
2646 Clouds 11 1029 86 0 0.73 250 00:47 25.05.2020
2647 Clouds 15 1031 29 0 1.13 222 00:26 25.05.2020
2648 Clouds 15 1031 29 0 1.13 222 23:58 24.05.2020
2649 Clouds 15 1031 30 0 1.13 222 23:39 24.05.2020
2650 Clouds 15 1031 29 0 1.03 208 23:20 24.05.2020
2651 Clouds 16 1031 27 0 1.03 208 22:55 24.05.2020
2652 Clouds 16 1031 27 0 1.03 208 22:55 24.05.2020
2653 Clouds 15 1031 26 0 1.03 208 22:37 24.05.2020
2654 Clouds 14 1022 85 0 0.72 195 22:18 24.05.2020
2655 Clouds 14 1023 84 0 0.72 195 22:18 24.05.2020
2656 Clouds 17 1022 72 0 0.72 195 21:54 24.05.2020
2657 Rain 16 1022 77 0 0.6 334 21:36 24.05.2020
2658 Rain 15 1026 67 0 0.6 334 21:18 24.05.2020
2659 Rain 16 1026 60 0 0.45 15 20:42 24.05.2020
2660 Clouds 17 1026 56 10000 4.6 220 20:21 24.05.2020
2661 Clouds 18 1026 56 10000 4.6 220 19:56 24.05.2020
2662 Clouds 18 1026 56 10000 4.6 220 19:37 24.05.2020
2663 Clouds 18 1026 56 10000 4.6 220 19:18 24.05.2020
2664 Clouds 19 1026 53 10000 6.7 210 18:42 24.05.2020
2665 Clouds 19 1026 53 10000 6.7 210 18:23 24.05.2020
2666 Clouds 19 1026 53 10000 5.7 220 17:57 24.05.2020
2667 Clouds 19 1026 53 10000 5.1 220 17:38 24.05.2020
2668 Clouds 20 1026 53 10000 5.1 220 17:19 24.05.2020
2669 Clouds 19 1026 57 10000 5.1 200 16:56 24.05.2020
2670 Clouds 19 1026 57 10000 5.1 200 16:56 24.05.2020
2671 Clouds 18 1027 56 10000 5.1 220 16:36 24.05.2020
2672 Clouds 18 1027 56 10000 5.1 220 16:18 24.05.2020
2673 Clouds 18 1027 53 10000 5.1 230 15:55 24.05.2020
2674 Clouds 19 1027 50 10000 4.6 230 15:36 24.05.2020
2675 Clouds 19 1027 50 10000 4.6 230 15:18 24.05.2020
2676 Clouds 20 1028 60 10000 3.1 220 14:41 24.05.2020
2677 Clouds 20 1028 60 10000 3.1 220 14:41 24.05.2020
2678 Clouds 21 1028 60 10000 3.1 220 14:22 24.05.2020
2679 Clouds 20 1028 64 10000 4.1 240 13:55 24.05.2020
2680 Clouds 20 1028 60 10000 3.6 230 13:37 24.05.2020
2681 Clouds 19 1028 60 10000 3.6 230 13:18 24.05.2020
2682 Clouds 19 1028 64 10000 5.1 230 12:55 24.05.2020
2683 Clouds 19 1028 60 10000 3.1 230 12:37 24.05.2020
2684 Clouds 19 1028 60 10000 3.1 230 12:18 24.05.2020
2685 Clouds 18 1029 60 10000 1.5 0 11:46 24.05.2020
2686 Clouds 15 1029 64 10000 1.5 0 11:26 24.05.2020
2687 Clouds 16 1023 95 0 1.24 250 10:59 24.05.2020
2688 Clouds 16 1023 95 0 1.24 250 10:59 24.05.2020
2689 Clouds 13 1023 96 0 1.24 250 10:41 24.05.2020
2690 Clouds 13 1023 96 0 1.01 260 10:23 24.05.2020
2691 Clouds 13 1023 97 0 1.01 260 09:56 24.05.2020
2692 Clouds 12 1024 97 0 0.93 242 09:37 24.05.2020
2693 Clouds 11 1024 97 0 0.68 274 09:18 24.05.2020
2694 Clouds 11 1026 83 0 2.24 219 08:41 24.05.2020
2695 Clouds 11 1026 83 0 2.24 219 08:41 24.05.2020
2696 Clouds 11 1023 97 0 0.61 306 08:22 24.05.2020
2697 Clouds 11 1023 97 0 0.61 306 07:57 24.05.2020
2698 Clouds 11 1023 97 0 0.61 306 07:39 24.05.2020
2699 Clouds 11 1023 97 0 0.69 240 07:19 24.05.2020
2700 Clouds 11 1023 97 0 0.69 240 06:38 24.05.2020
2701 Clouds 11 1023 97 0 0.9 246 05:49 24.05.2020
2702 Clouds 10 1023 97 0 0.73 288 03:49 24.05.2020
2703 Clouds 11 1026 82 0 0.84 304 03:26 24.05.2020
2704 Clouds 10 1023 96 0 0.7 314 02:23 24.05.2020
2705 Clouds 11 1023 96 0 0.58 3 00:50 24.05.2020
2706 Clouds 11 1027 76 0 1.56 355 00:28 24.05.2020
2707 Clouds 11 1023 96 0 1.56 355 23:59 23.05.2020
2708 Clouds 11 1023 96 0 1.56 355 23:37 23.05.2020
2709 Rain 12 1023 95 0 1.61 6 23:19 23.05.2020
2710 Rain 12 1023 92 0 1.61 6 22:55 23.05.2020
2711 Rain 12 1022 91 0 1.61 6 22:37 23.05.2020
2712 Rain 12 1027 82 0 1.83 11 22:18 23.05.2020
2713 Rain 12 1027 82 0 1.83 11 21:54 23.05.2020
2714 Rain 11 1027 91 0 1.83 11 21:36 23.05.2020
2715 Rain 12 1027 81 0 1.59 338 21:18 23.05.2020
2716 Rain 17 1033 37 0 1.34 14 20:39 23.05.2020
2717 Clouds 16 1025 47 10000 6.2 220 20:20 23.05.2020
2718 Clouds 16 1025 47 10000 6.2 220 19:58 23.05.2020
2719 Clouds 17 1025 47 10000 6.2 220 19:40 23.05.2020
2720 Clouds 17 1025 47 10000 6.2 220 19:19 23.05.2020
2721 Clouds 17 1025 44 10000 5.7 220 18:41 23.05.2020
2722 Clouds 22 1025 44 10000 5.7 220 18:22 23.05.2020
2723 Clouds 19 1025 42 10000 5.7 220 17:58 23.05.2020
2724 Clouds 19 1025 39 10000 6.2 210 17:40 23.05.2020
2725 Clouds 19 1025 39 10000 6.2 210 17:20 23.05.2020
2726 Clouds 18 1026 36 10000 6.2 210 16:59 23.05.2020
2727 Clouds 18 1026 36 10000 6.2 220 16:40 23.05.2020
2728 Clouds 23 1026 36 10000 6.2 220 16:20 23.05.2020
2729 Clouds 22 1026 36 10000 6.2 200 15:44 23.05.2020
2730 Clouds 24 1026 34 10000 6.2 210 15:24 23.05.2020
2731 Clouds 27 1026 34 10000 5.7 210 14:59 23.05.2020
2732 Clouds 27 1026 34 10000 5.7 200 14:41 23.05.2020
2733 Clouds 24 1026 34 10000 5.7 200 14:22 23.05.2020
2734 Clouds 24 1027 39 10000 3.6 210 13:42 23.05.2020
2735 Clouds 22 1027 39 10000 3.6 210 13:19 23.05.2020
2736 Clouds 22 1027 44 10000 2.6 240 12:57 23.05.2020
2737 Clouds 22 1027 44 10000 2.6 240 12:57 23.05.2020
2738 Clouds 22 1027 46 10000 1 0 12:39 23.05.2020
2739 Clouds 20 1027 46 10000 1 0 12:19 23.05.2020
2740 Clouds 18 1028 60 10000 1 0 11:43 23.05.2020
2741 Clouds 18 1028 60 10000 1 0 11:22 23.05.2020
2742 Clouds 17 1026 71 0 1.34 217 10:57 23.05.2020
2743 Clouds 16 1021 66 0 2.53 221 10:39 23.05.2020
2744 Clouds 16 1021 70 0 2.04 225 10:20 23.05.2020
2745 Clouds 15 1026 71 0 1.34 211 09:58 23.05.2020
2746 Clouds 15 1021 76 0 2.04 225 09:40 23.05.2020
2747 Clouds 15 1021 79 0 1.59 218 09:21 23.05.2020
2748 Clouds 14 1021 79 0 1.01 231 08:44 23.05.2020
2749 Clouds 14 1022 80 0 0.05 177 08:20 23.05.2020
2750 Clouds 13 1021 81 0 0.05 177 07:54 23.05.2020
2751 Clouds 13 1022 80 0 0.05 177 07:31 23.05.2020
2752 Clouds 13 1026 73 0 4.02 211 06:56 23.05.2020
2753 Clouds 13 1021 78 0 0.27 60 06:37 23.05.2020
2754 Clouds 15 1022 77 0 0.03 34 04:56 23.05.2020
2755 Clouds 16 1022 78 0 0.14 253 03:30 23.05.2020
2756 Clouds 16 1026 37 0 0.29 224 02:57 23.05.2020
2757 Clouds 17 1027 36 0 0.4 181 01:57 23.05.2020
2758 Clouds 17 1027 36 0 0.38 140 01:21 23.05.2020
2759 Clouds 17 1028 34 0 0.38 140 00:46 23.05.2020
2760 Clouds 18 1028 33 0 0.54 139 00:25 23.05.2020
2761 Clouds 18 1028 33 0 0.54 139 23:57 22.05.2020
2762 Clouds 19 1028 33 0 0.54 139 23:38 22.05.2020
2763 Clouds 19 1027 28 0 0.49 187 23:18 22.05.2020
2764 Clouds 19 1027 26 0 0.49 187 22:42 22.05.2020
2765 Clouds 19 1021 63 0 0.69 225 22:21 22.05.2020
2766 Clouds 18 1021 63 0 0.69 225 21:56 22.05.2020
2767 Clouds 18 1021 63 0 0.69 225 21:56 22.05.2020
2768 Clouds 21 1020 51 0 0.69 225 21:38 22.05.2020
2769 Clouds 21 1021 55 0 1.51 227 21:20 22.05.2020
2770 Clouds 22 1026 65 0 1.32 229 20:45 22.05.2020
2771 Clouds 22 1025 34 10000 5.7 210 20:21 22.05.2020
2772 Clouds 23 1025 34 10000 5.7 210 19:54 22.05.2020
2773 Clouds 22 1025 34 10000 5.7 210 19:36 22.05.2020
2774 Clouds 22 1025 34 10000 5.7 210 19:18 22.05.2020
2775 Clouds 23 1025 34 10000 5.7 210 18:39 22.05.2020
2776 Clouds 23 1025 34 10000 5.7 210 18:39 22.05.2020
2777 Clouds 23 1025 34 10000 5.7 210 18:19 22.05.2020
2778 Clouds 24 1025 32 10000 6.2 200 17:41 22.05.2020
2779 Clouds 25 1025 32 10000 6.2 200 17:21 22.05.2020
2780 Clouds 25 1025 32 10000 6.2 210 17:00 22.05.2020
2781 Clouds 24 1025 32 10000 6.2 210 16:41 22.05.2020
2782 Clouds 24 1025 32 10000 6.2 210 16:20 22.05.2020
2783 Clouds 24 1025 32 10000 6.2 210 16:20 22.05.2020
2784 Clouds 24 1025 32 10000 6.2 210 16:20 22.05.2020
2785 Clouds 24 1025 28 10000 6.2 200 15:57 22.05.2020
2786 Clouds 24 1025 30 10000 5.7 200 15:39 22.05.2020
2787 Clouds 27 1025 30 10000 5.7 200 15:18 22.05.2020
2788 Clouds 27 1025 32 10000 4.6 200 14:41 22.05.2020
2789 Clouds 27 1025 32 10000 4.6 200 14:23 22.05.2020
2790 Clouds 26 1025 39 10000 3.1 210 13:45 22.05.2020
2791 Clouds 26 1026 44 10000 1.5 0 13:20 22.05.2020
2792 Clouds 25 1026 49 10000 1 0 12:43 22.05.2020
2793 Clouds 23 1026 49 10000 1 0 12:25 22.05.2020
2794 Clouds 22 1026 49 10000 1 0 11:55 22.05.2020
2795 Clouds 21 1026 56 10000 1 0 11:36 22.05.2020
2796 Clouds 22 1026 56 10000 1 0 11:18 22.05.2020
2797 Clouds 21 1026 10 0 0.53 162 10:40 22.05.2020
2798 Clouds 16 1021 78 0 0.56 54 10:22 22.05.2020
2799 Clouds 16 1026 64 0 0.56 54 09:57 22.05.2020
2800 Clouds 14 1025 67 0 0.45 179 09:38 22.05.2020
2801 Clouds 14 1021 83 0 0.75 27 09:18 22.05.2020
2802 Clouds 13 1021 83 0 0.75 27 08:43 22.05.2020
2803 Clouds 12 1021 82 0 1.25 21 08:20 22.05.2020
2804 Clouds 12 1021 82 0 1.25 21 07:52 22.05.2020
2805 Clouds 12 1021 84 0 1.29 19 07:24 22.05.2020
2806 Clouds 12 1024 73 0 0.45 217 06:54 22.05.2020
2807 Clouds 12 1020 83 0 1.29 19 06:32 22.05.2020
2808 Clouds 13 1020 82 0 0.94 40 05:38 22.05.2020
2809 Clouds 13 1020 80 0 0.74 24 04:50 22.05.2020
2810 Clouds 13 1020 80 0 0.81 43 03:57 22.05.2020
2811 Clouds 13 1020 80 0 0.81 43 03:39 22.05.2020
2812 Clouds 14 1020 79 0 0.71 14 02:55 22.05.2020
2813 Clouds 14 1020 76 0 0.44 47 01:48 22.05.2020
2814 Clouds 15 1020 75 0 0.69 41 01:22 22.05.2020
2815 Clouds 16 1025 35 0 0.69 41 00:34 22.05.2020
2816 Clouds 17 1025 30 0 0.71 13 23:58 21.05.2020
2817 Clouds 17 1025 29 0 0.71 13 23:40 21.05.2020
2818 Clouds 18 1025 29 0 0.47 31 23:22 21.05.2020
2819 Clouds 18 1025 27 0 0.47 31 22:57 21.05.2020
2820 Clouds 18 1018 67 0 0.47 31 22:37 21.05.2020
2821 Clouds 16 1019 67 0 0.22 12 22:19 21.05.2020
2822 Clouds 19 1022 88 0 0.22 12 21:48 21.05.2020
2823 Clouds 19 1023 67 0 0.32 271 21:27 21.05.2020
2824 Clouds 20 1023 65 0 0.22 247 20:57 21.05.2020
2825 Clouds 19 1022 67 0 0.22 247 20:39 21.05.2020
2826 Rain 19 1017 57 0 0.66 254 20:21 21.05.2020
2827 Rain 19 1017 48 0 0.45 330 19:40 21.05.2020
2828 Clouds 22 1020 41 10000 6.2 200 19:20 21.05.2020
2829 Clouds 22 1020 41 10000 6.2 200 18:57 21.05.2020
2830 Clouds 22 1020 41 10000 6.2 200 18:36 21.05.2020
2831 Clouds 22 1020 41 10000 6.2 200 18:18 21.05.2020
2832 Clouds 22 1020 39 10000 7.2 200 17:45 21.05.2020
2833 Clouds 23 1020 39 10000 7.7 210 17:26 21.05.2020
2834 Clouds 24 1020 34 10000 5.7 210 16:48 21.05.2020
2835 Clouds 23 1020 28 10000 5.1 210 16:28 21.05.2020
2836 Clouds 24 1021 24 10000 3.1 220 15:59 21.05.2020
2837 Clouds 23 1021 21 10000 3.6 200 15:40 21.05.2020
2838 Clouds 23 1021 21 10000 3.6 200 15:21 21.05.2020
2839 Clouds 26 1021 24 10000 2.1 0 14:41 21.05.2020
2840 Clouds 26 1021 24 10000 2.1 0 14:22 21.05.2020
2841 Clouds 25 1022 25 10000 1.5 240 13:55 21.05.2020
2842 Clouds 25 1022 33 10000 1.5 0 13:37 21.05.2020
2843 Clouds 25 1022 33 10000 1.5 0 13:18 21.05.2020
2844 Clouds 24 1023 37 10000 1 0 12:39 21.05.2020
2845 Clouds 23 1023 37 10000 1 0 12:20 21.05.2020
2846 Clouds 20 1023 42 10000 1 0 11:56 21.05.2020
2847 Clouds 21 1023 48 10000 1 0 11:37 21.05.2020
2848 Clouds 21 1023 48 10000 1 0 11:19 21.05.2020
2849 Clouds 18 1023 59 10000 1 0 10:43 21.05.2020
2850 Clear 15 1018 66 0 1.75 24 10:23 21.05.2020
2851 Clear 13 1018 68 0 1.75 24 09:57 21.05.2020
2852 Clear 13 1018 64 0 1.75 24 09:39 21.05.2020
2853 Clear 12 1018 67 0 1.98 25 09:21 21.05.2020
2854 Clear 11 1018 67 0 1.98 25 08:48 21.05.2020
2855 Clear 9 1021 74 0 2.61 28 08:29 21.05.2020
2856 Clear 10 1018 67 0 2.61 28 07:49 21.05.2020
2857 Clear 9 1017 66 0 3.16 27 07:27 21.05.2020
2858 Clear 10 1017 66 0 3.16 27 06:54 21.05.2020
2859 Clear 10 1017 68 0 3.28 23 06:23 21.05.2020
2860 Clear 11 1017 69 0 3.28 23 05:37 21.05.2020
2861 Clear 12 1023 36 0 2.33 21 03:22 21.05.2020
2862 Clear 13 1023 39 0 2.33 21 02:49 21.05.2020
2863 Clear 13 1023 37 0 2.33 21 02:30 21.05.2020
2864 Clouds 14 1023 31 0 1.98 27 01:47 21.05.2020
2865 Clear 14 1023 34 0 2.11 26 01:21 21.05.2020
2866 Clear 14 1023 31 0 2.11 26 00:53 21.05.2020
2867 Clear 14 1023 29 0 2.17 27 00:23 21.05.2020
2868 Clear 15 1022 25 0 2.17 27 23:44 20.05.2020
2869 Clear 16 1022 25 0 2.29 26 23:21 20.05.2020
2870 Clear 16 1022 21 0 2.29 26 22:58 20.05.2020
2871 Clear 16 1022 16 0 2.29 26 22:39 20.05.2020
2872 Clear 14 1016 58 0 2.49 27 22:21 20.05.2020
2873 Clear 14 1016 58 0 2.49 27 22:21 20.05.2020
2874 Clear 18 1013 55 0 2.49 27 21:40 20.05.2020
2875 Clear 17 1015 50 0 2.41 21 21:22 20.05.2020
2876 Clear 19 1020 9 0 2.24 54 20:45 20.05.2020
2877 Clear 19 1020 9 0 2.24 54 20:45 20.05.2020
2878 Clear 19 1018 63 0 0.89 17 20:26 20.05.2020
2879 Clear 19 1018 62 0 1.79 14 19:58 20.05.2020
2880 Clear 20 1018 52 0 1.34 353 19:38 20.05.2020
2881 Clear 20 1018 47 0 1.34 15 19:20 20.05.2020
2882 Clear 21 1018 50 0 1.34 13 18:47 20.05.2020
2883 Clear 21 1018 48 0 1.34 6 18:28 20.05.2020
2884 Clear 21 1018 45 0 1.79 21 17:46 20.05.2020
2885 Clear 22 1018 44 0 1.34 359 17:24 20.05.2020
2886 Clear 22 1017 48 0 1.79 11 16:59 20.05.2020
2887 Clear 22 1017 49 0 2.24 18 16:41 20.05.2020
2888 Clear 22 1017 49 0 1.79 51 16:21 20.05.2020
2889 Clear 22 1018 51 0 1.34 35 15:55 20.05.2020
2890 Clear 22 1018 50 0 1.79 359 15:36 20.05.2020
2891 Clear 22 1017 52 0 1.34 21 15:18 20.05.2020
2892 Clear 26 1011 30 0 0.45 85 14:41 20.05.2020
2893 Clear 26 1012 29 0 0.45 97 14:20 20.05.2020
2894 Clear 22 1015 33 0 0.89 75 13:40 20.05.2020
2895 Clear 26 1020 7 0 3.13 298 13:19 20.05.2020
2896 Clear 23 1015 30 0 2.96 10 12:42 20.05.2020
2897 Clear 24 1013 40 0 2.79 10 12:21 20.05.2020
2898 Clear 21 1015 33 0 2.79 10 11:39 20.05.2020
2899 Clear 20 1016 35 0 2.77 9 11:20 20.05.2020
2900 Clear 19 1016 36 0 2.77 9 10:58 20.05.2020
2901 Clear 16 1016 37 0 2.77 9 10:40 20.05.2020
2902 Clear 13 1021 10 0 2.68 8 10:19 20.05.2020
2903 Clear 10 1016 45 0 2.78 8 09:41 20.05.2020
2904 Clear 11 1016 48 0 2.95 13 09:21 20.05.2020
2905 Clear 10 1016 55 0 3.15 13 08:42 20.05.2020
2906 Clear 10 1016 55 0 3.15 13 08:42 20.05.2020
2907 Clouds 9 1016 55 0 3.32 17 08:20 20.05.2020
2908 Clouds 8 1016 58 0 3.32 17 07:54 20.05.2020
2909 Clouds 8 1016 54 0 3.32 17 07:36 20.05.2020
2910 Clouds 8 1016 58 0 3.49 17 07:18 20.05.2020
2911 Clouds 9 1016 61 0 3.4 16 06:24 20.05.2020
2912 Clouds 9 1017 61 0 0.89 359 04:59 20.05.2020
2913 Clouds 10 1016 72 0 3.35 19 04:19 20.05.2020
2914 Clouds 10 1017 69 0 3.35 19 03:35 20.05.2020
2915 Clouds 11 1017 66 0 3.36 12 01:45 20.05.2020
2916 Clouds 11 1019 81 0 0.45 350 01:23 20.05.2020
2917 Clouds 12 1019 82 0 0.89 13 00:41 20.05.2020
2918 Clouds 12 1019 85 0 0.45 21 00:21 20.05.2020
2919 Clouds 12 1019 85 0 3.32 8 23:37 19.05.2020
2920 Clear 13 1019 83 0 0.89 24 23:19 19.05.2020
2921 Clear 12 1018 70 0 3.3 10 22:55 19.05.2020
2922 Clear 12 1018 69 0 3.3 10 22:36 19.05.2020
2923 Clear 13 1018 67 0 3.18 12 22:18 19.05.2020
2924 Clear 13 1019 85 0 1.34 20 21:55 19.05.2020
2925 Clear 14 1018 82 0 0.45 32 21:36 19.05.2020
2926 Clear 15 1017 54 0 2.89 9 21:18 19.05.2020
2927 Clear 16 1018 78 0 2.89 9 20:55 19.05.2020
2928 Clear 17 1018 77 0 0.89 20 20:37 19.05.2020
2929 Clear 14 1017 45 0 0.45 250 20:19 19.05.2020
2930 Clear 16 1018 63 0 2.24 15 19:38 19.05.2020
2931 Clear 16 1018 58 0 2.68 359 19:20 19.05.2020
2932 Clear 16 1017 56 0 2.24 1 18:44 19.05.2020
2933 Clear 19 1017 60 0 2.24 17 18:23 19.05.2020
2934 Clear 19 1017 57 0 2.24 14 17:57 19.05.2020
2935 Clear 19 1017 59 0 2.24 359 17:39 19.05.2020
2936 Clear 19 1017 56 0 2.24 7 17:20 19.05.2020
2937 Clear 19 1018 59 0 1.34 14 16:41 19.05.2020
2938 Clear 19 1018 60 0 1.34 15 16:23 19.05.2020
2939 Clear 16 1016 42 0 0.45 298 15:56 19.05.2020
2940 Clear 18 1016 41 0 0.45 306 15:38 19.05.2020
2941 Clear 19 1018 63 0 2.24 359 15:20 19.05.2020
2942 Clear 23 1021 10 0 4.02 306 14:54 19.05.2020
2943 Clear 23 1021 10 0 4.02 306 14:54 19.05.2020
2944 Clear 23 1021 9 0 3.13 316 14:36 19.05.2020
2945 Clear 23 1014 34 0 2.24 344 14:18 19.05.2020
2946 Clear 21 1017 45 0 0.45 277 13:40 19.05.2020
2947 Clear 22 1022 9 0 2.24 320 13:22 19.05.2020
2948 Clear 21 1017 47 0 3.74 3 12:59 19.05.2020
2949 Clear 21 1017 47 0 3.74 3 12:59 19.05.2020
2950 Clear 19 1018 47 0 3.74 3 12:40 19.05.2020
2951 Clear 22 1015 38 0 2.24 291 12:22 19.05.2020
2952 Clear 19 1018 47 0 0.45 298 11:58 19.05.2020
2953 Clear 19 1018 46 0 3.59 1 11:39 19.05.2020
2954 Clear 18 1018 46 0 0.45 305 11:21 19.05.2020
2955 Clear 15 1018 50 0 3.51 1 10:46 19.05.2020
2956 Clear 12 1024 14 0 3.55 3 10:28 19.05.2020
2957 Clear 13 1018 58 0 3.55 3 09:58 19.05.2020
2958 Clear 11 1018 57 0 3.55 3 09:40 19.05.2020
2959 Clear 10 1018 58 0 3.46 5 09:20 19.05.2020
2960 Clear 8 1018 61 0 3.46 5 08:43 19.05.2020
2961 Clear 8 1018 64 0 3.72 11 08:23 19.05.2020
2962 Clear 7 1017 81 0 2.24 1 07:44 19.05.2020
2963 Clear 6 1018 65 0 3.84 13 07:26 19.05.2020
2964 Clear 6 1018 66 0 3.84 13 06:50 19.05.2020
2965 Clear 6 1017 79 0 1.79 359 06:25 19.05.2020
2966 Clear 7 1018 69 0 4.09 14 05:41 19.05.2020
2967 Clear 7 1018 89 0 0.45 6 04:56 19.05.2020
2968 Clear 7 1018 71 0 4.08 13 04:32 19.05.2020
2969 Clear 8 1020 76 0 0.89 21 01:31 19.05.2020
2970 Clear 8 1020 69 0 1.34 30 00:44 19.05.2020
2971 Clear 9 1020 70 0 1.79 20 00:24 19.05.2020
2972 Clear 10 1020 69 0 0.89 28 23:56 18.05.2020
2973 Clear 10 1020 70 0 1.34 21 23:38 18.05.2020
2974 Clear 10 1020 76 0 3.77 15 23:19 18.05.2020
2975 Clear 11 1021 84 0 3.77 15 22:41 18.05.2020
2976 Clear 11 1021 65 0 3.76 14 22:22 18.05.2020
2977 Clear 9 1021 65 0 3.76 14 21:54 18.05.2020
2978 Clear 10 1020 87 0 0.45 350 21:36 18.05.2020
2979 Clear 12 1020 58 0 3.5 11 21:18 18.05.2020
2980 Clear 13 1020 85 0 1.34 23 20:42 18.05.2020
2981 Clear 15 1020 79 0 1.34 349 20:22 18.05.2020
2982 Clouds 16 1020 27 10000 6.7 360 19:57 18.05.2020
2983 Clouds 16 1020 27 10000 6.7 360 19:39 18.05.2020
2984 Clouds 16 1020 27 10000 6.7 360 19:19 18.05.2020
2985 Clouds 17 1020 27 10000 6.7 360 18:45 18.05.2020
2986 Clouds 21 1020 27 10000 8.2 30 18:24 18.05.2020
2987 Clouds 18 1020 28 10000 3.6 20 17:41 18.05.2020
2988 Clouds 19 1020 28 10000 3.6 20 17:18 18.05.2020
2989 Clouds 18 1020 25 10000 5.7 40 16:59 18.05.2020
2990 Clouds 18 1020 23 10000 7.2 60 16:40 18.05.2020
2991 Clouds 18 1020 23 10000 7.2 60 16:20 18.05.2020
2992 Clouds 18 1020 25 10000 6.7 60 15:57 18.05.2020
2993 Clouds 18 1020 25 10000 5.7 60 15:38 18.05.2020
2994 Clouds 18 1020 25 10000 5.7 60 15:20 18.05.2020
2995 Clouds 23 1021 23 10000 4.6 70 14:47 18.05.2020
2996 Clouds 23 1021 25 10000 2.1 60 14:25 18.05.2020
2997 Clear 22 1021 29 10000 2.6 60 13:59 18.05.2020
2998 Clear 22 1022 26 10000 2.1 0 13:39 18.05.2020
2999 Clear 21 1022 26 10000 2.1 0 13:20 18.05.2020
3000 Clear 21 1022 28 10000 1 0 12:56 18.05.2020
3001 Clear 19 1022 37 10000 1.5 50 12:38 18.05.2020
3002 Clear 20 1022 37 10000 1.5 50 12:18 18.05.2020
3003 Clear 17 1023 47 10000 1 0 11:47 18.05.2020
3004 Clear 17 1023 47 10000 1 0 11:27 18.05.2020
3005 Clear 15 1023 54 10000 1 0 10:58 18.05.2020
3006 Clear 15 1021 50 0 3.16 5 10:40 18.05.2020
3007 Clear 10 1021 52 0 3.18 7 10:22 18.05.2020
3008 Clear 10 1021 52 0 3.18 7 10:22 18.05.2020
3009 Clear 10 1021 61 0 3.18 7 09:43 18.05.2020
3010 Clear 8 1020 81 0 0.89 6 09:24 18.05.2020
3011 Clear 7 1021 63 0 3.37 12 08:45 18.05.2020
3012 Clear 6 1021 64 0 3.58 16 08:26 18.05.2020
3013 Clear 5 1021 66 0 3.58 16 07:54 18.05.2020
3014 Clear 5 1021 69 0 3.7 20 07:26 18.05.2020
3015 Clear 5 1020 69 0 3.7 20 06:51 18.05.2020
3016 Clear 5 1020 72 0 3.7 20 06:33 18.05.2020
3017 Clear 5 1020 74 0 3.63 20 05:49 18.05.2020
3018 Clear 6 1020 72 0 3.61 19 04:52 18.05.2020
3019 Clear 7 1026 44 0 3.48 18 03:30 18.05.2020
3020 Clear 8 1026 41 0 3.3 16 02:21 18.05.2020
3021 Clear 10 1027 38 0 3.28 15 00:55 18.05.2020
3022 Clear 8 1020 80 0 0.45 354 00:24 18.05.2020
3023 Clear 8 1020 75 0 0.45 359 23:57 17.05.2020
3024 Clear 8 1020 75 0 3.31 13 23:38 17.05.2020
3025 Clouds 9 1020 84 0 0.89 10 23:19 17.05.2020
3026 Clouds 9 1020 79 0 0.45 7 22:55 17.05.2020
3027 Clouds 9 1020 87 0 3.49 13 22:37 17.05.2020
3028 Clouds 9 1021 68 0 3.83 14 22:18 17.05.2020
3029 Clouds 10 1019 89 0 0.89 359 21:41 17.05.2020
3030 Clouds 10 1020 58 0 3.72 13 21:20 17.05.2020
3031 Clouds 12 1019 88 0 0.89 39 20:58 17.05.2020
3032 Clouds 12 1019 87 0 0.89 18 20:40 17.05.2020
3033 Clouds 15 1020 22 10000 6.7 320 20:19 17.05.2020
3034 Clouds 15 1020 22 10000 6.7 320 19:47 17.05.2020
3035 Clouds 15 1020 22 10000 6.7 320 19:29 17.05.2020
3036 Clouds 15 1019 21 10000 6.7 310 18:59 17.05.2020
3037 Clouds 15 1019 21 10000 6.7 310 18:59 17.05.2020
3038 Clouds 17 1019 19 10000 5.7 310 18:39 17.05.2020
3039 Clouds 16 1019 19 10000 5.7 310 18:39 17.05.2020
3040 Clouds 17 1019 19 10000 5.7 310 18:21 17.05.2020
3041 Clouds 17 1019 18 10000 6.7 310 17:41 17.05.2020
3042 Clouds 17 1019 18 10000 6.7 310 17:23 17.05.2020
3043 Clouds 17 1019 17 10000 6.2 300 16:59 17.05.2020
3044 Clouds 17 1019 19 10000 5.1 310 16:39 17.05.2020
3045 Clouds 21 1019 19 10000 5.1 310 16:20 17.05.2020
3046 Clouds 21 1020 16 10000 4.1 360 15:47 17.05.2020
3047 Clouds 21 1020 16 10000 4.1 360 15:25 17.05.2020
3048 Clouds 21 1020 21 10000 3.6 350 14:58 17.05.2020
3049 Clouds 21 1020 21 10000 3.6 350 14:58 17.05.2020
3050 Clouds 18 1020 24 10000 2.6 0 14:40 17.05.2020
3051 Clouds 20 1020 24 10000 2.6 0 14:22 17.05.2020
3052 Clouds 18 1021 24 10000 4.6 320 13:43 17.05.2020
3053 Clouds 19 1021 28 10000 4.6 360 13:21 17.05.2020
3054 Clouds 14 1021 57 0 3.2 1 10:50 17.05.2020
3055 Rain 6 1019 82 0 2.73 4 03:55 17.05.2020
3056 Rain 6 1019 76 0 2.48 2 02:28 17.05.2020
3057 Rain 6 1016 93 0 2.39 4 01:55 17.05.2020
3058 Rain 7 1015 95 0 2.42 9 00:56 17.05.2020
3059 Rain 7 1016 95 0 0.89 352 00:37 17.05.2020
3060 Clouds 7 1019 73 0 2.62 12 23:57 16.05.2020
3061 Clouds 7 1019 73 0 2.62 12 23:57 16.05.2020
3062 Clouds 6 1020 70 0 2.62 12 23:39 16.05.2020
3063 Clouds 6 1020 71 0 2.97 16 23:19 16.05.2020
3064 Clouds 6 1019 70 0 2.97 16 22:55 16.05.2020
3065 Clouds 6 1015 95 0 1.34 38 22:36 16.05.2020
3066 Rain 6 1019 68 0 0.45 192 22:18 16.05.2020
3067 Rain 7 1019 74 0 2.9 2 21:42 16.05.2020
3068 Rain 10 1018 73 0 2.49 5 21:23 16.05.2020
3069 Rain 10 1018 69 0 0.89 342 20:57 16.05.2020
3070 Clouds 12 1017 44 10000 4.1 360 20:38 16.05.2020
3071 Clouds 12 1017 44 10000 4.1 360 20:20 16.05.2020
3072 Clouds 12 1017 44 10000 4.1 360 19:43 16.05.2020
3073 Clouds 13 1017 44 10000 4.1 360 19:23 16.05.2020
3074 Clouds 13 1017 51 10000 1.5 330 18:59 16.05.2020
3075 Clouds 13 1017 51 10000 2.1 20 18:41 16.05.2020
3076 Clouds 13 1017 51 10000 2.1 20 18:22 16.05.2020
3077 Clouds 13 1017 55 10000 4.1 40 17:42 16.05.2020
3078 Clouds 13 1017 55 10000 4.1 40 17:22 16.05.2020
3079 Clouds 13 1017 59 10000 4.6 50 16:59 16.05.2020
3080 Clouds 13 1017 63 10000 3.1 40 16:39 16.05.2020
3081 Clouds 10 1017 63 10000 3.1 40 16:19 16.05.2020
3082 Clouds 14 1017 63 10000 3.6 40 15:54 16.05.2020
3083 Clouds 14 1017 63 10000 3.6 40 15:54 16.05.2020
3084 Clouds 14 1017 59 10000 2.1 20 15:36 16.05.2020
3085 Clouds 14 1017 59 10000 2.1 20 15:18 16.05.2020
3086 Rain 13 1016 48 10000 5.7 320 14:42 16.05.2020
3087 Rain 9 1016 48 10000 5.7 320 14:20 16.05.2020
3088 Rain 10 1017 48 10000 5.1 320 13:56 16.05.2020
3089 Clouds 10 1017 55 10000 2.1 80 13:36 16.05.2020
3090 Clouds 10 1017 55 10000 2.1 80 13:18 16.05.2020
3091 Clouds 10 1017 55 10000 2.6 120 12:43 16.05.2020
3092 Clouds 11 1017 55 10000 0.5 0 12:20 16.05.2020
3093 Clouds 11 1017 55 10000 0.5 0 12:20 16.05.2020
3094 Clouds 10 1018 58 10000 1.5 0 11:43 16.05.2020
3095 Clouds 9 1018 71 10000 1.5 110 11:23 16.05.2020
3096 Rain 8 1013 95 0 0.89 34 10:59 16.05.2020
3097 Rain 8 1017 93 0 2.59 15 10:40 16.05.2020
3098 Rain 8 1017 96 0 2.23 7 10:21 16.05.2020
3099 Rain 7 1013 94 0 2.23 7 09:56 16.05.2020
3100 Rain 8 1013 93 0 2.23 7 09:38 16.05.2020
3101 Rain 7 1017 97 0 1.99 5 09:18 16.05.2020
3102 Clouds 6 1016 97 0 1.36 359 08:42 16.05.2020
3103 Rain 6 1016 97 0 1.5 13 08:19 16.05.2020
3104 Rain 6 1016 97 0 1.5 13 07:43 16.05.2020
3105 Rain 6 1016 96 0 1.62 22 07:23 16.05.2020
3106 Rain 7 1016 96 0 1.62 22 06:48 16.05.2020
3107 Rain 7 1016 96 0 1.45 28 06:24 16.05.2020
3108 Rain 7 1016 97 0 1.45 28 05:49 16.05.2020
3109 Rain 6 1012 91 0 1.52 24 05:27 16.05.2020
3110 Rain 6 1016 96 0 1.51 36 03:33 16.05.2020
3111 Rain 7 1016 96 0 1.59 34 02:49 16.05.2020
3112 Clouds 7 1016 96 0 1.38 54 02:20 16.05.2020
3113 Clouds 7 1013 92 0 1.38 54 01:41 16.05.2020
3114 Clouds 8 1013 91 0 1.72 52 00:58 16.05.2020
3115 Clouds 8 1017 96 0 1.72 52 00:40 16.05.2020
3116 Clouds 8 1017 95 0 2.13 43 00:20 16.05.2020
3117 Clouds 8 1017 95 0 2.13 43 23:40 15.05.2020
3118 Rain 8 1017 95 0 2.14 32 23:20 15.05.2020
3119 Rain 8 1017 95 0 2.14 32 23:20 15.05.2020
3120 Rain 8 1016 95 0 2.14 32 22:42 15.05.2020
3121 Rain 8 1016 95 0 2.21 26 22:23 15.05.2020
3122 Rain 8 1012 85 0 2.21 26 21:58 15.05.2020
3123 Rain 10 1012 91 0 2.21 26 21:39 15.05.2020
3124 Rain 9 1015 94 0 1.49 8 21:21 15.05.2020
3125 Rain 9 1012 89 0 0.43 34 20:56 15.05.2020
3126 Rain 10 1014 63 10000 4.6 220 20:38 15.05.2020
3127 Rain 10 1014 63 10000 4.6 220 20:19 15.05.2020
3128 Rain 11 1014 63 10000 4.6 220 19:44 15.05.2020
3129 Rain 11 1014 63 10000 4.6 220 19:24 15.05.2020
3130 Rain 10 1014 67 10000 5.7 210 18:58 15.05.2020
3131 Clouds 10 1014 63 10000 6.2 210 18:39 15.05.2020
3132 Clouds 10 1014 63 10000 6.2 210 18:18 15.05.2020
3133 Rain 11 1013 59 10000 5.7 230 17:38 15.05.2020
3134 Rain 11 1013 59 10000 5.7 230 17:19 15.05.2020
3135 Rain 11 1013 67 10000 6.2 220 16:56 15.05.2020
3136 Rain 11 1013 67 10000 5.1 220 16:38 15.05.2020
3137 Rain 12 1013 67 10000 5.1 220 16:18 15.05.2020
3138 Clouds 13 1013 55 10000 1.5 130 15:41 15.05.2020
3139 Clouds 13 1013 55 10000 1.5 130 15:21 15.05.2020
3140 Clouds 13 1013 55 10000 1.5 0 14:58 15.05.2020
3141 Clouds 12 1013 59 10000 1.5 0 14:40 15.05.2020
3142 Clouds 12 1013 59 10000 1.5 0 14:22 15.05.2020
3143 Clouds 14 1014 72 10000 1.5 0 13:42 15.05.2020
3144 Clouds 13 1014 72 10000 1.5 0 13:22 15.05.2020
3145 Clouds 12 1014 72 10000 2.1 0 12:56 15.05.2020
3146 Clouds 11 1014 82 10000 1 0 12:37 15.05.2020
3147 Clouds 10 1014 82 10000 1 0 12:18 15.05.2020
3148 Clouds 10 1014 76 10000 1.5 200 11:56 15.05.2020
3149 Clouds 10 1014 76 10000 1.5 200 11:56 15.05.2020
3150 Clouds 10 1014 87 10000 1 0 11:37 15.05.2020
3151 Clouds 11 1014 87 10000 1 0 11:18 15.05.2020
3152 Rain 9 1012 93 0 0.72 31 10:54 15.05.2020
3153 Rain 9 1011 94 0 0.72 31 10:36 15.05.2020
3154 Rain 9 1011 94 0 0.86 28 10:18 15.05.2020
3155 Rain 8 1007 91 0 0.74 17 09:40 15.05.2020
3156 Rain 8 1011 96 0 1.21 15 09:20 15.05.2020
3157 Rain 8 1007 92 0 1.21 15 08:58 15.05.2020
3158 Rain 7 1010 96 0 1.21 15 08:37 15.05.2020
3159 Rain 7 1010 97 0 1.12 5 08:19 15.05.2020
3160 Rain 7 1005 93 0 0.45 359 07:44 15.05.2020
3161 Rain 7 1010 96 0 1.12 5 07:44 15.05.2020
3162 Rain 7 1009 97 0 0.96 343 07:24 15.05.2020
3163 Rain 7 1009 96 0 0.96 343 06:54 15.05.2020
3164 Rain 7 1008 96 0 0.64 307 05:49 15.05.2020
3165 Rain 7 1003 90 0 0.71 277 04:28 15.05.2020
3166 Rain 7 1007 96 0 0.71 277 03:48 15.05.2020
3167 Rain 7 1006 96 0 0.8 275 02:35 15.05.2020
3168 Rain 7 1006 96 0 0.81 263 01:24 15.05.2020
3169 Rain 7 1006 96 0 0.81 263 00:50 15.05.2020
3170 Rain 7 1002 89 0 0.81 263 00:30 15.05.2020
3171 Rain 7 1002 90 0 0.99 267 23:45 14.05.2020
3172 Clouds 7 1001 89 0 0.45 359 23:25 14.05.2020
3173 Clouds 7 1001 88 0 1.01 286 23:00 14.05.2020
3174 Clouds 8 1001 85 0 1.01 286 22:40 14.05.2020
3175 Clouds 8 1005 95 0 1.42 319 22:19 14.05.2020
3176 Clouds 8 1004 94 0 1.42 319 21:57 14.05.2020
3177 Clouds 8 1004 94 0 1.42 319 21:39 14.05.2020
3178 Rain 9 1004 94 0 1.23 284 21:19 14.05.2020
3179 Rain 9 1004 94 0 1.23 284 20:55 14.05.2020
3180 Rain 9 1004 93 0 1.23 284 20:36 14.05.2020
3181 Rain 9 1000 85 0 1.25 269 20:18 14.05.2020
3182 Rain 9 1005 100 7000 1.5 250 19:40 14.05.2020
3183 Rain 11 1005 100 7000 1.5 250 19:21 14.05.2020
3184 Fog 11 1005 100 7000 1.5 250 18:58 14.05.2020
3185 Rain 11 1005 100 9000 1.5 230 18:38 14.05.2020
3186 Rain 11 1005 100 9000 1.5 230 18:38 14.05.2020
3187 Rain 9 1005 100 9000 1.5 230 18:20 14.05.2020
3188 Rain 9 1005 100 9000 2.1 220 17:59 14.05.2020
3189 Rain 10 1005 100 9000 1.5 200 17:37 14.05.2020
3190 Rain 10 1005 100 9000 1.5 200 17:19 14.05.2020
3191 Rain 10 1004 100 10000 1 0 16:57 14.05.2020
3192 Rain 10 1004 100 10000 1 0 16:38 14.05.2020
3193 Rain 10 1004 100 10000 1 0 16:19 14.05.2020
3194 Rain 10 1004 100 9000 1.5 250 15:56 14.05.2020
3195 Rain 10 1004 100 10000 3.1 210 15:37 14.05.2020
3196 Rain 10 1004 100 10000 3.1 210 15:18 14.05.2020
3197 Rain 11 1004 82 10000 3.1 180 14:40 14.05.2020
3198 Rain 12 1004 82 10000 3.1 180 14:20 14.05.2020
3199 Rain 12 1004 67 10000 2.6 220 13:58 14.05.2020
3200 Clouds 12 1004 67 10000 2.6 180 13:39 14.05.2020
3201 Clouds 12 1004 67 10000 2.6 180 13:20 14.05.2020
3202 Clouds 12 1004 63 10000 1 0 12:58 14.05.2020
3203 Clouds 12 1005 67 10000 1 0 12:39 14.05.2020
3204 Clouds 12 1005 67 10000 1 0 12:20 14.05.2020
3205 Clouds 12 1005 67 10000 1 0 11:57 14.05.2020
3206 Clouds 11 1005 76 10000 0.5 0 11:38 14.05.2020
3207 Clouds 11 1005 76 10000 0.5 0 11:38 14.05.2020
3208 Clouds 10 1006 93 10000 1 0 11:20 14.05.2020
3209 Clouds 11 1005 76 10000 0.5 0 11:20 14.05.2020
3210 Clouds 11 1003 81 0 1.28 153 10:45 14.05.2020
3211 Clouds 11 1003 84 0 1.17 154 10:26 14.05.2020
3212 Clouds 11 1003 89 0 1.17 154 09:57 14.05.2020
3213 Clouds 10 1003 88 0 1.21 156 09:39 14.05.2020
3214 Clouds 11 1001 86 0 0.89 197 09:19 14.05.2020
3215 Clouds 9 1000 87 0 0.73 140 08:41 14.05.2020
3216 Clouds 10 1000 87 0 0.41 74 08:20 14.05.2020
3217 Clouds 8 1003 89 0 0.41 74 07:45 14.05.2020
3218 Clouds 8 1000 86 0 1.34 193 07:24 14.05.2020
3219 Clouds 8 1003 92 0 0.89 116 06:54 14.05.2020
3220 Clouds 10 1003 91 0 0.73 70 06:28 14.05.2020
3221 Clouds 10 1003 91 0 0.73 70 05:44 14.05.2020
3222 Clouds 10 1003 91 0 0.96 76 05:23 14.05.2020
3223 Clouds 9 1003 92 0 1.12 72 04:24 14.05.2020
3224 Clouds 11 1004 89 0 1.31 69 03:21 14.05.2020
3225 Clouds 10 1004 91 0 1.31 69 02:40 14.05.2020
3226 Rain 11 1004 89 0 1.06 159 01:53 14.05.2020
3227 Rain 12 1011 41 0 1.09 170 00:58 14.05.2020
3228 Rain 12 1011 40 0 1.09 170 00:30 14.05.2020
3229 Clouds 12 1011 40 0 0.69 141 23:57 13.05.2020
3230 Clouds 11 1010 39 0 0.69 141 23:38 13.05.2020
3231 Clouds 11 1005 87 0 0.56 114 23:18 13.05.2020
3232 Clouds 11 1004 87 0 0.56 114 22:42 13.05.2020
3233 Clouds 11 1004 86 0 0.21 90 22:23 13.05.2020
3234 Clouds 11 1003 84 0 0.21 90 21:59 13.05.2020
3235 Clouds 12 1003 82 0 0.45 169 21:40 13.05.2020
3236 Clouds 12 1003 77 0 0.88 203 21:19 13.05.2020
3237 Clouds 12 1003 77 0 0.88 203 21:19 13.05.2020
3238 Clouds 13 1009 26 0 0.88 203 20:56 13.05.2020
3239 Clouds 12 1001 86 0 0.88 203 20:38 13.05.2020
3240 Rain 13 1001 85 0 1.67 212 20:19 13.05.2020
3241 Rain 13 1001 82 0 1.67 212 19:42 13.05.2020
3242 Clouds 13 1001 87 0 2.27 215 19:24 13.05.2020
3243 Clouds 13 1000 86 0 0.45 8 18:45 13.05.2020
3244 Rain 13 1000 88 0 2.32 218 18:22 13.05.2020
3245 Rain 13 1000 85 0 0.89 266 17:58 13.05.2020
3246 Rain 14 1002 67 0 2.32 218 17:38 13.05.2020
3247 Clouds 14 1002 66 0 2.02 218 17:18 13.05.2020
3248 Clouds 14 1002 62 0 0.89 208 16:41 13.05.2020
3249 Clouds 15 1002 65 0 1.34 134 16:20 13.05.2020
3250 Clouds 14 1002 68 0 2.26 218 15:57 13.05.2020
3251 Clouds 13 1002 68 0 2.26 218 15:39 13.05.2020
3252 Clouds 13 1002 71 0 2.55 224 15:18 13.05.2020
3253 Clouds 13 1002 70 0 2.55 224 14:55 13.05.2020
3254 Clouds 13 1000 82 0 0.45 48 14:36 13.05.2020
3255 Clouds 13 1002 73 0 2.87 219 14:18 13.05.2020
3256 Clouds 13 999 83 0 0.89 110 13:42 13.05.2020
3257 Rain 13 1002 82 0 3.14 225 13:22 13.05.2020
3258 Rain 10 1002 83 0 3.14 225 12:59 13.05.2020
3259 Rain 13 999 84 0 0.45 105 12:41 13.05.2020
3260 Clouds 12 999 86 0 0.89 117 12:20 13.05.2020
3261 Clouds 13 999 87 0 2.81 228 11:56 13.05.2020
3262 Clouds 13 999 87 0 2.81 228 11:56 13.05.2020
3263 Clouds 14 999 87 0 2.81 228 11:37 13.05.2020
3264 Rain 14 999 88 0 2.44 216 11:19 13.05.2020
3265 Rain 10 1002 94 0 2.44 216 10:57 13.05.2020
3266 Rain 9 1002 94 0 2.44 216 10:38 13.05.2020
3267 Rain 10 998 88 0 0.45 195 10:19 13.05.2020
3268 Rain 9 1002 95 0 2.56 217 09:46 13.05.2020
3269 Clouds 9 1002 94 0 1.86 221 09:24 13.05.2020
3270 Clouds 8 998 90 0 1.79 219 08:58 13.05.2020
3271 Clouds 8 1002 95 0 1.85 195 08:37 13.05.2020
3272 Clouds 8 1002 95 0 1.23 170 08:19 13.05.2020
3273 Clouds 8 1002 94 0 1.23 170 07:48 13.05.2020
3274 Clouds 8 1002 94 0 1.23 170 07:30 13.05.2020
3275 Rain 8 1002 93 0 0.89 161 06:51 13.05.2020
3276 Rain 8 998 87 0 1.34 27 06:31 13.05.2020
3277 Rain 8 1001 94 0 1.18 130 05:33 13.05.2020
3278 Rain 9 1003 94 0 1.77 134 03:28 13.05.2020
3279 Rain 8 1004 91 0 0.72 78 02:34 13.05.2020
3280 Rain 9 1005 88 0 1.38 138 01:38 13.05.2020
3281 Rain 9 1005 89 0 1.83 120 00:53 13.05.2020
3282 Rain 10 1006 85 0 1.91 154 00:22 13.05.2020
3283 Rain 11 1006 91 0 1.91 154 23:40 12.05.2020
3284 Rain 11 1006 91 0 1.91 154 23:40 12.05.2020
3285 Clouds 12 1010 93 0 1.96 161 23:22 12.05.2020
3286 Clouds 12 1010 93 0 1.96 161 23:22 12.05.2020
3287 Clouds 12 1010 93 0 1.96 161 23:22 12.05.2020
3288 Clouds 13 1011 46 0 0.89 288 22:59 12.05.2020
3289 Clouds 12 1011 46 0 0.89 8 22:41 12.05.2020
3290 Clear 12 1010 43 0 1.88 150 22:21 12.05.2020
3291 Clear 12 1011 43 0 1.88 150 21:56 12.05.2020
3292 Clear 12 1010 41 0 1.34 339 21:37 12.05.2020
3293 Clear 12 1010 41 0 1.34 339 21:37 12.05.2020
3294 Clear 11 1006 82 0 1.4 128 21:19 12.05.2020
3295 Clear 12 1006 72 0 1.4 128 20:57 12.05.2020
3296 Clear 12 1006 71 0 0.45 151 20:38 12.05.2020
3297 Clouds 12 1005 72 0 1.28 141 20:20 12.05.2020
3298 Clouds 12 1005 72 0 1.28 141 20:20 12.05.2020
3299 Clouds 13 1004 79 0 0.89 165 19:56 12.05.2020
3300 Clouds 13 1004 79 0 0.45 141 19:37 12.05.2020
3301 Rain 13 1004 79 0 1.12 145 19:19 12.05.2020
3302 Rain 13 1004 80 0 0.89 35 18:43 12.05.2020
3303 Rain 13 1004 81 0 1.34 25 18:24 12.05.2020
3304 Rain 14 1005 79 0 2.91 206 17:58 12.05.2020
3305 Rain 14 1006 62 0 2.91 206 17:39 12.05.2020
3306 Rain 14 1006 62 0 2.91 206 17:39 12.05.2020
3307 Clouds 14 1005 79 0 0.89 163 17:21 12.05.2020
3308 Clouds 14 1005 80 0 0.89 188 16:43 12.05.2020
3309 Clouds 14 1008 69 0 3.83 205 16:23 12.05.2020
3310 Clouds 14 1005 79 0 1.79 115 15:56 12.05.2020
3311 Clouds 15 1007 59 0 3.83 205 15:37 12.05.2020
3312 Clouds 13 1008 60 0 3.13 202 15:18 12.05.2020
3313 Clouds 14 1008 58 0 3.13 202 14:55 12.05.2020
3314 Clouds 14 1006 79 0 3.13 191 14:36 12.05.2020
3315 Clouds 13 1006 83 0 0.89 345 14:18 12.05.2020
3316 Clouds 12 1006 83 0 0.89 17 13:55 12.05.2020
3317 Clouds 12 1006 84 0 0.89 191 13:36 12.05.2020
3318 Clouds 13 1006 85 0 1.79 180 13:18 12.05.2020
3319 Clouds 13 1006 85 0 1.79 173 12:55 12.05.2020
3320 Clouds 11 1012 71 10000 1 0 12:37 12.05.2020
3321 Clouds 11 1012 71 10000 1 0 12:37 12.05.2020
3322 Clouds 11 1012 71 10000 1 0 12:18 12.05.2020
3323 Clouds 11 1012 71 10000 1 0 11:56 12.05.2020
3324 Clouds 10 1012 71 10000 1 0 11:37 12.05.2020
3325 Clouds 10 1012 71 10000 1 0 11:19 12.05.2020
3326 Clouds 9 1012 71 10000 1 0 10:54 12.05.2020
3327 Clouds 9 1012 87 10000 2.1 80 10:36 12.05.2020
3328 Clouds 8 1012 87 10000 2.1 80 10:18 12.05.2020
3329 Clouds 8 1012 87 10000 2.1 80 10:18 12.05.2020
3330 Clouds 8 1013 87 10000 1 0 09:54 12.05.2020
3331 Fog 8 1013 100 5000 3.12 207 09:36 12.05.2020
3332 Fog 7 1013 100 5000 1.76 184 09:18 12.05.2020
3333 Fog 6 1012 100 250 1 0 08:39 12.05.2020
3334 Fog 6 1012 100 250 1 0 08:19 12.05.2020
3335 Clouds 7 1005 91 0 1.34 205 07:42 12.05.2020
3336 Clouds 7 1004 90 0 0.45 166 07:24 12.05.2020
3337 Clouds 7 1009 96 0 1.32 47 06:50 12.05.2020
3338 Clouds 8 1012 68 0 0.86 45 06:29 12.05.2020
3339 Clouds 9 1012 70 0 0.86 45 05:54 12.05.2020
3340 Clouds 9 1012 71 0 0.86 45 05:35 12.05.2020
3341 Clouds 9 1009 96 0 0.56 29 03:27 12.05.2020
3342 Clouds 9 1009 96 0 0.56 29 02:52 12.05.2020
3343 Clouds 9 1009 96 0 0.25 179 02:25 12.05.2020
3344 Clouds 8 1005 89 0 0.53 145 01:27 12.05.2020
3345 Clouds 8 1009 96 0 0.53 145 00:29 12.05.2020
3346 Clouds 9 1005 90 0 0.81 196 23:59 11.05.2020
3347 Clouds 9 1008 96 0 0.81 196 23:40 11.05.2020
3348 Clouds 10 1008 96 0 1.27 218 23:21 11.05.2020
3349 Clouds 11 1008 96 0 1.27 218 22:59 11.05.2020
3350 Clouds 9 1008 96 0 1.27 218 22:40 11.05.2020
3351 Clouds 9 1008 96 0 1.18 213 22:20 11.05.2020
3352 Clouds 9 1004 93 0 1.18 213 21:58 11.05.2020
3353 Clouds 9 1007 95 0 1.18 213 21:40 11.05.2020
3354 Clouds 9 1006 96 0 0.77 239 21:19 11.05.2020
3355 Clouds 9 1006 95 0 0.92 268 20:58 11.05.2020
3356 Clouds 9 1002 93 0 0.92 268 20:40 11.05.2020
3357 Clouds 9 1006 95 0 1.55 236 20:20 11.05.2020
3358 Clouds 10 1006 63 10000 1 0 19:55 11.05.2020
3359 Clouds 10 1006 63 10000 1 0 19:55 11.05.2020
3360 Clouds 10 1006 63 10000 1 0 19:36 11.05.2020
3361 Clouds 10 1006 63 10000 1 0 19:18 11.05.2020
3362 Clouds 10 1006 63 10000 1 0 18:55 11.05.2020
3363 Clouds 10 1006 59 10000 1.5 10 18:36 11.05.2020
3364 Clouds 12 1006 59 10000 1.5 10 18:18 11.05.2020
3365 Clouds 12 1005 59 10000 3.6 210 17:41 11.05.2020
3366 Clouds 12 1005 59 10000 3.6 210 17:22 11.05.2020
3367 Clouds 12 1005 59 10000 5.7 210 16:59 11.05.2020
3368 Clouds 10 1005 62 10000 5.1 220 16:39 11.05.2020
3369 Clouds 11 1005 62 10000 5.1 220 16:21 11.05.2020
3370 Clouds 11 1005 62 10000 4.1 210 15:57 11.05.2020
3371 Clouds 11 1005 62 10000 3.1 210 15:39 11.05.2020
3372 Clouds 10 1005 62 10000 3.1 210 15:18 11.05.2020
3373 Clouds 12 1004 71 10000 3.1 210 14:42 11.05.2020
3374 Clouds 12 1004 71 10000 3.1 210 14:42 11.05.2020
3375 Clouds 12 1004 71 10000 3.1 210 14:22 11.05.2020
3376 Clouds 10 1004 76 10000 3.6 220 13:59 11.05.2020
3377 Clouds 10 1004 76 10000 4.6 200 13:41 11.05.2020
3378 Clouds 9 1004 76 10000 4.6 200 13:18 11.05.2020
3379 Clouds 9 1004 81 10000 4.6 200 12:56 11.05.2020
3380 Clouds 9 1004 81 10000 4.6 200 12:56 11.05.2020
3381 Clouds 9 1004 81 10000 4.1 220 12:38 11.05.2020
3382 Clouds 9 1004 81 10000 4.1 220 12:19 11.05.2020
3383 Clouds 9 1003 81 10000 4.6 210 11:54 11.05.2020
3384 Clouds 9 1003 87 10000 1 0 11:36 11.05.2020
3385 Clouds 9 1003 87 10000 1 0 11:18 11.05.2020
3386 Clouds 8 1003 93 10000 1 0 10:54 11.05.2020
3387 Clouds 9 1001 96 0 2.74 214 10:36 11.05.2020
3388 Clouds 9 1001 96 0 2.13 211 10:18 11.05.2020
3389 Clouds 8 995 88 0 0.89 207 09:41 11.05.2020
3390 Clouds 10 1000 96 0 1.98 219 09:20 11.05.2020
3391 Clouds 10 1000 97 0 1.98 219 08:56 11.05.2020
3392 Clouds 9 1000 97 0 1.98 219 08:37 11.05.2020
3393 Clouds 10 1003 63 0 0.89 246 08:18 11.05.2020
3394 Clouds 10 1003 61 0 1.66 208 07:46 11.05.2020
3395 Clouds 10 1003 60 0 1.54 199 07:27 11.05.2020
3396 Clouds 10 1003 65 0 1.54 199 06:43 11.05.2020
3397 Clouds 10 1003 63 0 0.47 199 05:58 11.05.2020
3398 Clouds 9 999 97 0 1.03 202 05:25 11.05.2020
3399 Clouds 9 999 97 0 1.03 202 04:31 11.05.2020
3400 Clouds 9 999 97 0 0.93 312 02:59 11.05.2020
3401 Clouds 9 999 96 0 0.93 312 02:29 11.05.2020
3402 Rain 9 999 96 0 1 295 01:34 11.05.2020
3403 Rain 9 999 96 0 1 295 00:52 11.05.2020
3404 Rain 8 1000 96 0 0.99 334 00:19 11.05.2020
3405 Rain 8 1000 96 0 0.99 334 00:19 11.05.2020
3406 Rain 9 999 96 0 0.99 334 23:43 10.05.2020
3407 Rain 9 999 96 0 1.02 335 23:24 10.05.2020
3408 Rain 8 996 90 0 1.02 335 22:55 10.05.2020
3409 Rain 8 999 96 0 1.02 335 22:37 10.05.2020
3410 Rain 7 996 92 0 0.89 7 22:19 10.05.2020
3411 Rain 7 995 93 0 0.89 335 21:44 10.05.2020
3412 Rain 8 998 96 0 1.49 188 21:19 10.05.2020
3413 Rain 8 995 92 0 0.45 20 20:54 10.05.2020
3414 Rain 8 1001 100 4500 0.5 0 20:36 10.05.2020
3415 Rain 8 1001 100 4500 0.5 0 20:36 10.05.2020
3416 Mist 9 1001 100 4500 0.5 0 20:18 10.05.2020
3417 Rain 11 1001 100 4500 0.5 0 19:40 10.05.2020
3418 Rain 11 1001 100 4500 0.5 0 19:22 10.05.2020
3419 Rain 11 1001 100 10000 1.5 250 18:57 10.05.2020
3420 Fog 11 1001 100 10000 2.1 220 18:37 10.05.2020
3421 Fog 9 1001 100 10000 2.1 220 18:19 10.05.2020
3422 Fog 10 1001 93 10000 1 0 17:58 10.05.2020
3423 Fog 10 1001 100 9000 1.5 170 17:40 10.05.2020
3424 Fog 10 1001 100 9000 1.5 170 17:21 10.05.2020
3425 Rain 9 1002 100 2000 1.5 0 16:55 10.05.2020
3426 Mist 9 1002 100 2000 1.5 0 16:55 10.05.2020
3427 Rain 9 1003 100 2000 2.1 70 16:37 10.05.2020
3428 Rain 9 1003 100 2000 2.1 70 16:18 10.05.2020
3429 Rain 9 1003 100 2000 1 0 15:42 10.05.2020
3430 Rain 9 1003 100 2000 1 0 15:23 10.05.2020
3431 Rain 9 1003 100 5000 1.5 50 14:57 10.05.2020
3432 Fog 9 1004 100 2000 2.1 20 14:38 10.05.2020
3433 Fog 9 1004 100 2000 2.1 20 14:19 10.05.2020
3434 Rain 10 1004 100 2000 2.6 360 13:58 10.05.2020
3435 Fog 10 1005 100 2000 3.6 40 13:37 10.05.2020
3436 Rain 10 1005 100 2000 3.6 40 13:19 10.05.2020
3437 Rain 10 1005 100 2500 4.1 40 12:56 10.05.2020
3438 Fog 10 1005 100 800 2.1 360 12:37 10.05.2020
3439 Rain 12 1005 100 800 2.1 360 12:19 10.05.2020
3440 Rain 12 1005 100 800 2.1 360 12:19 10.05.2020
3441 Rain 12 1005 100 800 2.6 40 11:54 10.05.2020
3442 Rain 12 1005 100 300 2.6 70 11:36 10.05.2020
3443 Rain 12 1005 100 300 2.6 70 11:18 10.05.2020
3444 Rain 13 1000 79 0 1.79 191 10:42 10.05.2020
3445 Rain 13 1000 79 0 1.79 128 10:24 10.05.2020
3446 Rain 12 1000 77 0 0.89 166 09:43 10.05.2020
3447 Rain 13 1001 78 0 1.79 176 09:24 10.05.2020
3448 Rain 13 1001 78 0 3.13 215 08:59 10.05.2020
3449 Rain 13 1001 76 0 1.34 187 08:41 10.05.2020
3450 Rain 13 1001 75 0 0.45 204 08:22 10.05.2020
3451 Rain 12 1002 77 0 1.34 215 07:43 10.05.2020
3452 Rain 12 1002 75 0 0.89 226 07:19 10.05.2020
3453 Rain 13 1002 73 0 0.45 235 06:51 10.05.2020
3454 Rain 13 1002 73 0 0.45 235 06:51 10.05.2020
3455 Clouds 12 1002 73 0 1.34 128 06:27 10.05.2020
3456 Clouds 13 1008 48 0 1.34 128 05:48 10.05.2020
3457 Clouds 13 1009 51 0 1.34 345 04:48 10.05.2020
3458 Clouds 13 1008 47 0 2.24 0 04:29 10.05.2020
3459 Clouds 13 1008 39 0 0.98 128 03:51 10.05.2020
3460 Clouds 14 1008 38 0 0.89 1 03:30 10.05.2020
3461 Clouds 14 1009 42 0 1.2 140 02:25 10.05.2020
3462 Rain 14 1009 44 0 1.42 157 01:59 10.05.2020
3463 Rain 14 1008 92 0 1.42 157 01:40 10.05.2020
3464 Rain 14 1010 40 0 1.5 152 01:18 10.05.2020
3465 Rain 14 1010 38 0 1.5 152 00:52 10.05.2020
3466 Rain 13 1006 85 0 1.47 146 00:22 10.05.2020
3467 Rain 14 1011 38 0 1.47 146 23:40 09.05.2020
3468 Rain 14 1011 40 0 1.54 137 23:22 09.05.2020
3469 Rain 15 1010 37 0 1.54 137 22:59 09.05.2020
3470 Rain 15 1011 36 0 1.54 137 22:40 09.05.2020
3471 Rain 15 1010 35 0 1.39 155 22:22 09.05.2020
3472 Rain 16 1010 34 0 1.39 155 21:56 09.05.2020
3473 Rain 16 1006 80 0 1.39 155 21:38 09.05.2020
3474 Clouds 16 1006 69 0 0.89 133 21:19 09.05.2020
3475 Clouds 18 1006 68 0 0.89 186 20:56 09.05.2020
3476 Clouds 18 1011 63 10000 5.7 220 20:37 09.05.2020
3477 Clouds 18 1011 63 10000 5.7 220 20:19 09.05.2020
3478 Clouds 19 1011 63 10000 5.7 220 19:40 09.05.2020
3479 Clouds 20 1011 63 10000 5.7 220 19:21 09.05.2020
3480 Clouds 19 1010 59 10000 5.7 230 18:58 09.05.2020
3481 Clouds 19 1010 59 10000 6.7 230 18:40 09.05.2020
3482 Clouds 18 1010 59 10000 6.7 230 18:21 09.05.2020
3483 Clouds 18 1010 56 10000 6.2 220 17:44 09.05.2020
3484 Clouds 19 1010 49 10000 7.2 210 17:23 09.05.2020
3485 Clouds 19 1011 46 10000 7.2 200 16:55 09.05.2020
3486 Clouds 19 1011 43 10000 5.7 210 16:37 09.05.2020
3487 Clouds 19 1011 43 10000 5.7 210 16:18 09.05.2020
3488 Clouds 19 1011 43 10000 5.7 210 16:18 09.05.2020
3489 Clouds 18 1011 40 10000 7.2 220 15:40 09.05.2020
3490 Clouds 18 1011 40 10000 7.2 220 15:21 09.05.2020
3491 Clouds 18 1011 43 10000 6.7 220 14:43 09.05.2020
3492 Clouds 17 1011 40 10000 6.7 210 14:20 09.05.2020
3493 Clouds 17 1012 40 10000 1.5 200 13:59 09.05.2020
3494 Clouds 17 1012 42 10000 0.5 0 13:41 09.05.2020
3495 Clouds 19 1012 42 10000 0.5 0 13:21 09.05.2020
3496 Clouds 16 1013 51 10000 2.1 340 12:57 09.05.2020
3497 Clouds 16 1013 51 10000 2.1 340 12:57 09.05.2020
3498 Clouds 16 1014 55 10000 1.5 90 12:39 09.05.2020
3499 Clouds 16 1014 55 10000 1.5 90 12:39 09.05.2020
3500 Clouds 16 1014 55 10000 1.5 90 12:21 09.05.2020
3501 Rain 13 1015 76 10000 1 0 11:43 09.05.2020
3502 Rain 13 1015 76 10000 1 0 11:20 09.05.2020
3503 Clouds 14 1010 79 0 2.28 178 10:48 09.05.2020
3504 Clouds 14 1011 66 0 1.23 140 10:27 09.05.2020
3505 Clouds 12 1010 79 0 1.23 140 09:59 09.05.2020
3506 Clouds 12 1012 66 0 1.23 140 09:40 09.05.2020
3507 Clouds 11 1011 77 0 1.18 142 09:19 09.05.2020
3508 Clouds 11 1010 72 0 1.18 142 08:51 09.05.2020
3509 Clouds 11 1012 62 0 1.34 236 08:33 09.05.2020
3510 Clouds 11 1011 74 0 0.99 125 07:54 09.05.2020
3511 Clouds 11 1011 66 0 0.99 125 07:36 09.05.2020
3512 Clouds 10 1011 64 0 0.68 95 07:18 09.05.2020
3513 Clouds 9 1010 68 0 0.84 104 06:26 09.05.2020
3514 Clouds 10 1010 67 0 0.84 104 05:49 09.05.2020
3515 Clouds 10 1011 64 0 0.8 152 04:43 09.05.2020
3516 Clouds 11 1012 71 0 0.66 135 03:38 09.05.2020
3517 Clear 11 1012 72 0 0.81 107 02:50 09.05.2020
3518 Clouds 12 1016 32 0 0.99 91 01:54 09.05.2020
3519 Clouds 13 1016 35 0 0.92 124 01:25 09.05.2020
3520 Clouds 13 1016 33 0 0.92 124 00:59 09.05.2020
3521 Clouds 13 1016 34 0 0.92 124 00:38 09.05.2020
3522 Clear 14 1016 34 0 0.89 95 23:54 08.05.2020
3523 Clear 14 1013 68 0 0.89 95 23:36 08.05.2020
3524 Clear 14 1013 68 0 0.89 95 23:36 08.05.2020
3525 Clear 14 1013 68 0 0.89 95 23:36 08.05.2020
3526 Clear 14 1013 68 0 0.89 95 23:36 08.05.2020
3527 Clear 14 1012 68 0 1.04 105 23:18 08.05.2020
3528 Clear 16 1011 56 0 1.04 105 22:42 08.05.2020
3529 Clear 13 1012 62 0 1 127 22:20 08.05.2020
3530 Clear 15 1012 63 0 1 127 21:59 08.05.2020
3531 Clear 17 1011 62 0 1 127 21:41 08.05.2020
3532 Clear 17 1012 59 0 1.66 187 21:19 08.05.2020
3533 Clear 18 1011 56 0 1.6 172 20:58 08.05.2020
3534 Clear 18 1014 86 0 1.6 172 20:39 08.05.2020
3535 Clouds 20 1016 35 10000 6.2 210 20:21 08.05.2020
3536 Clouds 22 1016 35 10000 6.2 210 19:44 08.05.2020
3537 Clouds 20 1016 35 10000 6.2 210 19:24 08.05.2020
3538 Clouds 20 1016 35 10000 6.2 210 18:56 08.05.2020
3539 Clouds 21 1016 29 10000 5.7 210 18:38 08.05.2020
3540 Clouds 22 1016 29 10000 5.7 210 18:18 08.05.2020
3541 Clouds 21 1016 23 10000 6.7 220 17:42 08.05.2020
3542 Clouds 21 1016 23 10000 6.7 220 17:18 08.05.2020
3543 Clouds 21 1017 23 10000 4.6 220 16:45 08.05.2020
3544 Clouds 21 1017 23 10000 4.6 220 16:26 08.05.2020
3545 Clouds 20 1018 22 10000 4.1 220 15:57 08.05.2020
3546 Clouds 20 1018 25 10000 4.1 220 15:39 08.05.2020
3547 Clouds 20 1018 25 10000 4.1 220 15:18 08.05.2020
3548 Clouds 20 1018 25 10000 4.6 200 14:54 08.05.2020
3549 Clouds 20 1019 28 10000 5.7 200 14:36 08.05.2020
3550 Clouds 20 1019 28 10000 5.7 200 14:18 08.05.2020
3551 Clouds 18 1019 37 10000 5.1 200 13:39 08.05.2020
3552 Clouds 18 1019 37 10000 5.1 200 13:19 08.05.2020
3553 Clouds 17 1019 37 10000 4.6 210 12:45 08.05.2020
3554 Clouds 18 1019 37 10000 5.7 210 12:25 08.05.2020
3555 Clouds 17 1020 49 10000 2.6 220 11:57 08.05.2020
3556 Clouds 16 1020 63 10000 1 0 11:39 08.05.2020
3557 Clouds 15 1020 63 10000 1 0 11:20 08.05.2020
3558 Clouds 13 1016 70 0 1.79 211 10:55 08.05.2020
3559 Clouds 15 1014 77 0 3 200 10:37 08.05.2020
3560 Clear 15 1014 78 0 2.91 197 10:18 08.05.2020
3561 Clear 13 1015 85 0 2.91 197 09:41 08.05.2020
3562 Clear 12 1016 66 0 0.89 281 09:19 08.05.2020
3563 Clouds 12 1015 89 0 2.11 184 08:55 08.05.2020
3564 Clouds 11 1015 89 0 2.11 184 08:36 08.05.2020
3565 Clouds 11 1016 71 0 0.83 146 08:18 08.05.2020
3566 Clouds 10 1015 89 0 0.83 146 07:37 08.05.2020
3567 Clouds 10 1015 90 0 1.29 190 07:19 08.05.2020
3568 Clouds 10 1015 90 0 1.29 190 07:19 08.05.2020
3569 Clouds 11 1015 89 0 1.29 190 06:39 08.05.2020
3570 Clouds 11 1016 88 0 1.43 187 06:20 08.05.2020
3571 Clouds 11 1016 89 0 1.43 187 05:29 08.05.2020
3572 Clouds 12 1018 39 0 0.64 212 03:21 08.05.2020
3573 Clouds 14 1019 38 0 1 179 02:29 08.05.2020
3574 Clouds 14 1019 38 0 1 179 01:39 08.05.2020
3575 Clouds 13 1017 84 0 1.42 193 01:20 08.05.2020
3576 Clouds 13 1019 36 0 1.42 193 00:47 08.05.2020
3577 Clouds 13 1016 81 0 1.52 186 00:25 08.05.2020
3578 Clouds 15 1020 34 0 1.52 186 23:46 07.05.2020
3579 Clouds 14 1016 79 0 1.47 193 23:24 07.05.2020
3580 Clouds 16 1020 28 0 1.47 193 22:59 07.05.2020
3581 Clouds 16 1020 27 0 1.47 193 22:41 07.05.2020
3582 Clouds 15 1016 73 0 1.57 194 22:20 07.05.2020
3583 Clouds 17 1015 70 0 1.57 194 21:57 07.05.2020
3584 Clouds 17 1015 69 0 1.57 194 21:38 07.05.2020
3585 Clouds 16 1015 70 0 0.45 126 21:19 07.05.2020
3586 Clouds 16 1015 70 0 0.45 126 21:19 07.05.2020
3587 Clouds 17 1015 68 0 0.89 113 20:56 07.05.2020
3588 Clouds 16 1015 67 0 0.45 102 20:37 07.05.2020
3589 Clouds 17 1015 66 0 2.11 203 20:18 07.05.2020
3590 Clouds 19 1019 49 10000 6.7 210 19:45 07.05.2020
3591 Clouds 19 1019 49 10000 6.7 210 19:21 07.05.2020
3592 Clouds 20 1019 49 10000 6.7 210 18:47 07.05.2020
3593 Clouds 20 1019 46 10000 6.7 220 18:29 07.05.2020
3594 Clouds 20 1019 43 10000 6.2 220 17:59 07.05.2020
3595 Clouds 21 1019 41 10000 6.7 210 17:38 07.05.2020
3596 Clouds 20 1019 41 10000 6.7 210 17:19 07.05.2020
3597 Clouds 21 1019 41 10000 6.2 210 16:42 07.05.2020
3598 Clouds 20 1019 41 10000 6.2 210 16:19 07.05.2020
3599 Clouds 20 1020 38 10000 6.2 210 15:57 07.05.2020
3600 Clouds 21 1020 38 10000 5.7 210 15:37 07.05.2020
3601 Clouds 21 1020 38 10000 5.7 210 15:18 07.05.2020
3602 Clouds 22 1020 38 10000 5.1 210 14:46 07.05.2020
3603 Clouds 21 1020 38 10000 4.1 210 14:23 07.05.2020
3604 Clouds 19 1020 41 10000 3.1 230 13:58 07.05.2020
3605 Clouds 20 1021 43 10000 1.5 0 13:40 07.05.2020
3606 Clouds 20 1021 43 10000 1.5 0 13:20 07.05.2020
3607 Clouds 20 1021 43 10000 1.5 0 13:20 07.05.2020
3608 Clouds 17 1021 49 10000 1 0 12:40 07.05.2020
3609 Clouds 16 1021 49 10000 1 0 12:20 07.05.2020
3610 Clouds 15 1021 55 10000 1 0 11:39 07.05.2020
3611 Clouds 15 1021 55 10000 1 0 11:21 07.05.2020
3612 Clouds 14 1022 63 10000 1.5 200 10:55 07.05.2020
3613 Clouds 14 1017 72 0 2.31 205 10:37 07.05.2020
3614 Clouds 14 1017 78 0 2.22 213 10:18 07.05.2020
3615 Clouds 13 1017 80 0 2.22 213 09:39 07.05.2020
3616 Clouds 12 1017 81 0 1.44 205 09:18 07.05.2020
3617 Clouds 11 1017 84 0 1.39 205 08:44 07.05.2020
3618 Clouds 11 1017 85 0 0.31 125 08:23 07.05.2020
3619 Clouds 11 1018 81 0 0.31 125 07:58 07.05.2020
3620 Clouds 11 1017 84 0 0.31 125 07:39 07.05.2020
3621 Clouds 11 1017 84 0 0.57 78 07:20 07.05.2020
3622 Clouds 10 1017 83 0 0.57 78 06:37 07.05.2020
3623 Clouds 10 1017 82 0 0.79 66 05:58 07.05.2020
3624 Clouds 12 1017 79 0 0.75 80 04:27 07.05.2020
3625 Clouds 13 1017 78 0 0.78 54 03:31 07.05.2020
3626 Clouds 11 1017 76 0 0.78 54 03:00 07.05.2020
3627 Clouds 11 1017 76 0 1.1 36 02:26 07.05.2020
3628 Clouds 13 1017 76 0 1.58 33 01:27 07.05.2020
3629 Clouds 15 1017 66 0 1.58 33 00:52 07.05.2020
3630 Clouds 15 1017 65 0 1.58 33 00:31 07.05.2020
3631 Clouds 16 1016 63 0 1.86 32 23:58 06.05.2020
3632 Clouds 16 1016 62 0 1.86 32 23:39 06.05.2020
3633 Clouds 17 1016 59 0 2.23 28 23:21 06.05.2020
3634 Clouds 16 1015 56 0 2.23 28 22:55 06.05.2020
3635 Clouds 16 1015 55 0 2.23 28 22:37 06.05.2020
3636 Clouds 13 1019 77 0 0.45 10 22:37 06.05.2020
3637 Clouds 13 1016 72 0 2.32 20 22:18 06.05.2020
3638 Clouds 13 1016 72 0 2.32 20 22:18 06.05.2020
3639 Clouds 18 1014 47 0 2.32 20 21:42 06.05.2020
3640 Clouds 15 1015 67 0 0.45 191 21:22 06.05.2020
3641 Clouds 16 1017 70 0 0.45 10 20:57 06.05.2020
3642 Clouds 17 1017 73 0 1.94 10 20:38 06.05.2020
3643 Clouds 17 1014 57 0 0.45 293 20:20 06.05.2020
3644 Clouds 17 1017 77 0 0.89 6 19:56 06.05.2020
3645 Clouds 17 1017 77 0 0.89 20 19:37 06.05.2020
3646 Clouds 18 1017 77 0 1.34 14 19:18 06.05.2020
3647 Clouds 18 1017 74 0 0.45 6 18:55 06.05.2020
3648 Clouds 18 1017 71 0 1.79 18 18:37 06.05.2020
3649 Clouds 22 1020 9 0 2.68 312 18:18 06.05.2020
3650 Clouds 23 1020 8 0 2.68 253 17:54 06.05.2020
3651 Clouds 23 1020 8 0 2.68 286 17:36 06.05.2020
3652 Rain 24 1020 8 0 3.13 243 17:18 06.05.2020
3653 Rain 20 1016 64 0 1.79 35 16:56 06.05.2020
3654 Rain 23 1013 40 0 0.45 148 16:38 06.05.2020
3655 Clouds 23 1014 34 0 0.89 257 16:19 06.05.2020
3656 Clouds 19 1017 60 0 1.79 27 15:45 06.05.2020
3657 Clouds 19 1014 32 0 0.89 162 15:22 06.05.2020
3658 Clouds 18 1015 32 0 0.45 231 14:56 06.05.2020
3659 Clouds 17 1015 35 0 1.4 240 14:38 06.05.2020
3660 Clear 19 1015 32 0 1.95 232 14:18 06.05.2020
3661 Clear 22 1015 33 0 0.45 322 13:57 06.05.2020
3662 Clear 22 1015 31 0 1.95 232 13:37 06.05.2020
3663 Clear 22 1015 33 0 1.8 236 13:18 06.05.2020
3664 Clear 19 1016 35 0 1.8 236 12:42 06.05.2020
3665 Clear 15 1016 34 0 1.44 239 12:24 06.05.2020
3666 Clear 14 1016 35 0 1.44 239 11:41 06.05.2020
3667 Clear 15 1016 36 0 0.96 251 11:21 06.05.2020
3668 Clear 14 1016 68 0 0.96 251 10:58 06.05.2020
3669 Clear 13 1016 53 0 0.96 251 10:39 06.05.2020
3670 Clear 13 1016 55 0 0.39 285 10:19 06.05.2020
3671 Clear 9 1016 81 0 0.39 285 09:45 06.05.2020
3672 Clear 11 1016 61 0 0.93 16 09:26 06.05.2020
3673 Clear 10 1015 59 0 0.93 16 08:55 06.05.2020
3674 Clear 10 1015 61 0 0.93 16 08:36 06.05.2020
3675 Clouds 9 1015 62 0 1.79 28 08:18 06.05.2020
3676 Clouds 9 1015 63 0 1.79 28 07:40 06.05.2020
3677 Clouds 9 1015 62 0 2.04 28 07:21 06.05.2020
3678 Clouds 9 1015 80 0 2.04 28 06:58 06.05.2020
3679 Clouds 9 1014 58 0 2.04 28 06:40 06.05.2020
3680 Clouds 10 1014 59 0 2.06 29 06:19 06.05.2020
3681 Clouds 10 1014 58 0 2.06 29 05:37 06.05.2020
3682 Clouds 10 1014 59 0 1.86 25 04:41 06.05.2020
3683 Clouds 10 1013 57 0 1.4 15 03:47 06.05.2020
3684 Clear 10 1013 54 0 0.83 9 03:22 06.05.2020
3685 Clear 11 1013 51 0 0.32 7 02:30 06.05.2020
3686 Clear 12 1020 32 0 0.16 353 01:56 06.05.2020
3687 Clear 13 1013 46 0 0.16 353 01:33 06.05.2020
3688 Clear 13 1020 34 0 0.07 247 00:54 06.05.2020
3689 Clear 14 1020 33 0 0.23 209 00:27 06.05.2020
3690 Clear 14 1020 29 0 0.23 209 23:57 05.05.2020
3691 Clear 14 1020 28 0 0.23 209 23:38 05.05.2020
3692 Clear 14 1020 27 0 0.54 176 23:18 05.05.2020
3693 Clear 16 1020 24 0 0.54 176 22:42 05.05.2020
3694 Clear 17 1019 21 0 0.63 187 22:20 05.05.2020
3695 Clear 17 1012 49 0 0.63 187 21:58 05.05.2020
3696 Clear 17 1012 49 0 0.63 187 21:58 05.05.2020
3697 Clear 18 1012 47 0 0.63 187 21:39 05.05.2020
3698 Clouds 16 1011 30 0 0.45 152 21:20 05.05.2020
3699 Clouds 16 1015 72 0 1.36 192 20:57 05.05.2020
3700 Clouds 16 1015 76 0 1.34 55 20:39 05.05.2020
3701 Clouds 18 1014 66 0 0.45 30 20:18 05.05.2020
3702 Clouds 18 1010 35 0 0.45 155 19:54 05.05.2020
3703 Clouds 18 1010 35 0 0.45 162 19:36 05.05.2020
3704 Clouds 17 1010 38 0 0.89 113 19:18 05.05.2020
3705 Clouds 17 1010 38 0 0.89 113 19:18 05.05.2020
3706 Clouds 19 1014 65 0 0.45 18 18:42 05.05.2020
3707 Clouds 19 1009 40 0 0.45 13 18:20 05.05.2020
3708 Clouds 19 1014 66 0 3.83 213 17:58 05.05.2020
3709 Clouds 19 1009 40 0 1.34 103 17:40 05.05.2020
3710 Clouds 19 1009 40 0 1.34 103 17:40 05.05.2020
3711 Clouds 19 1010 37 0 0.89 257 17:21 05.05.2020
3712 Clouds 19 1010 34 0 0.89 133 16:56 05.05.2020
3713 Clouds 19 1010 33 0 0.45 204 16:36 05.05.2020
3714 Clouds 18 1010 32 0 0.89 200 16:18 05.05.2020
3715 Clouds 18 1010 32 0 0.89 200 16:18 05.05.2020
3716 Clouds 18 1014 60 0 1.34 37 15:41 05.05.2020
3717 Clouds 20 1014 62 0 1.79 169 15:22 05.05.2020
3718 Clouds 20 1015 61 0 0.89 224 14:57 05.05.2020
3719 Clouds 25 1010 41 0 0.89 45 14:38 05.05.2020
3720 Clouds 24 1010 41 0 1.34 252 14:20 05.05.2020
3721 Clouds 23 1010 48 0 0.45 79 13:57 05.05.2020
3722 Clouds 23 1010 49 0 0.45 84 13:38 05.05.2020
3723 Clouds 20 1015 66 0 2.24 131 13:19 05.05.2020
3724 Clouds 24 1010 52 0 0.89 100 12:58 05.05.2020
3725 Clouds 24 1011 49 0 0.89 63 12:38 05.05.2020
3726 Clouds 17 1014 68 0 1.79 177 12:19 05.05.2020
3727 Clouds 17 1014 71 0 0.89 169 11:41 05.05.2020
3728 Clouds 18 1014 71 0 1.34 148 11:20 05.05.2020
3729 Clouds 17 1014 71 0 1.79 235 10:56 05.05.2020
3730 Clouds 15 1014 71 0 0.45 210 10:38 05.05.2020
3731 Clouds 14 1014 70 0 1.34 145 10:19 05.05.2020
3732 Clouds 14 1014 71 0 3.13 174 09:55 05.05.2020
3733 Clouds 13 1014 73 0 1.34 180 09:37 05.05.2020
3734 Clouds 13 1013 72 0 2.24 211 09:18 05.05.2020
3735 Clouds 13 1013 72 0 3.58 201 08:41 05.05.2020
3736 Clouds 12 1013 72 0 4.47 198 08:19 05.05.2020
3737 Clouds 12 1017 36 0 1.17 204 07:44 05.05.2020
3738 Clouds 12 1009 75 0 0.53 173 07:23 05.05.2020
3739 Clouds 13 1013 73 0 0.89 188 06:58 05.05.2020
3740 Clouds 13 1013 73 0 1.34 225 06:40 05.05.2020
3741 Clouds 13 1013 72 0 0.89 124 06:19 05.05.2020
3742 Clouds 14 1015 29 0 0.8 159 05:28 05.05.2020
3743 Clouds 14 1014 63 0 2.24 184 02:46 05.05.2020
3744 Clouds 15 1011 72 0 1.51 133 01:19 05.05.2020
3745 Clouds 16 1011 70 0 1.51 133 00:47 05.05.2020
3746 Clouds 17 1010 69 0 1.67 129 23:55 04.05.2020
3747 Clouds 17 1010 67 0 1.67 129 23:36 04.05.2020
3748 Clouds 16 1012 69 0 0.89 45 23:18 04.05.2020
3749 Clouds 19 1011 66 0 1.18 243 22:42 04.05.2020
3750 Clouds 19 1011 66 0 1.18 243 22:42 04.05.2020
3751 Clouds 19 1011 64 0 0.45 119 22:23 04.05.2020
3752 Clouds 19 1013 74 0 0.45 28 21:59 04.05.2020
3753 Clouds 19 1013 73 0 1.01 173 21:41 04.05.2020
3754 Clouds 19 1013 73 0 1.01 173 21:41 04.05.2020
3755 Clouds 19 1013 73 0 1.01 173 21:41 04.05.2020
3756 Clouds 19 1013 73 0 1.01 173 21:41 04.05.2020
3757 Clear 18 1011 61 0 1.76 205 21:20 04.05.2020
3758 Clear 18 1011 61 0 1.33 194 21:20 04.05.2020
3759 Clear 20 1016 64 0 2.68 132 20:41 04.05.2020
3760 Clear 19 1012 50 0 2.04 193 20:21 04.05.2020
3761 Clouds 22 1015 39 10000 4.6 220 19:58 04.05.2020
3762 Clouds 22 1015 39 10000 4.6 220 19:40 04.05.2020
3763 Clouds 22 1015 39 10000 4.6 220 19:40 04.05.2020
3764 Clouds 22 1015 39 10000 4.6 220 19:18 04.05.2020
3765 Clouds 23 1015 39 10000 4.6 210 18:39 04.05.2020
3766 Clouds 23 1015 39 10000 4.6 210 18:20 04.05.2020
3767 Clouds 23 1015 34 10000 6.7 210 17:57 04.05.2020
3768 Clouds 23 1015 39 10000 6.7 210 17:39 04.05.2020
3769 Clouds 27 1015 39 10000 6.7 210 17:20 04.05.2020
3770 Clouds 27 1016 39 10000 6.7 210 16:58 04.05.2020
3771 Clouds 27 1016 36 10000 6.2 200 16:40 04.05.2020
3772 Clouds 26 1016 36 10000 6.2 200 16:19 04.05.2020
3773 Clouds 26 1016 36 10000 6.2 200 16:19 04.05.2020
3774 Clouds 26 1016 36 10000 6.2 190 15:40 04.05.2020
3775 Clouds 26 1016 36 10000 6.2 190 15:22 04.05.2020
3776 Clouds 26 1017 36 10000 5.1 200 14:52 04.05.2020
3777 Clouds 26 1017 36 10000 5.1 200 14:52 04.05.2020
3778 Clouds 26 1017 36 10000 5.1 200 14:52 04.05.2020
3779 Clouds 22 1017 39 10000 5.1 200 14:24 04.05.2020
3780 Clouds 22 1017 39 10000 5.1 200 14:24 04.05.2020
3781 Clouds 22 1017 39 10000 5.1 200 14:24 04.05.2020
3782 Clouds 22 1017 39 10000 5.1 200 14:24 04.05.2020
3783 Clear 20 1017 41 10000 1.5 230 13:22 04.05.2020
3784 Clear 20 1017 41 10000 1.5 230 13:22 04.05.2020
3785 Clear 20 1017 41 10000 1.5 230 13:22 04.05.2020
3786 Clear 20 1017 41 10000 1.5 230 13:22 04.05.2020
3787 Clear 20 1017 41 10000 1.5 230 13:22 04.05.2020
3788 Clear 21 1018 49 10000 1 0 12:44 04.05.2020
3789 Clear 21 1018 49 10000 1 0 12:44 04.05.2020
3790 Clear 22 1018 46 10000 2.1 190 12:44 04.05.2020
3791 Clear 21 1018 49 10000 1 0 12:44 04.05.2020
3792 Clear 21 1018 49 10000 1 0 12:44 04.05.2020
3793 Clear 16 1019 59 10000 0.5 0 11:27 04.05.2020
3794 Clear 16 1019 59 10000 0.5 0 11:27 04.05.2020
3795 Clear 16 1019 59 10000 0.5 0 11:27 04.05.2020
3796 Clear 16 1019 59 10000 0.5 0 11:27 04.05.2020
3797 Clear 16 1019 59 10000 0.5 0 11:27 04.05.2020
3798 Clouds 12 1017 68 0 0.35 169 09:29 04.05.2020
3799 Clouds 10 1015 87 0 0.77 53 07:54 04.05.2020
3800 Clouds 10 1015 87 0 0.77 53 07:34 04.05.2020
3801 Clouds 10 1014 86 0 1.07 44 05:52 04.05.2020
3802 Clouds 11 1014 85 0 0.86 30 04:52 04.05.2020
3803 Clouds 11 1014 85 0 0.86 30 04:52 04.05.2020
3804 Clouds 12 1020 41 0 0.31 61 02:54 04.05.2020
3805 Clouds 13 1020 39 0 0.37 50 01:39 04.05.2020
3806 Clouds 14 1020 37 0 0.38 103 00:18 04.05.2020
3807 Clouds 15 1020 36 0 0.38 103 23:43 03.05.2020
3808 Clouds 15 1020 36 0 0.38 103 23:43 03.05.2020
3809 Clouds 15 1020 35 0 0.37 154 23:23 03.05.2020
3810 Clouds 15 1021 34 0 0.37 154 22:44 03.05.2020
3811 Clouds 16 1020 32 0 0.28 206 22:25 03.05.2020
3812 Clouds 17 1020 27 0 0.28 206 21:56 03.05.2020
3813 Clouds 16 1018 85 0 0.28 206 21:38 03.05.2020
3814 Clear 16 1014 67 0 0.73 221 21:19 03.05.2020
3815 Clear 16 1014 67 0 0.73 221 21:19 03.05.2020
3816 Clear 19 1013 57 0 0.45 123 20:42 03.05.2020
3817 Clouds 20 1017 43 10000 4.6 220 20:42 03.05.2020
3818 Clouds 18 1017 43 10000 4.6 220 20:20 03.05.2020
3819 Clouds 19 1017 43 10000 4.6 220 19:48 03.05.2020
3820 Clouds 19 1017 43 10000 4.6 220 19:30 03.05.2020
3821 Clouds 20 1017 41 10000 4.1 220 18:56 03.05.2020
3822 Clouds 20 1017 41 10000 4.1 220 18:56 03.05.2020
3823 Clouds 21 1017 38 10000 5.1 210 18:37 03.05.2020
3824 Clouds 20 1017 38 10000 5.1 210 18:18 03.05.2020
3825 Clouds 20 1017 38 10000 5.1 210 18:18 03.05.2020
3826 Clouds 20 1017 38 10000 5.1 210 18:18 03.05.2020
3827 Clouds 20 1017 38 10000 5.1 210 18:18 03.05.2020
3828 Clouds 20 1017 38 10000 5.1 210 18:18 03.05.2020
3829 Clouds 20 1018 38 10000 5.1 220 17:40 03.05.2020
3830 Clouds 20 1018 38 10000 5.1 220 17:40 03.05.2020
3831 Clouds 20 1018 38 10000 5.1 220 17:21 03.05.2020
3832 Clouds 20 1018 39 10000 4.6 210 16:45 03.05.2020
3833 Clouds 20 1018 36 10000 4.1 200 16:20 03.05.2020
3834 Clouds 20 1019 38 10000 4.6 220 15:58 03.05.2020
3835 Clouds 20 1019 38 10000 4.6 220 15:58 03.05.2020
3836 Clouds 20 1019 41 10000 5.7 220 15:39 03.05.2020
3837 Clouds 23 1019 41 10000 5.7 220 15:20 03.05.2020
3838 Clouds 23 1019 41 10000 5.7 220 15:20 03.05.2020
3839 Clouds 23 1019 38 10000 4.6 220 14:58 03.05.2020
3840 Clouds 24 1019 38 10000 4.6 220 14:39 03.05.2020
3841 Clouds 23 1019 38 10000 4.6 220 14:21 03.05.2020
3842 Clouds 22 1020 33 10000 3.6 230 13:51 03.05.2020
3843 Clouds 22 1020 33 10000 3.6 230 13:51 03.05.2020
3844 Clouds 22 1020 33 10000 3.6 230 13:51 03.05.2020
3845 Clouds 22 1020 33 10000 3.6 230 13:51 03.05.2020
3846 Clouds 20 1021 34 10000 1.5 220 12:59 03.05.2020
3847 Clouds 21 1021 42 10000 1 0 12:41 03.05.2020
3848 Clouds 20 1021 42 10000 1 0 12:18 03.05.2020
3849 Clouds 18 1021 45 10000 2.1 60 11:55 03.05.2020
3850 Clouds 16 1021 51 10000 1 0 11:37 03.05.2020
3851 Clouds 13 1016 48 0 0.83 305 11:18 03.05.2020
3852 Clouds 13 1017 54 0 0.83 305 10:40 03.05.2020
3853 Clouds 13 1017 54 0 0.83 305 10:40 03.05.2020
3854 Clouds 13 1017 54 0 0.83 305 10:40 03.05.2020
3855 Clouds 13 1017 54 0 0.83 305 10:40 03.05.2020
3856 Clouds 13 1017 54 0 0.83 305 10:40 03.05.2020
3857 Clouds 11 1017 65 0 1.23 358 09:57 03.05.2020
3858 Clouds 11 1017 65 0 1.23 358 09:57 03.05.2020
3859 Clouds 11 1017 65 0 1.23 358 09:57 03.05.2020
3860 Clouds 11 1017 65 0 1.23 358 09:57 03.05.2020
3861 Clouds 11 1017 65 0 1.23 358 09:56 03.05.2020
3862 Clouds 10 1018 82 0 1.9 15 09:28 03.05.2020
3863 Clouds 10 1018 82 0 1.9 15 09:28 03.05.2020
3864 Clouds 10 1018 82 0 1.9 15 09:28 03.05.2020
3865 Clouds 9 1018 82 0 1.9 15 08:54 03.05.2020
3866 Clouds 9 1018 82 0 1.9 15 08:54 03.05.2020
3867 Clouds 9 1018 82 0 1.9 15 08:54 03.05.2020
3868 Clouds 9 1018 82 0 1.9 15 08:54 03.05.2020
3869 Clouds 9 1018 82 0 1.9 15 08:54 03.05.2020
3870 Clouds 9 1017 75 0 2.42 20 08:20 03.05.2020
3871 Clouds 9 1017 81 0 1.34 345 07:38 03.05.2020
3872 Clouds 9 1017 81 0 1.34 345 07:38 03.05.2020
3873 Clouds 8 1016 73 0 2.86 19 06:19 03.05.2020
3874 Clouds 8 1016 73 0 2.86 19 06:19 03.05.2020
3875 Clouds 8 1016 71 0 2.86 19 05:44 03.05.2020
3876 Clouds 9 1017 74 0 0.89 13 04:29 03.05.2020
3877 Clouds 9 1016 75 0 0.45 346 03:58 03.05.2020
3878 Clouds 10 1017 69 0 2.77 9 02:53 03.05.2020
3879 Clouds 10 1017 69 0 2.99 12 02:22 03.05.2020
3880 Clouds 11 1017 89 0 2.99 12 01:42 03.05.2020
3881 Clouds 11 1018 88 0 3.16 9 01:24 03.05.2020
3882 Clouds 11 1018 91 0 3.16 9 00:40 03.05.2020
3883 Clouds 12 1018 88 0 1.34 42 00:21 03.05.2020
3884 Clouds 12 1017 86 0 0.45 335 23:55 02.05.2020
3885 Clouds 12 1017 91 0 0.89 3 23:37 02.05.2020
3886 Clouds 12 1017 90 0 1.34 82 23:18 02.05.2020
3887 Clouds 12 1017 89 0 1.79 17 22:41 02.05.2020
3888 Clouds 12 1017 86 0 0.89 231 22:22 02.05.2020
3889 Clouds 12 1017 81 0 0.89 302 21:55 02.05.2020
3890 Clouds 12 1017 81 0 2.79 16 21:37 02.05.2020
3891 Clouds 15 1017 92 0 1.34 226 21:18 02.05.2020
3892 Clouds 13 1017 83 0 0.45 100 20:54 02.05.2020
3893 Clouds 14 1017 46 10000 4.6 220 20:36 02.05.2020
3894 Clouds 14 1017 46 10000 4.6 220 20:18 02.05.2020
3895 Clouds 14 1017 46 10000 4.6 220 20:18 02.05.2020
3896 Clouds 14 1017 46 10000 4.6 220 19:39 02.05.2020
3897 Clouds 14 1017 46 10000 4.6 220 19:20 02.05.2020
3898 Clouds 18 1017 49 10000 4.1 220 18:57 02.05.2020
3899 Clouds 18 1017 49 10000 4.6 220 18:38 02.05.2020
3900 Clouds 18 1017 49 10000 4.6 220 18:20 02.05.2020
3901 Clouds 15 1017 43 10000 7.2 200 17:57 02.05.2020
3902 Clouds 16 1017 38 10000 7.2 210 17:38 02.05.2020
3903 Clouds 16 1017 38 10000 7.2 210 17:19 02.05.2020
3904 Clouds 16 1017 38 10000 5.1 200 16:54 02.05.2020
3905 Clouds 16 1017 41 10000 5.1 210 16:36 02.05.2020
3906 Clouds 16 1017 41 10000 5.1 210 16:18 02.05.2020
3907 Clouds 15 1017 41 10000 4.6 210 15:41 02.05.2020
3908 Clouds 19 1017 41 10000 4.6 210 15:19 02.05.2020
3909 Clouds 18 1018 33 10000 2.1 240 14:42 02.05.2020
3910 Clouds 16 1018 33 10000 2.1 240 14:24 02.05.2020
3911 Clouds 17 1018 27 10000 4.1 340 13:58 02.05.2020
3912 Clouds 17 1018 27 10000 4.6 300 13:38 02.05.2020
3913 Clouds 21 1018 27 10000 4.6 300 13:18 02.05.2020
3914 Clouds 19 1018 59 10000 1 0 12:40 02.05.2020
3915 Clouds 16 1018 59 10000 1 0 12:20 02.05.2020
3916 Clouds 17 1019 67 10000 1.5 0 11:56 02.05.2020
3917 Clouds 16 1019 72 10000 1 0 11:38 02.05.2020
3918 Clouds 11 1019 72 10000 1 0 11:19 02.05.2020
3919 Clouds 12 1017 56 0 1.15 300 10:40 02.05.2020
3920 Clouds 12 1017 63 0 1.37 330 10:22 02.05.2020
3921 Clouds 11 1015 82 0 1.34 51 09:58 02.05.2020
3922 Clouds 11 1017 65 0 1.37 330 09:39 02.05.2020
3923 Clouds 11 1015 83 0 1.79 13 09:21 02.05.2020
3924 Clouds 10 1016 81 0 1.8 3 08:51 02.05.2020
3925 Clouds 9 1016 79 0 1.8 3 08:31 02.05.2020
3926 Clouds 10 1014 83 0 1.79 3 07:50 02.05.2020
3927 Clouds 9 1016 80 0 2.3 6 07:30 02.05.2020
3928 Clouds 9 1015 82 0 2.12 358 06:54 02.05.2020
3929 Clouds 9 1015 92 0 2.28 356 06:23 02.05.2020
3930 Rain 8 1013 89 0 0.89 23 05:27 02.05.2020
3931 Clouds 9 1013 84 0 0.89 21 04:26 02.05.2020
3932 Clouds 9 1015 87 0 1.6 7 03:36 02.05.2020
3933 Clouds 9 1016 93 0 2 337 02:39 02.05.2020
3934 Clouds 9 1016 94 0 1.38 331 01:52 02.05.2020
3935 Clouds 9 1014 93 0 0.5 335 00:58 02.05.2020
3936 Clouds 10 1016 95 0 0.5 335 00:40 02.05.2020
3937 Clouds 9 1016 94 0 0.71 359 00:19 02.05.2020
3938 Clouds 9 1016 92 0 0.71 359 23:40 01.05.2020
3939 Clouds 9 1016 92 0 0.71 359 23:40 01.05.2020
3940 Rain 10 1016 92 0 0.81 34 23:20 01.05.2020
3941 Rain 10 1014 94 0 0.45 352 22:58 01.05.2020
3942 Rain 10 1016 91 0 0.81 34 22:38 01.05.2020
3943 Rain 10 1015 89 0 1.31 33 22:19 01.05.2020
3944 Rain 10 1015 89 0 1.31 33 21:57 01.05.2020
3945 Rain 10 1015 89 0 1.31 33 21:38 01.05.2020
3946 Clouds 10 1014 87 0 1.83 5 21:18 01.05.2020
3947 Clouds 11 1014 88 0 1.83 5 20:56 01.05.2020
3948 Clouds 12 1015 59 10000 2.1 0 20:37 01.05.2020
3949 Clouds 12 1015 59 10000 2.1 0 20:19 01.05.2020
3950 Clouds 13 1015 59 10000 2.1 0 19:42 01.05.2020
3951 Clouds 13 1015 59 10000 2.1 0 19:22 01.05.2020
3952 Clouds 13 1015 63 10000 1.5 70 18:58 01.05.2020
3953 Clouds 15 1015 68 10000 2.6 100 18:40 01.05.2020
3954 Clouds 14 1015 68 10000 2.6 100 18:20 01.05.2020
3955 Rain 14 1015 68 10000 4.1 340 17:57 01.05.2020
3956 Clouds 15 1014 49 10000 5.1 220 17:38 01.05.2020
3957 Clouds 14 1014 49 10000 5.1 220 17:20 01.05.2020
3958 Clouds 14 1014 46 10000 5.1 220 16:55 01.05.2020
3959 Clouds 14 1014 49 10000 4.1 220 16:37 01.05.2020
3960 Clouds 14 1014 49 10000 4.1 220 16:18 01.05.2020
3961 Clouds 14 1014 46 10000 6.7 230 15:42 01.05.2020
3962 Clouds 14 1014 46 10000 6.7 230 15:24 01.05.2020
3963 Clouds 16 1014 46 10000 5.7 230 14:58 01.05.2020
3964 Clouds 16 1014 49 10000 5.7 200 14:39 01.05.2020
3965 Clouds 14 1014 49 10000 5.7 200 14:21 01.05.2020
3966 Clouds 17 1014 49 10000 6.2 210 13:41 01.05.2020
3967 Clouds 17 1014 49 10000 6.2 210 13:41 01.05.2020
3968 Clouds 17 1014 49 10000 6.2 210 13:22 01.05.2020
3969 Clouds 14 1014 49 10000 5.1 200 12:58 01.05.2020
3970 Clouds 14 1015 52 10000 1 0 12:39 01.05.2020
3971 Clouds 14 1015 52 10000 1 0 12:19 01.05.2020
3972 Clouds 11 1015 55 10000 1 0 11:56 01.05.2020
3973 Clouds 11 1015 55 10000 0.5 0 11:38 01.05.2020
3974 Clouds 11 1015 55 10000 0.5 0 11:18 01.05.2020
3975 Clouds 10 1013 76 0 2.23 234 10:40 01.05.2020
3976 Clouds 11 1013 77 0 2.28 225 10:20 01.05.2020
3977 Clouds 9 1013 84 0 2.28 225 09:45 01.05.2020
3978 Clouds 9 1013 83 0 1.23 255 09:21 01.05.2020
3979 Clouds 8 1013 87 0 1.23 255 08:59 01.05.2020
3980 Clouds 7 1009 88 0 2.24 201 08:41 01.05.2020
3981 Clouds 7 1013 88 0 1.38 260 08:22 01.05.2020
3982 Clouds 7 1013 88 0 1.38 260 08:22 01.05.2020
3983 Clouds 6 1009 83 0 1.34 359 07:46 01.05.2020
3984 Clouds 6 1013 86 0 0.84 321 07:23 01.05.2020
3985 Clouds 6 1012 87 0 0.84 321 06:51 01.05.2020
3986 Clouds 6 1012 84 0 0.94 335 05:36 01.05.2020
3987 Rain 6 1012 82 0 1.33 315 04:47 01.05.2020
3988 Rain 8 1015 61 0 0.71 296 03:25 01.05.2020
3989 Rain 8 1010 85 0 1.34 67 02:45 01.05.2020
3990 Clouds 9 1015 57 0 1.19 207 02:24 01.05.2020
3991 Clouds 7 1015 56 0 1.78 200 01:28 01.05.2020
3992 Clouds 8 1015 53 0 1.78 200 00:59 01.05.2020
3993 Clouds 8 1015 50 0 1.78 200 00:37 01.05.2020
3994 Clouds 8 1016 48 0 1.87 204 00:18 01.05.2020
3995 Clouds 9 1016 48 0 1.87 204 23:55 30.04.2020
3996 Clouds 9 1016 48 0 1.87 204 23:37 30.04.2020
3997 Clouds 9 1016 48 0 1.87 204 23:37 30.04.2020
3998 Clouds 9 1016 48 0 1.63 226 23:18 30.04.2020
3999 Clouds 9 1016 45 0 1.63 226 22:41 30.04.2020
4000 Clouds 10 1016 42 0 1.63 219 22:20 30.04.2020
4001 Clouds 10 1016 41 0 1.63 219 21:56 30.04.2020
4002 Clouds 9 1014 94 0 0.41 184 21:37 30.04.2020
4003 Clouds 12 1015 36 0 1.01 354 21:19 30.04.2020
4004 Clouds 13 1015 33 0 1.01 354 20:43 30.04.2020
4005 Rain 14 1010 54 0 1.37 11 20:19 30.04.2020
4006 Clouds 15 1012 39 10000 4.1 280 19:58 30.04.2020
4007 Clouds 15 1012 39 10000 4.1 280 19:40 30.04.2020
4008 Clouds 13 1012 39 10000 4.1 280 19:22 30.04.2020
4009 Clouds 13 1012 39 10000 4.1 280 18:56 30.04.2020
4010 Clouds 13 1012 36 10000 3.6 260 18:37 30.04.2020
4011 Clouds 12 1012 36 10000 3.6 260 18:18 30.04.2020
4012 Clouds 13 1012 39 10000 4.6 240 17:42 30.04.2020
4013 Clouds 13 1012 39 10000 4.6 240 17:22 30.04.2020
4014 -273 0 0 0 0 0 16:59 30.04.2020
4015 -273 0 0 0 0 0 16:59 30.04.2020
4016 Clouds 12 1011 39 10000 6.7 200 16:41 30.04.2020
4017 Clouds 12 1011 39 10000 6.7 200 16:20 30.04.2020
4018 Clouds 16 1012 39 10000 5.7 200 15:58 30.04.2020
4019 Clouds 16 1012 39 10000 7.7 210 15:40 30.04.2020
4020 Clouds 15 1012 39 10000 7.7 210 15:21 30.04.2020
4021 Clouds 11 1012 39 10000 7.7 210 14:42 30.04.2020
4022 Clouds 12 1012 39 10000 7.7 210 14:20 30.04.2020
4023 Clouds 12 1012 39 10000 6.7 210 13:58 30.04.2020
4024 Clouds 11 1012 41 10000 7.7 210 13:39 30.04.2020
4025 Clouds 11 1012 41 10000 7.7 210 13:39 30.04.2020
4026 Clouds 11 1012 41 10000 7.7 210 13:39 30.04.2020
4027 Clouds 12 1012 41 10000 7.7 210 13:21 30.04.2020
4028 Clouds 13 1012 45 10000 5.7 200 12:55 30.04.2020
4029 Clouds 12 1012 41 10000 7.2 220 12:37 30.04.2020
4030 Clouds 13 1012 39 10000 6.7 210 12:18 30.04.2020
4031 Clouds 12 1012 48 10000 5.7 210 11:38 30.04.2020
4032 Clouds 12 1012 48 10000 5.7 210 11:18 30.04.2020
4033 Clouds 11 1013 58 10000 1.5 180 10:55 30.04.2020
4034 Clouds 11 1013 58 10000 1.5 180 10:55 30.04.2020
4035 Clouds 10 1006 85 0 0.89 198 10:37 30.04.2020
4036 Clouds 9 1006 87 0 1.34 208 10:18 30.04.2020
4037 Clouds 8 1009 79 0 3.69 203 09:43 30.04.2020
4038 Clouds 8 1005 87 0 3.13 219 09:23 30.04.2020
4039 Clouds 8 1006 87 0 2.24 195 08:49 30.04.2020
4040 Clouds 7 1006 87 0 2.24 187 08:27 30.04.2020
4041 Clouds 7 1007 86 0 1.34 229 07:59 30.04.2020
4042 Clouds 7 1006 87 0 2.68 194 07:40 30.04.2020
4043 Clouds 6 1006 87 0 2.24 256 07:22 30.04.2020
4044 Clouds 6 1006 89 0 2.2 187 06:39 30.04.2020
4045 Clouds 7 1013 59 0 2.11 194 05:49 30.04.2020
4046 Clouds 8 1013 57 0 1.08 198 05:27 30.04.2020
4047 Clouds 8 1014 56 0 1.08 198 04:29 30.04.2020
4048 Clouds 9 1014 52 0 1.29 214 02:57 30.04.2020
4049 Clouds 9 1014 52 0 1.29 214 02:57 30.04.2020
4050 Clouds 9 1014 51 0 1.92 201 02:29 30.04.2020
4051 Clouds 9 1014 48 0 1.92 201 01:48 30.04.2020
4052 Clouds 10 1014 46 0 2.6 198 00:58 30.04.2020
4053 Clouds 11 1014 43 0 2.6 198 00:36 30.04.2020
4054 Clouds 11 1013 79 0 2.66 205 00:18 30.04.2020
4055 Clouds 11 1014 38 0 2.66 205 23:42 29.04.2020
4056 Clouds 11 1014 37 0 2.16 200 23:23 29.04.2020
4057 Clouds 11 1015 36 0 2.16 200 22:58 29.04.2020
4058 Clouds 11 1015 36 0 2.16 200 22:39 29.04.2020
4059 Clouds 12 1015 32 0 1.54 206 22:20 29.04.2020
4060 Clouds 14 1012 72 0 1.54 206 21:39 29.04.2020
4061 Clouds 12 1012 62 0 1.34 153 21:20 29.04.2020
4062 Clouds 13 1009 81 0 0.45 152 20:58 29.04.2020
4063 Clouds 13 1009 81 0 0.89 138 20:39 29.04.2020
4064 Clouds 13 1012 59 0 2.68 225 20:19 29.04.2020
4065 Clouds 12 1009 81 0 2.73 223 19:54 29.04.2020
4066 Clouds 16 1011 59 0 2.73 223 19:36 29.04.2020
4067 Clouds 14 1009 80 0 0.89 18 19:18 29.04.2020
4068 Clouds 14 1009 81 0 0.89 10 18:41 29.04.2020
4069 Clouds 16 1009 83 0 0.45 1 18:20 29.04.2020
4070 Clouds 15 1009 83 0 0.89 82 17:55 29.04.2020
4071 Clouds 15 1009 83 0 0.89 82 17:55 29.04.2020
4072 Clouds 15 1009 82 0 0.89 191 17:37 29.04.2020
4073 Clouds 14 1009 84 0 0.89 138 17:18 29.04.2020
4074 Clouds 13 1013 54 0 0.45 269 16:37 29.04.2020
4075 Clouds 14 1009 65 0 0.45 27 16:18 29.04.2020
4076 Clouds 10 1009 83 0 1.79 13 15:56 29.04.2020
4077 Clouds 12 1009 87 0 0.45 39 15:38 29.04.2020
4078 Clouds 11 1009 88 0 1.79 37 15:19 29.04.2020
4079 Clouds 9 1014 53 0 1.79 203 14:45 29.04.2020
4080 Clouds 13 1009 84 0 2.73 221 14:26 29.04.2020
4081 Clouds 12 1009 86 0 2.5 215 13:58 29.04.2020
4082 Clouds 12 1009 82 0 2.5 215 13:39 29.04.2020
4083 Clouds 12 1009 87 0 2.24 219 13:19 29.04.2020
4084 Clouds 11 1009 90 0 2.24 219 12:55 29.04.2020
4085 Clouds 8 1014 55 0 2.24 219 12:37 29.04.2020
4086 Clouds 13 1009 91 0 0.45 177 12:18 29.04.2020
4087 Clouds 10 1014 62 0 1.87 227 11:39 29.04.2020
4088 Clouds 12 1009 93 0 0.45 169 11:20 29.04.2020
4089 Clouds 12 1009 93 0 0.45 169 11:20 29.04.2020
4090 Clouds 12 1009 93 0 0.45 169 11:20 29.04.2020
4091 Clouds 12 1009 93 0 0.45 169 11:20 29.04.2020
4092 Clouds 8 1014 73 0 1.66 226 10:54 29.04.2020
4093 Clouds 7 1009 93 0 1.66 226 10:36 29.04.2020
4094 Clouds 7 1014 79 0 1.36 217 10:18 29.04.2020
4095 Clouds 4 1014 85 0 1.36 217 09:41 29.04.2020
4096 Clouds 4 1014 85 0 1.36 217 09:41 29.04.2020
4097 Clouds 5 1014 87 0 1.42 227 09:21 29.04.2020
4098 Clouds 4 1008 93 0 0.45 257 08:44 29.04.2020
4099 Clouds 4 1008 93 0 1.19 214 08:26 29.04.2020
4100 Clouds 3 1014 87 0 1.19 214 07:55 29.04.2020
4101 Clouds 3 1008 94 0 1.19 214 07:29 29.04.2020
4102 Clouds 3 1013 87 0 0.72 186 06:53 29.04.2020
4103 Clouds 3 1008 93 0 0.43 189 06:32 29.04.2020
4104 Clouds 4 1013 83 0 0.43 189 05:53 29.04.2020
4105 Clouds 4 1013 85 0 0.27 15 05:19 29.04.2020
4106 Clouds 4 1013 84 0 0.93 26 04:20 29.04.2020
4107 Clouds 5 1013 80 0 0.93 26 03:53 29.04.2020
4108 Clouds 5 1009 93 0 1.52 14 01:59 29.04.2020
4109 Clouds 5 1009 92 0 1.67 16 01:29 29.04.2020
4110 Clouds 5 1018 56 0 1.67 16 00:59 29.04.2020
4111 Clouds 5 1013 79 0 1.67 16 00:37 29.04.2020
4112 Rain 5 1013 79 0 1.81 357 00:18 29.04.2020
4113 Rain 6 1013 73 0 0.45 139 23:43 28.04.2020
4114 Rain 6 1013 75 0 1.78 347 23:21 28.04.2020
4115 Rain 6 1009 89 0 1.78 347 22:39 28.04.2020
4116 Rain 6 1013 71 0 0.89 211 22:20 28.04.2020
4117 Rain 7 1008 84 0 1.37 339 21:59 28.04.2020
4118 Rain 7 1008 81 0 1.95 356 21:40 28.04.2020
4119 Rain 8 1008 81 0 1.37 339 21:40 28.04.2020
4120 Rain 7 1011 69 0 1.16 322 21:22 28.04.2020
4121 Rain 7 1007 88 0 1.16 322 20:59 28.04.2020
4122 Rain 8 1010 63 0 1.34 188 20:40 28.04.2020
4123 Rain 8 1010 63 0 1.34 188 20:40 28.04.2020
4124 Rain 10 1010 62 0 0.45 114 20:20 28.04.2020
4125 Rain 11 1016 41 0 1.51 272 19:56 28.04.2020
4126 Rain 13 1016 39 0 1.51 272 19:38 28.04.2020
4127 Rain 11 1009 51 0 2.24 193 19:19 28.04.2020
4128 Rain 11 1009 51 0 2.24 193 19:19 28.04.2020
4129 Rain 9 1006 92 0 0.89 49 18:42 28.04.2020
4130 Rain 12 1009 51 0 1.34 172 18:20 28.04.2020
4131 Rain 13 1009 50 0 2.68 232 17:59 28.04.2020
4132 Rain 14 1009 48 0 2.24 239 17:37 28.04.2020
4133 Rain 11 1005 84 0 0.89 18 17:19 28.04.2020
4134 Rain 12 1005 83 0 1.34 329 16:56 28.04.2020
4135 Rain 12 1009 51 0 3.58 174 16:37 28.04.2020
4136 Clouds 10 1009 54 0 1.34 92 16:18 28.04.2020
4137 Clouds 10 1009 54 0 1.34 92 16:18 28.04.2020
4138 Clouds 12 1009 53 0 4.37 226 15:54 28.04.2020
4139 Clouds 11 1010 54 0 0.45 184 15:36 28.04.2020
4140 Clouds 11 1005 89 0 0.45 28 15:18 28.04.2020
4141 Clouds 11 1010 54 0 2.24 162 14:43 28.04.2020
4142 Clouds 11 1005 90 0 2.24 46 14:22 28.04.2020
4143 Clouds 11 1005 89 0 4.31 222 13:59 28.04.2020
4144 Clouds 11 1005 89 0 4.31 222 13:59 28.04.2020
4145 Clouds 11 1009 60 0 0.45 70 13:39 28.04.2020
4146 Clouds 11 1009 57 0 0.45 113 13:21 28.04.2020
4147 Clouds 11 1005 92 0 4.05 220 12:57 28.04.2020
4148 Clouds 10 1009 68 0 0.89 167 12:37 28.04.2020
4149 Clouds 9 1005 94 0 0.45 8 12:19 28.04.2020
4150 Clouds 8 1009 79 0 3.31 209 11:40 28.04.2020
4151 Rain 9 1010 81 0 2.58 205 11:20 28.04.2020
4152 Rain 8 1009 92 0 2.58 205 10:39 28.04.2020
4153 Clouds 7 1009 93 0 1.59 197 10:19 28.04.2020
4154 Clouds 7 1005 93 0 1.59 197 09:59 28.04.2020
4155 Clouds 7 1009 96 0 1.59 197 09:40 28.04.2020
4156 Clouds 6 1009 96 0 0.3 77 09:22 28.04.2020
4157 Clouds 5 1009 96 0 0.3 77 08:46 28.04.2020
4158 Clouds 5 1009 96 0 0.3 77 08:46 28.04.2020
4159 Clouds 5 1004 89 0 1.49 25 08:27 28.04.2020
4160 Clouds 5 1004 91 0 1.49 25 07:58 28.04.2020
4161 Clouds 5 1008 96 0 1.49 25 07:38 28.04.2020
4162 Clouds 5 1004 91 0 1.63 5 07:18 28.04.2020
4163 Clouds 5 1004 94 0 1.46 349 06:28 28.04.2020
4164 Clouds 6 1003 88 0 1.46 349 05:44 28.04.2020
4165 Clouds 6 1008 95 0 1.12 326 05:25 28.04.2020
4166 Clouds 5 1008 95 0 1.12 326 04:33 28.04.2020
4167 Rain 7 1008 94 0 0.87 331 02:36 28.04.2020
4168 Rain 8 1008 93 0 0.46 1 01:23 28.04.2020
4169 Rain 8 1008 93 0 0.46 1 01:23 28.04.2020
4170 Rain 8 1004 91 0 0.46 1 00:58 28.04.2020
4171 Rain 8 1008 89 0 0.2 143 00:25 28.04.2020
4172 Rain 8 1008 86 0 0.2 143 23:47 27.04.2020
4173 Rain 8 1008 86 0 0.2 143 23:47 27.04.2020
4174 Rain 8 1008 88 0 0.57 215 23:24 27.04.2020
4175 Rain 8 1008 87 0 0.57 215 22:56 27.04.2020
4176 Rain 8 1008 85 0 0.57 215 22:38 27.04.2020
4177 Rain 8 1008 85 0 0.78 238 22:19 27.04.2020
4178 Rain 9 1008 86 0 0.78 238 21:56 27.04.2020
4179 Rain 9 1007 86 0 0.78 238 21:38 27.04.2020
4180 Rain 9 1007 86 0 0.87 169 21:18 27.04.2020
4181 Rain 9 1007 86 0 0.87 169 21:18 27.04.2020
4182 Rain 11 1004 87 0 0.87 169 20:43 27.04.2020
4183 Rain 11 1004 87 0 0.45 128 20:22 27.04.2020
4184 Rain 11 1011 41 0 0.45 31 20:22 27.04.2020
4185 Clouds 12 1010 82 10000 1 0 19:58 27.04.2020
4186 Clouds 12 1010 82 10000 1 0 19:39 27.04.2020
4187 Clouds 12 1010 82 10000 1 0 19:20 27.04.2020
4188 Clouds 12 1010 82 10000 1 0 18:58 27.04.2020
4189 Rain 12 1010 76 10000 1.5 240 18:40 27.04.2020
4190 Rain 11 1010 76 10000 1.5 240 18:19 27.04.2020
4191 Rain 11 1010 76 10000 1.5 240 18:19 27.04.2020
4192 Clouds 11 1010 76 10000 1 0 17:43 27.04.2020
4193 Clouds 11 1010 76 10000 1 0 17:24 27.04.2020
4194 Clouds 11 1011 82 10000 1 0 16:58 27.04.2020
4195 Clouds 11 1011 76 10000 1 0 16:39 27.04.2020
4196 Clouds 11 1011 76 10000 1 0 16:39 27.04.2020
4197 Clouds 13 1011 76 10000 1 0 16:21 27.04.2020
4198 Clouds 11 1011 76 10000 1 0 15:56 27.04.2020
4199 Clouds 10 1011 93 10000 2.1 210 15:38 27.04.2020
4200 Clouds 10 1011 93 10000 2.1 210 15:38 27.04.2020
4201 Clouds 10 1011 93 10000 2.1 210 15:18 27.04.2020
4202 Rain 9 1012 100 9000 3.1 220 14:42 27.04.2020
4203 Rain 9 1012 100 9000 3.1 220 14:23 27.04.2020
4204 Rain 9 1012 100 5000 2.1 220 13:59 27.04.2020
4205 Rain 9 1012 100 5000 1.5 230 13:41 27.04.2020
4206 Rain 10 1012 100 5000 1.5 230 13:19 27.04.2020
4207 Rain 9 1012 100 5000 1 0 12:44 27.04.2020
4208 Rain 9 1012 100 5000 1 0 12:24 27.04.2020
4209 Rain 9 1012 100 5000 0.5 0 11:59 27.04.2020
4210 Fog 9 1012 100 10000 1 0 11:40 27.04.2020
4211 Fog 10 1012 100 10000 1 0 11:19 27.04.2020
4212 Fog 9 1012 100 10000 0.5 0 10:55 27.04.2020
4213 Rain 10 1008 95 0 2.76 194 10:37 27.04.2020
4214 Rain 10 1008 95 0 2.76 194 10:37 27.04.2020
4215 Rain 10 1008 95 0 2.76 194 10:19 27.04.2020
4216 Rain 9 1009 95 0 2.76 194 09:43 27.04.2020
4217 Clouds 9 1009 95 0 0.68 190 09:18 27.04.2020
4218 Clouds 8 1009 96 0 0.68 190 08:53 27.04.2020
4219 Clouds 7 1009 96 0 0.68 190 08:33 27.04.2020
4220 Clouds 7 1009 96 0 0.68 190 07:55 27.04.2020
4221 Clouds 7 1009 96 0 0.68 190 07:36 27.04.2020
4222 Clouds 7 1006 92 0 1.79 212 07:18 27.04.2020
4223 Clouds 7 1009 96 0 0.68 190 06:39 27.04.2020
4224 Clouds 7 1006 92 0 0.89 200 06:19 27.04.2020
4225 Clouds 7 1006 92 0 1.79 228 05:48 27.04.2020
4226 Clouds 8 1006 90 0 2.24 219 04:40 27.04.2020
4227 Clouds 8 1010 96 0 0.68 221 03:48 27.04.2020
4228 Clouds 9 1007 91 0 0.89 228 02:36 27.04.2020
4229 Clouds 9 1011 94 0 1.21 201 01:20 27.04.2020
4230 Clouds 9 1011 94 0 1.21 201 00:40 27.04.2020
4231 Rain 9 1011 95 0 0.76 174 00:19 27.04.2020
4232 Rain 9 1008 89 0 0.89 183 23:55 26.04.2020
4233 Rain 9 1011 95 0 0.76 174 23:37 26.04.2020
4234 Rain 10 1011 94 0 0.76 174 23:18 26.04.2020
4235 Rain 11 1011 94 0 0.76 174 22:54 26.04.2020
4236 Rain 11 1011 95 0 0.76 174 22:36 26.04.2020
4237 Rain 10 1011 95 0 0.76 174 22:18 26.04.2020
4238 Rain 10 1011 95 0 0.76 174 21:54 26.04.2020
4239 Rain 10 1010 94 0 0.76 174 21:36 26.04.2020
4240 Rain 10 1010 94 0 1.77 217 21:18 26.04.2020
4241 Rain 10 1011 93 5000 1 80 20:39 26.04.2020
4242 Rain 10 1011 93 5000 1 80 20:20 26.04.2020
4243 Rain 10 1011 93 5000 1 80 19:58 26.04.2020
4244 Rain 11 1011 93 5000 1 80 19:37 26.04.2020
4245 Rain 11 1011 93 5000 1 80 19:19 26.04.2020
4246 Rain 12 1011 82 10000 2.1 330 18:44 26.04.2020
4247 Rain 12 1011 82 10000 2.6 320 18:25 26.04.2020
4248 Rain 12 1011 72 10000 3.6 240 17:56 26.04.2020
4249 Rain 12 1011 72 10000 3.6 240 17:56 26.04.2020
4250 Drizzle 12 1011 67 10000 2.6 210 17:38 26.04.2020
4251 Drizzle 12 1011 67 10000 2.6 210 17:18 26.04.2020
4252 Clouds 15 1011 67 10000 2.6 350 16:40 26.04.2020
4253 Clouds 13 1011 67 10000 2.6 350 16:21 26.04.2020
4254 Clouds 12 1011 72 10000 3.1 330 15:58 26.04.2020
4255 Rain 12 1012 67 10000 4.6 220 15:38 26.04.2020
4256 Rain 12 1012 67 10000 4.6 220 15:20 26.04.2020
4257 Rain 12 1012 67 10000 4.6 220 14:55 26.04.2020
4258 Rain 12 1012 63 10000 5.1 210 14:36 26.04.2020
4259 Rain 12 1012 63 10000 5.1 210 14:18 26.04.2020
4260 Clouds 12 1012 63 10000 1 0 13:42 26.04.2020
4261 Clouds 14 1012 63 10000 1 0 13:23 26.04.2020
4262 Clouds 13 1012 72 10000 1 0 12:58 26.04.2020
4263 Clouds 13 1012 71 10000 1 0 12:40 26.04.2020
4264 Clouds 11 1012 71 10000 1 0 12:20 26.04.2020
4265 Clouds 10 1012 82 10000 1 0 11:57 26.04.2020
4266 Clouds 10 1012 82 10000 1 0 11:38 26.04.2020
4267 Clouds 10 1012 82 10000 1 0 11:38 26.04.2020
4268 Clouds 10 1012 82 10000 1 0 11:20 26.04.2020
4269 Rain 10 1010 89 0 1.3 189 10:55 26.04.2020
4270 Rain 10 1010 89 0 1.3 189 10:36 26.04.2020
4271 Rain 8 1010 90 0 1.3 189 10:18 26.04.2020
4272 Clouds 9 1006 91 0 1.7 209 09:39 26.04.2020
4273 Clouds 8 1009 92 0 1.56 36 09:20 26.04.2020
4274 Clouds 8 1006 92 0 1.56 36 08:42 26.04.2020
4275 Clouds 8 1009 95 0 1.56 36 08:23 26.04.2020
4276 Clouds 7 1009 94 0 1.56 36 07:50 26.04.2020
4277 Clouds 8 1009 94 0 1.56 36 07:25 26.04.2020
4278 Clouds 8 1008 94 0 1.56 36 06:55 26.04.2020
4279 Clouds 7 1005 92 0 1.56 36 06:32 26.04.2020
4280 Clouds 7 1008 93 0 1.94 32 05:54 26.04.2020
4281 Clouds 7 1009 94 0 1.94 32 05:34 26.04.2020
4282 Clouds 7 1005 92 0 1.94 32 04:42 26.04.2020
4283 Clouds 8 1006 92 0 1.94 32 03:46 26.04.2020
4284 Rain 7 1009 94 0 2.14 24 02:40 26.04.2020
4285 Rain 8 1009 93 0 2.14 24 02:19 26.04.2020
4286 Rain 8 1009 94 0 2.14 24 01:37 26.04.2020
4287 Rain 7 1009 95 0 2.14 24 01:18 26.04.2020
4288 Rain 8 1009 95 0 2.14 24 00:37 26.04.2020
4289 Rain 8 1009 95 0 1.27 346 00:18 26.04.2020
4290 Rain 8 1009 94 0 1.27 346 23:38 25.04.2020
4291 Rain 8 1009 95 0 1.27 346 23:19 25.04.2020
4292 Rain 8 1006 85 0 0.45 357 22:43 25.04.2020
4293 Rain 8 1009 94 0 1.27 346 22:21 25.04.2020
4294 Rain 9 1009 94 0 1.27 346 21:59 25.04.2020
4295 Rain 9 1008 94 0 2.06 22 21:39 25.04.2020
4296 Rain 9 1008 94 0 1.27 305 21:19 25.04.2020
4297 Rain 10 1008 93 0 1.27 305 20:55 25.04.2020
4298 Rain 9 1011 93 10000 3.1 20 20:37 25.04.2020
4299 Rain 9 1011 93 10000 3.1 20 20:37 25.04.2020
4300 Rain 9 1011 93 10000 3.1 20 20:18 25.04.2020
4301 Rain 10 1011 93 10000 3.1 20 19:40 25.04.2020
4302 Rain 10 1011 93 10000 3.1 20 19:22 25.04.2020
4303 Rain 10 1011 93 10000 3.1 40 18:57 25.04.2020
4304 Rain 10 1011 93 10000 3.1 20 18:38 25.04.2020
4305 Rain 10 1011 93 10000 3.1 20 18:19 25.04.2020
4306 Rain 10 1011 82 10000 3.6 30 17:55 25.04.2020
4307 Clouds 10 1011 82 10000 4.6 50 17:37 25.04.2020
4308 Clouds 9 1011 82 10000 4.6 50 17:18 25.04.2020
4309 Rain 10 1011 87 10000 5.1 40 16:46 25.04.2020
4310 Rain 10 1011 93 10000 7.7 40 16:27 25.04.2020
4311 Thunderstorm 12 1009 55 10000 3.6 190 15:58 25.04.2020
4312 Rain 14 1009 55 10000 3.6 190 15:38 25.04.2020
4313 Thunderstorm 14 1009 55 10000 3.6 190 15:19 25.04.2020
4314 Rain 14 1009 52 10000 5.1 210 14:57 25.04.2020
4315 Rain 14 1009 45 10000 4.6 210 14:38 25.04.2020
4316 Rain 17 1009 45 10000 4.6 210 14:18 25.04.2020
4317 Rain 15 1010 45 10000 3.1 250 13:42 25.04.2020
4318 Rain 16 1010 45 10000 3.1 250 13:19 25.04.2020
4319 Clouds 16 1011 52 10000 1.5 240 12:57 25.04.2020
4320 Clouds 17 1011 59 10000 1.5 200 12:38 25.04.2020
4321 Clouds 12 1011 59 10000 1.5 200 12:19 25.04.2020
4322 Clouds 12 1011 63 10000 1.5 0 11:43 25.04.2020
4323 Clouds 12 1012 67 10000 1 0 11:25 25.04.2020
4324 Rain 12 1007 85 0 0.53 179 10:59 25.04.2020
4325 Rain 12 1007 85 0 0.53 179 10:59 25.04.2020
4326 Rain 11 1009 82 0 0.53 179 10:41 25.04.2020
4327 Rain 10 1007 87 0 0.53 179 10:21 25.04.2020
4328 Rain 10 1009 89 0 0.53 179 09:45 25.04.2020
4329 Clouds 9 1009 92 0 1.67 32 09:26 25.04.2020
4330 Clouds 8 1007 91 0 1.57 31 08:56 25.04.2020
4331 Clouds 8 1009 92 0 1.55 36 08:38 25.04.2020
4332 Clouds 7 1009 92 0 1.57 31 08:19 25.04.2020
4333 Clouds 7 1006 92 0 1.57 31 07:44 25.04.2020
4334 Clouds 7 1009 92 0 1.57 31 07:22 25.04.2020
4335 Clouds 7 1009 91 0 1.57 31 06:43 25.04.2020
4336 Clouds 7 1009 90 0 1.05 29 05:47 25.04.2020
4337 Clouds 8 1007 90 0 1.05 29 05:28 25.04.2020
4338 Clouds 8 1010 89 0 1.05 29 04:24 25.04.2020
4339 Clouds 8 1009 89 0 0.98 352 02:44 25.04.2020
4340 Clouds 10 1011 87 0 0.68 340 02:19 25.04.2020
4341 Clouds 10 1012 87 0 0.68 340 01:50 25.04.2020
4342 Clouds 9 1012 85 0 0.68 340 01:26 25.04.2020
4343 Clouds 9 1012 85 0 0.68 340 00:49 25.04.2020
4344 Rain 10 1012 84 0 0.54 235 00:28 25.04.2020
4345 Rain 11 1012 85 0 0.54 235 23:42 24.04.2020
4346 Rain 11 1012 85 0 0.54 235 23:21 24.04.2020
4347 Rain 12 1012 86 0 0.54 235 22:41 24.04.2020
4348 Rain 12 1012 87 0 0.54 235 22:21 24.04.2020
4349 Rain 12 1012 84 0 0.54 235 21:59 24.04.2020
4350 Rain 12 1012 79 0 0.33 320 21:41 24.04.2020
4351 Rain 11 1012 84 0 1.75 202 21:23 24.04.2020
4352 Rain 12 1010 85 0 1.34 228 21:00 24.04.2020
4353 Rain 12 1009 84 0 0.89 214 20:41 24.04.2020
4354 Clouds 12 1014 59 10000 3.1 250 20:19 24.04.2020
4355 Clouds 12 1014 59 10000 3.1 250 20:19 24.04.2020
4356 Clouds 12 1014 59 10000 3.1 250 19:57 24.04.2020
4357 Clouds 12 1014 59 10000 3.1 250 19:38 24.04.2020
4358 Clouds 12 1014 59 10000 3.1 250 19:20 24.04.2020
4359 Rain 13 1014 59 10000 3.1 190 18:40 24.04.2020
4360 Rain 13 1014 59 10000 3.1 190 18:22 24.04.2020
4361 Rain 15 1014 59 10000 3.6 190 17:44 24.04.2020
4362 Clouds 14 1014 52 10000 3.6 180 17:25 24.04.2020
4363 Rain 16 1014 52 10000 4.6 330 16:59 24.04.2020
4364 Clouds 16 1014 55 10000 7.7 320 16:41 24.04.2020
4365 Clouds 14 1014 55 10000 7.7 320 16:22 24.04.2020
4366 Rain 15 1014 52 10000 6.2 210 15:59 24.04.2020
4367 Rain 15 1014 52 10000 6.7 200 15:38 24.04.2020
4368 Rain 15 1014 52 10000 6.7 200 15:18 24.04.2020
4369 Clouds 14 1015 63 10000 2.1 210 14:40 24.04.2020
4370 Clouds 14 1015 63 10000 2.1 210 14:21 24.04.2020
4371 Clouds 14 1016 63 10000 1 0 13:57 24.04.2020
4372 Clouds 13 1016 72 10000 1 0 13:38 24.04.2020
4373 Clouds 20 1016 72 10000 1 0 13:20 24.04.2020
4374 Clouds 14 1017 81 10000 1.5 320 12:42 24.04.2020
4375 Clouds 9 1017 81 10000 1.5 320 12:24 24.04.2020
4376 Clouds 15 1018 76 10000 0.5 0 11:58 24.04.2020
4377 Clouds 15 1018 81 10000 1 0 11:38 24.04.2020
4378 Clouds 9 1018 81 10000 1 0 11:20 24.04.2020
4379 Clouds 14 1015 85 0 0.94 212 10:55 24.04.2020
4380 Clouds 13 1015 88 0 0.94 212 10:36 24.04.2020
4381 Clouds 9 1015 92 0 0.94 212 10:18 24.04.2020
4382 Clouds 6 1016 93 0 0.94 212 09:45 24.04.2020
4383 Clouds 7 1016 94 0 0.3 313 09:24 24.04.2020
4384 Clouds 7 1012 94 0 0.3 313 08:58 24.04.2020
4385 Clouds 6 1016 96 0 0.3 313 08:37 24.04.2020
4386 Clouds 6 1016 96 0 0.3 313 08:18 24.04.2020
4387 Clouds 6 1016 96 0 0.3 313 08:18 24.04.2020
4388 Clouds 6 1016 96 0 0.3 313 07:44 24.04.2020
4389 Clouds 6 1016 95 0 0.3 313 07:26 24.04.2020
4390 Clouds 6 1016 95 0 0.3 313 06:51 24.04.2020
4391 Clouds 6 1016 95 0 0.3 313 06:32 24.04.2020
4392 Clouds 7 1012 93 0 0.65 239 05:48 24.04.2020
4393 Clouds 7 1016 95 0 0.65 239 04:26 24.04.2020
4394 Clouds 7 1016 95 0 0.39 131 02:59 24.04.2020
4395 Clouds 7 1016 94 0 0.39 131 02:38 24.04.2020
4396 Clouds 8 1017 94 0 0.48 119 02:20 24.04.2020
4397 Clouds 8 1017 94 0 0.48 119 01:18 24.04.2020
4398 Clouds 8 1017 92 0 0.48 119 00:36 24.04.2020
4399 Rain 9 1014 92 0 0.42 124 00:18 24.04.2020
4400 Rain 9 1014 91 0 0.42 124 23:42 23.04.2020
4401 Rain 10 1017 91 0 0.42 124 23:23 23.04.2020
4402 Rain 11 1017 91 0 0.42 124 22:55 23.04.2020
4403 Rain 11 1017 91 0 0.42 124 22:36 23.04.2020
4404 Rain 11 1017 90 0 0.42 124 22:18 23.04.2020
4405 Rain 10 1017 90 0 0.42 124 21:55 23.04.2020
4406 Rain 10 1017 90 0 0.42 124 21:55 23.04.2020
4407 Rain 10 1016 91 0 0.5 157 21:37 23.04.2020
4408 Rain 10 1016 91 0 0.98 205 21:18 23.04.2020
4409 Rain 13 1014 92 0 0.98 205 20:41 23.04.2020
4410 Rain 13 1014 93 0 0.98 205 20:22 23.04.2020
4411 Rain 13 1014 93 0 0.98 205 20:22 23.04.2020
4412 Rain 13 1019 93 5000 2.6 20 19:57 23.04.2020
4413 Rain 10 1019 93 5000 2.6 20 19:39 23.04.2020
4414 Rain 10 1019 93 5000 2.6 20 19:21 23.04.2020
4415 Rain 10 1019 93 5000 2.6 20 18:55 23.04.2020
4416 Rain 11 1018 59 10000 3.6 220 18:36 23.04.2020
4417 Rain 11 1018 59 10000 3.6 220 18:18 23.04.2020
4418 Rain 12 1018 55 10000 6.2 210 17:40 23.04.2020
4419 Rain 12 1018 55 10000 6.2 210 17:22 23.04.2020
4420 Clouds 13 1018 55 10000 7.2 210 16:57 23.04.2020
4421 Clouds 13 1018 63 10000 5.7 220 16:38 23.04.2020
4422 Clouds 14 1018 63 10000 5.7 220 16:19 23.04.2020
4423 Rain 14 1019 63 10000 4.6 220 15:42 23.04.2020
4424 Rain 13 1019 63 10000 4.6 220 15:23 23.04.2020
4425 Rain 14 1019 59 10000 4.6 220 14:57 23.04.2020
4426 Clouds 13 1019 63 10000 5.7 210 14:38 23.04.2020
4427 Clouds 14 1019 63 10000 5.7 210 14:19 23.04.2020
4428 Clouds 12 1019 63 10000 5.7 210 13:55 23.04.2020
4429 Clouds 12 1019 63 10000 5.7 220 13:36 23.04.2020
4430 Clouds 12 1019 63 10000 5.7 220 13:18 23.04.2020
4431 Clouds 12 1019 63 10000 3.1 230 12:42 23.04.2020
4432 Clouds 12 1019 63 10000 3.1 230 12:24 23.04.2020
4433 Clouds 11 1019 62 10000 1.5 0 11:55 23.04.2020
4434 Clouds 11 1020 71 10000 2.1 0 11:36 23.04.2020
4435 Clouds 10 1020 71 10000 2.1 0 11:18 23.04.2020
4436 Clouds 9 1015 96 0 1.43 188 10:41 23.04.2020
4437 Clouds 9 1015 96 0 1.43 188 10:41 23.04.2020
4438 Clouds 9 1017 86 0 1.43 188 10:20 23.04.2020
4439 Clouds 8 1017 87 0 1.43 188 09:41 23.04.2020
4440 Clouds 9 1014 96 0 1.95 41 09:20 23.04.2020
4441 Clouds 7 1014 96 0 1.95 41 08:55 23.04.2020
4442 Clouds 7 1017 92 0 1.95 41 08:37 23.04.2020
4443 Clouds 7 1017 92 0 1.95 41 08:37 23.04.2020
4444 Clouds 9 1014 96 0 1.95 41 08:18 23.04.2020
4445 Clouds 8 1014 96 0 1.95 41 07:41 23.04.2020
4446 Clouds 8 1013 96 0 1.95 41 07:22 23.04.2020
4447 Clouds 8 1013 96 0 1.95 41 06:46 23.04.2020
4448 Clouds 9 1013 96 0 1.8 30 05:56 23.04.2020
4449 Clouds 8 1013 96 0 1.8 30 05:22 23.04.2020
4450 Clouds 8 1013 96 0 1.8 30 04:50 23.04.2020
4451 Clouds 8 1013 96 0 1.28 21 02:23 23.04.2020
4452 Clouds 9 1013 96 0 1.28 21 01:40 23.04.2020
4453 Clouds 9 1013 96 0 1.28 21 00:56 23.04.2020
4454 Clouds 8 1013 97 0 1.74 16 00:28 23.04.2020
4455 Clouds 8 1013 97 0 1.74 16 23:58 22.04.2020
4456 Clouds 9 1013 97 0 1.74 16 23:40 22.04.2020
4457 Clouds 9 1013 97 0 1.74 16 23:19 22.04.2020
4458 Clouds 9 1020 64 0 0.45 12 22:40 22.04.2020
4459 Clouds 9 1013 97 0 1.74 16 22:20 22.04.2020
4460 Clouds 9 1012 97 0 1.74 16 21:59 22.04.2020
4461 Clouds 9 1012 96 0 0.89 8 21:41 22.04.2020
4462 Rain 8 1015 75 0 1.68 15 21:22 22.04.2020
4463 Rain 8 1012 97 0 0.89 8 20:57 22.04.2020
4464 Rain 9 1011 97 0 0.45 3 20:39 22.04.2020
4465 Rain 9 1011 97 0 1.34 4 20:18 22.04.2020
4466 Rain 9 1014 68 0 1.68 15 19:57 22.04.2020
4467 Rain 9 1011 96 0 0.45 45 19:37 22.04.2020
4468 Rain 9 1013 66 0 1.68 15 19:18 22.04.2020
4469 Rain 9 1013 66 0 1.68 15 19:18 22.04.2020
4470 Rain 9 1010 97 0 0.45 346 18:56 22.04.2020
4471 Rain 10 1010 97 0 0.45 333 18:37 22.04.2020
4472 Rain 10 1010 97 0 0.45 13 18:19 22.04.2020
4473 Rain 10 1010 97 0 1.79 8 17:42 22.04.2020
4474 Rain 10 1010 97 0 1.79 359 17:24 22.04.2020
4475 Rain 10 1009 96 0 1.79 14 16:56 22.04.2020
4476 Rain 10 1009 96 0 1.79 18 16:36 22.04.2020
4477 Rain 10 1010 97 0 1.34 8 16:18 22.04.2020
4478 Rain 11 1009 97 0 1.79 329 15:38 22.04.2020
4479 Rain 12 1009 97 0 1.34 359 15:20 22.04.2020
4480 Rain 11 1009 97 0 0.89 359 14:56 22.04.2020
4481 Rain 11 1017 36 0 2.68 303 14:37 22.04.2020
4482 Rain 11 1009 97 0 0.45 18 14:18 22.04.2020
4483 Rain 11 1009 97 0 0.89 15 13:43 22.04.2020
4484 Rain 10 1009 96 0 2.42 15 13:20 22.04.2020
4485 Rain 9 1008 96 0 0.45 21 12:44 22.04.2020
4486 Rain 9 1017 37 0 0.45 0 12:24 22.04.2020
4487 Rain 8 1008 97 0 0.89 48 11:58 22.04.2020
4488 Rain 8 1008 97 0 0.89 48 11:58 22.04.2020
4489 Rain 8 1008 97 0 0.89 48 11:58 22.04.2020
4490 Rain 8 1008 96 0 0.45 11 11:39 22.04.2020
4491 Rain 8 1008 96 0 0.89 7 11:19 22.04.2020
4492 Rain 7 1008 96 0 0.45 14 10:44 22.04.2020
4493 Rain 7 1007 96 0 0.45 7 10:24 22.04.2020
4494 Rain 7 1007 97 0 2.75 16 09:55 22.04.2020
4495 Rain 6 1011 83 0 2.75 16 09:36 22.04.2020
4496 Rain 6 1011 81 0 2.69 8 09:18 22.04.2020
4497 Rain 6 1006 97 0 2.69 8 08:41 22.04.2020
4498 Rain 6 1006 97 0 2.69 8 08:41 22.04.2020
4499 Rain 6 1010 86 0 2.69 8 08:23 22.04.2020
4500 Rain 5 1010 88 0 2.69 8 07:55 22.04.2020
4501 Rain 5 1010 88 0 2.69 8 07:36 22.04.2020
4502 Rain 5 1010 90 0 2.69 8 07:18 22.04.2020
4503 Rain 5 1009 89 0 2.69 8 06:41 22.04.2020
4504 Rain 5 1008 88 0 3 10 05:40 22.04.2020
4505 Rain 6 1008 88 0 3 10 05:40 22.04.2020
4506 Rain 6 1008 88 0 3 10 04:46 22.04.2020
4507 Rain 6 1008 89 0 3.1 12 02:59 22.04.2020
4508 Rain 6 1003 96 0 1.79 1 02:18 22.04.2020
4509 Rain 6 1008 91 0 3.04 10 01:39 22.04.2020
4510 Rain 6 1003 96 0 1.34 11 01:19 22.04.2020
4511 Rain 6 1007 92 0 3.04 10 00:41 22.04.2020
4512 Rain 6 1007 91 0 2.45 19 00:20 22.04.2020
4513 Rain 6 1003 96 0 0.89 356 23:44 21.04.2020
4514 Rain 7 1007 90 0 2.45 19 23:22 21.04.2020
4515 Rain 7 1006 92 0 2.45 19 22:56 21.04.2020
4516 Rain 7 1006 91 0 2.45 19 22:37 21.04.2020
4517 Rain 7 1006 92 0 2.45 19 22:19 21.04.2020
4518 Rain 7 1002 96 0 0.89 359 21:43 21.04.2020
4519 Rain 7 1005 94 0 3.28 22 21:24 21.04.2020
4520 Rain 7 1001 96 0 0.89 359 20:59 21.04.2020
4521 Rain 7 1004 94 0 3.53 23 20:40 21.04.2020
4522 Rain 7 1004 93 0 3.28 22 20:22 21.04.2020
4523 Rain 8 1004 93 0 3.28 22 19:56 21.04.2020
4524 Rain 8 1004 93 0 3.28 22 19:36 21.04.2020
4525 Rain 8 1003 93 0 3.53 23 19:18 21.04.2020
4526 Rain 8 1003 93 0 3.28 22 18:54 21.04.2020
4527 Rain 8 1003 92 0 3.28 22 18:36 21.04.2020
4528 Rain 8 1003 93 0 2.65 24 18:18 21.04.2020
4529 Rain 9 1003 91 0 2.74 25 17:39 21.04.2020
4530 Rain 9 1000 96 0 0.45 15 17:19 21.04.2020
4531 Rain 9 1002 89 0 2.74 25 16:54 21.04.2020
4532 Rain 9 1002 90 0 2.65 24 16:36 21.04.2020
4533 Rain 9 1002 91 0 2.74 25 16:18 21.04.2020
4534 Rain 9 999 96 0 0.45 347 15:42 21.04.2020
4535 Rain 8 1003 90 0 2.34 18 15:23 21.04.2020
4536 Rain 9 1000 96 0 0.89 350 14:58 21.04.2020
4537 Rain 9 1002 92 0 2.34 18 14:40 21.04.2020
4538 Rain 9 1003 91 0 2.34 18 14:22 21.04.2020
4539 Rain 9 1003 92 0 2.34 18 13:42 21.04.2020
4540 Rain 9 1003 92 0 2.34 18 13:24 21.04.2020
4541 Rain 9 1000 95 0 0.89 58 12:58 21.04.2020
4542 Rain 9 1003 93 0 2.34 18 12:38 21.04.2020
4543 Rain 9 1003 95 0 1.51 29 12:19 21.04.2020
4544 Rain 9 1000 96 0 1.51 29 11:56 21.04.2020
4545 Rain 8 1003 96 0 1.51 29 11:37 21.04.2020
4546 Rain 8 1003 96 0 1.51 29 11:18 21.04.2020
4547 Rain 8 1003 96 0 1.51 29 10:56 21.04.2020
4548 Rain 8 1003 96 0 1.51 29 10:38 21.04.2020
4549 Rain 8 1000 96 0 1.51 29 10:20 21.04.2020
4550 Rain 8 1003 96 0 1.51 29 09:37 21.04.2020
4551 Rain 7 1003 96 0 1.41 15 09:19 21.04.2020
4552 Rain 8 999 96 0 1.41 15 08:57 21.04.2020
4553 Rain 8 1003 96 0 1.41 15 08:39 21.04.2020
4554 Rain 7 1002 96 0 1.41 15 08:19 21.04.2020
4555 Rain 7 999 96 0 1.41 15 07:44 21.04.2020
4556 Rain 7 1002 95 0 1.41 15 07:22 21.04.2020
4557 Rain 7 1002 95 0 1.41 15 06:49 21.04.2020
4558 Rain 7 1002 95 0 1.19 24 06:20 21.04.2020
4559 Rain 7 1002 95 0 1.19 24 05:48 21.04.2020
4560 Rain 8 1003 95 0 1.19 24 04:19 21.04.2020
4561 Rain 8 1003 94 0 1.19 24 03:42 21.04.2020
4562 Rain 8 1001 95 0 1.09 17 01:46 21.04.2020
4563 Rain 8 1004 91 0 1.09 17 00:58 21.04.2020
4564 Rain 8 1001 96 0 1.91 24 00:33 21.04.2020
4565 Rain 8 1002 96 0 1.91 24 23:44 20.04.2020
4566 Rain 8 1005 91 0 1.91 24 23:25 20.04.2020
4567 Rain 8 1002 96 0 1.91 24 22:57 20.04.2020
4568 Rain 8 1005 90 0 1.91 24 22:38 20.04.2020
4569 Rain 8 1005 89 0 1.91 24 22:19 20.04.2020
4570 Rain 8 1005 89 0 1.91 24 22:19 20.04.2020
4571 Rain 8 1002 96 0 1.91 24 21:56 20.04.2020
4572 Rain 8 1004 87 0 1.91 24 21:38 20.04.2020
4573 Rain 8 1004 86 0 1.53 12 21:19 20.04.2020
4574 Rain 8 1002 96 0 1.53 12 20:56 20.04.2020
4575 Rain 9 1004 83 0 1.53 12 20:37 20.04.2020
4576 Rain 9 1004 83 0 1.53 12 20:18 20.04.2020
4577 Rain 9 1005 93 10000 2.6 250 19:41 20.04.2020
4578 Rain 9 1005 93 10000 2.6 250 19:23 20.04.2020
4579 Rain 9 1005 93 10000 2.6 250 18:59 20.04.2020
4580 Rain 9 1005 93 10000 2.6 250 18:41 20.04.2020
4581 Rain 9 1005 93 10000 2.6 250 18:21 20.04.2020
4582 Clouds 10 1005 100 10000 2.6 220 17:55 20.04.2020
4583 Rain 10 1005 100 10000 3.1 220 17:37 20.04.2020
4584 Rain 10 1005 100 10000 3.1 220 17:19 20.04.2020
4585 Rain 10 1005 93 10000 2.6 240 16:43 20.04.2020
4586 Clouds 10 1005 77 10000 2.1 220 16:21 20.04.2020
4587 Clouds 10 1005 77 10000 2.1 220 15:57 20.04.2020
4588 Clouds 11 1005 67 10000 1.5 220 15:39 20.04.2020
4589 Clouds 12 1005 67 10000 1.5 220 15:21 20.04.2020
4590 Clouds 11 1005 72 10000 1 0 14:54 20.04.2020
4591 Clouds 10 1006 82 10000 1 0 14:36 20.04.2020
4592 Clouds 10 1006 82 10000 1 0 14:18 20.04.2020
4593 Clouds 10 1006 77 10000 1 0 13:40 20.04.2020
4594 Clouds 10 1006 77 10000 1 0 13:40 20.04.2020
4595 Clouds 10 1006 77 10000 1 0 13:22 20.04.2020
4596 Rain 9 1007 82 10000 1 0 12:44 20.04.2020
4597 Rain 9 1007 82 10000 1 0 12:25 20.04.2020
4598 Clouds 8 1007 93 10000 1.5 200 11:58 20.04.2020
4599 Clouds 8 1007 93 10000 1.5 200 11:39 20.04.2020
4600 Clouds 8 1007 93 10000 0.5 0 11:20 20.04.2020
4601 Clouds 9 1007 93 10000 0.5 0 10:55 20.04.2020
4602 Rain 8 1007 100 10000 1 0 10:37 20.04.2020
4603 Rain 8 1007 100 10000 1 0 10:18 20.04.2020
4604 Rain 6 1002 96 0 0.89 340 09:44 20.04.2020
4605 Rain 6 1005 93 0 2.2 13 09:25 20.04.2020
4606 Rain 6 1002 96 0 0.89 68 08:58 20.04.2020
4607 Rain 6 1005 95 0 2.2 13 08:40 20.04.2020
4608 Rain 6 1002 96 0 0.45 13 08:18 20.04.2020
4609 Rain 5 1004 95 0 2.2 13 07:52 20.04.2020
4610 Rain 5 1002 96 0 0.45 6 07:28 20.04.2020
4611 Rain 5 1004 94 0 2.2 13 06:39 20.04.2020
4612 Clouds 5 1004 94 0 2.36 16 06:20 20.04.2020
4613 Clouds 5 1004 95 0 2.36 16 05:22 20.04.2020
4614 Rain 6 1005 95 0 2.17 30 03:19 20.04.2020
4615 Rain 6 1005 94 0 2.13 34 02:36 20.04.2020
4616 Rain 6 1004 95 0 2.13 34 01:31 20.04.2020
4617 Rain 6 1004 95 0 2.13 34 00:57 20.04.2020
4618 Rain 7 1006 94 0 2.18 13 00:27 20.04.2020
4619 Rain 7 1006 94 0 2.18 13 23:42 19.04.2020
4620 Rain 7 1006 94 0 2.18 13 23:23 19.04.2020
4621 Rain 7 1005 94 0 2.18 13 22:59 19.04.2020
4622 Rain 7 1006 93 0 2.18 13 22:39 19.04.2020
4623 Rain 7 1006 93 0 2.18 13 22:20 19.04.2020
4624 Rain 8 1005 92 0 2.18 13 21:44 19.04.2020
4625 Rain 8 1006 92 0 0.65 13 21:25 19.04.2020
4626 Rain 8 1005 92 0 0.65 13 20:59 19.04.2020
4627 Rain 8 1005 91 0 0.65 13 20:41 19.04.2020
4628 Rain 8 1005 91 0 0.65 13 20:20 19.04.2020
4629 Rain 9 1004 89 0 0.65 13 19:57 19.04.2020
4630 Clouds 12 1008 67 10000 3.1 60 19:39 19.04.2020
4631 Clouds 12 1008 67 10000 3.1 60 19:21 19.04.2020
4632 Clouds 11 1008 67 10000 3.1 60 18:57 19.04.2020
4633 Clouds 11 1008 67 10000 3.1 60 18:39 19.04.2020
4634 Clouds 12 1008 67 10000 3.1 60 18:19 19.04.2020
4635 Clouds 12 1008 67 10000 1.5 80 17:56 19.04.2020
4636 Clouds 12 1009 72 10000 2.6 80 17:38 19.04.2020
4637 Clouds 13 1009 72 10000 2.6 80 17:19 19.04.2020
4638 Clouds 12 1009 72 10000 2.6 80 17:19 19.04.2020
4639 Clouds 12 1010 82 10000 1.5 240 16:41 19.04.2020
4640 Clouds 12 1010 82 10000 1.5 240 16:21 19.04.2020
4641 Rain 12 1010 87 10000 1.5 220 15:59 19.04.2020
4642 Rain 12 1010 82 10000 2.1 210 15:40 19.04.2020
4643 Rain 12 1010 82 10000 2.1 210 15:19 19.04.2020
4644 Rain 12 1010 82 10000 2.1 210 15:19 19.04.2020
4645 Clouds 12 1010 77 10000 1.5 0 14:39 19.04.2020
4646 Clouds 12 1010 77 10000 1.5 0 14:21 19.04.2020
4647 Clouds 12 1011 72 10000 1 0 13:57 19.04.2020
4648 Rain 12 1011 72 10000 3.1 240 13:37 19.04.2020
4649 Rain 12 1011 72 10000 3.1 240 13:18 19.04.2020
4650 Clouds 11 1011 82 10000 3.1 230 12:44 19.04.2020
4651 Clouds 11 1011 82 10000 3.1 230 12:44 19.04.2020
4652 Clouds 12 1011 72 10000 1.5 190 12:24 19.04.2020
4653 Clouds 12 1011 72 10000 1.5 110 11:54 19.04.2020
4654 Clouds 11 1011 72 10000 1 0 11:36 19.04.2020
4655 Clouds 11 1011 72 10000 1 0 11:36 19.04.2020
4656 Clouds 11 1011 72 10000 1 0 11:18 19.04.2020
4657 Clouds 10 1012 93 10000 1 0 10:41 19.04.2020
4658 Clouds 10 1012 93 10000 1 0 10:41 19.04.2020
4659 Clouds 10 1012 93 10000 1 0 10:21 19.04.2020
4660 Rain 8 1008 88 0 1.53 206 09:57 19.04.2020
4661 Rain 8 1008 91 0 1.53 206 09:38 19.04.2020
4662 Rain 7 1008 91 0 0.93 102 09:18 19.04.2020
4663 Rain 7 1008 91 0 0.83 134 08:40 19.04.2020
4664 Rain 7 1008 91 0 0.83 134 08:40 19.04.2020
4665 Rain 7 1008 91 0 0.93 102 08:21 19.04.2020
4666 Rain 7 1007 85 0 0.83 134 07:48 19.04.2020
4667 Rain 8 1008 92 0 0.93 102 07:25 19.04.2020
4668 Rain 8 1007 85 0 0.93 102 06:56 19.04.2020
4669 Rain 8 1008 93 0 1.04 69 06:22 19.04.2020
4670 Rain 8 1007 86 0 1.34 177 04:57 19.04.2020
4671 Rain 8 1007 84 0 3.13 215 03:34 19.04.2020
4672 Rain 8 1010 92 0 1.39 159 02:22 19.04.2020
4673 Rain 9 1010 90 0 1.39 159 01:39 19.04.2020
4674 Rain 9 1010 91 0 1.39 159 01:21 19.04.2020
4675 Rain 9 1010 91 0 1.39 159 00:40 19.04.2020
4676 Rain 9 1010 89 0 1.53 42 00:19 19.04.2020
4677 Rain 10 1015 52 0 1.53 42 23:42 18.04.2020
4678 Rain 10 1015 52 0 1.53 42 23:19 18.04.2020
4679 Rain 10 1015 52 0 1.53 42 22:43 18.04.2020
4680 Rain 10 1015 52 0 1.53 42 22:43 18.04.2020
4681 Rain 10 1015 52 0 1.53 42 22:24 18.04.2020
4682 Rain 10 1015 52 0 1.53 42 21:58 18.04.2020
4683 Rain 10 1015 52 0 1.53 42 21:39 18.04.2020
4684 Rain 13 1010 71 0 1.25 184 21:21 18.04.2020
4685 Rain 13 1013 51 0 1.25 184 20:58 18.04.2020
4686 Rain 13 1013 51 0 1.25 184 20:40 18.04.2020
4687 Rain 13 1013 51 0 1.25 184 20:18 18.04.2020
4688 Clouds 21 1014 46 10000 5.7 220 19:41 18.04.2020
4689 Clouds 17 1014 46 10000 5.7 220 19:22 18.04.2020
4690 Clouds 17 1014 46 10000 5.7 220 18:39 18.04.2020
4691 Clouds 17 1014 46 10000 5.7 220 18:20 18.04.2020
4692 Clouds 16 1014 49 10000 5.1 210 17:57 18.04.2020
4693 Clouds 16 1014 46 10000 5.1 220 17:39 18.04.2020
4694 Clouds 17 1014 46 10000 5.1 220 17:18 18.04.2020
4695 Clouds 17 1015 40 10000 4.6 220 16:43 18.04.2020
4696 Clouds 16 1015 40 10000 4.6 220 16:22 18.04.2020
4697 Clouds 16 1016 37 10000 5.7 220 15:55 18.04.2020
4698 Clouds 16 1016 40 10000 5.7 210 15:37 18.04.2020
4699 Clouds 16 1016 40 10000 5.7 210 15:19 18.04.2020
4700 Clouds 16 1016 37 10000 5.1 210 14:44 18.04.2020
4701 Clouds 15 1016 40 10000 3.6 210 14:20 18.04.2020
4702 Clouds 14 1017 45 10000 0.5 0 13:43 18.04.2020
4703 Clouds 15 1017 45 10000 3.1 230 13:43 18.04.2020
4704 Clouds 14 1017 45 10000 0.5 0 13:21 18.04.2020
4705 Clouds 13 1018 55 10000 3.07 205 12:43 18.04.2020
4706 Clouds 12 1018 55 10000 2.25 195 12:25 18.04.2020
4707 Clouds 11 1018 62 10000 0.5 0 11:59 18.04.2020
4708 Clouds 11 1018 71 10000 0.5 0 11:40 18.04.2020
4709 Clouds 12 1018 71 10000 0.5 0 11:21 18.04.2020
4710 Clouds 11 1018 76 10000 0.5 0 10:54 18.04.2020
4711 Clouds 10 1018 76 10000 1 0 10:36 18.04.2020
4712 Clouds 10 1018 76 10000 1 0 10:18 18.04.2020
4713 Clouds 9 1013 81 0 2.24 165 09:40 18.04.2020
4714 Clouds 9 1014 72 0 0.87 97 09:20 18.04.2020
4715 Clouds 8 1014 75 0 0.87 97 08:43 18.04.2020
4716 Clouds 8 1014 77 0 0.87 97 08:22 18.04.2020
4717 Clouds 8 1013 82 0 1.79 188 07:48 18.04.2020
4718 Clouds 7 1013 82 0 2.24 177 07:28 18.04.2020
4719 Clouds 8 1012 78 0 3.13 228 06:42 18.04.2020
4720 Clouds 7 1012 81 0 1.79 239 05:49 18.04.2020
4721 Clouds 8 1013 80 0 0.89 184 04:55 18.04.2020
4722 Clouds 8 1013 79 0 1.34 184 04:31 18.04.2020
4723 Clouds 8 1013 75 0 1.79 212 03:33 18.04.2020
4724 Clouds 10 1016 46 0 0.77 117 02:40 18.04.2020
4725 Clouds 11 1015 66 0 0.77 117 02:21 18.04.2020
4726 Clouds 11 1015 66 0 0.77 117 02:21 18.04.2020
4727 Clouds 11 1015 63 0 0.45 159 01:43 18.04.2020
4728 Clouds 10 1016 46 0 0.77 117 01:22 18.04.2020
4729 Clouds 11 1014 62 0 1.52 176 00:24 18.04.2020
4730 Clouds 12 1016 39 0 1.52 176 23:58 17.04.2020
4731 Clouds 11 1014 62 0 1.52 176 23:40 17.04.2020
4732 Clouds 12 1016 39 0 1.52 176 23:19 17.04.2020
4733 Clouds 12 1016 39 0 1.52 176 22:58 17.04.2020
4734 Clouds 12 1016 39 0 1.52 176 22:40 17.04.2020
4735 Clouds 12 1016 39 0 1.52 176 22:20 17.04.2020
4736 Clouds 12 1016 39 0 1.52 176 21:57 17.04.2020
4737 Clouds 11 1016 44 0 0.86 220 21:38 17.04.2020
4738 Clouds 12 1013 55 0 0.45 113 21:18 17.04.2020
4739 Clouds 12 1013 53 0 1.34 111 20:55 17.04.2020
4740 Clouds 12 1013 69 0 2.56 195 20:36 17.04.2020
4741 Clouds 12 1013 69 0 2.56 195 20:36 17.04.2020
4742 Clouds 12 1013 69 0 2.56 195 20:36 17.04.2020
4743 Clouds 12 1013 67 0 2.56 195 20:18 17.04.2020
4744 Clouds 12 1012 67 0 0.45 179 19:42 17.04.2020
4745 Clouds 16 1016 45 10000 5.1 210 19:23 17.04.2020
4746 Clouds 16 1016 45 10000 5.1 210 18:47 17.04.2020
4747 Clouds 15 1016 45 10000 5.1 210 18:24 17.04.2020
4748 Clouds 15 1016 45 10000 6.7 200 17:57 17.04.2020
4749 Clouds 15 1016 48 10000 6.2 200 17:37 17.04.2020
4750 Clouds 15 1016 48 10000 6.2 200 17:18 17.04.2020
4751 Clouds 15 1016 48 10000 6.2 200 17:18 17.04.2020
4752 Clouds 15 1017 45 10000 4.6 220 16:43 17.04.2020
4753 Clouds 15 1017 45 10000 4.6 220 16:23 17.04.2020
4754 Clouds 14 1017 48 10000 5.1 220 15:44 17.04.2020
4755 Clouds 15 1017 48 10000 5.1 220 15:24 17.04.2020
4756 Clouds 14 1017 52 10000 4.6 230 14:58 17.04.2020
4757 Clouds 14 1018 52 10000 3.1 210 14:39 17.04.2020
4758 Clouds 14 1018 52 10000 3.1 210 14:21 17.04.2020
4759 Clouds 14 1018 45 10000 1 0 13:55 17.04.2020
4760 Clouds 13 1018 59 10000 1 0 13:36 17.04.2020
4761 Clouds 17 1018 59 10000 1 0 13:18 17.04.2020
4762 Clouds 16 1019 71 10000 1 0 12:43 17.04.2020
4763 Clouds 16 1019 71 10000 1 0 12:22 17.04.2020
4764 Clouds 16 1019 71 10000 0.5 0 11:41 17.04.2020
4765 Clouds 15 1019 71 10000 0.5 0 11:19 17.04.2020
4766 Clouds 14 1019 76 10000 0.5 0 10:56 17.04.2020
4767 Clouds 14 1019 76 10000 0.5 0 10:56 17.04.2020
4768 Clouds 13 1019 81 10000 0.5 0 10:37 17.04.2020
4769 Clouds 12 1019 81 10000 0.5 0 10:18 17.04.2020
4770 Clouds 11 1016 83 0 2.8 196 09:40 17.04.2020
4771 Clouds 11 1016 83 0 0.7 125 09:20 17.04.2020
4772 Clouds 10 1016 83 0 0.7 125 08:56 17.04.2020
4773 Clouds 9 1016 85 0 0.7 125 08:38 17.04.2020
4774 Clouds 9 1016 85 0 0.7 125 08:19 17.04.2020
4775 Clouds 9 1014 84 0 2.24 217 07:43 17.04.2020
4776 Clouds 9 1016 85 0 0.7 125 07:21 17.04.2020
4777 Clouds 9 1013 84 0 2.68 239 06:45 17.04.2020
4778 Clouds 9 1015 84 0 0.71 144 06:22 17.04.2020
4779 Clouds 10 1012 82 0 2.24 205 04:27 17.04.2020
4780 Clouds 10 1016 80 0 0.78 167 03:19 17.04.2020
4781 Clouds 10 1016 80 0 0.88 175 01:58 17.04.2020
4782 Clouds 10 1016 82 0 0.88 175 01:24 17.04.2020
4783 Clouds 11 1017 30 0 0.89 75 00:30 17.04.2020
4784 Clouds 11 1017 28 0 1.08 189 23:56 16.04.2020
4785 Clouds 11 1017 31 0 1.08 189 23:38 16.04.2020
4786 Clouds 11 1016 75 0 1.08 189 23:19 16.04.2020
4787 Clouds 11 1015 75 0 1.08 189 22:55 16.04.2020
4788 Clouds 11 1015 76 0 1.08 189 22:36 16.04.2020
4789 Clouds 12 1015 75 0 1.08 189 22:18 16.04.2020
4790 Clouds 12 1015 74 0 1.08 189 21:41 16.04.2020
4791 Clouds 13 1014 75 0 2.49 205 21:20 16.04.2020
4792 Clouds 14 1014 67 0 2.49 205 20:44 16.04.2020
4793 Clouds 15 1014 62 0 2.49 205 20:23 16.04.2020
4794 Clouds 16 1014 59 0 2.49 205 20:00 16.04.2020
4795 Clouds 16 1014 58 0 0.45 243 19:40 16.04.2020
4796 Clouds 17 1017 48 10000 4.6 220 19:20 16.04.2020
4797 Clouds 17 1017 48 10000 4.6 220 18:57 16.04.2020
4798 Clouds 17 1017 48 10000 4.6 220 18:39 16.04.2020
4799 Clouds 18 1017 48 10000 4.6 220 18:20 16.04.2020
4800 Clouds 18 1017 48 10000 4.6 210 17:45 16.04.2020
4801 Clouds 18 1017 48 10000 4.6 210 17:26 16.04.2020
4802 Clouds 18 1018 48 10000 4.6 210 17:00 16.04.2020
4803 -273 0 0 0 0 0 16:59 16.04.2020
4804 Clouds 18 1018 45 10000 4.6 200 16:59 16.04.2020
4805 Clouds 18 1018 45 10000 4.6 200 16:41 16.04.2020
4806 Clouds 18 1018 45 10000 5.1 210 16:19 16.04.2020
4807 Clouds 18 1018 45 10000 5.1 200 15:42 16.04.2020
4808 Clouds 18 1018 51 10000 3.6 210 15:19 16.04.2020
4809 Clouds 18 1018 51 10000 3.6 210 14:58 16.04.2020
4810 Clouds 18 1019 51 10000 4.1 220 14:38 16.04.2020
4811 Clouds 18 1019 51 10000 2.6 200 14:19 16.04.2020
4812 Clouds 17 1019 51 10000 2.6 200 13:55 16.04.2020
4813 Clouds 16 1019 59 10000 3.6 220 13:36 16.04.2020
4814 Clouds 16 1020 55 10000 3.6 220 13:18 16.04.2020
4815 Clouds 16 1020 55 10000 3.6 220 12:55 16.04.2020
4816 Clouds 15 1020 62 10000 3.6 210 12:36 16.04.2020
4817 Clouds 14 1020 67 10000 2.6 220 12:18 16.04.2020
4818 Clouds 14 1020 76 10000 2.1 230 11:41 16.04.2020
4819 Clouds 13 1020 76 10000 1.5 210 11:21 16.04.2020
4820 Clouds 13 1020 76 10000 1.5 210 10:56 16.04.2020
4821 Clouds 13 1020 76 10000 1 0 10:38 16.04.2020
4822 Clouds 12 1017 90 0 2.11 185 10:18 16.04.2020
4823 Clouds 11 1017 92 0 2.11 185 09:54 16.04.2020
4824 Clouds 11 1017 92 0 1.89 186 09:36 16.04.2020
4825 Clouds 10 1017 97 0 1.07 170 09:18 16.04.2020
4826 Clouds 10 1017 93 0 1.07 170 08:41 16.04.2020
4827 Clouds 9 1017 93 0 1.37 191 08:21 16.04.2020
4828 Clouds 9 1018 95 0 1.07 170 07:46 16.04.2020
4829 Clouds 9 1017 93 0 1.37 191 07:26 16.04.2020
4830 Clouds 9 1017 94 0 1.07 170 06:43 16.04.2020
4831 Rain 9 1017 93 0 1.22 167 06:24 16.04.2020
4832 Rain 9 1017 93 0 1.22 167 05:34 16.04.2020
4833 Rain 10 1017 92 0 0.53 158 03:49 16.04.2020
4834 Rain 10 1018 91 0 2.11 156 03:23 16.04.2020
4835 Rain 10 1018 88 0 2.11 156 02:47 16.04.2020
4836 Rain 11 1018 86 0 2.11 156 02:26 16.04.2020
4837 Rain 11 1018 87 0 1.34 187 01:18 16.04.2020
4838 Rain 11 1017 87 0 0.89 15 01:18 16.04.2020
4839 Rain 11 1017 84 0 0.45 142 00:27 16.04.2020
4840 Rain 11 1017 82 0 2.45 173 23:57 15.04.2020
4841 Rain 11 1017 79 0 0.45 125 23:39 15.04.2020
4842 Rain 11 1017 77 0 1.79 69 23:20 15.04.2020
4843 Rain 12 1016 76 0 2.45 173 22:40 15.04.2020
4844 Rain 12 1016 76 0 2.45 173 22:21 15.04.2020
4845 Rain 13 1016 80 0 2.45 173 21:58 15.04.2020
4846 Rain 13 1016 79 0 2.45 173 21:40 15.04.2020
4847 Rain 13 1016 72 0 0.89 160 21:22 15.04.2020
4848 Rain 13 1015 71 0 2.13 192 20:57 15.04.2020
4849 Rain 14 1015 74 0 2.13 192 20:39 15.04.2020
4850 Rain 13 1015 69 0 0.45 109 20:20 15.04.2020
4851 Rain 14 1015 64 0 2.13 192 19:42 15.04.2020
4852 Rain 14 1015 63 0 2.13 192 19:20 15.04.2020
4853 Rain 16 1015 61 0 1.34 155 18:54 15.04.2020
4854 Rain 16 1015 63 0 0.45 86 18:36 15.04.2020
4855 Rain 16 1015 57 0 1.34 212 18:18 15.04.2020
4856 Rain 17 1014 52 0 1.79 160 17:40 15.04.2020
4857 Rain 17 1014 53 0 4.47 45 17:21 15.04.2020
4858 Rain 18 1014 52 0 2.68 45 16:57 15.04.2020
4859 Rain 18 1014 39 0 2.98 194 16:38 15.04.2020
4860 Rain 17 1015 54 0 2.98 194 16:19 15.04.2020
4861 Rain 17 1015 54 0 2.98 194 16:19 15.04.2020
4862 Rain 17 1015 53 0 2.98 194 15:57 15.04.2020
4863 Rain 17 1014 52 0 3.58 45 15:39 15.04.2020
4864 Clouds 18 1016 53 0 2.68 167 15:19 15.04.2020
4865 Clouds 17 1015 49 0 1.79 95 14:57 15.04.2020
4866 Clouds 18 1016 49 0 3.13 123 14:39 15.04.2020
4867 Rain 18 1014 40 0 3.58 45 14:21 15.04.2020
4868 Rain 18 1014 38 0 4.47 45 13:57 15.04.2020
4869 Rain 18 1014 35 0 4.92 45 13:38 15.04.2020
4870 Rain 18 1016 52 0 3.13 169 13:19 15.04.2020
4871 Rain 18 1017 40 0 2.68 158 12:43 15.04.2020
4872 Clouds 13 1012 80 0 1.79 87 12:23 15.04.2020
4873 Clouds 13 1012 80 0 1.79 87 12:23 15.04.2020
4874 Clouds 12 1012 81 0 2.24 150 11:59 15.04.2020
4875 Clouds 12 1011 77 0 3.58 203 11:40 15.04.2020
4876 Clouds 12 1011 83 0 2.24 245 11:22 15.04.2020
4877 Clouds 13 1015 60 0 0.89 132 10:40 15.04.2020
4878 Clouds 12 1015 75 0 3 179 10:22 15.04.2020
4879 Clouds 10 1015 78 0 3 179 09:58 15.04.2020
4880 Clouds 9 1015 81 0 3 179 09:40 15.04.2020
4881 Clouds 8 1015 80 0 1.39 153 09:22 15.04.2020
4882 Clouds 7 1011 82 0 1.34 232 08:58 15.04.2020
4883 Clouds 7 1015 82 0 1.39 153 08:40 15.04.2020
4884 Clouds 6 1015 79 0 1.39 153 08:19 15.04.2020
4885 Clouds 6 1015 82 0 1.39 153 07:53 15.04.2020
4886 Clouds 6 1010 82 0 3.58 193 07:31 15.04.2020
4887 Clouds 6 1014 81 0 1.39 153 06:33 15.04.2020
4888 Rain 6 1009 75 0 3.13 205 05:50 15.04.2020
4889 Rain 7 1009 85 0 3.58 198 05:18 15.04.2020
4890 Rain 7 1014 82 0 1.56 181 04:43 15.04.2020
4891 Rain 8 1010 85 0 3.13 136 03:26 15.04.2020
4892 Rain 8 1014 83 0 1.38 168 02:53 15.04.2020
4893 Rain 9 1014 84 0 1.38 168 01:56 15.04.2020
4894 Rain 9 1014 82 0 1.38 168 01:27 15.04.2020
4895 Rain 9 1014 81 0 1.38 168 00:54 15.04.2020
4896 Rain 10 1017 39 0 1.16 68 00:31 15.04.2020
4897 Rain 11 1017 39 0 1.16 68 23:57 14.04.2020
4898 Rain 11 1017 39 0 1.16 68 23:57 14.04.2020
4899 Rain 10 1013 88 0 1.16 68 23:39 14.04.2020
4900 Rain 11 1013 88 0 1.16 68 23:21 14.04.2020
4901 Rain 11 1016 38 0 1.16 68 22:58 14.04.2020
4902 Rain 11 1016 37 0 1.16 68 22:40 14.04.2020
4903 Rain 12 1016 31 0 1.16 68 22:21 14.04.2020
4904 Rain 13 1015 28 0 1.16 68 21:59 14.04.2020
4905 Rain 13 1016 26 0 1.16 68 21:40 14.04.2020
4906 Rain 13 1012 79 0 1.43 31 21:20 14.04.2020
4907 Rain 14 1012 76 0 0.96 29 21:00 14.04.2020
4908 Rain 15 1014 79 0 1.43 31 20:40 14.04.2020
4909 Rain 15 1012 75 0 1.43 31 20:21 14.04.2020
4910 Rain 15 1012 69 0 0.96 29 19:57 14.04.2020
4911 Rain 15 1011 71 0 0.96 29 19:38 14.04.2020
4912 Rain 15 1011 67 0 0.96 29 19:19 14.04.2020
4913 Rain 17 1009 61 0 0.45 270 18:41 14.04.2020
4914 Rain 17 1015 10 0 0.89 311 18:22 14.04.2020
4915 Rain 17 1010 64 0 0.59 58 17:58 14.04.2020
4916 Rain 18 1009 76 0 1.34 225 17:39 14.04.2020
4917 Rain 17 1011 60 0 0.59 58 17:20 14.04.2020
4918 Rain 16 1012 60 0 0.89 170 16:57 14.04.2020
4919 Rain 17 1012 57 0 0.89 160 16:38 14.04.2020
4920 Rain 17 1012 57 0 0.95 37 16:20 14.04.2020
4921 Rain 18 1012 53 0 0.45 183 15:56 14.04.2020
4922 Rain 17 1012 55 0 0.95 37 15:38 14.04.2020
4923 Clouds 17 1012 55 0 1.34 213 15:18 14.04.2020
4924 Clouds 18 1012 58 0 2 38 14:56 14.04.2020
4925 Clouds 18 1012 52 0 2 38 14:37 14.04.2020
4926 Rain 18 1012 53 0 1.9 31 14:19 14.04.2020
4927 Rain 17 1013 53 0 1.9 31 13:43 14.04.2020
4928 Rain 17 1013 53 0 1.9 31 13:43 14.04.2020
4929 Rain 17 1015 12 0 2.68 284 13:24 14.04.2020
4930 Rain 16 1013 56 0 1.9 31 12:56 14.04.2020
4931 Rain 16 1013 55 0 0.45 248 12:37 14.04.2020
4932 Clouds 16 1016 11 0 2.24 347 12:18 14.04.2020
4933 Clouds 14 1014 69 0 2.39 38 11:40 14.04.2020
4934 Clouds 14 1015 66 0 2.39 38 11:22 14.04.2020
4935 Clouds 13 1016 34 0 0.89 287 10:47 14.04.2020
4936 Clouds 12 1013 80 0 2.39 38 10:29 14.04.2020
4937 Clouds 10 1013 88 0 2.39 38 09:59 14.04.2020
4938 Clouds 10 1013 89 0 2.39 38 09:41 14.04.2020
4939 Clouds 9 1013 91 0 2.64 31 09:22 14.04.2020
4940 Clouds 8 1013 92 0 2.64 31 08:44 14.04.2020
4941 Clouds 8 1013 92 0 2.64 31 08:26 14.04.2020
4942 Clouds 8 1012 92 0 2.64 31 07:59 14.04.2020
4943 Clouds 8 1012 93 0 2.64 31 07:41 14.04.2020
4944 Clouds 8 1014 53 0 2.64 31 07:22 14.04.2020
4945 Clouds 8 1016 74 0 2.64 31 06:45 14.04.2020
4946 Rain 8 1012 91 0 1.01 16 05:22 14.04.2020
4947 Rain 8 1011 90 0 1.39 36 03:25 14.04.2020
4948 Rain 9 1011 91 0 1.05 44 02:19 14.04.2020
4949 Rain 9 1011 91 0 1.05 44 01:26 14.04.2020
4950 Rain 9 1011 91 0 1.05 44 00:49 14.04.2020
4951 Rain 9 1011 90 0 1.38 37 00:23 14.04.2020
4952 Rain 9 1011 91 0 1.38 37 23:55 13.04.2020
4953 Rain 9 1014 72 0 0.89 353 23:36 13.04.2020
4954 Rain 9 1011 90 0 1.38 37 23:18 13.04.2020
4955 Rain 9 1011 91 0 1.38 37 22:41 13.04.2020
4956 Rain 9 1010 92 0 1.38 37 22:22 13.04.2020
4957 Rain 9 1010 91 0 1.38 37 21:57 13.04.2020
4958 Rain 9 1010 92 0 1.38 37 21:38 13.04.2020
4959 Rain 9 1009 93 0 0.89 5 21:20 13.04.2020
4960 Rain 10 1009 92 0 0.89 5 20:56 13.04.2020
4961 Rain 10 1009 92 0 0.89 5 20:38 13.04.2020
4962 Rain 10 1009 92 0 0.89 5 20:38 13.04.2020
4963 Rain 10 1009 92 0 0.89 5 20:18 13.04.2020
4964 Rain 10 1010 93 8000 0.5 0 19:39 13.04.2020
4965 Rain 10 1010 93 8000 0.5 0 19:20 13.04.2020
4966 Rain 10 1010 93 8000 0.5 0 19:00 13.04.2020
4967 Rain 10 1010 93 8000 0.5 0 18:39 13.04.2020
4968 Rain 10 1010 100 8000 1 220 18:20 13.04.2020
4969 Rain 10 1010 100 8000 1 220 17:59 13.04.2020
4970 Rain 10 1010 100 7000 1 0 17:39 13.04.2020
4971 Rain 10 1010 100 5000 1.1 7 17:20 13.04.2020
4972 Rain 10 1010 100 5000 1.1 7 17:20 13.04.2020
4973 Rain 10 1010 100 5000 1.1 7 16:59 13.04.2020
4974 Rain 10 1010 100 5000 0.5 0 16:41 13.04.2020
4975 Rain 10 1011 100 5000 1 0 16:21 13.04.2020
4976 Rain 10 1011 100 5000 1 0 15:59 13.04.2020
4977 Rain 10 1011 100 4000 1.1 7 15:41 13.04.2020
4978 Rain 11 1011 100 4000 1.07 40 15:23 13.04.2020
4979 Rain 10 1011 100 4000 1.07 40 14:56 13.04.2020
4980 Rain 10 1012 93 4000 0.5 0 14:38 13.04.2020
4981 Rain 10 1012 93 4000 0.5 0 14:38 13.04.2020
4982 Rain 10 1012 100 4000 1 0 14:20 13.04.2020
4983 Rain 10 1012 93 5000 0.5 0 13:55 13.04.2020
4984 Rain 10 1012 93 5000 0.5 0 13:37 13.04.2020
4985 Rain 10 1012 93 5000 0.5 0 13:37 13.04.2020
4986 Rain 9 1012 100 5000 0.5 0 13:18 13.04.2020
4987 Rain 9 1012 100 5000 0.5 0 12:56 13.04.2020
4988 Rain 9 1012 93 7000 1 0 12:38 13.04.2020
4989 Rain 9 1012 100 5000 1 0 12:19 13.04.2020
4990 Rain 9 1011 87 10000 0.5 0 11:42 13.04.2020
4991 Clouds 8 1011 75 10000 1 0 11:19 13.04.2020
4992 Clouds 9 1011 75 10000 1 0 10:56 13.04.2020
4993 Clouds 8 1011 81 10000 2.1 60 10:38 13.04.2020
4994 Clouds 8 1009 80 0 1.54 132 10:19 13.04.2020
4995 Clouds 7 1004 80 0 1.34 190 09:46 13.04.2020
4996 Clouds 7 1009 84 0 0.8 109 09:26 13.04.2020
4997 Clouds 6 1010 85 0 0.8 109 08:52 13.04.2020
4998 Clouds 6 1010 85 0 0.8 109 08:52 13.04.2020
4999 Clouds 6 1010 85 0 0.8 109 08:32 13.04.2020
5000 Clouds 5 1010 85 0 0.8 109 07:59 13.04.2020
5001 Clouds 5 1009 85 0 0.8 109 07:41 13.04.2020
5002 Clouds 5 1009 85 0 0.8 109 07:20 13.04.2020
5003 Clouds 5 1009 86 0 0.8 109 06:47 13.04.2020
5004 Clouds 5 1010 84 0 0.88 132 06:25 13.04.2020
5005 Clouds 5 1010 85 0 0.88 132 05:31 13.04.2020
5006 Clouds 6 1005 90 0 2.68 210 04:53 13.04.2020
5007 Clouds 6 1005 88 0 1.34 181 04:23 13.04.2020
5008 Clouds 7 1012 40 0 0.88 132 03:47 13.04.2020
5009 Clouds 7 1012 40 0 1.06 79 02:59 13.04.2020
5010 Clouds 8 1013 39 0 0.85 107 01:54 13.04.2020
5011 Clouds 7 1013 38 0 0.85 107 01:36 13.04.2020
5012 Clouds 7 1014 38 0 0.85 107 00:56 13.04.2020
5013 Clouds 8 1014 37 0 0.85 107 00:38 13.04.2020
5014 Clouds 8 1012 80 0 1.53 179 00:18 13.04.2020
5015 Clouds 9 1013 77 0 1.53 179 23:43 12.04.2020
5016 Clouds 8 1013 77 0 1.53 179 23:22 12.04.2020
5017 Clouds 8 1013 74 0 1.53 179 22:57 12.04.2020
5018 Clouds 9 1013 74 0 1.53 179 22:37 12.04.2020
5019 Clouds 9 1013 74 0 1.53 179 22:19 12.04.2020
5020 Clouds 9 1009 86 0 0.45 198 21:40 12.04.2020
5021 Rain 12 1013 73 0 2.36 198 21:20 12.04.2020
5022 Rain 12 1013 71 0 2.36 198 20:56 12.04.2020
5023 Rain 13 1013 69 0 2.36 198 20:38 12.04.2020
5024 Rain 13 1013 67 0 2.36 198 20:19 12.04.2020
5025 Rain 13 1009 76 0 1.79 203 19:42 12.04.2020
5026 Clouds 13 1016 41 10000 2.6 220 19:20 12.04.2020
5027 Clouds 14 1016 41 10000 2.6 220 18:59 12.04.2020
5028 Clouds 15 1016 41 10000 2.6 220 18:40 12.04.2020
5029 Clouds 15 1016 41 10000 3.6 230 18:20 12.04.2020
5030 Clouds 15 1017 44 10000 4.6 220 17:55 12.04.2020
5031 Clouds 16 1017 44 10000 4.6 220 17:37 12.04.2020
5032 Clouds 16 1017 44 10000 4.6 220 17:37 12.04.2020
5033 Clouds 16 1017 44 10000 6.2 200 17:18 12.04.2020
5034 Clouds 15 1018 41 10000 5.7 210 16:42 12.04.2020
5035 Clouds 15 1018 41 10000 6.2 220 16:22 12.04.2020
5036 Clouds 15 1018 41 10000 6.2 220 15:55 12.04.2020
5037 Clouds 16 1018 41 10000 5.1 220 15:37 12.04.2020
5038 Clouds 16 1018 41 10000 5.1 210 15:18 12.04.2020
5039 Clouds 16 1019 41 10000 5.1 210 14:39 12.04.2020
5040 Clouds 17 1019 41 10000 2.1 230 14:21 12.04.2020
5041 Clouds 16 1019 41 10000 2.1 230 13:56 12.04.2020
5042 Clouds 16 1020 44 10000 2.6 220 13:36 12.04.2020
5043 Clouds 15 1021 47 10000 1 0 13:18 12.04.2020
5044 Clouds 15 1021 62 10000 1 0 12:45 12.04.2020
5045 Clouds 14 1021 66 10000 2.1 80 12:21 12.04.2020
5046 Clouds 13 1021 66 10000 2.1 80 11:58 12.04.2020
5047 Clouds 12 1021 71 10000 1 0 11:37 12.04.2020
5048 Clouds 12 1021 71 10000 1 0 11:37 12.04.2020
5049 Clouds 12 1022 76 10000 2.39 206 11:18 12.04.2020
5050 Clouds 10 1022 81 10000 0.5 0 10:55 12.04.2020
5051 Clouds 10 1022 81 10000 0.5 0 10:37 12.04.2020
5052 Clouds 10 1018 84 0 2.39 206 10:18 12.04.2020
5053 Clouds 9 1018 84 0 2.39 206 09:54 12.04.2020
5054 Clouds 8 1018 85 0 2.39 206 09:36 12.04.2020
5055 Clouds 7 1018 85 0 0.26 220 09:18 12.04.2020
5056 Clouds 7 1018 85 0 0.26 220 09:18 12.04.2020
5057 Clouds 7 1014 91 0 1.34 214 08:46 12.04.2020
5058 Clouds 6 1018 88 0 0.26 220 08:27 12.04.2020
5059 Clouds 6 1014 90 0 0.26 220 07:45 12.04.2020
5060 Clouds 7 1018 86 0 0.26 220 07:19 12.04.2020
5061 Clouds 6 1014 90 0 0.45 177 06:36 12.04.2020
5062 Clouds 6 1014 89 0 1.34 186 05:58 12.04.2020
5063 Clouds 7 1018 89 0 0.56 222 05:37 12.04.2020
5064 Clouds 7 1015 89 0 1.79 180 03:45 12.04.2020
5065 Clouds 7 1016 87 0 1.79 212 03:25 12.04.2020
5066 Clouds 8 1020 87 0 0.96 217 02:35 12.04.2020
5067 Clouds 7 1020 86 0 0.96 217 01:53 12.04.2020
5068 Clouds 8 1017 86 0 0.96 217 00:59 12.04.2020
5069 Clouds 8 1017 85 0 0.45 124 00:41 12.04.2020
5070 Clouds 9 1017 85 0 0.45 159 00:20 12.04.2020
5071 Clouds 9 1017 84 0 0.45 210 00:20 12.04.2020
5072 Clouds 8 1023 44 0 0.88 207 23:46 11.04.2020
5073 Clouds 9 1017 83 0 0.45 194 23:26 11.04.2020
5074 Clouds 10 1023 43 0 0.88 207 22:42 11.04.2020
5075 Clouds 11 1021 78 0 0.88 207 22:23 11.04.2020
5076 Clouds 11 1021 91 0 0.88 207 22:23 11.04.2020
5077 Clouds 11 1020 78 0 0.88 207 21:58 11.04.2020
5078 Clouds 11 1020 78 0 0.88 207 21:58 11.04.2020
5079 Clouds 12 1017 82 0 1.08 212 21:38 11.04.2020
5080 Rain 12 1017 82 0 1.68 205 21:19 11.04.2020
5081 Rain 13 1019 75 0 1.68 205 20:58 11.04.2020
5082 Rain 14 1022 37 0 1.68 205 20:40 11.04.2020
5083 Rain 14 1022 35 0 0.89 3 20:21 11.04.2020
5084 Rain 15 1022 31 0 0.89 26 19:59 11.04.2020
5085 Clouds 16 1021 51 10000 6.7 200 19:41 11.04.2020
5086 Clouds 15 1021 51 10000 6.7 200 19:20 11.04.2020
5087 Clouds 16 1021 51 10000 6.7 200 18:58 11.04.2020
5088 Clouds 16 1021 51 10000 6.7 200 18:39 11.04.2020
5089 Clouds 17 1021 48 10000 6.7 210 18:21 11.04.2020
5090 Clouds 17 1021 48 10000 6.7 210 17:59 11.04.2020
5091 Clouds 17 1021 51 10000 7.7 200 17:41 11.04.2020
5092 Clouds 17 1021 51 10000 7.2 210 17:21 11.04.2020
5093 Clouds 17 1021 51 10000 7.2 210 16:58 11.04.2020
5094 Clouds 17 1021 51 10000 6.7 210 16:40 11.04.2020
5095 Clouds 16 1021 55 10000 7.7 210 16:20 11.04.2020
5096 Clouds 16 1021 55 10000 7.7 210 16:20 11.04.2020
5097 Clouds 17 1022 48 10000 7.2 210 15:39 11.04.2020
5098 Clouds 17 1022 48 10000 7.2 210 15:19 11.04.2020
5099 Clouds 16 1022 51 10000 6.2 220 14:43 11.04.2020
5100 Clouds 16 1022 51 10000 6.2 220 14:24 11.04.2020
5101 Clouds 17 1022 48 10000 7.2 210 13:59 11.04.2020
5102 Clouds 17 1022 48 10000 5.7 210 13:40 11.04.2020
5103 Clouds 15 1022 55 10000 3.6 220 13:19 11.04.2020
5104 Clouds 15 1023 51 10000 1 0 12:42 11.04.2020
5105 Clouds 14 1023 58 10000 1.5 200 12:20 11.04.2020
5106 Clouds 14 1023 58 10000 1.5 200 11:58 11.04.2020
5107 Clouds 14 1023 62 10000 1.5 120 11:39 11.04.2020
5108 Clouds 14 1023 71 10000 1 0 11:19 11.04.2020
5109 Clouds 13 1023 76 10000 1 0 10:43 11.04.2020
5110 Clouds 11 1020 88 0 2 202 10:23 11.04.2020
5111 Clouds 10 1020 90 0 2 202 09:59 11.04.2020
5112 Clouds 10 1020 90 0 2 202 09:59 11.04.2020
5113 Clouds 9 1020 89 0 2.01 207 09:40 11.04.2020
5114 Clouds 8 1016 88 0 0.62 34 09:21 11.04.2020
5115 Clouds 8 1016 88 0 0.62 34 09:21 11.04.2020
5116 Clouds 6 1020 89 0 0.62 34 08:50 11.04.2020
5117 Clouds 5 1016 90 0 0.62 34 08:28 11.04.2020
5118 Clouds 5 1020 90 0 0.62 34 07:54 11.04.2020
5119 Clouds 5 1020 90 0 0.62 34 07:34 11.04.2020
5120 Clouds 6 1020 89 0 0.62 34 06:55 11.04.2020
5121 Clouds 5 1020 89 0 0.62 34 06:34 11.04.2020
5122 Clouds 6 1019 88 0 0.37 11 05:55 11.04.2020
5123 Clouds 7 1020 84 0 0.37 11 03:42 11.04.2020
5124 Clouds 8 1020 83 0 0.36 343 02:37 11.04.2020
5125 Clouds 9 1023 32 0 0.55 227 01:25 11.04.2020
5126 Clouds 9 1022 30 0 0.55 227 00:44 11.04.2020
5127 Clouds 9 1022 28 0 0.45 105 00:20 11.04.2020
5128 Clouds 9 1022 26 0 1.16 214 23:58 10.04.2020
5129 Clouds 10 1022 26 0 1.16 214 23:40 10.04.2020
5130 Clouds 11 1022 25 0 1.16 214 23:19 10.04.2020
5131 Clouds 11 1020 70 0 1.16 214 22:44 10.04.2020
5132 Clouds 12 1020 76 0 1.16 214 22:23 10.04.2020
5133 Clouds 14 1021 56 0 0.89 203 21:59 10.04.2020
5134 Clouds 14 1021 56 0 1.34 225 21:41 10.04.2020
5135 Rain 14 1021 12 0 0.89 34 21:20 10.04.2020
5136 Rain 15 1019 60 0 0.45 115 20:55 10.04.2020
5137 Rain 15 1019 58 0 0.89 82 20:37 10.04.2020
5138 Rain 14 1016 78 0 1.34 191 20:18 10.04.2020
5139 Clouds 17 1020 39 10000 7.2 210 19:41 10.04.2020
5140 Clouds 16 1020 39 10000 7.2 210 19:22 10.04.2020
5141 Clouds 17 1020 39 10000 7.2 210 18:58 10.04.2020
5142 Clouds 16 1020 39 10000 7.2 210 18:40 10.04.2020
5143 Clouds 19 1020 37 10000 6.7 210 18:22 10.04.2020
5144 Clouds 19 1020 37 10000 6.7 210 17:59 10.04.2020
5145 Clouds 20 1020 39 10000 7.7 210 17:40 10.04.2020
5146 Clouds 20 1020 37 10000 6.2 210 17:21 10.04.2020
5147 Clouds 20 1020 37 10000 6.2 210 16:57 10.04.2020
5148 Clouds 20 1021 37 10000 5.1 220 16:38 10.04.2020
5149 Clouds 20 1021 37 10000 6.2 200 16:20 10.04.2020
5150 Clouds 19 1021 37 10000 6.2 200 15:56 10.04.2020
5151 Clouds 19 1021 37 10000 5.1 210 15:37 10.04.2020
5152 Clouds 20 1022 37 10000 4.1 210 15:19 10.04.2020
5153 Clouds 19 1022 42 10000 4.1 220 14:57 10.04.2020
5154 Clouds 18 1022 42 10000 4.1 220 14:38 10.04.2020
5155 Clouds 19 1022 45 10000 3.1 210 14:18 10.04.2020
5156 Clouds 18 1023 48 10000 1.5 0 13:43 10.04.2020
5157 Clouds 18 1023 44 10000 1.5 170 13:22 10.04.2020
5158 Clouds 17 1023 58 10000 1.5 150 12:44 10.04.2020
5159 Clouds 15 1023 62 10000 1 0 12:24 10.04.2020
5160 Clouds 15 1023 62 10000 1 0 11:58 10.04.2020
5161 Clouds 15 1024 66 10000 1 0 11:39 10.04.2020
5162 Clouds 14 1024 76 10000 1 0 11:21 10.04.2020
5163 Clouds 13 1024 76 10000 1 0 10:46 10.04.2020
5164 Clouds 10 1024 76 10000 1 0 10:23 10.04.2020
5165 Clear 9 1021 92 0 1.85 180 09:57 10.04.2020
5166 Clear 8 1021 94 0 1.86 180 09:39 10.04.2020
5167 Clouds 7 1016 88 0 1.34 173 09:20 10.04.2020
5168 Clouds 6 1021 93 0 0.89 97 08:43 10.04.2020
5169 Clouds 6 1016 90 0 0.45 233 08:24 10.04.2020
5170 Clouds 5 1021 92 0 0.89 97 07:46 10.04.2020
5171 Clouds 5 1016 90 0 0.89 210 07:24 10.04.2020
5172 Clouds 5 1020 93 0 0.89 97 06:49 10.04.2020
5173 Clouds 5 1016 88 0 0.71 66 06:29 10.04.2020
5174 Clouds 6 1021 92 0 0.71 66 05:42 10.04.2020
5175 Clouds 6 1016 86 0 1.79 179 04:59 10.04.2020
5176 Clouds 6 1021 91 0 0.71 66 03:51 10.04.2020
5177 Clouds 6 1021 91 0 0.71 66 03:32 10.04.2020
5178 Clouds 7 1021 90 0 0.62 185 02:49 10.04.2020
5179 Clouds 7 1022 43 0 0.62 185 02:30 10.04.2020
5180 Clouds 8 1022 41 0 0.8 191 01:30 10.04.2020
5181 Clouds 8 1021 90 0 0.8 191 00:52 10.04.2020
5182 Clouds 9 1022 38 0 0.84 139 00:26 10.04.2020
5183 Clouds 9 1022 89 0 0.84 139 23:56 09.04.2020
5184 Clouds 8 1022 88 0 0.84 139 23:38 09.04.2020
5185 Clouds 9 1022 87 0 0.84 139 23:20 09.04.2020
5186 Clouds 10 1022 86 0 0.84 139 22:42 09.04.2020
5187 Clouds 11 1022 31 0 0.84 139 22:23 09.04.2020
5188 Clouds 11 1021 87 0 0.84 139 21:56 09.04.2020
5189 Clouds 11 1021 86 0 0.84 139 21:37 09.04.2020
5190 Rain 12 1017 82 0 2.68 183 21:18 09.04.2020
5191 Rain 13 1020 88 0 1.43 203 20:41 09.04.2020
5192 Rain 14 1017 81 0 2.24 211 20:21 09.04.2020
5193 Rain 15 1020 88 0 1.43 203 19:57 09.04.2020
5194 Clouds 15 1020 42 10000 4.1 200 19:36 09.04.2020
5195 Clouds 15 1020 42 10000 4.1 200 19:18 09.04.2020
5196 Clouds 16 1020 42 10000 4.1 200 18:41 09.04.2020
5197 Clouds 16 1020 42 10000 5.7 220 18:19 09.04.2020
5198 Clouds 18 1020 42 10000 6.2 210 17:41 09.04.2020
5199 Clouds 19 1020 37 10000 5.7 220 17:23 09.04.2020
5200 Clouds 19 1020 37 10000 5.7 220 16:56 09.04.2020
5201 Clouds 20 1020 37 10000 5.7 210 16:38 09.04.2020
5202 Clouds 20 1021 39 10000 4.6 220 16:18 09.04.2020
5203 Clouds 19 1021 45 10000 2.1 220 15:54 09.04.2020
5204 Clouds 19 1021 45 10000 2.1 220 15:36 09.04.2020
5205 Clouds 19 1021 45 10000 2.1 220 15:36 09.04.2020
5206 Clouds 19 1022 51 10000 1.5 0 15:18 09.04.2020
5207 Clouds 19 1022 51 10000 1 0 14:39 09.04.2020
5208 Clouds 19 1023 58 10000 2.1 0 14:20 09.04.2020
5209 Clouds 18 1023 62 10000 1 0 13:43 09.04.2020
5210 Clouds 18 1024 71 10000 1.5 0 13:25 09.04.2020
5211 Clouds 17 1024 71 10000 1.5 0 12:59 09.04.2020
5212 Clouds 17 1024 71 10000 1.5 0 12:59 09.04.2020
5213 Clouds 16 1024 76 10000 1.5 290 12:40 09.04.2020
5214 Clouds 14 1024 71 10000 1.5 0 12:21 09.04.2020
5215 Clouds 13 1024 71 10000 1.5 0 11:56 09.04.2020
5216 Clouds 13 1025 71 10000 1 0 11:37 09.04.2020
5217 Clouds 13 1024 87 10000 1 0 11:19 09.04.2020
5218 Clouds 13 1024 87 10000 1 0 10:54 09.04.2020
5219 Clouds 11 1024 87 10000 0.5 0 10:36 09.04.2020
5220 Clear 11 1022 97 0 1.42 175 10:18 09.04.2020
5221 Clear 9 1023 38 0 1.42 175 09:40 09.04.2020
5222 Clear 6 1017 93 0 1.84 38 09:21 09.04.2020
5223 Clear 5 1022 96 0 1.84 38 08:57 09.04.2020
5224 Clear 5 1022 96 0 1.84 38 08:39 09.04.2020
5225 Clear 4 1017 95 0 1.84 38 08:21 09.04.2020
5226 Clear 4 1021 96 0 1.84 38 07:40 09.04.2020
5227 Clear 4 1016 94 0 1.84 38 07:21 09.04.2020
5228 Clear 4 1021 96 0 1.84 38 06:42 09.04.2020
5229 Clear 5 1022 96 0 0.89 33 05:49 09.04.2020
5230 Clear 5 1016 94 0 0.89 33 05:24 09.04.2020
5231 Clouds 5 1022 93 0 0.92 16 02:36 09.04.2020
5232 Clouds 6 1023 94 0 0.3 293 01:46 09.04.2020
5233 Clouds 6 1023 92 0 0.3 293 01:27 09.04.2020
5234 Clouds 7 1023 93 0 0.3 293 00:54 09.04.2020
5235 Clouds 7 1023 92 0 0.3 293 00:36 09.04.2020
5236 Rain 7 1023 93 0 0.89 209 00:18 09.04.2020
5237 Rain 7 1018 92 0 0.89 209 00:18 09.04.2020
5238 Rain 7 1023 92 0 0.89 209 23:41 08.04.2020
5239 Rain 7 1019 92 0 0.89 209 23:22 08.04.2020
5240 Rain 8 1018 91 0 0.89 209 22:44 08.04.2020
5241 Rain 9 1018 92 0 0.89 207 22:25 08.04.2020
5242 Rain 8 1023 93 0 0.89 209 21:57 08.04.2020
5243 Rain 8 1023 93 0 0.89 209 21:57 08.04.2020
5244 Rain 9 1023 92 0 0.86 218 21:39 08.04.2020
5245 Rain 11 1023 93 0 0.97 229 21:21 08.04.2020
5246 Rain 10 1018 90 0 1.79 203 20:59 08.04.2020
5247 Rain 11 1023 92 0 0.97 229 20:40 08.04.2020
5248 Rain 11 1018 91 0 0.89 207 20:20 08.04.2020
5249 Rain 11 1023 93 0 0.97 229 19:58 08.04.2020
5250 Rain 12 1023 93 0 0.97 229 19:37 08.04.2020
5251 Rain 14 1023 91 0 0.97 229 19:19 08.04.2020
5252 Rain 13 1018 89 0 0.97 229 18:44 08.04.2020
5253 Rain 13 1019 89 0 2.35 207 18:24 08.04.2020
5254 Rain 12 1022 87 0 2.35 207 17:56 08.04.2020
5255 Rain 14 1022 84 0 2.35 207 17:38 08.04.2020
5256 Rain 14 1022 84 0 2.35 207 17:38 08.04.2020
5257 Rain 15 1025 48 0 2.35 207 17:18 08.04.2020
5258 Rain 16 1021 58 0 1.34 215 16:42 08.04.2020
5259 Rain 13 1019 92 0 2.35 207 16:23 08.04.2020
5260 Rain 16 1024 36 0 1.34 164 15:55 08.04.2020
5261 Rain 18 1024 35 0 1.34 164 15:37 08.04.2020
5262 Rain 17 1024 32 0 1.34 164 15:18 08.04.2020
5263 Rain 17 1022 73 0 0.45 145 14:43 08.04.2020
5264 Rain 17 1023 10 0 2.24 280 14:24 08.04.2020
5265 Rain 17 1023 10 0 4.02 303 13:54 08.04.2020
5266 Rain 17 1023 10 0 4.02 303 13:54 08.04.2020
5267 Rain 17 1022 63 0 0.45 90 13:36 08.04.2020
5268 Rain 16 1023 68 0 2.27 209 13:18 08.04.2020
5269 Rain 15 1023 70 0 2.27 209 12:41 08.04.2020
5270 Clouds 14 1024 77 0 1.68 208 12:18 08.04.2020
5271 Clouds 14 1024 77 0 1.68 208 12:18 08.04.2020
5272 Clouds 13 1024 79 0 1.68 208 11:56 08.04.2020
5273 Clouds 13 1024 78 0 1.68 208 11:38 08.04.2020
5274 Clouds 11 1020 80 0 1.68 208 11:19 08.04.2020
5275 Clouds 12 1024 86 0 1.68 208 10:55 08.04.2020
5276 Clouds 11 1024 88 0 1.68 208 10:37 08.04.2020
5277 Clouds 10 1019 88 0 1.68 208 10:18 08.04.2020
5278 Clouds 9 1019 86 0 1.68 208 09:42 08.04.2020
5279 Clouds 7 1019 89 0 1.18 42 09:20 08.04.2020
5280 Clouds 7 1019 89 0 1.18 42 08:59 08.04.2020
5281 Clouds 6 1019 90 0 1.18 42 08:40 08.04.2020
5282 Clouds 6 1019 90 0 1.18 42 08:21 08.04.2020
5283 Clouds 6 1019 90 0 1.18 42 07:43 08.04.2020
5284 Clouds 6 1023 93 0 1.18 42 07:22 08.04.2020
5285 Clouds 6 1024 51 0 1.18 42 06:41 08.04.2020
5286 Clouds 6 1019 89 0 0.45 208 05:30 08.04.2020
5287 Clouds 8 1025 49 0 0.32 119 03:21 08.04.2020
5288 Clouds 7 1025 95 0 0.32 119 02:38 08.04.2020
5289 Clouds 7 1020 88 0 2.68 205 02:18 08.04.2020
5290 Clouds 7 1020 87 0 2.24 128 01:28 08.04.2020
5291 Clouds 7 1025 95 0 0.52 174 00:50 08.04.2020
5292 Clouds 7 1025 95 0 0.52 174 00:32 08.04.2020
5293 Clouds 9 1025 95 0 1.4 212 23:57 07.04.2020
5294 Clouds 9 1025 95 0 1.4 212 23:38 07.04.2020
5295 Clouds 9 1020 87 0 1.34 170 23:19 07.04.2020
5296 Clouds 9 1020 87 0 1.34 170 23:19 07.04.2020
5297 Clouds 9 1025 95 0 1.4 212 22:56 07.04.2020
5298 Clouds 9 1025 95 0 1.4 212 22:38 07.04.2020
5299 Clouds 9 1020 85 0 1.79 214 22:18 07.04.2020
5300 Clouds 9 1020 83 0 1.34 231 21:43 07.04.2020
5301 Rain 10 1025 29 0 1.37 187 21:23 07.04.2020
5302 Rain 11 1020 84 0 2.24 218 20:59 07.04.2020
5303 Rain 10 1024 95 0 1.37 187 20:41 07.04.2020
5304 Rain 10 1020 82 0 0.89 172 20:21 07.04.2020
5305 Rain 10 1023 94 0 1.37 187 19:58 07.04.2020
5306 Rain 10 1023 94 0 1.37 187 19:38 07.04.2020
5307 Rain 10 1023 94 0 1.37 187 19:38 07.04.2020
5308 Rain 10 1019 81 0 1.34 246 19:20 07.04.2020
5309 Rain 9 1019 80 0 2.24 224 18:59 07.04.2020
5310 Rain 11 1019 81 0 1.79 200 18:40 07.04.2020
5311 Rain 11 1019 81 0 1.79 200 18:40 07.04.2020
5312 Rain 11 1019 80 0 0.89 184 18:21 07.04.2020
5313 Rain 12 1019 81 0 2.24 214 17:47 07.04.2020
5314 Rain 11 1019 80 0 1.79 205 17:24 07.04.2020
5315 Rain 12 1023 93 0 1.99 208 16:55 07.04.2020
5316 Rain 12 1023 93 0 1.99 208 16:55 07.04.2020
5317 Rain 12 1023 93 0 1.99 208 16:37 07.04.2020
5318 Rain 12 1019 79 0 1.79 141 16:19 07.04.2020
5319 Rain 11 1023 86 0 1.99 208 15:42 07.04.2020
5320 Rain 12 1019 76 0 0.89 72 15:24 07.04.2020
5321 Rain 13 1020 79 0 2.38 220 14:42 07.04.2020
5322 Rain 12 1020 79 0 2.74 211 14:23 07.04.2020
5323 Rain 12 1020 78 0 0.89 226 13:57 07.04.2020
5324 Rain 11 1020 79 0 1.34 226 13:39 07.04.2020
5325 Rain 12 1020 79 0 0.45 162 13:18 07.04.2020
5326 Rain 12 1020 80 0 1.34 219 12:56 07.04.2020
5327 Rain 12 1020 81 0 1.79 201 12:37 07.04.2020
5328 Clouds 10 1020 81 0 3.13 169 12:18 07.04.2020
5329 Clouds 10 1020 81 0 2.68 193 11:44 07.04.2020
5330 Clouds 10 1020 79 0 2.24 201 11:26 07.04.2020
5331 Clouds 10 1020 79 0 2.24 201 11:26 07.04.2020
5332 Clouds 11 1020 80 0 1.79 212 10:59 07.04.2020
5333 Clouds 10 1020 81 0 1.79 224 10:38 07.04.2020
5334 Clouds 9 1020 82 0 1.34 231 10:19 07.04.2020
5335 Clouds 10 1019 83 0 2.24 201 09:45 07.04.2020
5336 Clouds 8 1019 80 0 1.79 203 09:19 07.04.2020
5337 Clouds 8 1019 82 0 0.45 177 08:56 07.04.2020
5338 Clouds 7 1024 40 0 0.49 138 08:38 07.04.2020
5339 Clouds 7 1019 84 0 0.89 195 08:18 07.04.2020
5340 Clouds 7 1019 85 0 1.34 187 07:41 07.04.2020
5341 Clouds 8 1019 86 0 0.45 203 07:21 07.04.2020
5342 Clouds 7 1019 86 0 1.79 215 06:51 07.04.2020
5343 Clouds 7 1019 86 0 2.24 203 06:23 07.04.2020
5344 Clouds 7 1019 86 0 0.89 193 05:40 07.04.2020
5345 Clouds 7 1019 81 0 1.34 179 04:56 07.04.2020
5346 Clouds 8 1019 81 0 0.45 183 03:31 07.04.2020
5347 Clouds 8 1019 83 0 0.18 203 02:59 07.04.2020
5348 Clouds 8 1019 84 0 0.13 167 01:50 07.04.2020
5349 Clouds 8 1019 84 0 0.13 167 01:26 07.04.2020
5350 Clouds 9 1019 83 0 0.76 177 00:29 07.04.2020
5351 Clouds 9 1019 83 0 0.76 177 23:56 06.04.2020
5352 Clouds 9 1019 85 0 0.76 177 23:36 06.04.2020
5353 Clouds 9 1020 82 0 0.76 177 23:18 06.04.2020
5354 Clouds 9 1020 83 0 0.76 177 22:40 06.04.2020
5355 Clouds 9 1020 83 0 0.76 177 22:40 06.04.2020
5356 Clouds 10 1020 82 0 0.76 177 22:21 06.04.2020
5357 Clouds 11 1020 83 0 0.76 177 21:57 06.04.2020
5358 Clouds 10 1019 81 0 2.24 224 21:39 06.04.2020
5359 Clouds 12 1023 71 0 1.39 194 21:19 06.04.2020
5360 Clouds 12 1022 68 0 1.39 194 20:55 06.04.2020
5361 Clouds 12 1022 67 0 1.39 194 20:37 06.04.2020
5362 Clouds 13 1022 63 0 1.39 194 20:18 06.04.2020
5363 Clouds 15 1023 47 10000 3.1 220 19:41 06.04.2020
5364 Clouds 15 1023 47 10000 3.1 220 19:22 06.04.2020
5365 Clouds 16 1023 47 10000 3.1 220 18:57 06.04.2020
5366 Clouds 16 1023 47 10000 3.1 220 18:39 06.04.2020
5367 Clouds 16 1023 44 10000 3.6 220 18:20 06.04.2020
5368 Clouds 16 1023 41 10000 5.1 210 17:42 06.04.2020
5369 Clouds 16 1023 41 10000 5.7 210 17:20 06.04.2020
5370 Clouds 16 1022 41 10000 5.1 210 16:50 06.04.2020
5371 Clouds 16 1022 41 10000 5.1 210 16:31 06.04.2020
5372 Clouds 15 1022 38 10000 4.6 230 15:41 06.04.2020
5373 Clouds 16 1023 41 10000 2.1 210 13:46 06.04.2020
5374 Clouds 15 1023 44 10000 3.1 220 13:24 06.04.2020
5375 Clouds 14 1023 54 10000 2.1 210 13:02 06.04.2020
5376 Clouds 14 1023 57 10000 2.1 220 12:22 06.04.2020
5377 Clouds 13 1023 61 10000 1 0 11:54 06.04.2020
5378 Clouds 13 1023 61 10000 1 0 11:54 06.04.2020
5379 Clouds 12 1023 70 10000 1 0 11:33 06.04.2020
5380 Clouds 12 1023 70 10000 1 0 11:33 06.04.2020
5381 Clouds 12 1023 70 10000 1 0 11:33 06.04.2020
5382 Clouds 12 1023 70 10000 1 0 11:33 06.04.2020
5383 Clouds 12 1023 70 10000 1 0 11:33 06.04.2020
5384 Clouds 11 1023 75 10000 1 0 10:52 06.04.2020
5385 Clouds 10 1023 75 10000 1 0 10:51 06.04.2020
5386 Clouds 11 1023 75 10000 1 0 10:51 06.04.2020
5387 Clouds 10 1023 75 10000 1.5 80 10:21 06.04.2020
5388 Clouds 9 1021 75 0 2.02 213 09:47 06.04.2020
5389 Clouds 9 1021 75 0 2.02 213 09:47 06.04.2020
5390 Clouds 9 1021 75 0 2.02 213 09:47 06.04.2020
5391 Clouds 9 1021 75 0 2.02 213 09:47 06.04.2020
5392 Clouds 9 1021 75 0 2.02 213 09:47 06.04.2020
5393 Clouds 7 1015 76 0 2.02 213 09:21 06.04.2020
5394 Clouds 7 1015 76 0 2.02 213 09:21 06.04.2020
5395 Clouds 6 1015 79 0 1.79 195 08:54 06.04.2020
5396 Clouds 5 1020 78 0 0.1 135 08:30 06.04.2020
5397 Clouds 5 1019 79 0 0.1 135 07:37 06.04.2020
5398 Clouds 5 1019 79 0 0.1 135 07:37 06.04.2020
5399 Clouds 4 1019 79 0 0.1 135 06:42 06.04.2020
5400 Clouds 5 1019 79 0 0.1 135 06:23 06.04.2020
5401 Clouds 6 1019 17 0 0.1 161 04:19 06.04.2020
5402 Clouds 5 1019 18 0 0.23 118 02:57 06.04.2020
5403 Clouds 5 1019 15 0 0.37 167 02:25 06.04.2020
5404 Clouds 6 1019 77 0 0.37 167 01:23 06.04.2020
5405 Clouds 6 1019 15 0 0.37 167 00:41 06.04.2020
5406 Clouds 7 1019 15 0 0.96 163 00:21 06.04.2020
5407 Clouds 7 1019 15 0 0.96 163 00:21 06.04.2020
5408 Clouds 7 1019 15 0 0.96 163 00:21 06.04.2020
5409 Clouds 7 1019 15 0 0.96 163 00:21 06.04.2020
5410 Clouds 7 1019 12 0 0.96 163 23:43 05.04.2020
5411 Clouds 7 1018 11 0 0.96 163 23:23 05.04.2020
5412 Clouds 7 1018 74 0 0.96 163 23:23 05.04.2020
5413 Clouds 7 1018 11 0 0.96 163 22:55 05.04.2020
5414 Clouds 8 1018 11 0 0.96 163 22:37 05.04.2020
5415 Clouds 8 1016 70 0 0.89 67 22:18 05.04.2020
5416 Clouds 8 1018 68 0 0.96 163 21:44 05.04.2020
5417 Clouds 10 1017 62 0 0.96 163 21:23 05.04.2020
5418 Clouds 12 1016 54 0 2.37 206 20:26 05.04.2020
5419 Clouds 12 1016 54 0 2.37 206 20:26 05.04.2020
5420 Clouds 12 1016 60 0 0.45 110 20:26 05.04.2020
5421 Clouds 13 1016 51 0 0.45 103 19:45 05.04.2020
5422 Clouds 14 1018 31 10000 5.7 210 19:26 05.04.2020
5423 Clouds 16 1018 31 10000 5.7 210 18:50 05.04.2020
5424 Clouds 16 1018 31 10000 5.7 210 18:50 05.04.2020
5425 Clouds 16 1018 31 10000 5.7 210 18:50 05.04.2020
5426 Clouds 16 1018 31 10000 5.7 210 18:50 05.04.2020
5427 Clear 16 1018 31 10000 5.7 210 18:27 05.04.2020
5428 Clouds 16 1018 31 10000 5.7 210 18:27 05.04.2020
5429 Clouds 16 1018 31 10000 5.7 210 18:27 05.04.2020
5430 Clouds 16 1018 31 10000 5.7 210 18:27 05.04.2020
5431 Clouds 16 1018 31 10000 5.7 210 18:27 05.04.2020
5432 Clear 17 1018 27 10000 5.7 210 17:49 05.04.2020
5433 Clear 17 1018 27 10000 5.7 210 17:49 05.04.2020
5434 Clear 17 1018 27 10000 5.7 210 17:49 05.04.2020
5435 Clear 17 1018 27 10000 5.7 210 17:49 05.04.2020
5436 Clear 17 1018 27 10000 5.7 210 17:49 05.04.2020
5437 Clear 17 1018 31 10000 6.7 210 17:22 05.04.2020
5438 Clear 17 1018 29 10000 7.7 200 16:47 05.04.2020
5439 Clear 17 1018 31 10000 7.2 210 16:19 05.04.2020
5440 Clear 17 1019 31 10000 6.2 210 15:46 05.04.2020
5441 Clear 17 1019 27 10000 6.7 210 15:28 05.04.2020
5442 Clear 17 1019 27 10000 6.7 210 15:28 05.04.2020
5443 Clear 17 1019 27 10000 6.7 210 15:28 05.04.2020
5444 Clouds 17 1019 36 10000 5.1 210 14:48 05.04.2020
5445 Clouds 17 1019 36 10000 5.1 210 14:48 05.04.2020
5446 Clouds 17 1019 36 10000 5.1 210 14:48 05.04.2020
5447 Clouds 17 1019 36 10000 5.1 210 14:48 05.04.2020
5448 Clouds 16 1020 25 10000 6.2 200 13:59 05.04.2020
5449 Clouds 16 1020 25 10000 4.6 210 13:40 05.04.2020
5450 Clouds 16 1020 25 10000 4.6 210 13:40 05.04.2020
5451 Clouds 16 1020 25 10000 4.6 210 13:40 05.04.2020
5452 Clouds 16 1020 25 10000 4.6 210 13:40 05.04.2020
5453 Clouds 16 1020 25 10000 4.6 210 13:40 05.04.2020
5454 Clouds 14 1021 50 10000 2.1 0 12:21 05.04.2020
5455 Clouds 12 1021 65 10000 1 0 11:40 05.04.2020
5456 Clouds 12 1021 65 10000 1 0 11:20 05.04.2020
5457 Clouds 10 1022 81 10000 1 0 10:47 05.04.2020
5458 Clouds 8 1022 81 10000 1 0 10:23 05.04.2020
5459 Clear 6 1012 75 0 3.13 249 09:55 05.04.2020
5460 Clear 5 1019 85 0 2.42 190 09:27 05.04.2020
5461 Clouds 3 1018 29 0 0.45 102 08:32 05.04.2020
5462 Clouds 3 1017 30 0 0.73 169 07:05 05.04.2020
5463 Clouds 4 1016 90 0 0.53 172 04:31 05.04.2020
5464 Clouds 4 1017 32 0 0.53 172 03:28 05.04.2020
5465 Clouds 5 1012 70 0 2.68 204 02:19 05.04.2020
5466 Clouds 5 1013 61 0 1.79 201 01:42 05.04.2020
5467 Clouds 5 1013 58 0 0.89 218 01:19 05.04.2020
5468 Clouds 5 1013 62 0 1.34 212 01:18 05.04.2020
5469 Clouds 7 1018 30 0 1.26 191 00:37 05.04.2020
5470 Clouds 7 1018 30 0 0.85 170 00:18 05.04.2020
5471 Clouds 7 1018 29 0 0.85 170 23:41 04.04.2020
5472 Clouds 7 1018 28 0 0.85 170 23:21 04.04.2020
5473 Clouds 8 1018 26 0 0.85 170 22:57 04.04.2020
5474 Clouds 8 1019 76 0 0.85 170 22:39 04.04.2020
5475 Clouds 8 1019 73 0 0.85 170 22:20 04.04.2020
5476 Clouds 10 1018 71 0 0.85 170 21:57 04.04.2020
5477 Clouds 10 1016 77 0 0.85 170 21:38 04.04.2020
5478 Clear 11 1017 12 0 1.38 211 21:19 04.04.2020
5479 Clear 11 1017 12 0 1.38 211 21:19 04.04.2020
5480 Clear 11 1016 77 0 1.4 211 20:54 04.04.2020
5481 Clear 12 1017 63 0 0.89 117 20:36 04.04.2020
5482 Clear 13 1016 62 0 0.45 117 20:18 04.04.2020
5483 Clear 14 1016 58 0 1.4 211 19:41 04.04.2020
5484 Clouds 15 1017 42 10000 5.7 220 19:20 04.04.2020
5485 Clouds 15 1017 42 10000 5.7 220 18:59 04.04.2020
5486 Clouds 15 1017 42 10000 5.7 220 18:59 04.04.2020
5487 Clouds 16 1017 42 10000 5.7 220 18:39 04.04.2020
5488 Clouds 16 1017 42 10000 5.7 220 18:21 04.04.2020
5489 Clouds 16 1017 42 10000 5.7 220 17:58 04.04.2020
5490 Clouds 16 1017 42 10000 5.7 220 17:38 04.04.2020
5491 Clouds 17 1017 42 10000 5.7 220 17:19 04.04.2020
5492 Clouds 17 1017 42 10000 5.7 220 16:44 04.04.2020
5493 Clouds 17 1018 42 10000 5.1 220 16:24 04.04.2020
5494 Clouds 17 1018 42 10000 4.6 220 15:58 04.04.2020
5495 Clouds 17 1018 39 10000 4.1 220 15:38 04.04.2020
5496 Clouds 17 1018 39 10000 4.1 220 15:19 04.04.2020
5497 Clouds 17 1018 39 10000 4.1 220 15:19 04.04.2020
5498 Clouds 17 1018 41 10000 4.6 220 14:46 04.04.2020
5499 Clouds 16 1019 41 10000 3.6 230 14:25 04.04.2020
5500 Clouds 16 1019 44 10000 2.6 220 14:00 04.04.2020
5501 Clouds 16 1019 50 10000 3.1 210 13:41 04.04.2020
5502 Clouds 16 1019 50 10000 3.1 210 13:41 04.04.2020
5503 Clouds 16 1019 50 10000 3.1 210 13:20 04.04.2020
5504 Clouds 16 1020 46 10000 1 0 12:57 04.04.2020
5505 Clouds 15 1020 57 10000 1 0 12:39 04.04.2020
5506 Clouds 12 1020 57 10000 1 0 12:19 04.04.2020
5507 Clouds 11 1021 52 10000 1 0 11:41 04.04.2020
5508 Clouds 10 1021 52 10000 1 0 11:23 04.04.2020
5509 Clouds 10 1021 39 10000 1.5 60 10:58 04.04.2020
5510 Clouds 9 1021 39 10000 1 0 10:40 04.04.2020
5511 Clouds 9 1021 39 10000 1 0 10:21 04.04.2020
5512 Clear 5 1012 85 0 1.54 203 09:55 04.04.2020
5513 Clear 5 1012 86 0 1.54 203 09:37 04.04.2020
5514 Clear 3 1018 79 0 0.83 38 09:19 04.04.2020
5515 Clear 1 1012 82 0 0.83 38 08:42 04.04.2020
5516 Clear 1 1018 83 0 0.83 38 08:23 04.04.2020
5517 Clear 1 1011 86 0 0.83 38 07:47 04.04.2020
5518 Clear 1 1018 84 0 0.83 38 07:29 04.04.2020
5519 Clear 2 1017 84 0 0.83 38 06:58 04.04.2020
5520 Clear 2 1017 83 0 0.62 22 06:21 04.04.2020
5521 Clear 1 1019 42 0 0.62 22 05:51 04.04.2020
5522 Clear 2 1018 81 0 0.62 22 05:32 04.04.2020
5523 Clear 3 1019 42 0 0.62 22 04:33 04.04.2020
5524 Clear 3 1019 42 0 0.62 22 03:55 04.04.2020
5525 Clear 4 1017 85 0 0.62 22 03:27 04.04.2020
5526 Clear 4 1018 91 0 0.53 88 02:40 04.04.2020
5527 Clear 4 1019 41 0 0.48 88 02:22 04.04.2020
5528 Clear 5 1017 91 0 0.48 88 01:27 04.04.2020
5529 Clear 5 1020 39 0 0.48 88 00:55 04.04.2020
5530 Clear 5 1020 37 0 0.48 88 00:30 04.04.2020
5531 Clear 6 1020 38 0 1.51 52 23:55 03.04.2020
5532 Clear 6 1020 38 0 1.51 52 23:36 03.04.2020
5533 Clear 6 1020 33 0 1.51 52 23:18 03.04.2020
5534 Clear 7 1020 29 0 1.51 52 22:40 03.04.2020
5535 Clear 7 1020 27 0 1.51 52 22:19 03.04.2020
5536 Clear 7 1019 21 0 1.51 52 21:56 03.04.2020
5537 Clear 8 1015 79 0 1.51 52 21:37 03.04.2020
5538 Clear 9 1019 14 0 2.47 16 21:19 03.04.2020
5539 Clear 10 1018 14 0 1.34 10 20:54 03.04.2020
5540 Clear 10 1014 74 0 2.4 16 20:36 03.04.2020
5541 Clear 11 1014 70 0 2.4 16 20:18 03.04.2020
5542 Clear 11 1017 76 0 2.4 16 19:54 03.04.2020
5543 Clear 11 1014 66 0 0.45 110 19:36 03.04.2020
5544 Clear 11 1014 66 0 0.45 110 19:36 03.04.2020
5545 Clouds 12 1013 62 10000 6.2 230 19:18 03.04.2020
5546 Clouds 13 1013 62 10000 6.2 230 18:42 03.04.2020
5547 Clouds 13 1013 62 10000 6.2 230 18:23 03.04.2020
5548 Clouds 13 1013 62 10000 6.2 230 18:23 03.04.2020
5549 Clouds 14 1013 54 10000 5.1 230 17:58 03.04.2020
5550 Clouds 14 1013 51 10000 4.6 230 17:40 03.04.2020
5551 Clouds 14 1013 51 10000 4.6 230 17:40 03.04.2020
5552 Clouds 14 1013 51 10000 4.6 230 17:19 03.04.2020
5553 Clouds 14 1013 44 10000 5.1 210 17:19 03.04.2020
5554 Clouds 14 1013 44 10000 5.1 210 16:54 03.04.2020
5555 Clouds 14 1013 44 10000 5.1 210 16:54 03.04.2020
5556 Clouds 14 1013 44 10000 5.1 220 16:36 03.04.2020
5557 Clouds 14 1013 44 10000 5.1 220 16:18 03.04.2020
5558 Clouds 14 1014 50 10000 5.7 220 15:41 03.04.2020
5559 Clouds 13 1014 50 10000 5.7 220 15:22 03.04.2020
5560 Clouds 13 1017 51 0 1.34 157 14:57 03.04.2020
5561 Clouds 13 1013 65 0 0.45 72 14:39 03.04.2020
5562 Clouds 13 1015 50 10000 2.1 200 14:21 03.04.2020
5563 Clouds 12 1015 50 10000 2.1 200 13:46 03.04.2020
5564 Clouds 12 1015 50 10000 2.1 200 13:26 03.04.2020
5565 Clouds 11 1015 53 10000 1.5 0 12:56 03.04.2020
5566 Clouds 11 1015 53 10000 1.5 0 12:38 03.04.2020
5567 Clouds 10 1015 53 10000 1.5 0 12:18 03.04.2020
5568 Clouds 10 1015 61 10000 1.5 190 11:55 03.04.2020
5569 Clouds 9 1015 44 10000 1 0 11:37 03.04.2020
5570 Clouds 8 1015 44 10000 1 0 11:18 03.04.2020
5571 Clouds 8 1015 44 10000 1 0 11:18 03.04.2020
5572 Clouds 8 1015 70 10000 0.5 0 10:55 03.04.2020
5573 Clouds 7 1015 86 10000 0.5 0 10:36 03.04.2020
5574 Clouds 7 1015 86 10000 0.5 0 10:18 03.04.2020
5575 Clouds 6 1014 72 0 2.55 4 09:40 03.04.2020
5576 Clouds 5 1017 93 0 2.55 4 09:22 03.04.2020
5577 Clouds 2 1006 96 0 2.24 359 08:59 03.04.2020
5578 Clouds 2 1006 96 0 1.34 13 08:40 03.04.2020
5579 Clouds 2 1006 96 0 1.34 13 08:40 03.04.2020
5580 Clouds 3 1006 95 0 1.34 20 08:22 03.04.2020
5581 Clouds 2 1018 41 0 3.03 11 07:50 03.04.2020
5582 Clouds 2 1006 96 0 0.89 3 07:32 03.04.2020
5583 Clouds 3 1006 96 0 1.34 305 06:50 03.04.2020
5584 Clouds 3 1006 96 0 2.24 8 06:25 03.04.2020
5585 Clouds 3 1005 92 0 0.89 0 05:40 03.04.2020
5586 Clouds 3 1006 95 0 1.79 4 03:45 03.04.2020
5587 Clouds 3 1006 92 0 2.24 20 03:23 03.04.2020
5588 Rain 4 1006 92 0 1.34 14 02:28 03.04.2020
5589 Rain 5 1017 51 0 2.39 7 01:23 03.04.2020
5590 Rain 5 1017 49 0 2.39 7 00:40 03.04.2020
5591 Clouds 6 1017 49 0 2.76 10 00:20 03.04.2020
5592 Clouds 6 1017 46 0 2.76 10 23:42 02.04.2020
5593 Clouds 6 1017 45 0 2.76 10 23:23 02.04.2020
5594 Clouds 7 1012 78 0 2.76 10 22:58 02.04.2020
5595 Clouds 7 1017 42 0 2.76 10 22:39 02.04.2020
5596 Clouds 7 1017 42 0 2.76 10 22:20 02.04.2020
5597 Clouds 8 1012 93 0 2.76 10 21:54 02.04.2020
5598 Clouds 7 1012 95 0 2.76 10 21:36 02.04.2020
5599 Rain 7 1012 80 0 2.4 11 21:18 02.04.2020
5600 Rain 8 1016 38 0 1.34 305 20:42 02.04.2020
5601 Rain 8 1016 40 0 1.34 331 20:21 02.04.2020
5602 Rain 8 1015 41 0 0.45 6 19:44 02.04.2020
5603 Rain 9 1010 71 10000 3.1 230 19:21 02.04.2020
5604 Rain 9 1010 71 10000 3.1 230 18:59 02.04.2020
5605 Rain 9 1010 71 10000 3.1 230 18:39 02.04.2020
5606 Rain 9 1010 71 10000 3.1 230 18:39 02.04.2020
5607 Clouds 9 1010 66 10000 3.6 210 18:20 02.04.2020
5608 Clouds 10 1010 66 10000 3.6 210 17:56 02.04.2020
5609 Clouds 10 1010 71 10000 3.6 220 17:38 02.04.2020
5610 Clouds 10 1010 71 10000 3.6 220 17:19 02.04.2020
5611 Clouds 10 1011 76 10000 4.1 230 16:55 02.04.2020
5612 Rain 10 1011 71 10000 4.6 220 16:37 02.04.2020
5613 Rain 9 1011 71 10000 4.6 220 16:19 02.04.2020
5614 Clouds 9 1011 71 10000 3.1 190 15:44 02.04.2020
5615 Rain 9 1011 62 10000 3.1 220 15:21 02.04.2020
5616 Clouds 9 1011 66 10000 2.1 210 14:59 02.04.2020
5617 Clouds 9 1011 66 10000 2.1 210 14:39 02.04.2020
5618 Clouds 8 1011 66 10000 2.1 210 14:19 02.04.2020
5619 Clouds 8 1011 66 10000 1.5 0 13:56 02.04.2020
5620 Clouds 8 1011 71 10000 1.5 190 13:38 02.04.2020
5621 Clouds 8 1011 71 10000 1.5 190 13:19 02.04.2020
5622 Clouds 8 1011 76 10000 1.5 190 12:48 02.04.2020
5623 Clouds 8 1012 81 10000 1.5 0 12:21 02.04.2020
5624 Clouds 8 1011 87 10000 1 0 11:58 02.04.2020
5625 Clouds 7 1011 87 10000 1 0 11:40 02.04.2020
5626 Clouds 7 1011 87 10000 1 0 11:21 02.04.2020
5627 Clouds 7 1011 100 10000 1 0 10:58 02.04.2020
5628 Clouds 7 1011 100 10000 1 0 10:39 02.04.2020
5629 Clouds 6 1010 96 0 1.01 19 10:21 02.04.2020
5630 Clouds 6 1010 96 0 1.01 19 09:59 02.04.2020
5631 Clouds 6 1010 96 0 1.01 19 09:59 02.04.2020
5632 Clouds 6 1010 96 0 1.01 19 09:41 02.04.2020
5633 Clouds 6 1010 96 0 1.05 22 09:23 02.04.2020
5634 Rain 6 1010 96 0 1.26 37 08:57 02.04.2020
5635 Rain 5 1009 96 0 1.26 37 08:38 02.04.2020
5636 Rain 5 1009 96 0 1.26 37 08:19 02.04.2020
5637 Rain 5 1013 50 0 1.26 37 07:42 02.04.2020
5638 Rain 5 1009 96 0 1.26 37 07:19 02.04.2020
5639 Rain 5 1009 96 0 1.26 37 06:26 02.04.2020
5640 Clouds 5 1009 96 0 0.39 147 05:59 02.04.2020
5641 Clouds 5 1012 65 0 0.89 11 05:41 02.04.2020
5642 Clouds 5 1010 95 0 0.62 129 02:59 02.04.2020
5643 Clouds 6 1011 94 0 0.86 150 01:30 02.04.2020
5644 Clouds 5 1004 94 0 0.86 150 00:42 02.04.2020
5645 Clouds 5 1011 94 0 0.86 150 00:24 02.04.2020
5646 Clouds 6 1005 89 0 0.71 145 23:41 01.04.2020
5647 Clouds 6 1011 95 0 0.71 145 23:20 01.04.2020
5648 Clouds 6 1011 95 0 0.71 145 22:58 01.04.2020
5649 Clouds 6 1011 95 0 0.71 145 22:39 01.04.2020
5650 Clouds 6 1005 88 0 0.71 145 22:20 01.04.2020
5651 Clouds 6 1005 87 0 0.71 145 21:41 01.04.2020
5652 Rain 7 1011 94 0 1.19 172 21:19 01.04.2020
5653 Rain 7 1011 94 0 1.19 172 20:57 01.04.2020
5654 Rain 7 1010 93 0 1.19 172 20:38 01.04.2020
5655 Rain 7 1004 86 0 1.19 172 20:20 01.04.2020
5656 Rain 7 1010 92 0 1.19 172 19:58 01.04.2020
5657 Rain 6 1011 90 0 1.19 172 19:39 01.04.2020
5658 Rain 7 1004 85 0 1.19 172 19:19 01.04.2020
5659 Rain 8 1004 85 0 1.19 172 18:42 01.04.2020
5660 Rain 8 1004 85 0 1.19 172 18:42 01.04.2020
5661 Rain 8 1011 86 0 1.19 172 18:23 01.04.2020
5662 Rain 9 1011 87 0 1.7 169 17:57 01.04.2020
5663 Rain 9 1011 86 0 1.7 169 17:38 01.04.2020
5664 Rain 8 1005 82 0 1.7 169 17:19 01.04.2020
5665 Rain 8 1005 82 0 1.7 169 17:19 01.04.2020
5666 Rain 9 1011 88 0 1.7 169 16:58 01.04.2020
5667 Rain 9 1011 87 0 1.7 169 16:39 01.04.2020
5668 Rain 9 1011 87 0 1.7 169 16:39 01.04.2020
5669 Rain 9 1005 82 0 1.7 169 16:20 01.04.2020
5670 Rain 9 1012 91 0 1.7 169 15:56 01.04.2020
5671 Rain 9 1005 81 0 0.89 42 15:37 01.04.2020
5672 Clouds 9 1005 83 0 1.75 151 15:18 01.04.2020
5673 Clouds 8 1012 85 0 1.79 146 14:40 01.04.2020
5674 Clouds 8 1012 81 0 0.45 122 14:22 01.04.2020
5675 Clouds 9 1006 81 0 1.34 233 13:59 01.04.2020
5676 Clouds 9 1006 81 0 0.45 207 13:40 01.04.2020
5677 Clouds 9 1006 82 0 1.82 156 13:20 01.04.2020
5678 Clouds 9 1006 82 0 1.82 156 12:59 01.04.2020
5679 Clouds 9 1006 84 0 1.34 146 12:40 01.04.2020
5680 Clouds 8 1007 83 0 3.13 190 12:21 01.04.2020
5681 Clouds 8 1014 23 0 2.24 302 11:56 01.04.2020
5682 Clouds 8 1006 84 0 1.79 214 11:37 01.04.2020
5683 Clouds 8 1007 84 0 1.79 214 11:37 01.04.2020
5684 Clouds 7 1007 85 0 2.68 231 11:18 01.04.2020
5685 Clouds 6 1007 88 0 2.68 208 10:39 01.04.2020
5686 Clouds 6 1006 88 0 2.24 198 10:21 01.04.2020
5687 Clouds 5 1014 95 0 1.91 156 09:59 01.04.2020
5688 Clouds 5 1014 95 0 1.91 156 09:59 01.04.2020
5689 Clouds 5 1014 96 0 1.91 156 09:40 01.04.2020
5690 Clouds 6 1014 61 0 1.46 99 09:20 01.04.2020
5691 Clouds 6 1014 62 0 1.29 109 08:44 01.04.2020
5692 Clouds 5 1014 96 0 1.29 109 08:19 01.04.2020
5693 Clouds 5 1014 96 0 1.29 109 07:56 01.04.2020
5694 Clouds 5 1014 96 0 1.29 109 07:38 01.04.2020
5695 Clouds 5 1006 93 0 3.13 200 07:18 01.04.2020
5696 Clouds 5 1014 95 0 1.29 109 06:39 01.04.2020
5697 Clouds 6 1014 52 0 1.31 149 06:20 01.04.2020
5698 Clouds 6 1014 95 0 1.31 149 04:55 01.04.2020
5699 Clouds 6 1014 95 0 1.31 149 03:36 01.04.2020
5700 Clouds 6 1014 95 0 1.41 152 02:59 01.04.2020
5701 Clouds 6 1014 95 0 1.63 158 02:24 01.04.2020
5702 Clouds 6 1015 95 0 1.63 158 01:43 01.04.2020
5703 Clouds 6 1015 95 0 1.63 158 01:23 01.04.2020
5704 Clouds 6 1015 95 0 1.63 158 00:47 01.04.2020
5705 Clouds 6 1015 95 0 1.63 158 00:21 01.04.2020
5706 Clouds 6 1015 94 0 1.5 143 23:49 31.03.2020
5707 Clouds 6 1015 94 0 1.5 143 23:28 31.03.2020
5708 Clouds 6 1015 94 0 1.5 143 22:59 31.03.2020
5709 Clouds 6 1015 94 0 1.5 143 22:38 31.03.2020
5710 Clouds 6 1015 93 0 1.5 143 22:20 31.03.2020
5711 Clouds 6 1015 93 0 1.5 143 21:57 31.03.2020
5712 Clouds 6 1015 93 0 1.5 143 21:39 31.03.2020
5713 Clouds 7 1015 24 0 1.57 139 21:20 31.03.2020
5714 Clouds 7 1015 24 0 1.57 139 21:20 31.03.2020
5715 Clouds 7 1015 24 0 1.57 139 21:20 31.03.2020
5716 Clouds 7 1014 90 0 1.54 135 20:56 31.03.2020
5717 Clouds 7 1014 88 0 1.54 135 20:37 31.03.2020
5718 Clouds 7 1013 86 0 1.54 135 20:18 31.03.2020
5719 Clouds 7 1013 86 0 1.54 135 19:42 31.03.2020
5720 Clouds 8 1013 85 0 1.54 135 19:24 31.03.2020
5721 Clouds 8 1013 84 0 1.54 135 18:59 31.03.2020
5722 Clouds 8 1013 83 0 1.54 135 18:41 31.03.2020
5723 Rain 9 1013 78 0 1.34 117 18:19 31.03.2020
5724 Rain 8 1013 78 0 1.34 79 17:55 31.03.2020
5725 Rain 9 1013 79 0 1.82 170 17:37 31.03.2020
5726 Rain 9 1013 79 0 1.82 170 17:37 31.03.2020
5727 Rain 9 1013 81 0 1.82 170 17:19 31.03.2020
5728 Rain 10 1014 77 0 0.89 156 16:41 31.03.2020
5729 Rain 10 1014 85 0 1.82 170 16:20 31.03.2020
5730 Rain 10 1014 81 0 1.82 170 15:58 31.03.2020
5731 Rain 10 1014 81 0 1.82 170 15:58 31.03.2020
5732 Rain 10 1014 77 0 0.89 149 15:40 31.03.2020
5733 Rain 10 1014 78 0 1.82 170 15:21 31.03.2020
5734 Clouds 11 1013 12 0 2.68 323 14:57 31.03.2020
5735 Clouds 10 1013 13 0 2.68 253 14:39 31.03.2020
5736 Clouds 10 1013 12 0 3.13 267 14:20 31.03.2020
5737 Clouds 9 1014 13 0 3.13 259 13:43 31.03.2020
5738 Clouds 9 1014 13 0 3.13 296 13:20 31.03.2020
5739 Clouds 9 1014 13 0 2.68 290 13:20 31.03.2020
5740 Clouds 9 1014 14 0 3.13 322 12:57 31.03.2020
5741 Clouds 9 1013 87 0 1.94 168 12:39 31.03.2020
5742 Clouds 8 1013 87 0 1.75 155 12:19 31.03.2020
5743 Clouds 8 1014 17 0 2.24 16 11:39 31.03.2020
5744 Clouds 8 1014 15 0 2.24 345 11:20 31.03.2020
5745 Clouds 7 1015 15 0 2.24 250 10:58 31.03.2020
5746 Clouds 6 1015 19 0 1.75 155 10:40 31.03.2020
5747 Clouds 5 1014 95 0 1.75 155 10:21 31.03.2020
5748 Clouds 5 1014 96 0 1.75 155 09:56 31.03.2020
5749 Clouds 4 1014 96 0 1.75 155 09:37 31.03.2020
5750 Clouds 4 1015 34 0 1.36 112 09:19 31.03.2020
5751 Clouds 4 1015 41 0 1.36 112 08:56 31.03.2020
5752 Clouds 4 1015 41 0 1.36 112 08:56 31.03.2020
5753 Clouds 3 1015 43 0 1.36 112 08:38 31.03.2020
5754 Clouds 3 1015 42 0 1.36 112 08:19 31.03.2020
5755 Clouds 3 1015 41 0 1.36 112 07:54 31.03.2020
5756 Clouds 3 1012 96 0 1.36 112 07:36 31.03.2020
5757 Clouds 3 1014 91 0 1.36 112 07:18 31.03.2020
5758 Clouds 3 1015 40 0 1.36 112 06:42 31.03.2020
5759 Clouds 4 1012 96 0 1.27 122 05:53 31.03.2020
5760 Clouds 4 1015 40 0 1.27 122 05:26 31.03.2020
5761 Snow 3 1014 95 0 0.78 144 02:57 31.03.2020
5762 Clouds 3 1014 95 0 0.63 124 01:47 31.03.2020
5763 Clouds 3 1014 95 0 0.63 124 01:27 31.03.2020
5764 Clouds 3 1014 95 0 0.63 124 00:44 31.03.2020
5765 Clouds 3 1014 95 0 0.63 124 00:23 31.03.2020
5766 Snow 3 1014 94 0 1.57 162 23:41 30.03.2020
5767 Snow 3 1014 94 0 1.57 162 23:20 30.03.2020
5768 Snow 3 1014 94 0 1.57 162 23:20 30.03.2020
5769 Snow 3 1014 94 0 1.57 162 22:58 30.03.2020
5770 Snow 3 1014 94 0 1.57 162 22:58 30.03.2020
5771 Snow 3 1014 94 0 1.57 162 22:39 30.03.2020
5772 Snow 3 1014 93 0 1.57 162 22:19 30.03.2020
5773 Snow 3 1014 93 0 1.57 162 21:57 30.03.2020
5774 Snow 3 1014 93 0 1.57 162 21:38 30.03.2020
5775 Snow 3 1013 93 0 1.59 176 21:20 30.03.2020
5776 Snow 3 1013 93 0 1.57 162 21:20 30.03.2020
5777 Snow 3 1013 92 0 1.33 162 20:58 30.03.2020
5778 Snow 3 1013 92 0 1.33 162 20:39 30.03.2020
5779 Snow 4 1017 30 0 1.34 246 20:19 30.03.2020
5780 Clouds 4 1012 75 10000 2.6 230 19:54 30.03.2020
5781 Clouds 4 1012 75 10000 2.6 230 19:36 30.03.2020
5782 Clouds 4 1012 75 10000 2.6 230 19:18 30.03.2020
5783 Clouds 4 1012 75 10000 2.6 240 18:41 30.03.2020
5784 Clouds 4 1012 75 10000 2.6 240 18:23 30.03.2020
5785 Clouds 4 1012 81 10000 1 0 17:57 30.03.2020
5786 Rain 4 1012 87 8000 1 0 17:39 30.03.2020
5787 Rain 4 1012 87 8000 1 0 17:19 30.03.2020
5788 Clouds 4 1012 80 6000 3.1 230 16:57 30.03.2020
5789 Rain 4 1012 93 6000 3.1 230 16:39 30.03.2020
5790 Rain 4 1013 100 6000 4.6 240 16:20 30.03.2020
5791 Rain 4 1013 100 6000 4.6 240 15:55 30.03.2020
5792 Clouds 4 1013 80 10000 3.6 220 15:37 30.03.2020
5793 Clouds 4 1013 80 10000 3.6 220 15:18 30.03.2020
5794 Clouds 4 1013 80 10000 3.6 220 14:55 30.03.2020
5795 Clouds 4 1013 86 10000 3.6 230 14:36 30.03.2020
5796 Clouds 4 1013 86 10000 3.6 230 14:18 30.03.2020
5797 Clouds 4 1013 86 10000 3.6 230 13:43 30.03.2020
5798 Clouds 4 1013 86 10000 3.6 230 13:21 30.03.2020
5799 Clouds 4 1013 86 10000 3.6 230 13:21 30.03.2020
5800 Clouds 3 1013 93 10000 5.1 190 12:58 30.03.2020
5801 Clouds 3 1013 86 10000 7.2 210 12:40 30.03.2020
5802 Clouds 3 1013 86 10000 7.2 210 12:19 30.03.2020
5803 Clouds 3 1013 93 9000 6.2 220 11:57 30.03.2020
5804 Clouds 3 1012 93 6000 5.7 210 11:38 30.03.2020
5805 Clouds 3 1012 93 6000 5.7 210 11:38 30.03.2020
5806 Clouds 3 1012 93 6000 5.7 210 11:20 30.03.2020
5807 Snow 3 1010 92 0 0.59 99 10:40 30.03.2020
5808 Snow 3 1017 51 0 1.34 21 10:22 30.03.2020
5809 Snow 3 1010 92 0 0.59 99 09:56 30.03.2020
5810 Snow 3 1010 93 0 0.59 99 09:38 30.03.2020
5811 Snow 3 1010 92 0 2.33 2 09:18 30.03.2020
5812 Snow 3 1016 68 0 2.3 15 08:41 30.03.2020
5813 Snow 3 1016 68 0 2.3 15 08:22 30.03.2020
5814 Snow 3 1016 68 0 2.3 15 08:22 30.03.2020
5815 Snow 3 1009 93 0 2.3 15 07:49 30.03.2020
5816 Snow 3 1009 94 0 2.3 15 07:27 30.03.2020
5817 Snow 4 1009 93 0 2.3 15 06:54 30.03.2020
5818 Snow 4 1009 94 0 1.36 11 06:31 30.03.2020
5819 Snow 4 1016 56 0 2.3 15 06:31 30.03.2020
5820 Snow 4 1009 94 0 1.36 11 05:52 30.03.2020
5821 Snow 5 1016 54 0 1.34 335 05:18 30.03.2020
5822 Snow 5 1010 93 0 1.36 11 04:22 30.03.2020
5823 Snow 4 1011 92 0 1.36 11 03:34 30.03.2020
5824 Rain 6 1012 91 0 1.71 25 02:37 30.03.2020
5825 Rain 6 1017 38 0 2.68 295 01:26 30.03.2020
5826 Rain 7 1016 88 0 1.51 25 00:33 30.03.2020
5827 Clouds 7 1017 29 0 2.68 264 23:59 29.03.2020
5828 Clouds 7 1017 29 0 3.13 259 23:41 29.03.2020
5829 Clouds 7 1017 28 0 3.58 253 23:22 29.03.2020
5830 Clouds 8 1016 84 0 2.17 16 22:57 29.03.2020
5831 Clouds 8 1017 26 0 3.13 248 22:37 29.03.2020
5832 Clouds 8 1017 21 0 2.24 277 22:18 29.03.2020
5833 Clouds 9 1012 56 0 0.89 98 21:40 29.03.2020
5834 Clouds 9 1017 14 0 1.34 300 21:21 29.03.2020
5835 Rain 9 1017 14 0 2.63 3 20:56 29.03.2020
5836 Rain 10 1017 14 0 2.63 3 20:38 29.03.2020
5837 Clouds 10 1013 49 10000 3.1 0 20:19 29.03.2020
5838 Clouds 10 1013 49 10000 3.1 0 19:58 29.03.2020
5839 Clouds 10 1013 49 10000 3.1 0 19:40 29.03.2020
5840 Clouds 11 1013 49 10000 3.1 0 19:22 29.03.2020
5841 Clouds 12 1012 30 10000 6.2 310 18:57 29.03.2020
5842 Clouds 12 1012 49 10000 4.1 250 18:38 29.03.2020
5843 Clouds 12 1012 40 10000 4.1 250 18:19 29.03.2020
5844 Clouds 13 1012 48 10000 5.1 230 17:56 29.03.2020
5845 Clouds 14 1012 44 10000 3.1 230 17:37 29.03.2020
5846 Clouds 15 1012 44 10000 3.1 230 17:18 29.03.2020
5847 Clouds 15 1012 44 10000 2.6 240 16:56 29.03.2020
5848 Clouds 15 1012 27 10000 2.1 0 16:38 29.03.2020
5849 Clouds 16 1012 27 10000 2.1 0 16:18 29.03.2020
5850 Clouds 16 1013 27 10000 3.1 70 15:41 29.03.2020
5851 Clouds 15 1013 27 10000 3.1 70 15:23 29.03.2020
5852 Clouds 15 1013 27 10000 3.1 70 15:23 29.03.2020
5853 Clouds 16 1013 25 10000 1.5 0 14:57 29.03.2020
5854 Clouds 16 1014 29 10000 1.5 160 14:39 29.03.2020
5855 Clouds 16 1014 29 10000 1.5 160 14:20 29.03.2020
5856 Clouds 16 1014 29 10000 1.5 160 13:57 29.03.2020
5857 Clouds 16 1014 29 10000 1.5 160 13:57 29.03.2020
5858 Clouds 15 1014 30 10000 1 0 13:39 29.03.2020
5859 Clouds 15 1014 30 10000 1 0 13:19 29.03.2020
5860 Clouds 14 1015 47 10000 1 0 12:55 29.03.2020
5861 Clouds 13 1016 53 10000 1 0 12:37 29.03.2020
5862 Clouds 13 1016 61 10000 0.5 0 12:18 29.03.2020
5863 Clouds 12 1016 65 10000 0.5 0 11:40 29.03.2020
5864 Clouds 11 1017 75 10000 1 0 11:21 29.03.2020
5865 Clouds 11 1017 75 10000 1 0 10:59 29.03.2020
5866 Clouds 9 1017 75 10000 1.5 60 10:38 29.03.2020
5867 Clouds 8 1017 75 10000 1.5 60 10:18 29.03.2020
5868 Clouds 7 1016 66 0 2.61 8 09:40 29.03.2020
5869 Clouds 4 1010 70 0 0.45 0 09:19 29.03.2020
5870 Clouds 3 1010 72 0 0.45 204 08:53 29.03.2020
5871 Clouds 3 1020 47 0 3.34 20 08:28 29.03.2020
5872 Clouds 3 1020 47 0 3.34 20 08:28 29.03.2020
5873 Clouds 3 1010 76 0 3.34 20 07:58 29.03.2020
5874 Clouds 3 1010 76 0 3.34 20 07:58 29.03.2020
5875 Clouds 3 1016 75 0 3.34 20 07:39 29.03.2020
5876 Clouds 3 1016 75 0 3.34 20 07:39 29.03.2020
5877 Clouds 3 1009 77 0 0.89 7 07:20 29.03.2020
5878 Clear 3 1010 87 0 2.67 21 04:59 29.03.2020
5879 Clear 3 1010 87 0 2.67 21 04:59 29.03.2020
5880 Clear 4 1020 37 0 2.67 21 03:48 29.03.2020
5881 Clear 4 1020 34 0 2.67 21 03:26 29.03.2020
5882 Clouds 4 1011 90 0 2.62 25 01:50 29.03.2020
5883 Clouds 4 1011 89 0 2.6 20 01:23 29.03.2020
5884 Clouds 4 1011 87 0 2.6 20 00:53 29.03.2020
5885 Clouds 4 1011 89 0 2.6 20 00:29 29.03.2020
5886 Clouds 5 1012 85 0 2.6 20 23:42 28.03.2020
5887 Clouds 5 1012 85 0 0.45 11 23:23 28.03.2020
5888 Clouds 5 1011 85 0 2.37 14 22:57 28.03.2020
5889 Clouds 6 1021 27 0 2.37 14 22:37 28.03.2020
5890 Clouds 6 1021 22 0 2.37 14 22:18 28.03.2020
5891 Clouds 5 1012 92 0 1.79 27 21:41 28.03.2020
5892 Clouds 7 1020 17 0 2.37 14 21:23 28.03.2020
5893 Clouds 7 1020 14 0 2.37 14 20:58 28.03.2020
5894 Clouds 6 1011 90 0 0.45 359 20:39 28.03.2020
5895 Clouds 9 1019 11 0 1.34 40 20:21 28.03.2020
5896 Rain 9 1019 11 0 1.34 301 19:56 28.03.2020
5897 Rain 8 1011 85 0 0.89 31 19:37 28.03.2020
5898 Rain 11 1017 60 0 1.36 359 19:18 28.03.2020
5899 Rain 8 1010 81 0 0.89 1 18:47 28.03.2020
5900 Clouds 10 1015 54 10000 3.1 230 18:22 28.03.2020
5901 Clouds 11 1015 54 10000 3.1 230 17:58 28.03.2020
5902 Clouds 11 1015 54 10000 3.1 230 17:38 28.03.2020
5903 Clouds 13 1015 54 10000 3.1 220 17:18 28.03.2020
5904 Clouds 11 1016 54 10000 3.6 220 16:42 28.03.2020
5905 Clouds 12 1016 54 10000 3.6 220 16:20 28.03.2020
5906 Clouds 12 1016 50 10000 3.1 240 15:55 28.03.2020
5907 Clouds 12 1016 50 10000 3.1 230 15:37 28.03.2020
5908 Clouds 12 1016 50 10000 3.1 230 15:18 28.03.2020
5909 Clouds 12 1016 47 10000 4.1 220 14:42 28.03.2020
5910 Clouds 12 1016 47 10000 4.1 220 14:22 28.03.2020
5911 Clouds 13 1016 41 10000 3.1 220 13:46 28.03.2020
5912 Clouds 12 1016 34 10000 3.1 210 13:26 28.03.2020
5913 Clouds 14 1017 34 10000 2.1 0 12:57 28.03.2020
5914 Clouds 13 1017 34 10000 3.1 220 12:37 28.03.2020
5915 Clouds 11 1017 34 10000 3.1 220 12:18 28.03.2020
5916 Clouds 12 1017 53 10000 1 0 11:42 28.03.2020
5917 Clouds 12 1017 53 10000 1 0 11:42 28.03.2020
5918 Clouds 10 1017 53 10000 1 0 11:21 28.03.2020
5919 Clouds 10 1017 53 10000 1 0 11:21 28.03.2020
5920 Clouds 10 1017 75 10000 1 0 10:41 28.03.2020
5921 Clouds 8 1017 75 10000 1 0 10:22 28.03.2020
5922 Clouds 9 1017 81 10000 0.5 0 09:59 28.03.2020
5923 Clouds 8 1017 80 10000 1 0 09:39 28.03.2020
5924 Clouds 7 1017 80 10000 1 0 09:20 28.03.2020
5925 Clouds 5 1017 80 0 0.69 190 08:42 28.03.2020
5926 Clouds 5 1017 79 0 0.69 190 08:23 28.03.2020
5927 Clouds 4 1018 40 0 0.85 45 07:49 28.03.2020
5928 Clouds 3 1018 40 0 0.85 45 07:31 28.03.2020
5929 Clouds 3 1018 42 0 0.85 45 06:42 28.03.2020
5930 Clouds 3 1016 81 0 0.85 45 06:18 28.03.2020
5931 Clouds 3 1016 80 0 1.31 56 05:23 28.03.2020
5932 Clouds 3 1016 79 0 1.31 56 04:43 28.03.2020
5933 Clouds 4 1017 40 0 1.31 56 04:20 28.03.2020
5934 Clouds 5 1018 33 0 1.31 56 02:33 28.03.2020
5935 Clouds 5 1018 29 0 1.27 50 01:45 28.03.2020
5936 Clouds 5 1018 29 0 1.27 50 01:20 28.03.2020
5937 Clouds 4 1007 87 0 1.27 50 00:46 28.03.2020
5938 Clouds 6 1018 28 0 1.27 50 00:20 28.03.2020
5939 Clouds 6 1018 25 0 1.27 50 23:42 27.03.2020
5940 Clouds 5 1018 23 0 1.27 50 23:22 27.03.2020
5941 Clouds 5 1018 22 0 2.06 29 22:56 27.03.2020
5942 Clouds 6 1018 22 0 2.06 29 22:38 27.03.2020
5943 Clouds 6 1018 22 0 2.06 29 22:20 27.03.2020
5944 Clouds 6 1018 20 0 2.06 29 21:45 27.03.2020
5945 Clouds 6 1017 20 0 2.06 29 21:25 27.03.2020
5946 Clouds 6 1017 17 0 2.06 29 20:59 27.03.2020
5947 Clouds 6 1017 17 0 2.06 29 20:41 27.03.2020
5948 Clouds 7 1017 14 0 2.26 35 20:21 27.03.2020
5949 Snow 7 1017 14 0 1.52 4 19:58 27.03.2020
5950 Snow 7 1016 11 0 1.52 4 19:40 27.03.2020
5951 Snow 8 1016 13 0 0.45 103 19:21 27.03.2020
5952 Snow 9 1013 54 0 1.52 4 18:45 27.03.2020
5953 Clouds 10 1011 53 10000 3.6 230 18:25 27.03.2020
5954 Clouds 10 1011 53 10000 3.6 230 17:59 27.03.2020
5955 Clouds 10 1011 53 10000 3.6 230 17:39 27.03.2020
5956 Clouds 11 1011 40 10000 3.1 230 17:20 27.03.2020
5957 Clouds 11 1011 37 10000 3.6 210 16:44 27.03.2020
5958 Clouds 11 1011 37 10000 3.6 210 16:25 27.03.2020
5959 Clouds 11 1011 34 10000 4.6 220 15:56 27.03.2020
5960 Clouds 11 1011 32 10000 1.5 0 15:38 27.03.2020
5961 Clouds 7 1013 46 0 0.71 1 15:19 27.03.2020
5962 Clouds 7 1013 46 0 0.71 1 14:43 27.03.2020
5963 Clouds 7 1013 46 0 0.71 1 14:24 27.03.2020
5964 Clouds 8 1014 34 0 1.63 26 13:55 27.03.2020
5965 Clouds 8 1014 34 0 1.63 26 13:36 27.03.2020
5966 Clouds 9 1014 34 0 1.37 23 13:18 27.03.2020
5967 Clouds 8 1014 34 0 1.63 26 13:18 27.03.2020
5968 Clouds 9 1014 34 0 1.37 23 12:42 27.03.2020
5969 Clouds 9 1014 34 0 1.37 23 12:19 27.03.2020
5970 Clouds 6 1015 35 0 1.37 23 11:55 27.03.2020
5971 Clouds 6 1015 35 0 1.37 23 11:55 27.03.2020
5972 Clouds 9 1014 34 0 1.37 23 11:36 27.03.2020
5973 Clouds 5 1015 39 0 2.29 18 11:18 27.03.2020
5974 Clouds 4 1015 46 0 2.29 18 10:41 27.03.2020
5975 Clouds 2 1015 62 0 2.29 18 10:22 27.03.2020
5976 Clouds 1 1015 64 0 2.29 18 09:59 27.03.2020
5977 Clouds -1 1015 68 0 2.29 18 09:40 27.03.2020
5978 Clouds -1 1015 68 0 2.29 18 09:21 27.03.2020
5979 Clouds -2 1015 72 0 2.29 18 08:58 27.03.2020
5980 Clouds -2 1015 75 0 2.29 18 08:39 27.03.2020
5981 Clouds 5 1016 39 0 2.12 19 08:21 27.03.2020
5982 Clear -2 1016 59 0 2.77 27 07:53 27.03.2020
5983 Clear -4 1014 75 0 2.77 27 07:28 27.03.2020
5984 Clear -4 1014 77 0 2.77 27 06:59 27.03.2020
5985 Clear -4 1014 78 0 2.77 27 06:37 27.03.2020
5986 Clear -4 1014 79 0 2.77 27 05:38 27.03.2020
5987 Clear -4 1013 79 0 2.63 27 02:51 27.03.2020
5988 Clouds -3 1013 77 0 2.34 28 01:50 27.03.2020
5989 Clouds -3 1013 76 0 2.42 30 00:55 27.03.2020
5990 Clouds -3 1013 79 0 2.42 30 00:32 27.03.2020
5991 Clouds -3 1013 78 0 2.42 30 23:44 26.03.2020
5992 Clouds -3 1013 78 0 2.02 18 23:24 26.03.2020
5993 Clouds -3 1013 78 0 2.02 18 22:59 26.03.2020
5994 Clouds -3 1013 78 0 2.02 18 22:59 26.03.2020
5995 Clouds -3 1013 80 0 2.02 18 22:39 26.03.2020
5996 Clouds -2 1013 79 0 2.02 18 22:20 26.03.2020
5997 Clouds -2 1013 77 0 2.02 18 21:58 26.03.2020
5998 Clouds -2 1012 75 0 2.02 18 21:39 26.03.2020
5999 Clouds -2 1015 63 0 2.02 18 21:21 26.03.2020
6000 Clouds -2 1015 63 0 2.02 18 20:58 26.03.2020
6001 Clouds -2 1012 78 0 2.02 18 20:38 26.03.2020
6002 Clouds -2 1012 78 0 2.02 18 20:38 26.03.2020
6003 Rain -1 1012 74 0 1.42 25 20:20 26.03.2020
6004 Rain -1 1012 74 0 1.42 25 20:20 26.03.2020
6005 Rain -1 1012 72 0 1.42 25 19:56 26.03.2020
6006 Rain -1 1011 70 0 1.42 25 19:37 26.03.2020
6007 Rain 1 1011 62 0 1.42 25 19:19 26.03.2020
6008 Rain 0 1012 56 0 1.42 25 18:55 26.03.2020
6009 Rain 2 1010 58 0 1.42 25 18:36 26.03.2020
6010 Rain 2 1010 58 0 1.42 25 18:18 26.03.2020
6011 Rain 2 1010 58 0 1.42 25 17:42 26.03.2020
6012 Snow 3 1009 60 0 0.84 26 17:18 26.03.2020
6013 Snow 3 1009 55 0 0.84 26 16:45 26.03.2020
6014 Snow 3 1009 55 0 0.84 26 16:45 26.03.2020
6015 Snow 3 1009 53 0 0.84 26 16:27 26.03.2020
6016 Snow 3 1009 54 0 0.84 26 15:58 26.03.2020
6017 Snow 4 1009 52 0 0.45 243 15:40 26.03.2020
6018 Snow 3 1009 56 0 0.84 26 15:21 26.03.2020
6019 Snow 2 1009 58 0 0.84 26 14:57 26.03.2020
6020 Snow 3 1009 57 0 0.84 26 14:38 26.03.2020
6021 Rain 3 1008 55 0 2.97 26 14:18 26.03.2020
6022 Rain 3 1008 60 0 0.45 311 13:41 26.03.2020
6023 Rain 2 1008 60 0 3.16 28 13:23 26.03.2020
6024 Rain 2 1009 69 0 3.16 28 12:56 26.03.2020
6025 Rain 2 1009 73 0 3.16 28 12:37 26.03.2020
6026 Rain 1 1009 76 0 3.16 28 12:18 26.03.2020
6027 Rain 1 1009 81 0 3.16 28 11:44 26.03.2020
6028 Snow 0 1009 84 0 1.45 329 11:20 26.03.2020
6029 Snow -1 1009 85 0 1.45 329 10:55 26.03.2020
6030 Snow -1 1009 85 0 1.45 329 10:36 26.03.2020
6031 Snow 0 1009 89 0 1.45 329 10:18 26.03.2020
6032 Snow -1 1009 91 0 1.45 329 09:42 26.03.2020
6033 Snow -1 1008 93 0 1.45 329 09:19 26.03.2020
6034 Snow -1 1008 93 0 1.45 329 08:44 26.03.2020
6035 Snow 4 1011 44 0 0.48 313 08:26 26.03.2020
6036 Rain 0 1010 57 0 1.23 11 07:57 26.03.2020
6037 Rain -2 1007 93 0 1.23 11 07:38 26.03.2020
6038 Rain -2 1007 93 0 1.23 11 07:19 26.03.2020
6039 Rain -2 1007 93 0 1.23 11 06:35 26.03.2020
6040 Rain 0 1010 57 0 1.23 11 05:51 26.03.2020
6041 Clouds -1 1009 94 0 1.57 348 03:47 26.03.2020
6042 Clouds -1 1009 94 0 1.57 348 03:18 26.03.2020
6043 Clouds -1 1009 94 0 1.57 348 02:50 26.03.2020
6044 Rain -1 1011 94 0 1.16 353 01:19 26.03.2020
6045 Rain -1 1011 94 0 1.45 3 00:32 26.03.2020
6046 Rain -1 1012 94 0 1.45 3 23:44 25.03.2020
6047 Rain -1 1012 93 0 1.45 3 23:26 25.03.2020
6048 Snow 0 1012 93 0 1.44 356 22:54 25.03.2020
6049 Snow 0 1012 92 0 1.44 356 22:36 25.03.2020
6050 Snow 0 1012 93 0 1.44 356 22:18 25.03.2020
6051 Snow 0 1012 92 0 1.44 356 21:42 25.03.2020
6052 Snow 0 1013 92 0 1.44 356 21:23 25.03.2020
6053 Snow 0 1013 92 0 1.44 356 20:58 25.03.2020
6054 Snow 0 1013 92 0 1.44 356 20:38 25.03.2020
6055 Snow 0 1013 92 0 1.44 356 20:38 25.03.2020
6056 Snow 0 1012 91 0 0.7 309 20:18 25.03.2020
6057 Snow 1 1012 92 0 1.15 273 19:43 25.03.2020
6058 Snow 1 1012 91 0 1.15 273 19:24 25.03.2020
6059 Snow 1 1012 91 0 1.15 273 18:59 25.03.2020
6060 Rain 1 1012 91 0 1.38 268 18:41 25.03.2020
6061 Snow 2 1012 89 0 1.15 273 18:23 25.03.2020
6062 Snow 2 1012 90 0 1.15 273 17:58 25.03.2020
6063 Rain 2 1012 90 0 1.38 268 17:58 25.03.2020
6064 Rain 3 1012 85 0 1.38 268 17:39 25.03.2020
6065 Snow 3 1012 84 0 1.15 273 17:21 25.03.2020
6066 Snow 3 1012 88 0 1.83 257 16:55 25.03.2020
6067 Snow 3 1012 85 0 2.15 241 16:36 25.03.2020
6068 Snow 4 1012 86 0 1.83 257 16:18 25.03.2020
6069 Snow 3 1012 81 0 2.15 241 15:41 25.03.2020
6070 Snow 4 1012 82 0 1.83 257 15:20 25.03.2020
6071 Snow 3 1012 82 0 1.83 257 14:56 25.03.2020
6072 Snow 4 1012 82 0 1.83 257 14:37 25.03.2020
6073 Rain 3 1012 84 0 2.13 214 14:18 25.03.2020
6074 Rain 2 1013 89 0 2.13 214 13:42 25.03.2020
6075 Rain 2 1013 89 0 2.48 215 13:22 25.03.2020
6076 Rain 1 1013 93 0 2.13 214 12:38 25.03.2020
6077 Rain 1 1013 92 0 2.48 215 12:20 25.03.2020
6078 Rain 1 1013 93 0 2.13 214 11:57 25.03.2020
6079 Rain 1 1013 93 0 2.48 215 11:38 25.03.2020
6080 Snow -1 1013 91 0 2.14 180 11:20 25.03.2020
6081 Snow -1 1013 91 0 2.14 180 10:57 25.03.2020
6082 Snow -1 1013 91 0 2.14 180 10:39 25.03.2020
6083 Snow 0 1013 93 0 2.14 180 10:18 25.03.2020
6084 Snow 1 1013 93 0 2.14 180 09:43 25.03.2020
6085 Snow 1 1013 93 0 2.14 180 09:24 25.03.2020
6086 Snow 3 1018 49 0 2.14 180 08:57 25.03.2020
6087 Snow 3 1018 49 0 2.14 180 08:39 25.03.2020
6088 Snow 1 1018 55 0 1.56 183 08:19 25.03.2020
6089 Snow 1 1018 55 0 1.56 183 07:41 25.03.2020
6090 Snow 1 1018 55 0 1.56 183 07:22 25.03.2020
6091 Snow 1 1018 55 0 1.56 183 06:50 25.03.2020
6092 Snow 1 1018 55 0 1.56 183 06:28 25.03.2020
6093 Snow 1 1018 55 0 1.56 183 06:28 25.03.2020
6094 Snow 1 1018 55 0 1.56 183 05:56 25.03.2020
6095 Snow 1 1018 55 0 1.56 183 05:30 25.03.2020
6096 Snow 1 1018 54 0 0.25 286 04:39 25.03.2020
6097 Snow 1 1018 54 0 0.25 286 03:36 25.03.2020
6098 Snow 1 1018 54 0 0.25 286 02:40 25.03.2020
6099 Clear 1 1019 53 0 1.18 15 01:23 25.03.2020
6100 Clear 1 1019 53 0 1.18 15 00:49 25.03.2020
6101 Clear 1 1019 53 0 1.18 15 00:24 25.03.2020
6102 Clear 1 1019 53 0 1.18 15 23:45 24.03.2020
6103 Clear 1 1019 53 0 1.18 15 23:26 24.03.2020
6104 Clouds 2 1020 52 0 1.99 19 22:57 24.03.2020
6105 Clouds 2 1020 52 0 1.99 19 22:38 24.03.2020
6106 Clouds 2 1020 52 0 1.99 19 22:19 24.03.2020
6107 Clouds 2 1020 52 0 1.99 19 21:56 24.03.2020
6108 Clouds 2 1020 52 0 1.99 19 21:37 24.03.2020
6109 Clouds 2 1020 52 0 1.99 19 21:18 24.03.2020
6110 Clouds 2 1020 52 0 1.99 19 20:43 24.03.2020
6111 Clouds 2 1020 52 0 1.99 19 20:24 24.03.2020
6112 Clear 6 1019 51 0 0.87 332 19:59 24.03.2020
6113 Clear 6 1019 51 0 0.87 332 19:41 24.03.2020
6114 Clear 7 1014 53 0 0.87 332 19:19 24.03.2020
6115 Clear 6 1019 51 0 0.87 332 18:55 24.03.2020
6116 Clear 6 1019 51 0 0.87 332 18:37 24.03.2020
6117 Clear 6 1019 51 0 0.87 332 18:18 24.03.2020
6118 Clear 6 1019 51 0 0.87 332 18:18 24.03.2020
6119 Clear 6 1019 51 0 0.87 332 17:42 24.03.2020
6120 Clear 6 1019 51 0 0.87 332 17:23 24.03.2020
6121 Snow 8 1009 78 0 0.89 13 16:58 24.03.2020
6122 Snow 9 1009 74 0 0.89 11 16:40 24.03.2020
6123 Snow 9 1009 74 0 1.79 1 16:22 24.03.2020
6124 Snow 9 1009 71 0 1.79 34 15:58 24.03.2020
6125 Snow 9 1009 71 0 2.24 350 15:37 24.03.2020
6126 Snow 10 1010 69 0 0.89 4 15:19 24.03.2020
6127 Snow 10 1010 65 0 1.79 28 14:43 24.03.2020
6128 Clear 13 1020 31 0 1.16 326 14:19 24.03.2020
6129 Clear 13 1020 31 0 1.16 326 13:44 24.03.2020
6130 Clear 13 1019 29 0 1.35 338 13:24 24.03.2020
6131 Clear 13 1019 29 0 1.35 338 12:57 24.03.2020
6132 Clear 13 1019 29 0 1.35 338 12:37 24.03.2020
6133 Clear 13 1019 29 0 1.35 338 12:19 24.03.2020
6134 Clear 10 1017 69 0 1.35 338 11:39 24.03.2020
6135 Clear 10 1017 70 0 0.87 323 11:20 24.03.2020
6136 Clear 9 1017 76 0 0.87 323 10:43 24.03.2020
6137 Clear 9 1018 88 0 0.87 323 10:20 24.03.2020
6138 Clear 8 1018 93 0 0.87 323 09:59 24.03.2020
6139 Clear 8 1018 94 0 0.87 323 09:40 24.03.2020
6140 Clear 7 1018 95 0 0.87 323 09:22 24.03.2020
6141 Clear 6 1018 96 0 0.87 323 08:39 24.03.2020
6142 Clouds 5 1011 90 0 1.07 282 08:20 24.03.2020
6143 Clouds 4 1011 86 0 1.06 29 07:48 24.03.2020
6144 Clouds 4 1011 91 0 1.06 29 07:25 24.03.2020
6145 Clouds 5 1021 76 0 1.06 29 06:58 24.03.2020
6146 Clouds 5 1020 73 0 1.06 29 06:31 24.03.2020
6147 Clouds 6 1017 95 0 1.06 29 05:22 24.03.2020
6148 Clear 5 1020 72 0 1.69 29 04:27 24.03.2020
6149 Clear 6 1018 95 0 1.69 29 03:18 24.03.2020
6150 Clouds 6 1018 95 0 0.73 14 01:47 24.03.2020
6151 Clouds 6 1018 94 0 0.91 29 00:48 24.03.2020
6152 Clouds 6 1019 94 0 0.91 29 00:25 24.03.2020
6153 Clouds 6 1019 93 0 0.91 29 23:45 23.03.2020
6154 Clouds 6 1019 93 0 0.91 29 23:26 23.03.2020
6155 Clouds 7 1020 93 0 0.87 79 22:56 23.03.2020
6156 Clouds 7 1019 93 0 0.87 79 22:37 23.03.2020
6157 Clouds 7 1021 59 0 0.87 79 22:19 23.03.2020
6158 Clouds 7 1019 93 0 0.87 79 21:44 23.03.2020
6159 Clouds 8 1021 53 0 0.87 79 21:21 23.03.2020
6160 Clouds 8 1019 92 0 0.87 79 20:58 23.03.2020
6161 Clouds 8 1019 92 0 0.87 79 20:39 23.03.2020
6162 Clouds 8 1021 48 0 0.87 79 20:21 23.03.2020
6163 Clouds 8 1018 81 10000 1.5 220 19:46 23.03.2020
6164 Clouds 9 1018 81 10000 1.5 220 19:27 23.03.2020
6165 Clouds 10 1018 81 10000 1.5 220 18:59 23.03.2020
6166 Clouds 10 1018 76 10000 3.1 220 18:41 23.03.2020
6167 Clouds 10 1018 76 10000 3.1 220 18:21 23.03.2020
6168 Clouds 11 1018 76 10000 4.6 220 17:44 23.03.2020
6169 Clouds 11 1018 76 10000 4.1 220 17:22 23.03.2020
6170 Clouds 11 1018 76 10000 4.1 220 16:59 23.03.2020
6171 Clouds 11 1018 76 10000 4.6 240 16:41 23.03.2020
6172 Clouds 12 1018 76 10000 4.6 240 16:23 23.03.2020
6173 Clouds 12 1018 81 10000 5.1 230 15:42 23.03.2020
6174 Clouds 12 1018 81 10000 5.1 230 15:20 23.03.2020
6175 Rain 11 1018 87 10000 4.6 220 14:55 23.03.2020
6176 Clouds 12 1018 71 10000 5.1 220 14:36 23.03.2020
6177 Clouds 12 1018 71 10000 5.1 220 14:36 23.03.2020
6178 Clouds 13 1018 71 10000 5.1 220 14:18 23.03.2020
6179 Clouds 12 1019 71 10000 4.1 220 13:40 23.03.2020
6180 Clouds 13 1019 71 10000 4.1 220 13:21 23.03.2020
6181 Clouds 13 1019 62 10000 2.1 200 12:46 23.03.2020
6182 Clouds 13 1019 62 10000 2.1 200 12:26 23.03.2020
6183 Clouds 13 1019 62 10000 2.1 220 11:59 23.03.2020
6184 Clouds 13 1019 62 10000 2.1 220 11:59 23.03.2020
6185 Clouds 12 1019 70 10000 1 0 11:40 23.03.2020
6186 Clouds 11 1019 70 10000 1.5 0 11:20 23.03.2020
6187 Clouds 11 1019 70 10000 1.5 0 10:58 23.03.2020
6188 Snow 11 1018 81 0 1.94 171 10:38 23.03.2020
6189 Snow 11 1018 81 0 1.94 171 10:38 23.03.2020
6190 Snow 11 1020 15 0 2.24 316 10:20 23.03.2020
6191 Snow 9 1018 84 0 1.94 171 09:44 23.03.2020
6192 Snow 8 1017 87 0 1.94 171 09:21 23.03.2020
6193 Snow 8 1017 89 0 1.94 171 08:57 23.03.2020
6194 Snow 7 1020 46 0 1.94 171 08:36 23.03.2020
6195 Clouds 7 1020 52 0 1.1 98 08:18 23.03.2020
6196 Clouds 6 1019 53 0 1.1 98 07:42 23.03.2020
6197 Clouds 6 1019 53 0 1.1 98 07:23 23.03.2020
6198 Clouds 5 1009 94 0 1.1 98 06:49 23.03.2020
6199 Clouds 5 1009 94 0 0.89 162 05:54 23.03.2020
6200 Clouds 6 1018 51 0 1.1 98 05:29 23.03.2020
6201 Clouds 5 1009 93 0 1.46 87 03:28 23.03.2020
6202 Clouds 6 1009 92 0 0.97 146 01:51 23.03.2020
6203 Clouds 6 1009 92 0 0.97 146 01:32 23.03.2020
6204 Clouds 6 1015 88 0 0.64 118 00:36 23.03.2020
6205 Clouds 7 1017 41 0 0.64 118 23:47 22.03.2020
6206 Clouds 7 1017 41 0 0.64 118 23:47 22.03.2020
6207 Clouds 7 1015 90 0 0.64 118 23:25 22.03.2020
6208 Clouds 8 1017 39 0 0.85 139 22:45 22.03.2020
6209 Clouds 8 1017 38 0 0.85 139 22:24 22.03.2020
6210 Clouds 9 1017 36 0 0.85 139 21:56 22.03.2020
6211 Clouds 8 1017 33 0 0.85 139 21:37 22.03.2020
6212 Clouds 9 1017 31 0 0.85 139 21:19 22.03.2020
6213 Clouds 9 1016 29 0 0.85 139 20:46 22.03.2020
6214 Clouds 9 1016 29 0 0.85 139 20:25 22.03.2020
6215 Rain 9 1013 90 0 1.11 211 19:58 22.03.2020
6216 Rain 9 1013 89 0 1.11 211 19:40 22.03.2020
6217 Rain 10 1015 21 0 1.11 211 19:20 22.03.2020
6218 Rain 11 1013 87 0 1.11 211 18:59 22.03.2020
6219 Rain 11 1012 86 0 1.11 211 18:41 22.03.2020
6220 Clouds 11 1012 54 10000 3.6 220 18:22 22.03.2020
6221 Clouds 12 1012 54 10000 3.6 220 17:57 22.03.2020
6222 Clouds 12 1012 54 10000 3.6 220 17:38 22.03.2020
6223 Clouds 13 1012 54 10000 3.6 220 17:20 22.03.2020
6224 Clouds 13 1012 50 10000 3.6 220 16:57 22.03.2020
6225 Clouds 14 1012 47 10000 4.6 210 16:39 22.03.2020
6226 -273 0 0 0 0 0 16:21 22.03.2020
6227 Clouds 14 1012 47 10000 4.6 210 16:21 22.03.2020
6228 Clouds 14 1012 54 10000 5.1 220 15:40 22.03.2020
6229 Clouds 14 1012 54 10000 5.1 220 15:21 22.03.2020
6230 Clouds 14 1012 50 10000 5.1 220 14:46 22.03.2020
6231 Clouds 14 1012 54 10000 5.7 210 14:19 22.03.2020
6232 Clouds 13 1012 50 10000 6.7 210 13:44 22.03.2020
6233 Clouds 13 1013 58 10000 5.7 210 13:21 22.03.2020
6234 Clouds 13 1013 50 10000 5.1 210 12:59 22.03.2020
6235 Clouds 13 1013 54 10000 3.6 220 12:41 22.03.2020
6236 Clouds 13 1013 54 10000 3.6 220 12:19 22.03.2020
6237 Clouds 12 1013 66 10000 1 0 11:43 22.03.2020
6238 Clouds 12 1013 66 10000 1 0 11:43 22.03.2020
6239 Clouds 12 1013 66 10000 1 0 11:25 22.03.2020
6240 Clouds 11 1013 76 10000 1.5 80 10:58 22.03.2020
6241 Clouds 10 1013 75 10000 1.5 70 10:40 22.03.2020
6242 Clouds 11 1013 75 10000 1.5 70 10:22 22.03.2020
6243 Clouds 11 1013 75 10000 1.5 70 10:22 22.03.2020
6244 Clouds 9 1013 87 10000 0.5 0 09:46 22.03.2020
6245 Clouds 9 1013 87 10000 0.5 0 09:46 22.03.2020
6246 Clouds 8 1013 87 10000 0.5 0 09:27 22.03.2020
6247 Clouds 6 1005 95 0 0.45 359 08:48 22.03.2020
6248 Clouds 6 1005 95 0 0.45 359 08:48 22.03.2020
6249 Clouds 6 1004 96 0 0.45 28 08:30 22.03.2020
6250 Clouds 5 1004 95 0 0.78 75 07:55 22.03.2020
6251 -273 0 0 0 0 0 07:37 22.03.2020
6252 Clouds 5 1010 86 0 0.78 75 06:41 22.03.2020
6253 Clouds 6 1013 42 0 0.78 75 05:47 22.03.2020
6254 Clouds 6 1012 41 0 1.11 31 04:39 22.03.2020
6255 Clouds 7 1012 39 0 0.1 69 01:45 22.03.2020
6256 Clouds 7 1012 40 0 0.22 134 00:49 22.03.2020
6257 Clouds 7 1013 38 0 0.22 134 00:30 22.03.2020
6258 Clouds 8 1013 37 0 0.22 134 23:45 21.03.2020
6259 Clouds 8 1013 36 0 0.22 134 23:22 21.03.2020
6260 Clouds 8 1013 33 0 0.5 159 22:58 21.03.2020
6261 Clouds 9 1013 33 0 0.5 159 22:37 21.03.2020
6262 Clouds 9 1013 30 0 0.5 159 22:19 21.03.2020
6263 Clouds 9 1011 70 0 0.5 159 21:57 21.03.2020
6264 Clouds 10 1011 70 0 0.5 159 21:38 21.03.2020
6265 Clouds 10 1011 68 0 0.5 159 21:18 21.03.2020
6266 Clouds 11 1008 58 0 0.45 45 20:42 21.03.2020
6267 Clouds 10 1008 59 0 1.34 22 20:21 21.03.2020
6268 Clouds 11 1010 63 0 1.62 212 19:54 21.03.2020
6269 Clouds 10 1008 55 0 2.68 225 19:36 21.03.2020
6270 Clouds 11 1010 65 0 1.62 212 19:18 21.03.2020
6271 Clouds 12 1009 59 0 1.62 212 18:40 21.03.2020
6272 Clouds 13 1010 44 10000 6.2 210 18:20 21.03.2020
6273 Clouds 13 1010 44 10000 6.2 210 17:58 21.03.2020
6274 Clouds 13 1010 44 10000 6.2 210 17:39 21.03.2020
6275 Clouds 13 1010 44 10000 6.2 210 17:21 21.03.2020
6276 Clouds 14 1010 44 10000 5.7 210 16:42 21.03.2020
6277 Clouds 15 1011 41 10000 5.1 220 16:22 21.03.2020
6278 Clouds 15 1011 41 10000 5.1 220 15:58 21.03.2020
6279 Clouds 15 1011 44 10000 5.7 210 15:39 21.03.2020
6280 Clouds 15 1011 44 10000 5.7 210 15:21 21.03.2020
6281 Clouds 15 1011 41 10000 6.2 210 14:55 21.03.2020
6282 Clouds 15 1012 41 10000 4.6 220 14:37 21.03.2020
6283 Clouds 15 1012 41 10000 4.6 220 14:18 21.03.2020
6284 Clouds 15 1012 41 10000 3.6 230 13:57 21.03.2020
6285 Clouds 15 1013 37 10000 3.1 220 13:38 21.03.2020
6286 Clouds 15 1013 50 10000 2.1 0 13:19 21.03.2020
6287 Clouds 14 1014 61 10000 2.1 0 12:41 21.03.2020
6288 Clouds 13 1014 61 10000 1 0 12:20 21.03.2020
6289 Clouds 13 1014 61 10000 1 0 11:59 21.03.2020
6290 Clouds 13 1015 66 10000 1 0 11:39 21.03.2020
6291 Clouds 11 1015 75 10000 1 0 11:20 21.03.2020
6292 Clouds 10 1015 75 10000 1 0 10:58 21.03.2020
6293 Clouds 10 1015 81 10000 1.7 191 10:39 21.03.2020
6294 Clouds 9 1015 81 10000 1.7 191 10:21 21.03.2020
6295 Clouds 8 1016 93 10000 0.5 0 09:59 21.03.2020
6296 Clouds 6 1016 100 10000 0.5 0 09:39 21.03.2020
6297 Clouds 5 1016 100 10000 0.5 0 09:20 21.03.2020
6298 Clouds 5 1007 82 0 1.7 191 08:55 21.03.2020
6299 Clouds 4 1013 91 0 1.7 191 08:37 21.03.2020
6300 Clouds 3 1006 88 0 0.62 73 08:18 21.03.2020
6301 Clouds 2 1013 91 0 0.62 73 07:37 21.03.2020
6302 Clouds 2 1006 89 0 0.62 73 07:18 21.03.2020
6303 Clouds 1 1013 90 0 0.62 73 06:42 21.03.2020
6304 Clouds 2 1007 87 0 0.62 73 06:23 21.03.2020
6305 Clouds 2 1007 88 0 0.62 73 05:39 21.03.2020
6306 Clouds 3 1013 87 0 0.61 52 03:39 21.03.2020
6307 Clouds 4 1015 90 0 0.61 52 02:36 21.03.2020
6308 Clouds 4 1015 79 0 1.34 90 01:43 21.03.2020
6309 Clouds 4 1015 88 0 0.66 113 01:22 21.03.2020
6310 Clouds 5 1013 84 0 1.34 67 00:39 21.03.2020
6311 Clouds 5 1015 90 0 0.66 113 00:20 21.03.2020
6312 Clouds 6 1015 89 0 0.66 113 23:41 20.03.2020
6313 Clouds 7 1017 30 0 0.62 61 23:20 20.03.2020
6314 Clouds 7 1017 28 0 0.62 61 22:44 20.03.2020
6315 Clouds 7 1017 27 0 0.62 61 22:24 20.03.2020
6316 Clouds 8 1017 27 0 0.62 61 21:58 20.03.2020
6317 Clouds 8 1017 24 0 0.62 61 21:39 20.03.2020
6318 Clouds 8 1017 66 0 0.45 162 21:19 20.03.2020
6319 Clouds 9 1016 75 0 0.62 61 20:57 20.03.2020
6320 Clouds 9 1012 45 0 0.45 315 20:39 20.03.2020
6321 Clouds 10 1016 70 0 1.29 211 20:18 20.03.2020
6322 Clouds 11 1015 77 0 1.29 211 19:46 20.03.2020
6323 Clouds 10 1015 62 0 1.29 211 19:19 20.03.2020
6324 Clouds 11 1015 65 0 0.45 115 18:56 20.03.2020
6325 Clouds 12 1012 39 0 1.34 225 18:37 20.03.2020
6326 Clouds 13 1017 41 10000 5.7 210 18:19 20.03.2020
6327 Clouds 14 1017 41 10000 5.7 210 17:40 20.03.2020
6328 Clouds 14 1017 41 10000 5.7 210 17:21 20.03.2020
6329 Clouds 15 1017 41 10000 6.2 210 16:59 20.03.2020
6330 Clouds 15 1017 38 10000 6.2 210 16:41 20.03.2020
6331 Clouds 16 1017 38 10000 6.2 210 16:19 20.03.2020
6332 Clouds 16 1017 38 10000 5.7 200 15:43 20.03.2020
6333 Clouds 16 1017 38 10000 5.7 200 15:22 20.03.2020
6334 Clouds 16 1017 41 10000 5.7 200 14:56 20.03.2020
6335 Clouds 16 1018 44 10000 5.1 200 14:38 20.03.2020
6336 Clouds 16 1018 44 10000 5.1 200 14:19 20.03.2020
6337 Clouds 16 1018 41 10000 4.6 210 13:45 20.03.2020
6338 Clouds 16 1018 44 10000 3.6 230 13:19 20.03.2020
6339 Clouds 15 1019 54 10000 3.1 220 12:41 20.03.2020
6340 Clouds 15 1019 54 10000 3.1 220 12:23 20.03.2020
6341 Clouds 14 1019 62 10000 2.1 210 11:59 20.03.2020
6342 Clouds 13 1020 57 10000 1 0 11:38 20.03.2020
6343 Clouds 12 1020 66 10000 1 0 11:19 20.03.2020
6344 Clouds 11 1020 75 10000 1 0 10:42 20.03.2020
6345 Clouds 10 1020 75 10000 1 0 10:21 20.03.2020
6346 Clouds 10 1020 75 10000 0.5 0 10:00 20.03.2020
6347 Clouds 8 1020 81 10000 1 0 09:41 20.03.2020
6348 Clouds 7 1020 81 10000 1 0 09:19 20.03.2020
6349 Clouds 6 1017 87 0 2.05 188 08:43 20.03.2020
6350 Clouds 5 1017 87 0 2.19 189 08:22 20.03.2020
6351 Clouds 4 1011 80 0 0.68 95 07:57 20.03.2020
6352 Clouds 4 1011 82 0 0.89 260 07:38 20.03.2020
6353 Clouds 4 1011 83 0 0.45 228 07:19 20.03.2020
6354 Clouds 4 1017 89 0 0.68 95 06:41 20.03.2020
6355 Clouds 5 1017 93 0 0.67 126 04:54 20.03.2020
6356 Clouds 5 1018 38 0 0.67 126 03:50 20.03.2020
6357 Clouds 6 1019 37 0 0.74 143 02:21 20.03.2020
6358 Clouds 6 1018 83 0 0.7 142 01:33 20.03.2020
6359 Clouds 6 1019 33 0 0.7 142 00:33 20.03.2020
6360 Clouds 7 1019 32 0 0.7 142 23:49 19.03.2020
6361 Clouds 7 1019 29 0 0.7 142 23:30 19.03.2020
6362 Clouds 7 1018 77 0 0.63 122 22:57 19.03.2020
6363 Clouds 8 1020 30 0 0.63 122 22:38 19.03.2020
6364 Clouds 8 1020 28 0 0.63 122 22:20 19.03.2020
6365 Clouds 9 1019 27 0 0.63 122 21:42 19.03.2020
6366 Clouds 9 1015 50 0 0.63 122 21:20 19.03.2020
6367 Clouds 10 1019 78 0 0.63 122 21:00 19.03.2020
6368 Clouds 10 1019 77 0 0.63 122 20:41 19.03.2020
6369 Clear 11 1020 17 0 0.63 140 20:23 19.03.2020
6370 Clouds 11 1020 50 10000 7.2 210 19:55 19.03.2020
6371 Clouds 11 1020 50 10000 7.2 210 19:55 19.03.2020
6372 Clouds 12 1020 50 10000 7.2 210 19:37 19.03.2020
6373 Clouds 12 1020 50 10000 7.2 210 19:19 19.03.2020
6374 Clouds 13 1020 50 10000 7.2 210 18:54 19.03.2020
6375 Clouds 13 1020 47 10000 5.7 210 18:36 19.03.2020
6376 Clouds 14 1020 41 10000 5.7 210 18:18 19.03.2020
6377 Clouds 16 1020 36 10000 6.7 210 17:41 19.03.2020
6378 Clouds 16 1020 33 10000 6.7 210 17:19 19.03.2020
6379 Clouds 17 1020 31 10000 6.7 210 16:44 19.03.2020
6380 Clouds 17 1020 31 10000 6.7 210 16:24 19.03.2020
6381 Clouds 17 1020 31 10000 6.7 200 15:46 19.03.2020
6382 Clouds 18 1020 34 10000 6.2 200 15:27 19.03.2020
6383 Clouds 18 1021 39 10000 5.1 210 14:58 19.03.2020
6384 Clouds 18 1021 45 10000 4.6 220 14:40 19.03.2020
6385 Clouds 18 1021 45 10000 4.6 220 14:19 19.03.2020
6386 Clouds 17 1022 54 10000 2.1 220 13:40 19.03.2020
6387 Clouds 17 1022 54 10000 2.1 220 13:19 19.03.2020
6388 Clear 17 1023 54 10000 1 0 12:55 19.03.2020
6389 Clear 16 1023 62 10000 1 0 12:37 19.03.2020
6390 Clear 16 1023 62 10000 1 0 12:18 19.03.2020
6391 Clear 15 1024 71 10000 1 0 11:41 19.03.2020
6392 Clear 14 1024 71 10000 1 0 11:23 19.03.2020
6393 Clear 13 1025 70 10000 1.5 80 10:56 19.03.2020
6394 Clear 13 1022 70 0 1.52 162 10:36 19.03.2020
6395 Clear 12 1022 74 0 1.52 162 10:18 19.03.2020
6396 Clear 11 1022 80 0 1.52 162 09:44 19.03.2020
6397 Clear 10 1022 83 0 1.52 162 09:25 19.03.2020
6398 Clear 7 1017 62 0 3.13 215 08:48 19.03.2020
6399 Clear 5 1022 87 0 1.42 165 08:23 19.03.2020
6400 Clear 5 1017 69 0 2.24 201 07:57 19.03.2020
6401 Clear 5 1017 82 0 1.79 205 07:38 19.03.2020
6402 Clear 5 1017 65 0 1.79 198 07:18 19.03.2020
6403 Clear 5 1017 64 0 0.89 212 06:23 19.03.2020
6404 Clear 5 1022 87 0 1 67 05:24 19.03.2020
6405 Clear 5 1017 78 0 0.89 208 04:46 19.03.2020
6406 Clear 6 1018 56 0 1.34 231 03:44 19.03.2020
6407 Clouds 6 1019 88 0 0.7 76 01:45 19.03.2020
6408 Clouds 7 1023 87 0 0.29 65 00:39 19.03.2020
6409 Clouds 7 1020 90 0 0.29 65 00:18 19.03.2020
6410 Clouds 7 1024 89 0 0.29 65 23:41 18.03.2020
6411 Clouds 8 1020 90 0 0.29 65 23:21 18.03.2020
6412 Rain 8 1021 89 0 0.53 112 22:42 18.03.2020
6413 Rain 8 1024 86 0 0.53 112 22:22 18.03.2020
6414 Rain 9 1024 85 0 0.53 112 21:55 18.03.2020
6415 Rain 9 1024 85 0 0.53 112 21:37 18.03.2020
6416 Rain 9 1021 88 0 0.53 112 21:19 18.03.2020
6417 Rain 9 1024 85 0 0.53 112 20:54 18.03.2020
6418 Rain 10 1021 89 0 0.53 112 20:36 18.03.2020
6419 Rain 10 1021 87 0 0.83 43 20:18 18.03.2020
6420 Rain 11 1024 83 0 0.83 43 19:40 18.03.2020
6421 Rain 12 1023 80 0 0.83 43 19:21 18.03.2020
6422 Rain 13 1023 79 0 0.83 43 18:56 18.03.2020
6423 Rain 13 1023 76 0 0.83 43 18:37 18.03.2020
6424 Rain 14 1023 72 0 0.83 43 18:18 18.03.2020
6425 Rain 14 1023 67 0 0.83 43 17:41 18.03.2020
6426 Rain 15 1023 67 0 0.83 43 17:22 18.03.2020
6427 Rain 16 1024 12 0 0.89 1 16:59 18.03.2020
6428 Rain 16 1024 12 0 0.89 1 16:59 18.03.2020
6429 Rain 16 1024 9 0 0.89 1 16:40 18.03.2020
6430 Rain 16 1024 12 0 2.68 340 16:20 18.03.2020
6431 Rain 16 1025 11 0 2.68 340 15:56 18.03.2020
6432 Rain 16 1025 12 0 2.68 340 15:37 18.03.2020
6433 Rain 16 1023 55 0 0.6 296 15:18 18.03.2020
6434 Rain 16 1025 12 0 2.68 340 14:42 18.03.2020
6435 Clouds 16 1025 10 0 2.68 340 14:21 18.03.2020
6436 Clouds 16 1025 66 0 0.52 234 13:40 18.03.2020
6437 Clouds 15 1026 10 0 2.68 298 13:19 18.03.2020
6438 Clouds 15 1026 73 0 0.66 221 12:43 18.03.2020
6439 Clouds 14 1026 78 0 0.66 221 12:21 18.03.2020
6440 Clouds 14 1026 78 0 0.66 221 11:58 18.03.2020
6441 Clouds 13 1027 13 0 1.34 349 11:37 18.03.2020
6442 Clear 11 1027 91 0 0.46 36 11:18 18.03.2020
6443 Clear 12 1027 80 0 0.46 36 10:55 18.03.2020
6444 Clear 11 1028 22 0 0.46 36 10:36 18.03.2020
6445 Clear 11 1028 22 0 0.46 36 10:36 18.03.2020
6446 Clear 9 1023 77 0 0.46 36 10:18 18.03.2020
6447 Clear 8 1027 83 0 0.46 36 09:41 18.03.2020
6448 Clear 8 1027 87 0 0.46 36 09:22 18.03.2020
6449 Clear 6 1027 90 0 0.46 36 08:40 18.03.2020
6450 Clear 6 1027 90 0 0.46 36 08:21 18.03.2020
6451 Clouds 5 1023 88 0 2.19 30 07:49 18.03.2020
6452 Clouds 5 1023 88 0 2.19 30 07:31 18.03.2020
6453 Clouds 5 1027 90 0 2.19 30 06:55 18.03.2020
6454 Clouds 5 1023 89 0 2.19 30 06:37 18.03.2020
6455 Clouds 6 1023 91 0 2.19 30 05:37 18.03.2020
6456 Clouds 6 1023 91 0 2.14 27 04:32 18.03.2020
6457 Clouds 6 1023 92 0 2.14 27 03:21 18.03.2020
6458 Clouds 6 1024 93 0 2.14 27 02:35 18.03.2020
6459 Clouds 7 1024 93 0 2.03 29 01:32 18.03.2020
6460 Clouds 7 1029 90 0 2.33 29 00:42 18.03.2020
6461 Clouds 7 1029 90 0 2.33 29 00:42 18.03.2020
6462 Clouds 7 1024 91 0 2.31 26 00:21 18.03.2020
6463 Clouds 8 1030 90 0 2.31 26 23:40 17.03.2020
6464 Rain 8 1031 46 0 1.41 24 23:19 17.03.2020
6465 Rain 9 1030 89 0 1.41 24 22:42 17.03.2020
6466 Rain 9 1030 89 0 1.41 24 22:24 17.03.2020
6467 Rain 9 1030 89 0 1.41 24 21:42 17.03.2020
6468 Rain 9 1031 41 0 1.41 24 21:22 17.03.2020
6469 Rain 9 1030 88 0 1.41 24 20:56 17.03.2020
6470 Rain 10 1031 41 0 1.41 24 20:37 17.03.2020
6471 Rain 10 1030 41 0 0.66 212 20:18 17.03.2020
6472 Rain 10 1029 88 0 0.66 212 19:41 17.03.2020
6473 Rain 11 1030 38 0 0.66 212 19:18 17.03.2020
6474 Rain 11 1029 86 0 0.66 212 18:56 17.03.2020
6475 Rain 11 1029 87 0 0.66 212 18:38 17.03.2020
6476 Rain 11 1029 36 0 1.34 307 18:20 17.03.2020
6477 Rain 12 1029 87 0 0.66 212 17:41 17.03.2020
6478 Rain 12 1029 87 0 0.66 212 17:41 17.03.2020
6479 Rain 12 1029 86 0 0.66 212 17:22 17.03.2020
6480 Rain 12 1029 86 0 2.07 209 16:55 17.03.2020
6481 Rain 12 1029 86 0 2.07 209 16:55 17.03.2020
6482 Rain 12 1029 82 0 2.07 209 16:37 17.03.2020
6483 Rain 12 1028 29 0 2.24 304 16:18 17.03.2020
6484 Rain 12 1029 86 0 2.07 209 15:43 17.03.2020
6485 Rain 12 1029 86 0 2.07 209 15:43 17.03.2020
6486 Rain 12 1028 26 0 1.34 281 15:21 17.03.2020
6487 Rain 12 1029 83 0 2.07 209 14:43 17.03.2020
6488 Rain 12 1028 25 0 1.9 190 14:21 17.03.2020
6489 Rain 12 1030 86 0 1.9 190 13:45 17.03.2020
6490 Rain 11 1030 87 0 1.9 190 13:27 17.03.2020
6491 Rain 11 1030 86 0 1.23 175 12:58 17.03.2020
6492 Rain 11 1030 89 0 2.33 206 12:40 17.03.2020
6493 Rain 11 1029 27 0 2.33 206 12:22 17.03.2020
6494 Rain 11 1030 94 0 2.33 206 11:46 17.03.2020
6495 Rain 10 1030 94 0 1.23 175 11:46 17.03.2020
6496 Rain 10 1030 94 0 2.33 206 11:28 17.03.2020
6497 Clouds 10 1030 95 0 1.67 169 10:58 17.03.2020
6498 Clouds 10 1030 95 0 1.07 129 10:38 17.03.2020
6499 Clouds 9 1029 48 0 1.67 169 10:20 17.03.2020
6500 Clouds 9 1029 73 0 1.07 129 09:55 17.03.2020
6501 Clouds 9 1030 95 0 1.67 169 09:55 17.03.2020
6502 Clouds 8 1029 75 0 1.67 169 09:36 17.03.2020
6503 Clouds 8 1029 76 0 1.07 129 09:18 17.03.2020
6504 Clouds 8 1029 95 0 1.67 169 08:42 17.03.2020
6505 Clouds 8 1027 94 0 1.07 129 08:21 17.03.2020
6506 Clouds 7 1028 78 0 1.31 106 07:49 17.03.2020
6507 Clouds 7 1028 80 0 1.31 106 07:24 17.03.2020
6508 Clouds 7 1028 95 0 1.31 106 06:56 17.03.2020
6509 Clouds 7 1028 95 0 1.31 106 06:33 17.03.2020
6510 Clouds 7 1027 95 0 1.31 106 05:38 17.03.2020
6511 Clouds 7 1026 80 0 1.71 105 03:36 17.03.2020
6512 Clouds 7 1018 95 0 0.45 180 02:38 17.03.2020
6513 Rain 6 1017 95 0 3.13 203 01:41 17.03.2020
6514 Rain 6 1017 95 0 2.24 170 01:18 17.03.2020
6515 Rain 7 1017 95 0 0.89 214 00:19 17.03.2020
6516 Rain 7 1017 95 0 2.24 194 23:43 16.03.2020
6517 Rain 6 1025 96 0 2.04 106 23:22 16.03.2020
6518 Rain 7 1016 95 0 3.13 215 22:38 16.03.2020
6519 Rain 7 1016 95 0 1.34 101 22:20 16.03.2020
6520 Rain 7 1016 95 0 1.34 101 21:45 16.03.2020
6521 Rain 7 1015 95 0 1.34 101 21:27 16.03.2020
6522 Rain 7 1015 95 0 1.34 101 20:59 16.03.2020
6523 Rain 7 1014 95 0 1.34 101 20:39 16.03.2020
6524 Rain 7 1015 94 0 1.13 32 20:20 16.03.2020
6525 Rain 7 1021 100 2000 0.5 0 19:46 16.03.2020
6526 Rain 8 1021 100 2000 0.5 0 19:24 16.03.2020
6527 Rain 7 1021 100 2000 0.5 0 18:59 16.03.2020
6528 Rain 7 1021 100 3000 1.5 0 18:39 16.03.2020
6529 Rain 7 1021 100 3000 1.5 0 18:19 16.03.2020
6530 Rain 8 1020 100 3000 0.5 0 17:46 16.03.2020
6531 Rain 7 1020 100 3000 0.5 0 17:25 16.03.2020
6532 Rain 7 1020 100 3000 1.81 90 16:56 16.03.2020
6533 Rain 7 1019 100 2000 1.5 230 16:37 16.03.2020
6534 Rain 7 1019 100 2000 1.5 230 16:19 16.03.2020
6535 Rain 7 1019 100 2000 1 0 15:42 16.03.2020
6536 Rain 7 1019 100 2000 1 0 15:23 16.03.2020
6537 Rain 7 1019 100 2000 1 0 15:23 16.03.2020
6538 Rain 8 1018 100 4000 1.5 310 14:45 16.03.2020
6539 Rain 8 1018 93 3500 2.6 250 14:20 16.03.2020
6540 Rain 8 1017 100 2500 4.6 300 13:47 16.03.2020
6541 Rain 8 1017 93 5000 5.7 320 13:27 16.03.2020
6542 Rain 8 1017 87 7000 4.1 320 12:57 16.03.2020
6543 Rain 7 1017 87 8000 3.1 320 12:38 16.03.2020
6544 Rain 8 1017 87 8000 3.1 320 12:19 16.03.2020
6545 Rain 8 1017 81 8000 2.6 80 11:42 16.03.2020
6546 Rain 8 1017 81 8000 2.6 80 11:23 16.03.2020
6547 Snow 8 1016 91 0 1.9 143 10:43 16.03.2020
6548 Snow 7 1013 98 0 1.9 143 10:24 16.03.2020
6549 Snow 8 1015 93 0 1.9 143 09:49 16.03.2020
6550 Snow 8 1012 98 0 1.9 143 09:30 16.03.2020
6551 Snow 8 1015 41 0 0.89 308 08:59 16.03.2020
6552 Snow 8 1015 41 0 1.34 301 08:36 16.03.2020
6553 Rain 8 1015 41 0 2.24 288 08:18 16.03.2020
6554 Rain 8 1014 42 0 0.89 310 07:40 16.03.2020
6555 Rain 8 1014 44 0 2.24 239 07:18 16.03.2020
6556 Rain 8 1013 46 0 2.15 159 06:28 16.03.2020
6557 Rain 8 1013 46 0 0.89 323 05:54 16.03.2020
6558 Rain 8 1012 49 0 2.98 183 03:36 16.03.2020
6559 Rain 9 1012 41 0 4.71 192 01:29 16.03.2020
6560 Rain 9 1012 41 0 4.64 191 00:43 16.03.2020
6561 Rain 9 1012 42 0 0.45 284 23:49 15.03.2020
6562 Rain 9 1012 40 0 4.64 191 23:23 15.03.2020
6563 Rain 9 1012 40 0 1.34 354 22:58 15.03.2020
6564 Rain 10 1012 39 0 0.89 246 22:37 15.03.2020
6565 Rain 10 1012 38 0 3.81 191 22:19 15.03.2020
6566 Rain 10 1013 37 0 1.34 306 21:39 15.03.2020
6567 Rain 10 1012 34 0 3.81 191 21:19 15.03.2020
6568 Rain 11 1013 32 0 3.81 191 20:43 15.03.2020
6569 Rain 11 1013 31 0 2.89 191 20:22 15.03.2020
6570 Rain 11 1013 28 0 2.24 242 19:59 15.03.2020
6571 Rain 11 1013 28 0 0.89 28 19:40 15.03.2020
6572 Rain 11 1013 26 0 2.89 191 19:22 15.03.2020
6573 Rain 11 1011 79 0 2.89 191 18:57 15.03.2020
6574 Rain 12 1011 78 0 2.89 191 18:38 15.03.2020
6575 Clouds 13 1014 58 10000 6.7 210 18:20 15.03.2020
6576 Clouds 13 1014 58 10000 6.7 210 17:42 15.03.2020
6577 Clouds 14 1014 58 10000 6.7 210 17:22 15.03.2020
6578 Clouds 15 1014 42 10000 6.7 210 16:59 15.03.2020
6579 Clouds 15 1014 42 10000 6.7 210 16:41 15.03.2020
6580 Clouds 15 1014 42 10000 6.7 210 16:22 15.03.2020
6581 Clouds 16 1014 34 10000 6.7 210 15:56 15.03.2020
6582 Clouds 16 1014 34 10000 5.7 210 15:38 15.03.2020
6583 Clouds 16 1014 34 10000 5.7 210 15:19 15.03.2020
6584 Clouds 16 1015 36 10000 5.7 210 14:40 15.03.2020
6585 Clouds 16 1015 36 10000 5.7 210 14:40 15.03.2020
6586 Clouds 16 1015 36 10000 5.7 210 14:22 15.03.2020
6587 Clouds 16 1016 39 10000 4.6 210 13:56 15.03.2020
6588 Clouds 16 1016 45 10000 4.1 230 13:38 15.03.2020
6589 Clouds 16 1016 45 10000 4.1 230 13:18 15.03.2020
6590 Clouds 16 1017 51 10000 2.6 230 12:40 15.03.2020
6591 Clouds 16 1017 51 10000 2.6 230 12:22 15.03.2020
6592 Clouds 15 1018 58 10000 1 0 11:45 15.03.2020
6593 Clouds 14 1018 58 10000 1 0 11:26 15.03.2020
6594 Clouds 13 1018 66 10000 1.5 170 10:59 15.03.2020
6595 Clouds 13 1019 66 10000 1 0 10:40 15.03.2020
6596 Clouds 12 1019 66 10000 1 0 10:22 15.03.2020
6597 Clouds 10 1019 66 10000 1 0 09:59 15.03.2020
6598 Clouds 9 1019 76 10000 1 0 09:38 15.03.2020
6599 Clouds 8 1019 76 10000 1 0 09:19 15.03.2020
6600 Clouds 6 1011 73 0 0.45 249 08:41 15.03.2020
6601 Clouds 6 1011 53 0 2.24 214 08:19 15.03.2020
6602 Clouds 4 1011 53 0 2.24 221 07:45 15.03.2020
6603 Clouds 4 1011 85 0 1.34 218 07:21 15.03.2020
6604 Clouds 5 1011 77 0 0.45 207 06:36 15.03.2020
6605 Clouds 5 1011 62 0 0.45 203 05:46 15.03.2020
6606 Clouds 6 1011 84 0 1.79 215 04:55 15.03.2020
6607 Clouds 5 1011 89 0 0.45 180 04:33 15.03.2020
6608 Clouds 6 1011 75 0 1.6 195 03:59 15.03.2020
6609 Clouds 6 1012 77 0 1.6 195 02:49 15.03.2020
6610 Clouds 6 1013 83 0 0.45 214 02:18 15.03.2020
6611 Clouds 7 1013 88 0 1.31 204 00:57 15.03.2020
6612 Clouds 7 1013 84 0 1.34 150 00:38 15.03.2020
6613 Clouds 7 1014 86 0 1.34 195 00:18 15.03.2020
6614 Clouds 8 1014 86 0 1.31 204 23:38 14.03.2020
6615 Clouds 8 1014 86 0 0.69 235 23:19 14.03.2020
6616 Clouds 8 1014 85 0 0.69 235 22:46 14.03.2020
6617 Clouds 8 1014 84 0 0.69 235 22:27 14.03.2020
6618 Clouds 8 1014 84 0 0.69 235 21:57 14.03.2020
6619 Clouds 8 1014 81 0 0.69 235 21:37 14.03.2020
6620 Clouds 8 1014 81 0 0.69 235 21:37 14.03.2020
6621 Clouds 8 1014 79 0 0.69 235 21:19 14.03.2020
6622 Clouds 8 1014 79 0 0.69 235 20:59 14.03.2020
6623 Clouds 9 1014 81 0 0.69 235 20:41 14.03.2020
6624 Clear 10 1023 31 0 0.96 238 20:20 14.03.2020
6625 Clear 10 1022 31 0 1.34 36 19:59 14.03.2020
6626 Clear 10 1014 77 0 0.96 238 19:40 14.03.2020
6627 Clear 11 1022 27 0 0.96 238 19:20 14.03.2020
6628 Clear 12 1019 74 0 0.89 136 18:39 14.03.2020
6629 Clouds 12 1017 58 10000 5.1 240 18:19 14.03.2020
6630 Clouds 13 1017 58 10000 5.1 240 17:41 14.03.2020
6631 Clouds 13 1017 58 10000 5.1 240 17:21 14.03.2020
6632 Clouds 14 1017 55 10000 5.1 230 16:57 14.03.2020
6633 Clouds 14 1017 55 10000 5.1 230 16:38 14.03.2020
6634 Clouds 14 1017 55 10000 5.1 230 16:18 14.03.2020
6635 Clouds 14 1017 55 10000 6.2 230 15:28 14.03.2020
6636 Clouds 14 1017 55 10000 5.7 230 14:59 14.03.2020
6637 Clouds 14 1018 59 10000 6.2 230 14:38 14.03.2020
6638 Clouds 13 1018 59 10000 6.2 230 14:20 14.03.2020
6639 Clouds 13 1018 62 10000 6.2 230 13:56 14.03.2020
6640 Clouds 13 1018 58 10000 5.7 230 13:38 14.03.2020
6641 Clouds 13 1018 58 10000 5.7 230 13:18 14.03.2020
6642 Clouds 12 1019 67 10000 5.1 230 12:43 14.03.2020
6643 Clouds 12 1019 67 10000 5.1 230 12:43 14.03.2020
6644 Clouds 12 1019 71 10000 3.6 230 12:24 14.03.2020
6645 Clouds 11 1020 76 10000 2.6 220 11:44 14.03.2020
6646 Clouds 12 1020 76 10000 2.6 220 11:25 14.03.2020
6647 Clouds 11 1020 87 10000 1 0 10:48 14.03.2020
6648 Clouds 10 1020 87 10000 1 0 10:28 14.03.2020
6649 Clouds 10 1020 87 10000 0.5 0 09:59 14.03.2020
6650 Fog 9 1020 100 10000 1 0 09:40 14.03.2020
6651 Fog 8 1020 100 10000 1 0 09:21 14.03.2020
6652 Clear 8 1017 83 0 0.52 244 08:46 14.03.2020
6653 Clear 8 1017 83 0 0.52 244 08:46 14.03.2020
6654 Clear 8 1017 86 0 0.47 289 08:26 14.03.2020
6655 Clouds 8 1016 92 0 2.23 25 07:40 14.03.2020
6656 Clouds 8 1016 90 0 2.23 25 07:21 14.03.2020
6657 Clouds 8 1016 90 0 2.23 25 06:55 14.03.2020
6658 Clouds 8 1016 90 0 2.23 25 06:34 14.03.2020
6659 Clouds 8 1022 34 0 1.54 16 04:55 14.03.2020
6660 Clouds 8 1015 93 0 1.54 16 03:34 14.03.2020
6661 Clouds 8 1016 93 0 1.54 16 02:48 14.03.2020
6662 Clouds 8 1016 92 0 0.92 303 01:42 14.03.2020
6663 Clouds 9 1016 92 0 0.82 287 00:23 14.03.2020
6664 Clouds 9 1016 91 0 0.82 287 23:42 13.03.2020
6665 Clouds 9 1013 85 0 0.82 287 23:22 13.03.2020
6666 Rain 9 1013 86 0 1.33 213 22:41 13.03.2020
6667 Rain 9 1016 89 0 1.33 213 22:22 13.03.2020
6668 Rain 9 1016 90 0 1.33 213 21:40 13.03.2020
6669 Rain 10 1013 84 0 1.33 213 21:19 13.03.2020
6670 Rain 10 1013 83 0 1.33 213 20:42 13.03.2020
6671 Rain 11 1013 83 0 0.45 225 20:22 13.03.2020
6672 Rain 10 1013 82 0 1.48 232 19:55 13.03.2020
6673 Rain 11 1013 82 0 1.48 232 19:36 13.03.2020
6674 Rain 11 1014 82 0 1.48 232 19:18 13.03.2020
6675 Rain 11 1013 80 0 1.48 232 18:39 13.03.2020
6676 Clouds 12 1017 59 10000 4.6 240 18:21 13.03.2020
6677 Clouds 12 1017 59 10000 4.6 240 17:42 13.03.2020
6678 Clouds 13 1017 59 10000 4.6 230 17:21 13.03.2020
6679 Clouds 13 1017 59 10000 4.6 230 16:56 13.03.2020
6680 Clouds 13 1017 59 10000 3.6 230 16:38 13.03.2020
6681 Clouds 13 1017 59 10000 3.6 230 16:19 13.03.2020
6682 Clouds 13 1018 63 10000 4.1 220 15:42 13.03.2020
6683 Clouds 13 1018 63 10000 4.1 220 15:21 13.03.2020
6684 Clouds 13 1018 59 10000 5.7 210 14:55 13.03.2020
6685 Clouds 13 1019 59 10000 5.1 220 14:36 13.03.2020
6686 Clouds 14 1019 63 10000 5.1 220 14:18 13.03.2020
6687 Clouds 14 1019 63 10000 5.7 200 13:42 13.03.2020
6688 Clouds 13 1019 63 10000 5.7 200 13:21 13.03.2020
6689 Clouds 13 1020 62 10000 4.6 230 12:57 13.03.2020
6690 Rain 12 1020 76 10000 3.1 230 12:38 13.03.2020
6691 Rain 12 1020 76 10000 3.1 230 12:19 13.03.2020
6692 Clouds 12 1020 76 10000 2.1 220 11:46 13.03.2020
6693 Clouds 11 1020 76 10000 2.1 220 11:26 13.03.2020
6694 Clouds 12 1020 82 10000 2.6 230 10:59 13.03.2020
6695 Clouds 11 1020 87 10000 1.5 210 10:41 13.03.2020
6696 Clouds 10 1020 87 10000 1.5 210 10:23 13.03.2020
6697 Fog 10 1020 100 10000 1 0 09:45 13.03.2020
6698 Rain 10 1020 100 10000 1 0 09:26 13.03.2020
6699 Rain 9 1024 41 0 0.1 169 08:48 13.03.2020
6700 Rain 9 1016 94 0 0.1 169 08:48 13.03.2020
6701 Rain 9 1015 93 0 0.1 169 08:24 13.03.2020
6702 Rain 8 1016 94 0 1.79 7 07:59 13.03.2020
6703 Rain 9 1015 94 0 1.79 7 07:38 13.03.2020
6704 Rain 9 1024 44 0 1.34 279 07:20 13.03.2020
6705 Rain 9 1014 92 0 1.79 7 06:45 13.03.2020
6706 Rain 9 1024 43 0 2.24 342 06:19 13.03.2020
6707 Rain 9 1015 92 0 1.79 7 05:43 13.03.2020
6708 Rain 10 1023 63 0 0.37 117 04:39 13.03.2020
6709 Rain 10 1015 89 0 0.37 117 03:50 13.03.2020
6710 Clouds 11 1016 86 0 0.5 204 01:48 13.03.2020
6711 Rain 10 1024 44 0 0.48 167 01:19 13.03.2020
6712 Rain 11 1017 84 0 0.48 167 00:56 13.03.2020
6713 Rain 10 1017 87 0 0.48 167 00:37 13.03.2020
6714 Rain 10 1017 84 0 0.48 167 00:18 13.03.2020
6715 Rain 10 1017 81 0 0.89 218 23:29 12.03.2020
6716 Rain 10 1017 81 0 3.13 214 22:58 12.03.2020
6717 Rain 10 1018 80 0 3.13 222 22:40 12.03.2020
6718 Rain 10 1017 79 0 2.68 179 22:22 12.03.2020
6719 Rain 10 1017 79 0 2.24 222 21:46 12.03.2020
6720 Rain 10 1017 78 0 2.24 226 21:28 12.03.2020
6721 Rain 11 1023 42 0 0.57 247 20:59 12.03.2020
6722 Rain 11 1022 93 0 0.57 247 20:40 12.03.2020
6723 Clouds 12 1017 76 0 1.79 243 20:19 12.03.2020
6724 Clouds 11 1017 78 0 1.79 208 19:42 12.03.2020
6725 Clouds 15 1018 37 10000 3.6 240 19:20 12.03.2020
6726 Clouds 15 1018 35 10000 3.6 240 18:45 12.03.2020
6727 Clouds 15 1018 35 10000 3.6 240 18:45 12.03.2020
6728 Clouds 16 1018 35 10000 3.6 240 18:25 12.03.2020
6729 Clouds 17 1018 35 10000 3.6 230 17:57 12.03.2020
6730 Clouds 17 1018 33 10000 5.1 220 17:39 12.03.2020
6731 Clouds 20 1018 33 10000 5.1 220 17:20 12.03.2020
6732 Clouds 19 1018 31 10000 5.1 210 16:55 12.03.2020
6733 Clouds 19 1018 29 10000 5.7 210 16:37 12.03.2020
6734 Clouds 18 1018 29 10000 5.7 210 16:18 12.03.2020
6735 Clouds 18 1019 29 10000 5.1 210 15:45 12.03.2020
6736 Clouds 19 1019 29 10000 5.1 210 15:26 12.03.2020
6737 Clouds 20 1020 30 10000 1.5 0 14:41 12.03.2020
6738 Clouds 21 1020 30 10000 1.5 0 14:23 12.03.2020
6739 Clouds 22 1021 32 10000 1.5 0 13:56 12.03.2020
6740 Clouds 21 1021 37 10000 1 0 13:36 12.03.2020
6741 Clouds 20 1021 37 10000 1 0 13:18 12.03.2020
6742 Clouds 19 1023 45 10000 1 0 12:41 12.03.2020
6743 Clouds 18 1023 45 10000 1 0 12:21 12.03.2020
6744 Clouds 18 1023 48 10000 0.5 0 11:56 12.03.2020
6745 Clouds 18 1023 51 10000 0.5 0 11:38 12.03.2020
6746 Clouds 15 1024 58 10000 0.5 0 11:19 12.03.2020
6747 Clouds 16 1024 58 10000 0.5 0 10:58 12.03.2020
6748 Clouds 16 1019 51 0 1.57 175 10:40 12.03.2020
6749 Clouds 15 1019 55 0 1.57 175 10:22 12.03.2020
6750 Clouds 12 1019 62 0 1.57 175 09:45 12.03.2020
6751 Clouds 11 1019 64 0 1.57 175 09:25 12.03.2020
6752 Clouds 10 1020 57 0 0.89 248 08:43 12.03.2020
6753 Clouds 9 1020 49 0 0.78 65 08:20 12.03.2020
6754 Clouds 8 1019 65 0 0.78 65 07:53 12.03.2020
6755 Clouds 8 1019 63 0 0.78 65 07:23 12.03.2020
6756 Clouds 8 1018 63 0 0.78 65 06:59 12.03.2020
6757 Clouds 8 1019 78 0 0.78 65 05:43 12.03.2020
6758 Clouds 8 1018 64 0 0.78 65 05:21 12.03.2020
6759 Clouds 9 1020 64 0 1.66 16 02:38 12.03.2020
6760 Clouds 9 1020 74 0 0.81 19 01:31 12.03.2020
6761 Clouds 9 1021 77 0 0.45 215 00:44 12.03.2020
6762 Clouds 9 1021 77 0 0.78 13 00:24 12.03.2020
6763 Clouds 9 1021 76 0 0.78 13 23:42 11.03.2020
6764 Clouds 9 1021 79 0 1.34 195 23:23 11.03.2020
6765 Clouds 9 1021 76 0 0.45 194 22:45 11.03.2020
6766 Clouds 10 1021 76 0 1.09 20 22:27 11.03.2020
6767 Clouds 9 1021 80 0 0.45 222 21:59 11.03.2020
6768 Clouds 10 1021 78 0 0.89 180 21:41 11.03.2020
6769 Clouds 9 1021 78 0 1.34 207 21:22 11.03.2020
6770 Clouds 10 1021 79 0 0.45 208 20:58 11.03.2020
6771 Clouds 10 1021 78 0 1.34 195 20:38 11.03.2020
6772 Clear 11 1024 18 0 0.33 226 20:19 11.03.2020
6773 Clear 12 1024 17 0 0.33 226 19:43 11.03.2020
6774 Clear 15 1020 47 0 1.79 23 19:25 11.03.2020
6775 Clear 15 1019 46 0 0.45 113 18:57 11.03.2020
6776 Clear 16 1019 44 0 0.89 116 18:38 11.03.2020
6777 Clear 17 1022 77 0 0.33 226 18:20 11.03.2020
6778 Clear 19 1020 38 0 1.34 158 17:55 11.03.2020
6779 Clear 18 1020 37 0 1.79 180 17:37 11.03.2020
6780 Clear 19 1023 53 0 2.68 45 17:19 11.03.2020
6781 Clear 19 1019 31 0 0.89 103 16:44 11.03.2020
6782 Clear 20 1020 28 0 1.34 309 16:20 11.03.2020
6783 Clear 20 1019 26 0 1.34 97 15:44 11.03.2020
6784 Clear 20 1019 26 0 0.45 75 15:23 11.03.2020
6785 Clear 20 1019 28 0 0.89 91 14:56 11.03.2020
6786 Clear 20 1020 29 0 1.34 88 14:37 11.03.2020
6787 Clear 19 1020 27